<?xml version="1.0" encoding="UTF-8" standalone="no" ?>
<gpx xmlns="http://www.topografix.com/GPX/1/1" xmlns:xsi="http://www.w3.org/2001/XMLSchema-instance" xsi:schemaLocation="http://www.topografix.com/GPX/1/1 http://www.topografix.com/GPX/1/1/gpx.xsd" version="1.1" creator="VisuGPX - https://www.visugpx.com">
  <metadata>
    <name>18 km Porte rouge Saint Romain de colbosc</name>
    <desc><![CDATA[Route, chemins, foret, plaine.... boucle avec possibilité d\'arrêt à 10 km]]></desc>
  </metadata>
  <wpt lat="49.5252" lon="0.36452">
    <ele>95.4</ele>
    <name><![CDATA[24/01/2015 1:45 PM (départ)]]></name>
  </wpt>
  <wpt lat="49.52525" lon="0.36575">
    <ele>110.2</ele>
    <name><![CDATA[24/01/2015 1:45 PM (fin)]]></name>
  </wpt>
  <trk>
    <name><![CDATA[24/01/2015 1:45 PM]]></name>
    <trkseg>
      <trkpt lat="49.5252" lon="0.36452">
        <ele>95.400001526</ele>
        <time>2015-01-24T12:45:36Z</time>
      </trkpt>
      <trkpt lat="49.52525" lon="0.36441">
        <ele>102.5</ele>
        <time>2015-01-24T12:45:58Z</time>
      </trkpt>
      <trkpt lat="49.52528" lon="0.3644">
        <ele>103.400001526</ele>
        <time>2015-01-24T12:45:59Z</time>
      </trkpt>
      <trkpt lat="49.52533" lon="0.36431">
        <ele>102.300003052</ele>
        <time>2015-01-24T12:46:05Z</time>
      </trkpt>
      <trkpt lat="49.52534" lon="0.36429">
        <ele>101.599998474</ele>
        <time>2015-01-24T12:46:06Z</time>
      </trkpt>
      <trkpt lat="49.5254" lon="0.3642">
        <ele>100.900001526</ele>
        <time>2015-01-24T12:46:13Z</time>
      </trkpt>
      <trkpt lat="49.52541" lon="0.36418">
        <ele>101.300003052</ele>
        <time>2015-01-24T12:46:14Z</time>
      </trkpt>
      <trkpt lat="49.52545" lon="0.36407">
        <ele>101.199996948</ele>
        <time>2015-01-24T12:46:21Z</time>
      </trkpt>
      <trkpt lat="49.52546" lon="0.36404">
        <ele>101</ele>
        <time>2015-01-24T12:46:22Z</time>
      </trkpt>
      <trkpt lat="49.52551" lon="0.36394">
        <ele>100.5</ele>
        <time>2015-01-24T12:46:29Z</time>
      </trkpt>
      <trkpt lat="49.52552" lon="0.36392">
        <ele>100.5</ele>
        <time>2015-01-24T12:46:30Z</time>
      </trkpt>
      <trkpt lat="49.52558" lon="0.36382">
        <ele>101.599998474</ele>
        <time>2015-01-24T12:46:36Z</time>
      </trkpt>
      <trkpt lat="49.52559" lon="0.36381">
        <ele>101.699996948</ele>
        <time>2015-01-24T12:46:37Z</time>
      </trkpt>
      <trkpt lat="49.52564" lon="0.36371">
        <ele>102</ele>
        <time>2015-01-24T12:46:42Z</time>
      </trkpt>
      <trkpt lat="49.52565" lon="0.3637">
        <ele>102</ele>
        <time>2015-01-24T12:46:43Z</time>
      </trkpt>
      <trkpt lat="49.5257" lon="0.3636">
        <ele>101.300003052</ele>
        <time>2015-01-24T12:46:50Z</time>
      </trkpt>
      <trkpt lat="49.52571" lon="0.36359">
        <ele>101.300003052</ele>
        <time>2015-01-24T12:46:51Z</time>
      </trkpt>
      <trkpt lat="49.52577" lon="0.36351">
        <ele>102.199996948</ele>
        <time>2015-01-24T12:46:58Z</time>
      </trkpt>
      <trkpt lat="49.52578" lon="0.36349">
        <ele>102.199996948</ele>
        <time>2015-01-24T12:46:59Z</time>
      </trkpt>
      <trkpt lat="49.52581" lon="0.36338">
        <ele>102.099998474</ele>
        <time>2015-01-24T12:47:05Z</time>
      </trkpt>
      <trkpt lat="49.52582" lon="0.36336">
        <ele>102.300003052</ele>
        <time>2015-01-24T12:47:06Z</time>
      </trkpt>
      <trkpt lat="49.52588" lon="0.36326">
        <ele>102.800003052</ele>
        <time>2015-01-24T12:47:13Z</time>
      </trkpt>
      <trkpt lat="49.52589" lon="0.36325">
        <ele>102.900001526</ele>
        <time>2015-01-24T12:47:14Z</time>
      </trkpt>
      <trkpt lat="49.52594" lon="0.36316">
        <ele>102.699996948</ele>
        <time>2015-01-24T12:47:20Z</time>
      </trkpt>
      <trkpt lat="49.52595" lon="0.36314">
        <ele>102.900001526</ele>
        <time>2015-01-24T12:47:21Z</time>
      </trkpt>
      <trkpt lat="49.52601" lon="0.36305">
        <ele>103.199996948</ele>
        <time>2015-01-24T12:47:28Z</time>
      </trkpt>
      <trkpt lat="49.52602" lon="0.36304">
        <ele>103.199996948</ele>
        <time>2015-01-24T12:47:29Z</time>
      </trkpt>
      <trkpt lat="49.52608" lon="0.36295">
        <ele>103.800003052</ele>
        <time>2015-01-24T12:47:36Z</time>
      </trkpt>
      <trkpt lat="49.52609" lon="0.36294">
        <ele>104</ele>
        <time>2015-01-24T12:47:37Z</time>
      </trkpt>
      <trkpt lat="49.52615" lon="0.36283">
        <ele>104.5</ele>
        <time>2015-01-24T12:47:43Z</time>
      </trkpt>
      <trkpt lat="49.52616" lon="0.36281">
        <ele>104.5</ele>
        <time>2015-01-24T12:47:44Z</time>
      </trkpt>
      <trkpt lat="49.52622" lon="0.36271">
        <ele>105.300003052</ele>
        <time>2015-01-24T12:47:52Z</time>
      </trkpt>
      <trkpt lat="49.52622" lon="0.3627">
        <ele>105.400001526</ele>
        <time>2015-01-24T12:47:52Z</time>
      </trkpt>
      <trkpt lat="49.52629" lon="0.36261">
        <ele>105.699996948</ele>
        <time>2015-01-24T12:47:59Z</time>
      </trkpt>
      <trkpt lat="49.5263" lon="0.3626">
        <ele>105.699996948</ele>
        <time>2015-01-24T12:48:00Z</time>
      </trkpt>
      <trkpt lat="49.52635" lon="0.3625">
        <ele>105.5</ele>
        <time>2015-01-24T12:48:06Z</time>
      </trkpt>
      <trkpt lat="49.52636" lon="0.36249">
        <ele>105.5</ele>
        <time>2015-01-24T12:48:07Z</time>
      </trkpt>
      <trkpt lat="49.52641" lon="0.3624">
        <ele>105.599998474</ele>
        <time>2015-01-24T12:48:13Z</time>
      </trkpt>
      <trkpt lat="49.52642" lon="0.36238">
        <ele>105.599998474</ele>
        <time>2015-01-24T12:48:14Z</time>
      </trkpt>
      <trkpt lat="49.52648" lon="0.36228">
        <ele>105.5</ele>
        <time>2015-01-24T12:48:21Z</time>
      </trkpt>
      <trkpt lat="49.52649" lon="0.36227">
        <ele>105.5</ele>
        <time>2015-01-24T12:48:22Z</time>
      </trkpt>
      <trkpt lat="49.52655" lon="0.36219">
        <ele>105.400001526</ele>
        <time>2015-01-24T12:48:28Z</time>
      </trkpt>
      <trkpt lat="49.52656" lon="0.36217">
        <ele>105.5</ele>
        <time>2015-01-24T12:48:29Z</time>
      </trkpt>
      <trkpt lat="49.52661" lon="0.36206">
        <ele>105.599998474</ele>
        <time>2015-01-24T12:48:37Z</time>
      </trkpt>
      <trkpt lat="49.52661" lon="0.36205">
        <ele>105.599998474</ele>
        <time>2015-01-24T12:48:37Z</time>
      </trkpt>
      <trkpt lat="49.52666" lon="0.36193">
        <ele>105.300003052</ele>
        <time>2015-01-24T12:48:44Z</time>
      </trkpt>
      <trkpt lat="49.52666" lon="0.36192">
        <ele>105.300003052</ele>
        <time>2015-01-24T12:48:45Z</time>
      </trkpt>
      <trkpt lat="49.52672" lon="0.36182">
        <ele>105</ele>
        <time>2015-01-24T12:48:52Z</time>
      </trkpt>
      <trkpt lat="49.52673" lon="0.36181">
        <ele>105.099998474</ele>
        <time>2015-01-24T12:48:52Z</time>
      </trkpt>
      <trkpt lat="49.5268" lon="0.36172">
        <ele>104.5</ele>
        <time>2015-01-24T12:48:59Z</time>
      </trkpt>
      <trkpt lat="49.52681" lon="0.36172">
        <ele>104.300003052</ele>
        <time>2015-01-24T12:49:00Z</time>
      </trkpt>
      <trkpt lat="49.52686" lon="0.36161">
        <ele>103.099998474</ele>
        <time>2015-01-24T12:49:07Z</time>
      </trkpt>
      <trkpt lat="49.52687" lon="0.3616">
        <ele>102.900001526</ele>
        <time>2015-01-24T12:49:08Z</time>
      </trkpt>
      <trkpt lat="49.52693" lon="0.36152">
        <ele>102.199996948</ele>
        <time>2015-01-24T12:49:14Z</time>
      </trkpt>
      <trkpt lat="49.52693" lon="0.36149">
        <ele>102.099998474</ele>
        <time>2015-01-24T12:49:15Z</time>
      </trkpt>
      <trkpt lat="49.52698" lon="0.36139">
        <ele>101.800003052</ele>
        <time>2015-01-24T12:49:20Z</time>
      </trkpt>
      <trkpt lat="49.52699" lon="0.36137">
        <ele>101.800003052</ele>
        <time>2015-01-24T12:49:21Z</time>
      </trkpt>
      <trkpt lat="49.52705" lon="0.36128">
        <ele>102.300003052</ele>
        <time>2015-01-24T12:49:27Z</time>
      </trkpt>
      <trkpt lat="49.52706" lon="0.36126">
        <ele>102.300003052</ele>
        <time>2015-01-24T12:49:28Z</time>
      </trkpt>
      <trkpt lat="49.52714" lon="0.36119">
        <ele>102.699996948</ele>
        <time>2015-01-24T12:49:34Z</time>
      </trkpt>
      <trkpt lat="49.52715" lon="0.36118">
        <ele>102.900001526</ele>
        <time>2015-01-24T12:49:35Z</time>
      </trkpt>
      <trkpt lat="49.52718" lon="0.36106">
        <ele>103.599998474</ele>
        <time>2015-01-24T12:49:41Z</time>
      </trkpt>
      <trkpt lat="49.52719" lon="0.36105">
        <ele>103.599998474</ele>
        <time>2015-01-24T12:49:42Z</time>
      </trkpt>
      <trkpt lat="49.52723" lon="0.36094">
        <ele>103.400001526</ele>
        <time>2015-01-24T12:49:48Z</time>
      </trkpt>
      <trkpt lat="49.52724" lon="0.36093">
        <ele>103.400001526</ele>
        <time>2015-01-24T12:49:49Z</time>
      </trkpt>
      <trkpt lat="49.5273" lon="0.36084">
        <ele>104.099998474</ele>
        <time>2015-01-24T12:49:57Z</time>
      </trkpt>
      <trkpt lat="49.52731" lon="0.36083">
        <ele>104.099998474</ele>
        <time>2015-01-24T12:49:58Z</time>
      </trkpt>
      <trkpt lat="49.52736" lon="0.36072">
        <ele>104</ele>
        <time>2015-01-24T12:50:03Z</time>
      </trkpt>
      <trkpt lat="49.52738" lon="0.36071">
        <ele>104</ele>
        <time>2015-01-24T12:50:04Z</time>
      </trkpt>
      <trkpt lat="49.52745" lon="0.36062">
        <ele>103.900001526</ele>
        <time>2015-01-24T12:50:10Z</time>
      </trkpt>
      <trkpt lat="49.52745" lon="0.3606">
        <ele>103.900001526</ele>
        <time>2015-01-24T12:50:11Z</time>
      </trkpt>
      <trkpt lat="49.52749" lon="0.36051">
        <ele>104.199996948</ele>
        <time>2015-01-24T12:50:17Z</time>
      </trkpt>
      <trkpt lat="49.5275" lon="0.36049">
        <ele>104.400001526</ele>
        <time>2015-01-24T12:50:18Z</time>
      </trkpt>
      <trkpt lat="49.52754" lon="0.36038">
        <ele>105.400001526</ele>
        <time>2015-01-24T12:50:25Z</time>
      </trkpt>
      <trkpt lat="49.52756" lon="0.36037">
        <ele>105.5</ele>
        <time>2015-01-24T12:50:26Z</time>
      </trkpt>
      <trkpt lat="49.52763" lon="0.3603">
        <ele>106.099998474</ele>
        <time>2015-01-24T12:50:33Z</time>
      </trkpt>
      <trkpt lat="49.52765" lon="0.36029">
        <ele>106.099998474</ele>
        <time>2015-01-24T12:50:34Z</time>
      </trkpt>
      <trkpt lat="49.52771" lon="0.3602">
        <ele>106.5</ele>
        <time>2015-01-24T12:50:42Z</time>
      </trkpt>
      <trkpt lat="49.52772" lon="0.36019">
        <ele>106.5</ele>
        <time>2015-01-24T12:50:42Z</time>
      </trkpt>
      <trkpt lat="49.52772" lon="0.36006">
        <ele>108.199996948</ele>
        <time>2015-01-24T12:50:46Z</time>
      </trkpt>
      <trkpt lat="49.52772" lon="0.36002">
        <ele>108.5</ele>
        <time>2015-01-24T12:50:47Z</time>
      </trkpt>
      <trkpt lat="49.52778" lon="0.35994">
        <ele>108.699996948</ele>
        <time>2015-01-24T12:50:54Z</time>
      </trkpt>
      <trkpt lat="49.52779" lon="0.35993">
        <ele>108.800003052</ele>
        <time>2015-01-24T12:50:55Z</time>
      </trkpt>
      <trkpt lat="49.52786" lon="0.35984">
        <ele>108.5</ele>
        <time>2015-01-24T12:51:04Z</time>
      </trkpt>
      <trkpt lat="49.52789" lon="0.35984">
        <ele>108.599998474</ele>
        <time>2015-01-24T12:51:05Z</time>
      </trkpt>
      <trkpt lat="49.52796" lon="0.35977">
        <ele>109</ele>
        <time>2015-01-24T12:51:11Z</time>
      </trkpt>
      <trkpt lat="49.52797" lon="0.35976">
        <ele>108.900001526</ele>
        <time>2015-01-24T12:51:12Z</time>
      </trkpt>
      <trkpt lat="49.52803" lon="0.35969">
        <ele>109.699996948</ele>
        <time>2015-01-24T12:51:20Z</time>
      </trkpt>
      <trkpt lat="49.52805" lon="0.35967">
        <ele>109.800003052</ele>
        <time>2015-01-24T12:51:21Z</time>
      </trkpt>
      <trkpt lat="49.52807" lon="0.35956">
        <ele>110.900001526</ele>
        <time>2015-01-24T12:51:25Z</time>
      </trkpt>
      <trkpt lat="49.52808" lon="0.35954">
        <ele>111.300003052</ele>
        <time>2015-01-24T12:51:26Z</time>
      </trkpt>
      <trkpt lat="49.52814" lon="0.35945">
        <ele>113</ele>
        <time>2015-01-24T12:51:32Z</time>
      </trkpt>
      <trkpt lat="49.52816" lon="0.35945">
        <ele>113.099998474</ele>
        <time>2015-01-24T12:51:33Z</time>
      </trkpt>
      <trkpt lat="49.52823" lon="0.35938">
        <ele>113.800003052</ele>
        <time>2015-01-24T12:51:39Z</time>
      </trkpt>
      <trkpt lat="49.52824" lon="0.35938">
        <ele>114</ele>
        <time>2015-01-24T12:51:40Z</time>
      </trkpt>
      <trkpt lat="49.5283" lon="0.3593">
        <ele>115.199996948</ele>
        <time>2015-01-24T12:51:45Z</time>
      </trkpt>
      <trkpt lat="49.52831" lon="0.35928">
        <ele>115.400001526</ele>
        <time>2015-01-24T12:51:46Z</time>
      </trkpt>
      <trkpt lat="49.52837" lon="0.35918">
        <ele>116.900001526</ele>
        <time>2015-01-24T12:51:53Z</time>
      </trkpt>
      <trkpt lat="49.52838" lon="0.35918">
        <ele>117.199996948</ele>
        <time>2015-01-24T12:51:54Z</time>
      </trkpt>
      <trkpt lat="49.52845" lon="0.35909">
        <ele>118.300003052</ele>
        <time>2015-01-24T12:52:01Z</time>
      </trkpt>
      <trkpt lat="49.52846" lon="0.35909">
        <ele>118.300003052</ele>
        <time>2015-01-24T12:52:02Z</time>
      </trkpt>
      <trkpt lat="49.52854" lon="0.35908">
        <ele>118.099998474</ele>
        <time>2015-01-24T12:52:06Z</time>
      </trkpt>
      <trkpt lat="49.52855" lon="0.35909">
        <ele>118</ele>
        <time>2015-01-24T12:52:07Z</time>
      </trkpt>
      <trkpt lat="49.52863" lon="0.35901">
        <ele>118</ele>
        <time>2015-01-24T12:52:14Z</time>
      </trkpt>
      <trkpt lat="49.52864" lon="0.359">
        <ele>118</ele>
        <time>2015-01-24T12:52:15Z</time>
      </trkpt>
      <trkpt lat="49.52869" lon="0.3589">
        <ele>118.300003052</ele>
        <time>2015-01-24T12:52:21Z</time>
      </trkpt>
      <trkpt lat="49.5287" lon="0.35889">
        <ele>118.300003052</ele>
        <time>2015-01-24T12:52:22Z</time>
      </trkpt>
      <trkpt lat="49.52874" lon="0.35877">
        <ele>118.199996948</ele>
        <time>2015-01-24T12:52:29Z</time>
      </trkpt>
      <trkpt lat="49.52874" lon="0.35875">
        <ele>118.099998474</ele>
        <time>2015-01-24T12:52:30Z</time>
      </trkpt>
      <trkpt lat="49.52873" lon="0.35862">
        <ele>119.5</ele>
        <time>2015-01-24T12:52:35Z</time>
      </trkpt>
      <trkpt lat="49.52875" lon="0.35861">
        <ele>119.400001526</ele>
        <time>2015-01-24T12:52:36Z</time>
      </trkpt>
      <trkpt lat="49.5288" lon="0.3585">
        <ele>119</ele>
        <time>2015-01-24T12:52:45Z</time>
      </trkpt>
      <trkpt lat="49.52881" lon="0.3585">
        <ele>118.900001526</ele>
        <time>2015-01-24T12:52:46Z</time>
      </trkpt>
      <trkpt lat="49.52888" lon="0.35847">
        <ele>118.300003052</ele>
        <time>2015-01-24T12:52:58Z</time>
      </trkpt>
      <trkpt lat="49.52889" lon="0.35847">
        <ele>118.199996948</ele>
        <time>2015-01-24T12:52:59Z</time>
      </trkpt>
      <trkpt lat="49.52893" lon="0.35834">
        <ele>118.400001526</ele>
        <time>2015-01-24T12:53:07Z</time>
      </trkpt>
      <trkpt lat="49.52892" lon="0.35832">
        <ele>118.300003052</ele>
        <time>2015-01-24T12:53:08Z</time>
      </trkpt>
      <trkpt lat="49.52898" lon="0.35827">
        <ele>118.599998474</ele>
        <time>2015-01-24T12:53:11Z</time>
      </trkpt>
      <trkpt lat="49.52901" lon="0.35825">
        <ele>118.900001526</ele>
        <time>2015-01-24T12:53:12Z</time>
      </trkpt>
      <trkpt lat="49.52904" lon="0.35817">
        <ele>119.099998474</ele>
        <time>2015-01-24T12:53:14Z</time>
      </trkpt>
      <trkpt lat="49.52905" lon="0.35812">
        <ele>119.199996948</ele>
        <time>2015-01-24T12:53:15Z</time>
      </trkpt>
      <trkpt lat="49.52911" lon="0.35805">
        <ele>119.599998474</ele>
        <time>2015-01-24T12:53:23Z</time>
      </trkpt>
      <trkpt lat="49.52912" lon="0.35804">
        <ele>119.5</ele>
        <time>2015-01-24T12:53:24Z</time>
      </trkpt>
      <trkpt lat="49.5292" lon="0.35799">
        <ele>118.800003052</ele>
        <time>2015-01-24T12:53:32Z</time>
      </trkpt>
      <trkpt lat="49.52921" lon="0.35798">
        <ele>118.699996948</ele>
        <time>2015-01-24T12:53:33Z</time>
      </trkpt>
      <trkpt lat="49.52927" lon="0.35787">
        <ele>117.5</ele>
        <time>2015-01-24T12:53:42Z</time>
      </trkpt>
      <trkpt lat="49.52927" lon="0.35786">
        <ele>117.400001526</ele>
        <time>2015-01-24T12:53:43Z</time>
      </trkpt>
      <trkpt lat="49.52931" lon="0.35774">
        <ele>116.599998474</ele>
        <time>2015-01-24T12:53:54Z</time>
      </trkpt>
      <trkpt lat="49.52931" lon="0.35772">
        <ele>116.599998474</ele>
        <time>2015-01-24T12:53:55Z</time>
      </trkpt>
      <trkpt lat="49.52928" lon="0.35761">
        <ele>116.099998474</ele>
        <time>2015-01-24T12:54:01Z</time>
      </trkpt>
      <trkpt lat="49.52927" lon="0.35759">
        <ele>116.099998474</ele>
        <time>2015-01-24T12:54:02Z</time>
      </trkpt>
      <trkpt lat="49.52928" lon="0.35746">
        <ele>115.699996948</ele>
        <time>2015-01-24T12:54:10Z</time>
      </trkpt>
      <trkpt lat="49.52928" lon="0.35744">
        <ele>115.699996948</ele>
        <time>2015-01-24T12:54:11Z</time>
      </trkpt>
      <trkpt lat="49.52934" lon="0.35737">
        <ele>115.5</ele>
        <time>2015-01-24T12:54:17Z</time>
      </trkpt>
      <trkpt lat="49.52936" lon="0.35735">
        <ele>115.5</ele>
        <time>2015-01-24T12:54:18Z</time>
      </trkpt>
      <trkpt lat="49.52939" lon="0.35724">
        <ele>115.900001526</ele>
        <time>2015-01-24T12:54:23Z</time>
      </trkpt>
      <trkpt lat="49.5294" lon="0.35722">
        <ele>115.800003052</ele>
        <time>2015-01-24T12:54:24Z</time>
      </trkpt>
      <trkpt lat="49.52947" lon="0.35714">
        <ele>114.900001526</ele>
        <time>2015-01-24T12:54:31Z</time>
      </trkpt>
      <trkpt lat="49.52947" lon="0.35714">
        <ele>114.800003052</ele>
        <time>2015-01-24T12:54:32Z</time>
      </trkpt>
      <trkpt lat="49.52954" lon="0.35706">
        <ele>114.199996948</ele>
        <time>2015-01-24T12:54:41Z</time>
      </trkpt>
      <trkpt lat="49.52955" lon="0.35706">
        <ele>114</ele>
        <time>2015-01-24T12:54:42Z</time>
      </trkpt>
      <trkpt lat="49.52963" lon="0.35701">
        <ele>113.099998474</ele>
        <time>2015-01-24T12:54:48Z</time>
      </trkpt>
      <trkpt lat="49.52964" lon="0.35701">
        <ele>112.900001526</ele>
        <time>2015-01-24T12:54:49Z</time>
      </trkpt>
      <trkpt lat="49.5297" lon="0.35692">
        <ele>111.900001526</ele>
        <time>2015-01-24T12:54:57Z</time>
      </trkpt>
      <trkpt lat="49.52971" lon="0.35691">
        <ele>111.800003052</ele>
        <time>2015-01-24T12:54:57Z</time>
      </trkpt>
      <trkpt lat="49.52978" lon="0.35684">
        <ele>111</ele>
        <time>2015-01-24T12:55:03Z</time>
      </trkpt>
      <trkpt lat="49.52979" lon="0.35683">
        <ele>110.800003052</ele>
        <time>2015-01-24T12:55:04Z</time>
      </trkpt>
      <trkpt lat="49.52986" lon="0.35679">
        <ele>109.199996948</ele>
        <time>2015-01-24T12:55:13Z</time>
      </trkpt>
      <trkpt lat="49.52987" lon="0.35678">
        <ele>109.099998474</ele>
        <time>2015-01-24T12:55:14Z</time>
      </trkpt>
      <trkpt lat="49.52995" lon="0.35674">
        <ele>108.599998474</ele>
        <time>2015-01-24T12:55:19Z</time>
      </trkpt>
      <trkpt lat="49.52996" lon="0.35673">
        <ele>108.400001526</ele>
        <time>2015-01-24T12:55:20Z</time>
      </trkpt>
      <trkpt lat="49.53003" lon="0.35666">
        <ele>107.400001526</ele>
        <time>2015-01-24T12:55:27Z</time>
      </trkpt>
      <trkpt lat="49.53005" lon="0.35665">
        <ele>107.300003052</ele>
        <time>2015-01-24T12:55:28Z</time>
      </trkpt>
      <trkpt lat="49.53012" lon="0.3566">
        <ele>106.599998474</ele>
        <time>2015-01-24T12:55:34Z</time>
      </trkpt>
      <trkpt lat="49.53013" lon="0.35659">
        <ele>106.5</ele>
        <time>2015-01-24T12:55:35Z</time>
      </trkpt>
      <trkpt lat="49.53015" lon="0.35648">
        <ele>106.5</ele>
        <time>2015-01-24T12:55:40Z</time>
      </trkpt>
      <trkpt lat="49.53016" lon="0.35645">
        <ele>106.699996948</ele>
        <time>2015-01-24T12:55:41Z</time>
      </trkpt>
      <trkpt lat="49.53023" lon="0.35641">
        <ele>106.5</ele>
        <time>2015-01-24T12:55:47Z</time>
      </trkpt>
      <trkpt lat="49.53026" lon="0.3564">
        <ele>106.400001526</ele>
        <time>2015-01-24T12:55:48Z</time>
      </trkpt>
      <trkpt lat="49.53033" lon="0.35639">
        <ele>105.800003052</ele>
        <time>2015-01-24T12:55:53Z</time>
      </trkpt>
      <trkpt lat="49.53035" lon="0.35639">
        <ele>105.699996948</ele>
        <time>2015-01-24T12:55:54Z</time>
      </trkpt>
      <trkpt lat="49.53043" lon="0.35635">
        <ele>105.699996948</ele>
        <time>2015-01-24T12:56:00Z</time>
      </trkpt>
      <trkpt lat="49.53044" lon="0.35634">
        <ele>105.699996948</ele>
        <time>2015-01-24T12:56:01Z</time>
      </trkpt>
      <trkpt lat="49.53051" lon="0.35627">
        <ele>105.800003052</ele>
        <time>2015-01-24T12:56:08Z</time>
      </trkpt>
      <trkpt lat="49.53052" lon="0.35626">
        <ele>105.800003052</ele>
        <time>2015-01-24T12:56:09Z</time>
      </trkpt>
      <trkpt lat="49.53057" lon="0.35616">
        <ele>104.300003052</ele>
        <time>2015-01-24T12:56:19Z</time>
      </trkpt>
      <trkpt lat="49.53058" lon="0.35615">
        <ele>104.199996948</ele>
        <time>2015-01-24T12:56:20Z</time>
      </trkpt>
      <trkpt lat="49.53063" lon="0.35604">
        <ele>102.900001526</ele>
        <time>2015-01-24T12:56:29Z</time>
      </trkpt>
      <trkpt lat="49.53064" lon="0.35602">
        <ele>102.800003052</ele>
        <time>2015-01-24T12:56:30Z</time>
      </trkpt>
      <trkpt lat="49.53068" lon="0.3559">
        <ele>101.800003052</ele>
        <time>2015-01-24T12:56:37Z</time>
      </trkpt>
      <trkpt lat="49.5307" lon="0.35589">
        <ele>101.699996948</ele>
        <time>2015-01-24T12:56:37Z</time>
      </trkpt>
      <trkpt lat="49.53076" lon="0.35579">
        <ele>100.900001526</ele>
        <time>2015-01-24T12:56:42Z</time>
      </trkpt>
      <trkpt lat="49.53076" lon="0.35577">
        <ele>100.699996948</ele>
        <time>2015-01-24T12:56:43Z</time>
      </trkpt>
      <trkpt lat="49.53082" lon="0.35568">
        <ele>100.099998474</ele>
        <time>2015-01-24T12:56:48Z</time>
      </trkpt>
      <trkpt lat="49.53083" lon="0.35567">
        <ele>100.099998474</ele>
        <time>2015-01-24T12:56:49Z</time>
      </trkpt>
      <trkpt lat="49.53087" lon="0.35557">
        <ele>99.699996948</ele>
        <time>2015-01-24T12:56:54Z</time>
      </trkpt>
      <trkpt lat="49.53088" lon="0.35555">
        <ele>99.599998474</ele>
        <time>2015-01-24T12:56:55Z</time>
      </trkpt>
      <trkpt lat="49.53091" lon="0.35542">
        <ele>99.300003052</ele>
        <time>2015-01-24T12:57:02Z</time>
      </trkpt>
      <trkpt lat="49.53091" lon="0.35541">
        <ele>99.5</ele>
        <time>2015-01-24T12:57:03Z</time>
      </trkpt>
      <trkpt lat="49.53093" lon="0.35529">
        <ele>99.599998474</ele>
        <time>2015-01-24T12:57:09Z</time>
      </trkpt>
      <trkpt lat="49.53094" lon="0.35527">
        <ele>99.699996948</ele>
        <time>2015-01-24T12:57:10Z</time>
      </trkpt>
      <trkpt lat="49.53098" lon="0.35516">
        <ele>99.900001526</ele>
        <time>2015-01-24T12:57:18Z</time>
      </trkpt>
      <trkpt lat="49.53098" lon="0.35514">
        <ele>99.900001526</ele>
        <time>2015-01-24T12:57:19Z</time>
      </trkpt>
      <trkpt lat="49.531" lon="0.35501">
        <ele>99.400001526</ele>
        <time>2015-01-24T12:57:25Z</time>
      </trkpt>
      <trkpt lat="49.53101" lon="0.35499">
        <ele>99.300003052</ele>
        <time>2015-01-24T12:57:26Z</time>
      </trkpt>
      <trkpt lat="49.53104" lon="0.35487">
        <ele>98.400001526</ele>
        <time>2015-01-24T12:57:33Z</time>
      </trkpt>
      <trkpt lat="49.53105" lon="0.35485">
        <ele>98.300003052</ele>
        <time>2015-01-24T12:57:34Z</time>
      </trkpt>
      <trkpt lat="49.5311" lon="0.35476">
        <ele>97.400001526</ele>
        <time>2015-01-24T12:57:41Z</time>
      </trkpt>
      <trkpt lat="49.53111" lon="0.35474">
        <ele>97.300003052</ele>
        <time>2015-01-24T12:57:42Z</time>
      </trkpt>
      <trkpt lat="49.53115" lon="0.35462">
        <ele>96.599998474</ele>
        <time>2015-01-24T12:57:50Z</time>
      </trkpt>
      <trkpt lat="49.53115" lon="0.35461">
        <ele>96.599998474</ele>
        <time>2015-01-24T12:57:51Z</time>
      </trkpt>
      <trkpt lat="49.53116" lon="0.35447">
        <ele>96.699996948</ele>
        <time>2015-01-24T12:57:58Z</time>
      </trkpt>
      <trkpt lat="49.53117" lon="0.35445">
        <ele>96.699996948</ele>
        <time>2015-01-24T12:57:59Z</time>
      </trkpt>
      <trkpt lat="49.53122" lon="0.35435">
        <ele>96.800003052</ele>
        <time>2015-01-24T12:58:06Z</time>
      </trkpt>
      <trkpt lat="49.53122" lon="0.35433">
        <ele>96.900001526</ele>
        <time>2015-01-24T12:58:07Z</time>
      </trkpt>
      <trkpt lat="49.53128" lon="0.35425">
        <ele>96.599998474</ele>
        <time>2015-01-24T12:58:13Z</time>
      </trkpt>
      <trkpt lat="49.53129" lon="0.35423">
        <ele>96.400001526</ele>
        <time>2015-01-24T12:58:14Z</time>
      </trkpt>
      <trkpt lat="49.53132" lon="0.35412">
        <ele>95.900001526</ele>
        <time>2015-01-24T12:58:20Z</time>
      </trkpt>
      <trkpt lat="49.53133" lon="0.35411">
        <ele>95.900001526</ele>
        <time>2015-01-24T12:58:21Z</time>
      </trkpt>
      <trkpt lat="49.53137" lon="0.354">
        <ele>96.5</ele>
        <time>2015-01-24T12:58:27Z</time>
      </trkpt>
      <trkpt lat="49.5314" lon="0.35399">
        <ele>96.5</ele>
        <time>2015-01-24T12:58:27Z</time>
      </trkpt>
      <trkpt lat="49.53142" lon="0.35387">
        <ele>96.699996948</ele>
        <time>2015-01-24T12:58:33Z</time>
      </trkpt>
      <trkpt lat="49.53142" lon="0.35385">
        <ele>96.800003052</ele>
        <time>2015-01-24T12:58:34Z</time>
      </trkpt>
      <trkpt lat="49.53146" lon="0.35374">
        <ele>97.800003052</ele>
        <time>2015-01-24T12:58:40Z</time>
      </trkpt>
      <trkpt lat="49.53147" lon="0.35372">
        <ele>97.900001526</ele>
        <time>2015-01-24T12:58:41Z</time>
      </trkpt>
      <trkpt lat="49.53151" lon="0.3536">
        <ele>98.699996948</ele>
        <time>2015-01-24T12:58:48Z</time>
      </trkpt>
      <trkpt lat="49.53151" lon="0.35358">
        <ele>98.800003052</ele>
        <time>2015-01-24T12:58:49Z</time>
      </trkpt>
      <trkpt lat="49.53153" lon="0.35345">
        <ele>100.400001526</ele>
        <time>2015-01-24T12:58:56Z</time>
      </trkpt>
      <trkpt lat="49.53153" lon="0.35344">
        <ele>100.400001526</ele>
        <time>2015-01-24T12:58:57Z</time>
      </trkpt>
      <trkpt lat="49.53153" lon="0.3533">
        <ele>100.699996948</ele>
        <time>2015-01-24T12:59:03Z</time>
      </trkpt>
      <trkpt lat="49.53154" lon="0.35328">
        <ele>100.699996948</ele>
        <time>2015-01-24T12:59:04Z</time>
      </trkpt>
      <trkpt lat="49.53158" lon="0.35316">
        <ele>101.599998474</ele>
        <time>2015-01-24T12:59:12Z</time>
      </trkpt>
      <trkpt lat="49.53157" lon="0.35314">
        <ele>101.599998474</ele>
        <time>2015-01-24T12:59:13Z</time>
      </trkpt>
      <trkpt lat="49.53156" lon="0.353">
        <ele>103</ele>
        <time>2015-01-24T12:59:19Z</time>
      </trkpt>
      <trkpt lat="49.53156" lon="0.35298">
        <ele>103</ele>
        <time>2015-01-24T12:59:20Z</time>
      </trkpt>
      <trkpt lat="49.5316" lon="0.35286">
        <ele>103.900001526</ele>
        <time>2015-01-24T12:59:26Z</time>
      </trkpt>
      <trkpt lat="49.5316" lon="0.35283">
        <ele>104.199996948</ele>
        <time>2015-01-24T12:59:27Z</time>
      </trkpt>
      <trkpt lat="49.53163" lon="0.35271">
        <ele>105.400001526</ele>
        <time>2015-01-24T12:59:33Z</time>
      </trkpt>
      <trkpt lat="49.53165" lon="0.35269">
        <ele>105.800003052</ele>
        <time>2015-01-24T12:59:34Z</time>
      </trkpt>
      <trkpt lat="49.53167" lon="0.35256">
        <ele>106.800003052</ele>
        <time>2015-01-24T12:59:42Z</time>
      </trkpt>
      <trkpt lat="49.53168" lon="0.35255">
        <ele>106.699996948</ele>
        <time>2015-01-24T12:59:43Z</time>
      </trkpt>
      <trkpt lat="49.53172" lon="0.35244">
        <ele>107.900001526</ele>
        <time>2015-01-24T12:59:50Z</time>
      </trkpt>
      <trkpt lat="49.53173" lon="0.35243">
        <ele>107.900001526</ele>
        <time>2015-01-24T12:59:51Z</time>
      </trkpt>
      <trkpt lat="49.53174" lon="0.3523">
        <ele>108.699996948</ele>
        <time>2015-01-24T12:59:57Z</time>
      </trkpt>
      <trkpt lat="49.53174" lon="0.35228">
        <ele>108.800003052</ele>
        <time>2015-01-24T12:59:58Z</time>
      </trkpt>
      <trkpt lat="49.53169" lon="0.35217">
        <ele>108.900001526</ele>
        <time>2015-01-24T13:00:02Z</time>
      </trkpt>
      <trkpt lat="49.5317" lon="0.35215">
        <ele>109</ele>
        <time>2015-01-24T13:00:03Z</time>
      </trkpt>
      <trkpt lat="49.53174" lon="0.35205">
        <ele>109.800003052</ele>
        <time>2015-01-24T13:00:09Z</time>
      </trkpt>
      <trkpt lat="49.53176" lon="0.35203">
        <ele>110</ele>
        <time>2015-01-24T13:00:10Z</time>
      </trkpt>
      <trkpt lat="49.53179" lon="0.35191">
        <ele>110.900001526</ele>
        <time>2015-01-24T13:00:17Z</time>
      </trkpt>
      <trkpt lat="49.53179" lon="0.3519">
        <ele>110.800003052</ele>
        <time>2015-01-24T13:00:18Z</time>
      </trkpt>
      <trkpt lat="49.53179" lon="0.35176">
        <ele>111.5</ele>
        <time>2015-01-24T13:00:26Z</time>
      </trkpt>
      <trkpt lat="49.53179" lon="0.35174">
        <ele>111.400001526</ele>
        <time>2015-01-24T13:00:27Z</time>
      </trkpt>
      <trkpt lat="49.53176" lon="0.35163">
        <ele>111.5</ele>
        <time>2015-01-24T13:00:34Z</time>
      </trkpt>
      <trkpt lat="49.53177" lon="0.35161">
        <ele>111.5</ele>
        <time>2015-01-24T13:00:35Z</time>
      </trkpt>
      <trkpt lat="49.53182" lon="0.3515">
        <ele>112.099998474</ele>
        <time>2015-01-24T13:00:41Z</time>
      </trkpt>
      <trkpt lat="49.53182" lon="0.35149">
        <ele>112.099998474</ele>
        <time>2015-01-24T13:00:42Z</time>
      </trkpt>
      <trkpt lat="49.53181" lon="0.35135">
        <ele>111.800003052</ele>
        <time>2015-01-24T13:00:49Z</time>
      </trkpt>
      <trkpt lat="49.53181" lon="0.35134">
        <ele>111.699996948</ele>
        <time>2015-01-24T13:00:50Z</time>
      </trkpt>
      <trkpt lat="49.53178" lon="0.35121">
        <ele>112</ele>
        <time>2015-01-24T13:00:58Z</time>
      </trkpt>
      <trkpt lat="49.53178" lon="0.35119">
        <ele>112</ele>
        <time>2015-01-24T13:00:59Z</time>
      </trkpt>
      <trkpt lat="49.53173" lon="0.3511">
        <ele>111.900001526</ele>
        <time>2015-01-24T13:01:04Z</time>
      </trkpt>
      <trkpt lat="49.53172" lon="0.35109">
        <ele>111.900001526</ele>
        <time>2015-01-24T13:01:05Z</time>
      </trkpt>
      <trkpt lat="49.53168" lon="0.35097">
        <ele>111.900001526</ele>
        <time>2015-01-24T13:01:12Z</time>
      </trkpt>
      <trkpt lat="49.53168" lon="0.35095">
        <ele>111.900001526</ele>
        <time>2015-01-24T13:01:13Z</time>
      </trkpt>
      <trkpt lat="49.53167" lon="0.35083">
        <ele>111.699996948</ele>
        <time>2015-01-24T13:01:19Z</time>
      </trkpt>
      <trkpt lat="49.53166" lon="0.35081">
        <ele>111.699996948</ele>
        <time>2015-01-24T13:01:20Z</time>
      </trkpt>
      <trkpt lat="49.53167" lon="0.35067">
        <ele>112.599998474</ele>
        <time>2015-01-24T13:01:26Z</time>
      </trkpt>
      <trkpt lat="49.53167" lon="0.35066">
        <ele>112.699996948</ele>
        <time>2015-01-24T13:01:27Z</time>
      </trkpt>
      <trkpt lat="49.53164" lon="0.35056">
        <ele>113.099998474</ele>
        <time>2015-01-24T13:01:34Z</time>
      </trkpt>
      <trkpt lat="49.53162" lon="0.35054">
        <ele>113.099998474</ele>
        <time>2015-01-24T13:01:35Z</time>
      </trkpt>
      <trkpt lat="49.53159" lon="0.35042">
        <ele>113.400001526</ele>
        <time>2015-01-24T13:01:42Z</time>
      </trkpt>
      <trkpt lat="49.53159" lon="0.3504">
        <ele>113.400001526</ele>
        <time>2015-01-24T13:01:42Z</time>
      </trkpt>
      <trkpt lat="49.53166" lon="0.35033">
        <ele>114.699996948</ele>
        <time>2015-01-24T13:01:47Z</time>
      </trkpt>
      <trkpt lat="49.53167" lon="0.35032">
        <ele>114.800003052</ele>
        <time>2015-01-24T13:01:47Z</time>
      </trkpt>
      <trkpt lat="49.53171" lon="0.3502">
        <ele>115.300003052</ele>
        <time>2015-01-24T13:01:55Z</time>
      </trkpt>
      <trkpt lat="49.53172" lon="0.35018">
        <ele>115.300003052</ele>
        <time>2015-01-24T13:01:56Z</time>
      </trkpt>
      <trkpt lat="49.5317" lon="0.35006">
        <ele>115.400001526</ele>
        <time>2015-01-24T13:02:04Z</time>
      </trkpt>
      <trkpt lat="49.5317" lon="0.35003">
        <ele>115.300003052</ele>
        <time>2015-01-24T13:02:05Z</time>
      </trkpt>
      <trkpt lat="49.53166" lon="0.34991">
        <ele>115.400001526</ele>
        <time>2015-01-24T13:02:12Z</time>
      </trkpt>
      <trkpt lat="49.53165" lon="0.3499">
        <ele>115.400001526</ele>
        <time>2015-01-24T13:02:13Z</time>
      </trkpt>
      <trkpt lat="49.53161" lon="0.34978">
        <ele>116.300003052</ele>
        <time>2015-01-24T13:02:22Z</time>
      </trkpt>
      <trkpt lat="49.53161" lon="0.34976">
        <ele>116.5</ele>
        <time>2015-01-24T13:02:23Z</time>
      </trkpt>
      <trkpt lat="49.53157" lon="0.34964">
        <ele>116.5</ele>
        <time>2015-01-24T13:02:32Z</time>
      </trkpt>
      <trkpt lat="49.53157" lon="0.34963">
        <ele>116.5</ele>
        <time>2015-01-24T13:02:32Z</time>
      </trkpt>
      <trkpt lat="49.53151" lon="0.34952">
        <ele>116.099998474</ele>
        <time>2015-01-24T13:02:38Z</time>
      </trkpt>
      <trkpt lat="49.53151" lon="0.3495">
        <ele>116.099998474</ele>
        <time>2015-01-24T13:02:39Z</time>
      </trkpt>
      <trkpt lat="49.53149" lon="0.34937">
        <ele>116.300003052</ele>
        <time>2015-01-24T13:02:47Z</time>
      </trkpt>
      <trkpt lat="49.53149" lon="0.34935">
        <ele>116.300003052</ele>
        <time>2015-01-24T13:02:47Z</time>
      </trkpt>
      <trkpt lat="49.53145" lon="0.34923">
        <ele>116.300003052</ele>
        <time>2015-01-24T13:02:53Z</time>
      </trkpt>
      <trkpt lat="49.53144" lon="0.34921">
        <ele>116.300003052</ele>
        <time>2015-01-24T13:02:54Z</time>
      </trkpt>
      <trkpt lat="49.53141" lon="0.34909">
        <ele>116.400001526</ele>
        <time>2015-01-24T13:03:00Z</time>
      </trkpt>
      <trkpt lat="49.53141" lon="0.34907">
        <ele>116.5</ele>
        <time>2015-01-24T13:03:01Z</time>
      </trkpt>
      <trkpt lat="49.53138" lon="0.34895">
        <ele>116.300003052</ele>
        <time>2015-01-24T13:03:08Z</time>
      </trkpt>
      <trkpt lat="49.53138" lon="0.34893">
        <ele>116.300003052</ele>
        <time>2015-01-24T13:03:09Z</time>
      </trkpt>
      <trkpt lat="49.53133" lon="0.34882">
        <ele>116.300003052</ele>
        <time>2015-01-24T13:03:15Z</time>
      </trkpt>
      <trkpt lat="49.53133" lon="0.3488">
        <ele>116.400001526</ele>
        <time>2015-01-24T13:03:16Z</time>
      </trkpt>
      <trkpt lat="49.5313" lon="0.34868">
        <ele>116.300003052</ele>
        <time>2015-01-24T13:03:22Z</time>
      </trkpt>
      <trkpt lat="49.53129" lon="0.34867">
        <ele>116.300003052</ele>
        <time>2015-01-24T13:03:23Z</time>
      </trkpt>
      <trkpt lat="49.53125" lon="0.34856">
        <ele>116.599998474</ele>
        <time>2015-01-24T13:03:29Z</time>
      </trkpt>
      <trkpt lat="49.53124" lon="0.34854">
        <ele>116.800003052</ele>
        <time>2015-01-24T13:03:30Z</time>
      </trkpt>
      <trkpt lat="49.5312" lon="0.34842">
        <ele>116.900001526</ele>
        <time>2015-01-24T13:03:36Z</time>
      </trkpt>
      <trkpt lat="49.53119" lon="0.34841">
        <ele>116.900001526</ele>
        <time>2015-01-24T13:03:37Z</time>
      </trkpt>
      <trkpt lat="49.53116" lon="0.34828">
        <ele>116.599998474</ele>
        <time>2015-01-24T13:03:44Z</time>
      </trkpt>
      <trkpt lat="49.53115" lon="0.34827">
        <ele>116.599998474</ele>
        <time>2015-01-24T13:03:45Z</time>
      </trkpt>
      <trkpt lat="49.53112" lon="0.34815">
        <ele>116.5</ele>
        <time>2015-01-24T13:03:51Z</time>
      </trkpt>
      <trkpt lat="49.53111" lon="0.34813">
        <ele>116.300003052</ele>
        <time>2015-01-24T13:03:52Z</time>
      </trkpt>
      <trkpt lat="49.53109" lon="0.34801">
        <ele>116.900001526</ele>
        <time>2015-01-24T13:03:59Z</time>
      </trkpt>
      <trkpt lat="49.53108" lon="0.348">
        <ele>117</ele>
        <time>2015-01-24T13:04:00Z</time>
      </trkpt>
      <trkpt lat="49.53105" lon="0.34788">
        <ele>117.300003052</ele>
        <time>2015-01-24T13:04:07Z</time>
      </trkpt>
      <trkpt lat="49.53104" lon="0.34786">
        <ele>117.400001526</ele>
        <time>2015-01-24T13:04:07Z</time>
      </trkpt>
      <trkpt lat="49.53102" lon="0.34774">
        <ele>117.5</ele>
        <time>2015-01-24T13:04:13Z</time>
      </trkpt>
      <trkpt lat="49.53101" lon="0.34772">
        <ele>117.599998474</ele>
        <time>2015-01-24T13:04:14Z</time>
      </trkpt>
      <trkpt lat="49.53098" lon="0.34761">
        <ele>118.300003052</ele>
        <time>2015-01-24T13:04:20Z</time>
      </trkpt>
      <trkpt lat="49.53098" lon="0.34759">
        <ele>118.099998474</ele>
        <time>2015-01-24T13:04:21Z</time>
      </trkpt>
      <trkpt lat="49.53094" lon="0.34749">
        <ele>118.699996948</ele>
        <time>2015-01-24T13:04:27Z</time>
      </trkpt>
      <trkpt lat="49.53093" lon="0.34747">
        <ele>119</ele>
        <time>2015-01-24T13:04:28Z</time>
      </trkpt>
      <trkpt lat="49.53091" lon="0.34735">
        <ele>119.5</ele>
        <time>2015-01-24T13:04:34Z</time>
      </trkpt>
      <trkpt lat="49.53091" lon="0.34733">
        <ele>119.800003052</ele>
        <time>2015-01-24T13:04:35Z</time>
      </trkpt>
      <trkpt lat="49.53089" lon="0.34721">
        <ele>120</ele>
        <time>2015-01-24T13:04:41Z</time>
      </trkpt>
      <trkpt lat="49.53088" lon="0.34719">
        <ele>120</ele>
        <time>2015-01-24T13:04:42Z</time>
      </trkpt>
      <trkpt lat="49.53084" lon="0.34708">
        <ele>119.599998474</ele>
        <time>2015-01-24T13:04:48Z</time>
      </trkpt>
      <trkpt lat="49.53083" lon="0.34706">
        <ele>119.400001526</ele>
        <time>2015-01-24T13:04:49Z</time>
      </trkpt>
      <trkpt lat="49.5308" lon="0.34694">
        <ele>118.900001526</ele>
        <time>2015-01-24T13:04:56Z</time>
      </trkpt>
      <trkpt lat="49.5308" lon="0.34692">
        <ele>118.900001526</ele>
        <time>2015-01-24T13:04:57Z</time>
      </trkpt>
      <trkpt lat="49.53077" lon="0.34679">
        <ele>118.800003052</ele>
        <time>2015-01-24T13:05:03Z</time>
      </trkpt>
      <trkpt lat="49.53077" lon="0.34677">
        <ele>118.699996948</ele>
        <time>2015-01-24T13:05:04Z</time>
      </trkpt>
      <trkpt lat="49.53071" lon="0.34666">
        <ele>118.599998474</ele>
        <time>2015-01-24T13:05:12Z</time>
      </trkpt>
      <trkpt lat="49.53072" lon="0.34665">
        <ele>118.699996948</ele>
        <time>2015-01-24T13:05:13Z</time>
      </trkpt>
      <trkpt lat="49.53069" lon="0.34654">
        <ele>118.599998474</ele>
        <time>2015-01-24T13:05:19Z</time>
      </trkpt>
      <trkpt lat="49.53068" lon="0.34652">
        <ele>118.599998474</ele>
        <time>2015-01-24T13:05:20Z</time>
      </trkpt>
      <trkpt lat="49.53066" lon="0.3464">
        <ele>118.199996948</ele>
        <time>2015-01-24T13:05:27Z</time>
      </trkpt>
      <trkpt lat="49.53065" lon="0.34639">
        <ele>118.099998474</ele>
        <time>2015-01-24T13:05:28Z</time>
      </trkpt>
      <trkpt lat="49.5306" lon="0.34629">
        <ele>118.5</ele>
        <time>2015-01-24T13:05:33Z</time>
      </trkpt>
      <trkpt lat="49.53059" lon="0.34627">
        <ele>118.599998474</ele>
        <time>2015-01-24T13:05:34Z</time>
      </trkpt>
      <trkpt lat="49.53056" lon="0.34615">
        <ele>118.5</ele>
        <time>2015-01-24T13:05:40Z</time>
      </trkpt>
      <trkpt lat="49.53056" lon="0.34613">
        <ele>118.599998474</ele>
        <time>2015-01-24T13:05:41Z</time>
      </trkpt>
      <trkpt lat="49.53052" lon="0.34601">
        <ele>118.699996948</ele>
        <time>2015-01-24T13:05:48Z</time>
      </trkpt>
      <trkpt lat="49.53051" lon="0.34599">
        <ele>118.800003052</ele>
        <time>2015-01-24T13:05:49Z</time>
      </trkpt>
      <trkpt lat="49.53049" lon="0.34587">
        <ele>119.900001526</ele>
        <time>2015-01-24T13:05:56Z</time>
      </trkpt>
      <trkpt lat="49.53048" lon="0.34585">
        <ele>119.900001526</ele>
        <time>2015-01-24T13:05:57Z</time>
      </trkpt>
      <trkpt lat="49.53045" lon="0.34574">
        <ele>119.800003052</ele>
        <time>2015-01-24T13:06:03Z</time>
      </trkpt>
      <trkpt lat="49.53044" lon="0.34572">
        <ele>119.800003052</ele>
        <time>2015-01-24T13:06:04Z</time>
      </trkpt>
      <trkpt lat="49.53042" lon="0.34559">
        <ele>119.400001526</ele>
        <time>2015-01-24T13:06:10Z</time>
      </trkpt>
      <trkpt lat="49.53041" lon="0.34557">
        <ele>119.199996948</ele>
        <time>2015-01-24T13:06:11Z</time>
      </trkpt>
      <trkpt lat="49.53036" lon="0.34546">
        <ele>119.199996948</ele>
        <time>2015-01-24T13:06:17Z</time>
      </trkpt>
      <trkpt lat="49.53035" lon="0.34544">
        <ele>119</ele>
        <time>2015-01-24T13:06:18Z</time>
      </trkpt>
      <trkpt lat="49.53033" lon="0.34532">
        <ele>118.5</ele>
        <time>2015-01-24T13:06:25Z</time>
      </trkpt>
      <trkpt lat="49.53033" lon="0.3453">
        <ele>118.400001526</ele>
        <time>2015-01-24T13:06:26Z</time>
      </trkpt>
      <trkpt lat="49.5303" lon="0.34519">
        <ele>117.900001526</ele>
        <time>2015-01-24T13:06:33Z</time>
      </trkpt>
      <trkpt lat="49.5303" lon="0.34517">
        <ele>117.800003052</ele>
        <time>2015-01-24T13:06:34Z</time>
      </trkpt>
      <trkpt lat="49.53027" lon="0.34505">
        <ele>116.699996948</ele>
        <time>2015-01-24T13:06:40Z</time>
      </trkpt>
      <trkpt lat="49.53026" lon="0.34503">
        <ele>116.699996948</ele>
        <time>2015-01-24T13:06:41Z</time>
      </trkpt>
      <trkpt lat="49.53022" lon="0.34493">
        <ele>116.199996948</ele>
        <time>2015-01-24T13:06:47Z</time>
      </trkpt>
      <trkpt lat="49.53021" lon="0.34492">
        <ele>116.099998474</ele>
        <time>2015-01-24T13:06:48Z</time>
      </trkpt>
      <trkpt lat="49.53017" lon="0.34479">
        <ele>115.800003052</ele>
        <time>2015-01-24T13:06:55Z</time>
      </trkpt>
      <trkpt lat="49.53017" lon="0.34477">
        <ele>115.800003052</ele>
        <time>2015-01-24T13:06:56Z</time>
      </trkpt>
      <trkpt lat="49.53014" lon="0.34465">
        <ele>115.800003052</ele>
        <time>2015-01-24T13:07:02Z</time>
      </trkpt>
      <trkpt lat="49.53014" lon="0.34463">
        <ele>115.699996948</ele>
        <time>2015-01-24T13:07:03Z</time>
      </trkpt>
      <trkpt lat="49.53011" lon="0.34452">
        <ele>115.5</ele>
        <time>2015-01-24T13:07:09Z</time>
      </trkpt>
      <trkpt lat="49.53011" lon="0.3445">
        <ele>115.599998474</ele>
        <time>2015-01-24T13:07:10Z</time>
      </trkpt>
      <trkpt lat="49.53009" lon="0.34438">
        <ele>116</ele>
        <time>2015-01-24T13:07:20Z</time>
      </trkpt>
      <trkpt lat="49.53009" lon="0.34436">
        <ele>116</ele>
        <time>2015-01-24T13:07:21Z</time>
      </trkpt>
      <trkpt lat="49.53004" lon="0.34424">
        <ele>116.300003052</ele>
        <time>2015-01-24T13:07:27Z</time>
      </trkpt>
      <trkpt lat="49.53003" lon="0.34421">
        <ele>116.400001526</ele>
        <time>2015-01-24T13:07:28Z</time>
      </trkpt>
      <trkpt lat="49.52999" lon="0.34408">
        <ele>116.5</ele>
        <time>2015-01-24T13:07:33Z</time>
      </trkpt>
      <trkpt lat="49.52999" lon="0.34406">
        <ele>116.400001526</ele>
        <time>2015-01-24T13:07:34Z</time>
      </trkpt>
      <trkpt lat="49.52996" lon="0.34393">
        <ele>116.199996948</ele>
        <time>2015-01-24T13:07:40Z</time>
      </trkpt>
      <trkpt lat="49.52995" lon="0.34391">
        <ele>116.199996948</ele>
        <time>2015-01-24T13:07:41Z</time>
      </trkpt>
      <trkpt lat="49.52992" lon="0.3438">
        <ele>115.199996948</ele>
        <time>2015-01-24T13:07:46Z</time>
      </trkpt>
      <trkpt lat="49.52991" lon="0.34377">
        <ele>115.199996948</ele>
        <time>2015-01-24T13:07:47Z</time>
      </trkpt>
      <trkpt lat="49.52988" lon="0.34366">
        <ele>114.900001526</ele>
        <time>2015-01-24T13:07:52Z</time>
      </trkpt>
      <trkpt lat="49.52987" lon="0.34363">
        <ele>114.800003052</ele>
        <time>2015-01-24T13:07:53Z</time>
      </trkpt>
      <trkpt lat="49.52984" lon="0.34352">
        <ele>113.900001526</ele>
        <time>2015-01-24T13:07:58Z</time>
      </trkpt>
      <trkpt lat="49.52983" lon="0.3435">
        <ele>113.699996948</ele>
        <time>2015-01-24T13:07:59Z</time>
      </trkpt>
      <trkpt lat="49.5298" lon="0.3434">
        <ele>113.400001526</ele>
        <time>2015-01-24T13:08:04Z</time>
      </trkpt>
      <trkpt lat="49.52978" lon="0.34338">
        <ele>113.5</ele>
        <time>2015-01-24T13:08:05Z</time>
      </trkpt>
      <trkpt lat="49.52975" lon="0.34328">
        <ele>113.300003052</ele>
        <time>2015-01-24T13:08:11Z</time>
      </trkpt>
      <trkpt lat="49.52974" lon="0.34325">
        <ele>113.300003052</ele>
        <time>2015-01-24T13:08:12Z</time>
      </trkpt>
      <trkpt lat="49.52972" lon="0.34313">
        <ele>113.400001526</ele>
        <time>2015-01-24T13:08:19Z</time>
      </trkpt>
      <trkpt lat="49.52972" lon="0.34311">
        <ele>113.300003052</ele>
        <time>2015-01-24T13:08:20Z</time>
      </trkpt>
      <trkpt lat="49.52968" lon="0.343">
        <ele>113.400001526</ele>
        <time>2015-01-24T13:08:26Z</time>
      </trkpt>
      <trkpt lat="49.52967" lon="0.34298">
        <ele>113.400001526</ele>
        <time>2015-01-24T13:08:27Z</time>
      </trkpt>
      <trkpt lat="49.52966" lon="0.34286">
        <ele>113.400001526</ele>
        <time>2015-01-24T13:08:33Z</time>
      </trkpt>
      <trkpt lat="49.52966" lon="0.34283">
        <ele>113.199996948</ele>
        <time>2015-01-24T13:08:34Z</time>
      </trkpt>
      <trkpt lat="49.52966" lon="0.34271">
        <ele>113.5</ele>
        <time>2015-01-24T13:08:40Z</time>
      </trkpt>
      <trkpt lat="49.52966" lon="0.34269">
        <ele>113.5</ele>
        <time>2015-01-24T13:08:41Z</time>
      </trkpt>
      <trkpt lat="49.5297" lon="0.34256">
        <ele>114</ele>
        <time>2015-01-24T13:08:48Z</time>
      </trkpt>
      <trkpt lat="49.5297" lon="0.34255">
        <ele>114.099998474</ele>
        <time>2015-01-24T13:08:49Z</time>
      </trkpt>
      <trkpt lat="49.52974" lon="0.34244">
        <ele>114.599998474</ele>
        <time>2015-01-24T13:08:55Z</time>
      </trkpt>
      <trkpt lat="49.52975" lon="0.34242">
        <ele>114.699996948</ele>
        <time>2015-01-24T13:08:56Z</time>
      </trkpt>
      <trkpt lat="49.52978" lon="0.34231">
        <ele>114.699996948</ele>
        <time>2015-01-24T13:09:02Z</time>
      </trkpt>
      <trkpt lat="49.52979" lon="0.34229">
        <ele>114.699996948</ele>
        <time>2015-01-24T13:09:03Z</time>
      </trkpt>
      <trkpt lat="49.52983" lon="0.34219">
        <ele>114.5</ele>
        <time>2015-01-24T13:09:09Z</time>
      </trkpt>
      <trkpt lat="49.52984" lon="0.34217">
        <ele>114.599998474</ele>
        <time>2015-01-24T13:09:10Z</time>
      </trkpt>
      <trkpt lat="49.5299" lon="0.34208">
        <ele>113.900001526</ele>
        <time>2015-01-24T13:09:16Z</time>
      </trkpt>
      <trkpt lat="49.5299" lon="0.34207">
        <ele>113.800003052</ele>
        <time>2015-01-24T13:09:17Z</time>
      </trkpt>
      <trkpt lat="49.52997" lon="0.34201">
        <ele>113.099998474</ele>
        <time>2015-01-24T13:09:24Z</time>
      </trkpt>
      <trkpt lat="49.52999" lon="0.34201">
        <ele>113.099998474</ele>
        <time>2015-01-24T13:09:25Z</time>
      </trkpt>
      <trkpt lat="49.53005" lon="0.34195">
        <ele>112.5</ele>
        <time>2015-01-24T13:09:31Z</time>
      </trkpt>
      <trkpt lat="49.53007" lon="0.34194">
        <ele>112.099998474</ele>
        <time>2015-01-24T13:09:32Z</time>
      </trkpt>
      <trkpt lat="49.53014" lon="0.3419">
        <ele>111.300003052</ele>
        <time>2015-01-24T13:09:38Z</time>
      </trkpt>
      <trkpt lat="49.53016" lon="0.34189">
        <ele>111.199996948</ele>
        <time>2015-01-24T13:09:39Z</time>
      </trkpt>
      <trkpt lat="49.53024" lon="0.34184">
        <ele>110.800003052</ele>
        <time>2015-01-24T13:09:45Z</time>
      </trkpt>
      <trkpt lat="49.53025" lon="0.34183">
        <ele>110.699996948</ele>
        <time>2015-01-24T13:09:46Z</time>
      </trkpt>
      <trkpt lat="49.53032" lon="0.34179">
        <ele>111.099998474</ele>
        <time>2015-01-24T13:09:52Z</time>
      </trkpt>
      <trkpt lat="49.53033" lon="0.34179">
        <ele>111.199996948</ele>
        <time>2015-01-24T13:09:53Z</time>
      </trkpt>
      <trkpt lat="49.53041" lon="0.34175">
        <ele>111.599998474</ele>
        <time>2015-01-24T13:09:59Z</time>
      </trkpt>
      <trkpt lat="49.53043" lon="0.34175">
        <ele>111.599998474</ele>
        <time>2015-01-24T13:10:00Z</time>
      </trkpt>
      <trkpt lat="49.53047" lon="0.34165">
        <ele>112.099998474</ele>
        <time>2015-01-24T13:10:06Z</time>
      </trkpt>
      <trkpt lat="49.53048" lon="0.34163">
        <ele>112.199996948</ele>
        <time>2015-01-24T13:10:07Z</time>
      </trkpt>
      <trkpt lat="49.53054" lon="0.34157">
        <ele>112.300003052</ele>
        <time>2015-01-24T13:10:13Z</time>
      </trkpt>
      <trkpt lat="49.53055" lon="0.34156">
        <ele>112.300003052</ele>
        <time>2015-01-24T13:10:14Z</time>
      </trkpt>
      <trkpt lat="49.53063" lon="0.3415">
        <ele>111.599998474</ele>
        <time>2015-01-24T13:10:21Z</time>
      </trkpt>
      <trkpt lat="49.53064" lon="0.34149">
        <ele>111.400001526</ele>
        <time>2015-01-24T13:10:22Z</time>
      </trkpt>
      <trkpt lat="49.53072" lon="0.34144">
        <ele>111.099998474</ele>
        <time>2015-01-24T13:10:29Z</time>
      </trkpt>
      <trkpt lat="49.53073" lon="0.34143">
        <ele>111.099998474</ele>
        <time>2015-01-24T13:10:30Z</time>
      </trkpt>
      <trkpt lat="49.5308" lon="0.34137">
        <ele>110.599998474</ele>
        <time>2015-01-24T13:10:39Z</time>
      </trkpt>
      <trkpt lat="49.53082" lon="0.34136">
        <ele>110.900001526</ele>
        <time>2015-01-24T13:10:40Z</time>
      </trkpt>
      <trkpt lat="49.5309" lon="0.34132">
        <ele>110.5</ele>
        <time>2015-01-24T13:10:46Z</time>
      </trkpt>
      <trkpt lat="49.53092" lon="0.34131">
        <ele>110.599998474</ele>
        <time>2015-01-24T13:10:47Z</time>
      </trkpt>
      <trkpt lat="49.531" lon="0.34127">
        <ele>110.400001526</ele>
        <time>2015-01-24T13:10:52Z</time>
      </trkpt>
      <trkpt lat="49.53101" lon="0.34127">
        <ele>110.199996948</ele>
        <time>2015-01-24T13:10:53Z</time>
      </trkpt>
      <trkpt lat="49.53108" lon="0.34121">
        <ele>110</ele>
        <time>2015-01-24T13:10:59Z</time>
      </trkpt>
      <trkpt lat="49.5311" lon="0.3412">
        <ele>109.800003052</ele>
        <time>2015-01-24T13:11:00Z</time>
      </trkpt>
      <trkpt lat="49.53117" lon="0.34114">
        <ele>108.300003052</ele>
        <time>2015-01-24T13:11:07Z</time>
      </trkpt>
      <trkpt lat="49.53118" lon="0.34113">
        <ele>108</ele>
        <time>2015-01-24T13:11:08Z</time>
      </trkpt>
      <trkpt lat="49.53125" lon="0.34108">
        <ele>106.5</ele>
        <time>2015-01-24T13:11:14Z</time>
      </trkpt>
      <trkpt lat="49.53126" lon="0.34107">
        <ele>106.400001526</ele>
        <time>2015-01-24T13:11:15Z</time>
      </trkpt>
      <trkpt lat="49.53134" lon="0.34103">
        <ele>106.099998474</ele>
        <time>2015-01-24T13:11:20Z</time>
      </trkpt>
      <trkpt lat="49.53136" lon="0.34102">
        <ele>106.099998474</ele>
        <time>2015-01-24T13:11:21Z</time>
      </trkpt>
      <trkpt lat="49.53143" lon="0.34097">
        <ele>105.800003052</ele>
        <time>2015-01-24T13:11:28Z</time>
      </trkpt>
      <trkpt lat="49.53144" lon="0.34096">
        <ele>105.699996948</ele>
        <time>2015-01-24T13:11:29Z</time>
      </trkpt>
      <trkpt lat="49.53152" lon="0.3409">
        <ele>104.300003052</ele>
        <time>2015-01-24T13:11:37Z</time>
      </trkpt>
      <trkpt lat="49.53152" lon="0.34089">
        <ele>104.199996948</ele>
        <time>2015-01-24T13:11:38Z</time>
      </trkpt>
      <trkpt lat="49.53161" lon="0.34085">
        <ele>104.800003052</ele>
        <time>2015-01-24T13:11:43Z</time>
      </trkpt>
      <trkpt lat="49.53162" lon="0.34084">
        <ele>104.800003052</ele>
        <time>2015-01-24T13:11:44Z</time>
      </trkpt>
      <trkpt lat="49.53169" lon="0.3408">
        <ele>105.599998474</ele>
        <time>2015-01-24T13:11:50Z</time>
      </trkpt>
      <trkpt lat="49.5317" lon="0.34079">
        <ele>105.599998474</ele>
        <time>2015-01-24T13:11:51Z</time>
      </trkpt>
      <trkpt lat="49.53178" lon="0.34074">
        <ele>105.800003052</ele>
        <time>2015-01-24T13:11:58Z</time>
      </trkpt>
      <trkpt lat="49.53179" lon="0.34073">
        <ele>105.800003052</ele>
        <time>2015-01-24T13:11:59Z</time>
      </trkpt>
      <trkpt lat="49.53187" lon="0.34068">
        <ele>106.099998474</ele>
        <time>2015-01-24T13:12:04Z</time>
      </trkpt>
      <trkpt lat="49.53188" lon="0.34068">
        <ele>106.099998474</ele>
        <time>2015-01-24T13:12:05Z</time>
      </trkpt>
      <trkpt lat="49.53196" lon="0.34063">
        <ele>106.599998474</ele>
        <time>2015-01-24T13:12:11Z</time>
      </trkpt>
      <trkpt lat="49.53197" lon="0.34062">
        <ele>106.699996948</ele>
        <time>2015-01-24T13:12:12Z</time>
      </trkpt>
      <trkpt lat="49.53205" lon="0.34058">
        <ele>106.900001526</ele>
        <time>2015-01-24T13:12:18Z</time>
      </trkpt>
      <trkpt lat="49.53206" lon="0.34057">
        <ele>106.900001526</ele>
        <time>2015-01-24T13:12:19Z</time>
      </trkpt>
      <trkpt lat="49.53214" lon="0.34052">
        <ele>107.699996948</ele>
        <time>2015-01-24T13:12:26Z</time>
      </trkpt>
      <trkpt lat="49.53215" lon="0.34051">
        <ele>107.800003052</ele>
        <time>2015-01-24T13:12:27Z</time>
      </trkpt>
      <trkpt lat="49.53223" lon="0.34045">
        <ele>108.300003052</ele>
        <time>2015-01-24T13:12:34Z</time>
      </trkpt>
      <trkpt lat="49.53224" lon="0.34042">
        <ele>108.099998474</ele>
        <time>2015-01-24T13:12:35Z</time>
      </trkpt>
      <trkpt lat="49.5323" lon="0.34036">
        <ele>107.900001526</ele>
        <time>2015-01-24T13:12:40Z</time>
      </trkpt>
      <trkpt lat="49.53232" lon="0.34036">
        <ele>107.800003052</ele>
        <time>2015-01-24T13:12:41Z</time>
      </trkpt>
      <trkpt lat="49.53239" lon="0.34032">
        <ele>108</ele>
        <time>2015-01-24T13:12:48Z</time>
      </trkpt>
      <trkpt lat="49.5324" lon="0.34032">
        <ele>108.099998474</ele>
        <time>2015-01-24T13:12:49Z</time>
      </trkpt>
      <trkpt lat="49.53248" lon="0.34024">
        <ele>107.099998474</ele>
        <time>2015-01-24T13:12:59Z</time>
      </trkpt>
      <trkpt lat="49.53248" lon="0.34024">
        <ele>107.199996948</ele>
        <time>2015-01-24T13:13:00Z</time>
      </trkpt>
      <trkpt lat="49.53255" lon="0.34017">
        <ele>106.800003052</ele>
        <time>2015-01-24T13:13:07Z</time>
      </trkpt>
      <trkpt lat="49.53255" lon="0.34016">
        <ele>106.800003052</ele>
        <time>2015-01-24T13:13:08Z</time>
      </trkpt>
      <trkpt lat="49.53263" lon="0.3401">
        <ele>106.800003052</ele>
        <time>2015-01-24T13:13:14Z</time>
      </trkpt>
      <trkpt lat="49.53264" lon="0.34009">
        <ele>106.699996948</ele>
        <time>2015-01-24T13:13:15Z</time>
      </trkpt>
      <trkpt lat="49.5327" lon="0.34004">
        <ele>106.800003052</ele>
        <time>2015-01-24T13:13:21Z</time>
      </trkpt>
      <trkpt lat="49.53272" lon="0.34003">
        <ele>107</ele>
        <time>2015-01-24T13:13:22Z</time>
      </trkpt>
      <trkpt lat="49.53281" lon="0.33998">
        <ele>107.199996948</ele>
        <time>2015-01-24T13:13:28Z</time>
      </trkpt>
      <trkpt lat="49.53282" lon="0.33998">
        <ele>107.300003052</ele>
        <time>2015-01-24T13:13:29Z</time>
      </trkpt>
      <trkpt lat="49.5329" lon="0.33995">
        <ele>107.599998474</ele>
        <time>2015-01-24T13:13:35Z</time>
      </trkpt>
      <trkpt lat="49.53292" lon="0.33994">
        <ele>107.800003052</ele>
        <time>2015-01-24T13:13:36Z</time>
      </trkpt>
      <trkpt lat="49.53299" lon="0.3399">
        <ele>108.599998474</ele>
        <time>2015-01-24T13:13:42Z</time>
      </trkpt>
      <trkpt lat="49.533" lon="0.33989">
        <ele>108.699996948</ele>
        <time>2015-01-24T13:13:43Z</time>
      </trkpt>
      <trkpt lat="49.53308" lon="0.33984">
        <ele>109.5</ele>
        <time>2015-01-24T13:13:51Z</time>
      </trkpt>
      <trkpt lat="49.53309" lon="0.33983">
        <ele>109.599998474</ele>
        <time>2015-01-24T13:13:52Z</time>
      </trkpt>
      <trkpt lat="49.53317" lon="0.33979">
        <ele>110.699996948</ele>
        <time>2015-01-24T13:13:58Z</time>
      </trkpt>
      <trkpt lat="49.53318" lon="0.33978">
        <ele>110.900001526</ele>
        <time>2015-01-24T13:13:59Z</time>
      </trkpt>
      <trkpt lat="49.53325" lon="0.33974">
        <ele>111.699996948</ele>
        <time>2015-01-24T13:14:05Z</time>
      </trkpt>
      <trkpt lat="49.53326" lon="0.33973">
        <ele>111.699996948</ele>
        <time>2015-01-24T13:14:06Z</time>
      </trkpt>
      <trkpt lat="49.53333" lon="0.33967">
        <ele>111.699996948</ele>
        <time>2015-01-24T13:14:12Z</time>
      </trkpt>
      <trkpt lat="49.53334" lon="0.33967">
        <ele>111.800003052</ele>
        <time>2015-01-24T13:14:13Z</time>
      </trkpt>
      <trkpt lat="49.53342" lon="0.33962">
        <ele>112.5</ele>
        <time>2015-01-24T13:14:18Z</time>
      </trkpt>
      <trkpt lat="49.53343" lon="0.33962">
        <ele>112.599998474</ele>
        <time>2015-01-24T13:14:19Z</time>
      </trkpt>
      <trkpt lat="49.5335" lon="0.33956">
        <ele>113.099998474</ele>
        <time>2015-01-24T13:14:26Z</time>
      </trkpt>
      <trkpt lat="49.53352" lon="0.33956">
        <ele>113.199996948</ele>
        <time>2015-01-24T13:14:27Z</time>
      </trkpt>
      <trkpt lat="49.53359" lon="0.33955">
        <ele>113.800003052</ele>
        <time>2015-01-24T13:14:31Z</time>
      </trkpt>
      <trkpt lat="49.53361" lon="0.33955">
        <ele>114</ele>
        <time>2015-01-24T13:14:32Z</time>
      </trkpt>
      <trkpt lat="49.5337" lon="0.33952">
        <ele>114.900001526</ele>
        <time>2015-01-24T13:14:38Z</time>
      </trkpt>
      <trkpt lat="49.53371" lon="0.33951">
        <ele>115.099998474</ele>
        <time>2015-01-24T13:14:39Z</time>
      </trkpt>
      <trkpt lat="49.53378" lon="0.33947">
        <ele>115.400001526</ele>
        <time>2015-01-24T13:14:43Z</time>
      </trkpt>
      <trkpt lat="49.53379" lon="0.33946">
        <ele>115.5</ele>
        <time>2015-01-24T13:14:44Z</time>
      </trkpt>
      <trkpt lat="49.53388" lon="0.33943">
        <ele>116.400001526</ele>
        <time>2015-01-24T13:14:50Z</time>
      </trkpt>
      <trkpt lat="49.53389" lon="0.33942">
        <ele>116.599998474</ele>
        <time>2015-01-24T13:14:51Z</time>
      </trkpt>
      <trkpt lat="49.53397" lon="0.33938">
        <ele>118.199996948</ele>
        <time>2015-01-24T13:14:59Z</time>
      </trkpt>
      <trkpt lat="49.53397" lon="0.33938">
        <ele>118.400001526</ele>
        <time>2015-01-24T13:15:00Z</time>
      </trkpt>
      <trkpt lat="49.53405" lon="0.33934">
        <ele>119.099998474</ele>
        <time>2015-01-24T13:15:06Z</time>
      </trkpt>
      <trkpt lat="49.53406" lon="0.33933">
        <ele>119.199996948</ele>
        <time>2015-01-24T13:15:07Z</time>
      </trkpt>
      <trkpt lat="49.53415" lon="0.3393">
        <ele>119.900001526</ele>
        <time>2015-01-24T13:15:14Z</time>
      </trkpt>
      <trkpt lat="49.53417" lon="0.3393">
        <ele>120</ele>
        <time>2015-01-24T13:15:15Z</time>
      </trkpt>
      <trkpt lat="49.53426" lon="0.3393">
        <ele>120.099998474</ele>
        <time>2015-01-24T13:15:20Z</time>
      </trkpt>
      <trkpt lat="49.53427" lon="0.3393">
        <ele>120.099998474</ele>
        <time>2015-01-24T13:15:21Z</time>
      </trkpt>
      <trkpt lat="49.53435" lon="0.33928">
        <ele>120.400001526</ele>
        <time>2015-01-24T13:15:27Z</time>
      </trkpt>
      <trkpt lat="49.53436" lon="0.33927">
        <ele>120.199996948</ele>
        <time>2015-01-24T13:15:28Z</time>
      </trkpt>
      <trkpt lat="49.53442" lon="0.33919">
        <ele>121.099998474</ele>
        <time>2015-01-24T13:15:35Z</time>
      </trkpt>
      <trkpt lat="49.53443" lon="0.33918">
        <ele>121.099998474</ele>
        <time>2015-01-24T13:15:36Z</time>
      </trkpt>
      <trkpt lat="49.53445" lon="0.33905">
        <ele>120.900001526</ele>
        <time>2015-01-24T13:15:42Z</time>
      </trkpt>
      <trkpt lat="49.53445" lon="0.33902">
        <ele>121</ele>
        <time>2015-01-24T13:15:43Z</time>
      </trkpt>
      <trkpt lat="49.53445" lon="0.33889">
        <ele>120.400001526</ele>
        <time>2015-01-24T13:15:48Z</time>
      </trkpt>
      <trkpt lat="49.53445" lon="0.33887">
        <ele>120.400001526</ele>
        <time>2015-01-24T13:15:49Z</time>
      </trkpt>
      <trkpt lat="49.53447" lon="0.33874">
        <ele>119.900001526</ele>
        <time>2015-01-24T13:15:56Z</time>
      </trkpt>
      <trkpt lat="49.53448" lon="0.33872">
        <ele>120</ele>
        <time>2015-01-24T13:15:57Z</time>
      </trkpt>
      <trkpt lat="49.5345" lon="0.3386">
        <ele>120.599998474</ele>
        <time>2015-01-24T13:16:04Z</time>
      </trkpt>
      <trkpt lat="49.53451" lon="0.33858">
        <ele>120.800003052</ele>
        <time>2015-01-24T13:16:05Z</time>
      </trkpt>
      <trkpt lat="49.53453" lon="0.33847">
        <ele>121.199996948</ele>
        <time>2015-01-24T13:16:11Z</time>
      </trkpt>
      <trkpt lat="49.53454" lon="0.33845">
        <ele>121.300003052</ele>
        <time>2015-01-24T13:16:12Z</time>
      </trkpt>
      <trkpt lat="49.5345" lon="0.33832">
        <ele>121.400001526</ele>
        <time>2015-01-24T13:16:24Z</time>
      </trkpt>
      <trkpt lat="49.53449" lon="0.33832">
        <ele>121.599998474</ele>
        <time>2015-01-24T13:16:25Z</time>
      </trkpt>
      <trkpt lat="49.53441" lon="0.33833">
        <ele>121.199996948</ele>
        <time>2015-01-24T13:16:31Z</time>
      </trkpt>
      <trkpt lat="49.53439" lon="0.33834">
        <ele>121.099998474</ele>
        <time>2015-01-24T13:16:32Z</time>
      </trkpt>
      <trkpt lat="49.53431" lon="0.33835">
        <ele>120.099998474</ele>
        <time>2015-01-24T13:16:38Z</time>
      </trkpt>
      <trkpt lat="49.5343" lon="0.33835">
        <ele>120</ele>
        <time>2015-01-24T13:16:39Z</time>
      </trkpt>
      <trkpt lat="49.53421" lon="0.33836">
        <ele>118.5</ele>
        <time>2015-01-24T13:16:45Z</time>
      </trkpt>
      <trkpt lat="49.53421" lon="0.33836">
        <ele>118.400001526</ele>
        <time>2015-01-24T13:16:46Z</time>
      </trkpt>
      <trkpt lat="49.53412" lon="0.33838">
        <ele>117.599998474</ele>
        <time>2015-01-24T13:16:52Z</time>
      </trkpt>
      <trkpt lat="49.53411" lon="0.33838">
        <ele>117.400001526</ele>
        <time>2015-01-24T13:16:53Z</time>
      </trkpt>
      <trkpt lat="49.53403" lon="0.33841">
        <ele>116.300003052</ele>
        <time>2015-01-24T13:16:59Z</time>
      </trkpt>
      <trkpt lat="49.53401" lon="0.33841">
        <ele>116.099998474</ele>
        <time>2015-01-24T13:17:00Z</time>
      </trkpt>
      <trkpt lat="49.53394" lon="0.33842">
        <ele>115</ele>
        <time>2015-01-24T13:17:06Z</time>
      </trkpt>
      <trkpt lat="49.53392" lon="0.33842">
        <ele>114.699996948</ele>
        <time>2015-01-24T13:17:07Z</time>
      </trkpt>
      <trkpt lat="49.53383" lon="0.33845">
        <ele>113.300003052</ele>
        <time>2015-01-24T13:17:13Z</time>
      </trkpt>
      <trkpt lat="49.53382" lon="0.33845">
        <ele>113.099998474</ele>
        <time>2015-01-24T13:17:14Z</time>
      </trkpt>
      <trkpt lat="49.53373" lon="0.33847">
        <ele>112.599998474</ele>
        <time>2015-01-24T13:17:19Z</time>
      </trkpt>
      <trkpt lat="49.53372" lon="0.33847">
        <ele>112.599998474</ele>
        <time>2015-01-24T13:17:20Z</time>
      </trkpt>
      <trkpt lat="49.53363" lon="0.33849">
        <ele>112.199996948</ele>
        <time>2015-01-24T13:17:26Z</time>
      </trkpt>
      <trkpt lat="49.53362" lon="0.33849">
        <ele>112.199996948</ele>
        <time>2015-01-24T13:17:27Z</time>
      </trkpt>
      <trkpt lat="49.53354" lon="0.33853">
        <ele>112</ele>
        <time>2015-01-24T13:17:33Z</time>
      </trkpt>
      <trkpt lat="49.53352" lon="0.33854">
        <ele>111.900001526</ele>
        <time>2015-01-24T13:17:34Z</time>
      </trkpt>
      <trkpt lat="49.53344" lon="0.33856">
        <ele>111.199996948</ele>
        <time>2015-01-24T13:17:40Z</time>
      </trkpt>
      <trkpt lat="49.53343" lon="0.33856">
        <ele>111.099998474</ele>
        <time>2015-01-24T13:17:41Z</time>
      </trkpt>
      <trkpt lat="49.53334" lon="0.33857">
        <ele>110.5</ele>
        <time>2015-01-24T13:17:48Z</time>
      </trkpt>
      <trkpt lat="49.53332" lon="0.33857">
        <ele>110.400001526</ele>
        <time>2015-01-24T13:17:49Z</time>
      </trkpt>
      <trkpt lat="49.53324" lon="0.33857">
        <ele>109.800003052</ele>
        <time>2015-01-24T13:17:55Z</time>
      </trkpt>
      <trkpt lat="49.53322" lon="0.33857">
        <ele>109.699996948</ele>
        <time>2015-01-24T13:17:56Z</time>
      </trkpt>
      <trkpt lat="49.53314" lon="0.33858">
        <ele>109.699996948</ele>
        <time>2015-01-24T13:18:03Z</time>
      </trkpt>
      <trkpt lat="49.53312" lon="0.33858">
        <ele>109.699996948</ele>
        <time>2015-01-24T13:18:04Z</time>
      </trkpt>
      <trkpt lat="49.53305" lon="0.33853">
        <ele>109.300003052</ele>
        <time>2015-01-24T13:18:10Z</time>
      </trkpt>
      <trkpt lat="49.53304" lon="0.33852">
        <ele>109.300003052</ele>
        <time>2015-01-24T13:18:11Z</time>
      </trkpt>
      <trkpt lat="49.53298" lon="0.33843">
        <ele>109</ele>
        <time>2015-01-24T13:18:18Z</time>
      </trkpt>
      <trkpt lat="49.53297" lon="0.33841">
        <ele>109</ele>
        <time>2015-01-24T13:18:19Z</time>
      </trkpt>
      <trkpt lat="49.53291" lon="0.33831">
        <ele>108.800003052</ele>
        <time>2015-01-24T13:18:26Z</time>
      </trkpt>
      <trkpt lat="49.5329" lon="0.33829">
        <ele>109</ele>
        <time>2015-01-24T13:18:27Z</time>
      </trkpt>
      <trkpt lat="49.53284" lon="0.33819">
        <ele>108.5</ele>
        <time>2015-01-24T13:18:33Z</time>
      </trkpt>
      <trkpt lat="49.53284" lon="0.33817">
        <ele>108.300003052</ele>
        <time>2015-01-24T13:18:34Z</time>
      </trkpt>
      <trkpt lat="49.5328" lon="0.33804">
        <ele>107.900001526</ele>
        <time>2015-01-24T13:18:40Z</time>
      </trkpt>
      <trkpt lat="49.5328" lon="0.33803">
        <ele>108</ele>
        <time>2015-01-24T13:18:41Z</time>
      </trkpt>
      <trkpt lat="49.53279" lon="0.33791">
        <ele>107.699996948</ele>
        <time>2015-01-24T13:18:49Z</time>
      </trkpt>
      <trkpt lat="49.53278" lon="0.33789">
        <ele>107.599998474</ele>
        <time>2015-01-24T13:18:50Z</time>
      </trkpt>
      <trkpt lat="49.53275" lon="0.33778">
        <ele>107.599998474</ele>
        <time>2015-01-24T13:18:56Z</time>
      </trkpt>
      <trkpt lat="49.53275" lon="0.33776">
        <ele>107.5</ele>
        <time>2015-01-24T13:18:57Z</time>
      </trkpt>
      <trkpt lat="49.53277" lon="0.33763">
        <ele>107.099998474</ele>
        <time>2015-01-24T13:19:04Z</time>
      </trkpt>
      <trkpt lat="49.53277" lon="0.33762">
        <ele>107.099998474</ele>
        <time>2015-01-24T13:19:05Z</time>
      </trkpt>
      <trkpt lat="49.53276" lon="0.33748">
        <ele>106.400001526</ele>
        <time>2015-01-24T13:19:13Z</time>
      </trkpt>
      <trkpt lat="49.53276" lon="0.33747">
        <ele>106.300003052</ele>
        <time>2015-01-24T13:19:14Z</time>
      </trkpt>
      <trkpt lat="49.53277" lon="0.33734">
        <ele>107.099998474</ele>
        <time>2015-01-24T13:19:33Z</time>
      </trkpt>
      <trkpt lat="49.53278" lon="0.33733">
        <ele>107.099998474</ele>
        <time>2015-01-24T13:19:34Z</time>
      </trkpt>
      <trkpt lat="49.53278" lon="0.33719">
        <ele>107.199996948</ele>
        <time>2015-01-24T13:19:42Z</time>
      </trkpt>
      <trkpt lat="49.53278" lon="0.33717">
        <ele>107.199996948</ele>
        <time>2015-01-24T13:19:43Z</time>
      </trkpt>
      <trkpt lat="49.53273" lon="0.33706">
        <ele>107.300003052</ele>
        <time>2015-01-24T13:19:51Z</time>
      </trkpt>
      <trkpt lat="49.53273" lon="0.33705">
        <ele>107.300003052</ele>
        <time>2015-01-24T13:19:52Z</time>
      </trkpt>
      <trkpt lat="49.53273" lon="0.33692">
        <ele>107.5</ele>
        <time>2015-01-24T13:20:00Z</time>
      </trkpt>
      <trkpt lat="49.53273" lon="0.33691">
        <ele>107.5</ele>
        <time>2015-01-24T13:20:01Z</time>
      </trkpt>
      <trkpt lat="49.53275" lon="0.3368">
        <ele>107.699996948</ele>
        <time>2015-01-24T13:20:07Z</time>
      </trkpt>
      <trkpt lat="49.53275" lon="0.33677">
        <ele>108.099998474</ele>
        <time>2015-01-24T13:20:08Z</time>
      </trkpt>
      <trkpt lat="49.53274" lon="0.33667">
        <ele>108.699996948</ele>
        <time>2015-01-24T13:20:12Z</time>
      </trkpt>
      <trkpt lat="49.53273" lon="0.33663">
        <ele>108.699996948</ele>
        <time>2015-01-24T13:20:13Z</time>
      </trkpt>
      <trkpt lat="49.53274" lon="0.33651">
        <ele>109</ele>
        <time>2015-01-24T13:20:20Z</time>
      </trkpt>
      <trkpt lat="49.53274" lon="0.33649">
        <ele>108.900001526</ele>
        <time>2015-01-24T13:20:21Z</time>
      </trkpt>
      <trkpt lat="49.53274" lon="0.33636">
        <ele>107.900001526</ele>
        <time>2015-01-24T13:20:28Z</time>
      </trkpt>
      <trkpt lat="49.53274" lon="0.33634">
        <ele>107.599998474</ele>
        <time>2015-01-24T13:20:29Z</time>
      </trkpt>
      <trkpt lat="49.53273" lon="0.3362">
        <ele>107.400001526</ele>
        <time>2015-01-24T13:20:35Z</time>
      </trkpt>
      <trkpt lat="49.53272" lon="0.33618">
        <ele>107.5</ele>
        <time>2015-01-24T13:20:36Z</time>
      </trkpt>
      <trkpt lat="49.53273" lon="0.33606">
        <ele>107.199996948</ele>
        <time>2015-01-24T13:20:42Z</time>
      </trkpt>
      <trkpt lat="49.53273" lon="0.33604">
        <ele>107.099998474</ele>
        <time>2015-01-24T13:20:43Z</time>
      </trkpt>
      <trkpt lat="49.53268" lon="0.33592">
        <ele>106.699996948</ele>
        <time>2015-01-24T13:20:49Z</time>
      </trkpt>
      <trkpt lat="49.53267" lon="0.33591">
        <ele>106.599998474</ele>
        <time>2015-01-24T13:20:50Z</time>
      </trkpt>
      <trkpt lat="49.53262" lon="0.33581">
        <ele>106.099998474</ele>
        <time>2015-01-24T13:20:58Z</time>
      </trkpt>
      <trkpt lat="49.53262" lon="0.3358">
        <ele>106.099998474</ele>
        <time>2015-01-24T13:20:59Z</time>
      </trkpt>
      <trkpt lat="49.53254" lon="0.33573">
        <ele>105.699996948</ele>
        <time>2015-01-24T13:21:05Z</time>
      </trkpt>
      <trkpt lat="49.53253" lon="0.33571">
        <ele>105.699996948</ele>
        <time>2015-01-24T13:21:06Z</time>
      </trkpt>
      <trkpt lat="49.53246" lon="0.33563">
        <ele>105.800003052</ele>
        <time>2015-01-24T13:21:12Z</time>
      </trkpt>
      <trkpt lat="49.53245" lon="0.33561">
        <ele>105.900001526</ele>
        <time>2015-01-24T13:21:13Z</time>
      </trkpt>
      <trkpt lat="49.53239" lon="0.33552">
        <ele>106.400001526</ele>
        <time>2015-01-24T13:21:18Z</time>
      </trkpt>
      <trkpt lat="49.53237" lon="0.33551">
        <ele>106.599998474</ele>
        <time>2015-01-24T13:21:19Z</time>
      </trkpt>
      <trkpt lat="49.53231" lon="0.33541">
        <ele>106.699996948</ele>
        <time>2015-01-24T13:21:25Z</time>
      </trkpt>
      <trkpt lat="49.5323" lon="0.33539">
        <ele>106.800003052</ele>
        <time>2015-01-24T13:21:26Z</time>
      </trkpt>
      <trkpt lat="49.53225" lon="0.3353">
        <ele>107.300003052</ele>
        <time>2015-01-24T13:21:32Z</time>
      </trkpt>
      <trkpt lat="49.53224" lon="0.33529">
        <ele>107.599998474</ele>
        <time>2015-01-24T13:21:33Z</time>
      </trkpt>
      <trkpt lat="49.53219" lon="0.3352">
        <ele>108.900001526</ele>
        <time>2015-01-24T13:21:39Z</time>
      </trkpt>
      <trkpt lat="49.53218" lon="0.33518">
        <ele>109.099998474</ele>
        <time>2015-01-24T13:21:40Z</time>
      </trkpt>
      <trkpt lat="49.53218" lon="0.33505">
        <ele>109.800003052</ele>
        <time>2015-01-24T13:21:48Z</time>
      </trkpt>
      <trkpt lat="49.53218" lon="0.33504">
        <ele>109.900001526</ele>
        <time>2015-01-24T13:21:49Z</time>
      </trkpt>
      <trkpt lat="49.53219" lon="0.33491">
        <ele>110.199996948</ele>
        <time>2015-01-24T13:21:56Z</time>
      </trkpt>
      <trkpt lat="49.5322" lon="0.33489">
        <ele>110.300003052</ele>
        <time>2015-01-24T13:21:57Z</time>
      </trkpt>
      <trkpt lat="49.5322" lon="0.33476">
        <ele>111.099998474</ele>
        <time>2015-01-24T13:22:04Z</time>
      </trkpt>
      <trkpt lat="49.53221" lon="0.33474">
        <ele>111.099998474</ele>
        <time>2015-01-24T13:22:05Z</time>
      </trkpt>
      <trkpt lat="49.53221" lon="0.3346">
        <ele>112.199996948</ele>
        <time>2015-01-24T13:22:12Z</time>
      </trkpt>
      <trkpt lat="49.5322" lon="0.33458">
        <ele>112.5</ele>
        <time>2015-01-24T13:22:13Z</time>
      </trkpt>
      <trkpt lat="49.53221" lon="0.33445">
        <ele>113.599998474</ele>
        <time>2015-01-24T13:22:20Z</time>
      </trkpt>
      <trkpt lat="49.53221" lon="0.33443">
        <ele>113.800003052</ele>
        <time>2015-01-24T13:22:21Z</time>
      </trkpt>
      <trkpt lat="49.53221" lon="0.3343">
        <ele>114.400001526</ele>
        <time>2015-01-24T13:22:27Z</time>
      </trkpt>
      <trkpt lat="49.53221" lon="0.33427">
        <ele>114.400001526</ele>
        <time>2015-01-24T13:22:28Z</time>
      </trkpt>
      <trkpt lat="49.53221" lon="0.33414">
        <ele>115.300003052</ele>
        <time>2015-01-24T13:22:34Z</time>
      </trkpt>
      <trkpt lat="49.53221" lon="0.33412">
        <ele>115.5</ele>
        <time>2015-01-24T13:22:35Z</time>
      </trkpt>
      <trkpt lat="49.53222" lon="0.33398">
        <ele>116</ele>
        <time>2015-01-24T13:22:41Z</time>
      </trkpt>
      <trkpt lat="49.53223" lon="0.33395">
        <ele>116</ele>
        <time>2015-01-24T13:22:42Z</time>
      </trkpt>
      <trkpt lat="49.53225" lon="0.33384">
        <ele>115.699996948</ele>
        <time>2015-01-24T13:22:48Z</time>
      </trkpt>
      <trkpt lat="49.53226" lon="0.33382">
        <ele>115.699996948</ele>
        <time>2015-01-24T13:22:49Z</time>
      </trkpt>
      <trkpt lat="49.53225" lon="0.33369">
        <ele>116.099998474</ele>
        <time>2015-01-24T13:22:55Z</time>
      </trkpt>
      <trkpt lat="49.53225" lon="0.33367">
        <ele>116.199996948</ele>
        <time>2015-01-24T13:22:56Z</time>
      </trkpt>
      <trkpt lat="49.53224" lon="0.33355">
        <ele>116.099998474</ele>
        <time>2015-01-24T13:23:01Z</time>
      </trkpt>
      <trkpt lat="49.53224" lon="0.33353">
        <ele>115.900001526</ele>
        <time>2015-01-24T13:23:02Z</time>
      </trkpt>
      <trkpt lat="49.53224" lon="0.33339">
        <ele>115.599998474</ele>
        <time>2015-01-24T13:23:08Z</time>
      </trkpt>
      <trkpt lat="49.53225" lon="0.33337">
        <ele>115.5</ele>
        <time>2015-01-24T13:23:09Z</time>
      </trkpt>
      <trkpt lat="49.53226" lon="0.33324">
        <ele>115.800003052</ele>
        <time>2015-01-24T13:23:16Z</time>
      </trkpt>
      <trkpt lat="49.53227" lon="0.33322">
        <ele>116</ele>
        <time>2015-01-24T13:23:17Z</time>
      </trkpt>
      <trkpt lat="49.53226" lon="0.33309">
        <ele>115.699996948</ele>
        <time>2015-01-24T13:23:24Z</time>
      </trkpt>
      <trkpt lat="49.53226" lon="0.33307">
        <ele>115.800003052</ele>
        <time>2015-01-24T13:23:25Z</time>
      </trkpt>
      <trkpt lat="49.53221" lon="0.33297">
        <ele>115.800003052</ele>
        <time>2015-01-24T13:23:35Z</time>
      </trkpt>
      <trkpt lat="49.5322" lon="0.33296">
        <ele>115.699996948</ele>
        <time>2015-01-24T13:23:36Z</time>
      </trkpt>
      <trkpt lat="49.53212" lon="0.33288">
        <ele>115.300003052</ele>
        <time>2015-01-24T13:23:45Z</time>
      </trkpt>
      <trkpt lat="49.53212" lon="0.33288">
        <ele>115.300003052</ele>
        <time>2015-01-24T13:23:46Z</time>
      </trkpt>
      <trkpt lat="49.53203" lon="0.33287">
        <ele>115.5</ele>
        <time>2015-01-24T13:24:00Z</time>
      </trkpt>
      <trkpt lat="49.53201" lon="0.33287">
        <ele>115.599998474</ele>
        <time>2015-01-24T13:24:01Z</time>
      </trkpt>
      <trkpt lat="49.53193" lon="0.33286">
        <ele>115.5</ele>
        <time>2015-01-24T13:24:09Z</time>
      </trkpt>
      <trkpt lat="49.53192" lon="0.33286">
        <ele>115.5</ele>
        <time>2015-01-24T13:24:10Z</time>
      </trkpt>
      <trkpt lat="49.53183" lon="0.33285">
        <ele>115.099998474</ele>
        <time>2015-01-24T13:24:18Z</time>
      </trkpt>
      <trkpt lat="49.53182" lon="0.33284">
        <ele>114.900001526</ele>
        <time>2015-01-24T13:24:19Z</time>
      </trkpt>
      <trkpt lat="49.53174" lon="0.33282">
        <ele>114</ele>
        <time>2015-01-24T13:24:25Z</time>
      </trkpt>
      <trkpt lat="49.53173" lon="0.33282">
        <ele>113.800003052</ele>
        <time>2015-01-24T13:24:26Z</time>
      </trkpt>
      <trkpt lat="49.53165" lon="0.33282">
        <ele>113</ele>
        <time>2015-01-24T13:24:32Z</time>
      </trkpt>
      <trkpt lat="49.53164" lon="0.33283">
        <ele>112.900001526</ele>
        <time>2015-01-24T13:24:33Z</time>
      </trkpt>
      <trkpt lat="49.53155" lon="0.33281">
        <ele>112.300003052</ele>
        <time>2015-01-24T13:24:39Z</time>
      </trkpt>
      <trkpt lat="49.53154" lon="0.3328">
        <ele>112.300003052</ele>
        <time>2015-01-24T13:24:40Z</time>
      </trkpt>
      <trkpt lat="49.53146" lon="0.33277">
        <ele>111</ele>
        <time>2015-01-24T13:24:48Z</time>
      </trkpt>
      <trkpt lat="49.53145" lon="0.33276">
        <ele>110.800003052</ele>
        <time>2015-01-24T13:24:49Z</time>
      </trkpt>
      <trkpt lat="49.53137" lon="0.33273">
        <ele>109.5</ele>
        <time>2015-01-24T13:24:55Z</time>
      </trkpt>
      <trkpt lat="49.53135" lon="0.33273">
        <ele>109.400001526</ele>
        <time>2015-01-24T13:24:56Z</time>
      </trkpt>
      <trkpt lat="49.53127" lon="0.33271">
        <ele>108.900001526</ele>
        <time>2015-01-24T13:25:02Z</time>
      </trkpt>
      <trkpt lat="49.53126" lon="0.3327">
        <ele>108.599998474</ele>
        <time>2015-01-24T13:25:03Z</time>
      </trkpt>
      <trkpt lat="49.53118" lon="0.33268">
        <ele>107.5</ele>
        <time>2015-01-24T13:25:09Z</time>
      </trkpt>
      <trkpt lat="49.53116" lon="0.33268">
        <ele>107.300003052</ele>
        <time>2015-01-24T13:25:10Z</time>
      </trkpt>
      <trkpt lat="49.53107" lon="0.33267">
        <ele>105.199996948</ele>
        <time>2015-01-24T13:25:18Z</time>
      </trkpt>
      <trkpt lat="49.53106" lon="0.33266">
        <ele>104.800003052</ele>
        <time>2015-01-24T13:25:19Z</time>
      </trkpt>
      <trkpt lat="49.53098" lon="0.33265">
        <ele>102.599998474</ele>
        <time>2015-01-24T13:25:27Z</time>
      </trkpt>
      <trkpt lat="49.53097" lon="0.33264">
        <ele>102.300003052</ele>
        <time>2015-01-24T13:25:28Z</time>
      </trkpt>
      <trkpt lat="49.53089" lon="0.33261">
        <ele>99.900001526</ele>
        <time>2015-01-24T13:25:35Z</time>
      </trkpt>
      <trkpt lat="49.53088" lon="0.3326">
        <ele>99.5</ele>
        <time>2015-01-24T13:25:36Z</time>
      </trkpt>
      <trkpt lat="49.53079" lon="0.33258">
        <ele>97.300003052</ele>
        <time>2015-01-24T13:25:42Z</time>
      </trkpt>
      <trkpt lat="49.53078" lon="0.33258">
        <ele>96.900001526</ele>
        <time>2015-01-24T13:25:43Z</time>
      </trkpt>
      <trkpt lat="49.53069" lon="0.33256">
        <ele>95.199996948</ele>
        <time>2015-01-24T13:25:49Z</time>
      </trkpt>
      <trkpt lat="49.53068" lon="0.33256">
        <ele>95</ele>
        <time>2015-01-24T13:25:50Z</time>
      </trkpt>
      <trkpt lat="49.5306" lon="0.33255">
        <ele>92.900001526</ele>
        <time>2015-01-24T13:25:57Z</time>
      </trkpt>
      <trkpt lat="49.53059" lon="0.33255">
        <ele>92.599998474</ele>
        <time>2015-01-24T13:25:58Z</time>
      </trkpt>
      <trkpt lat="49.5305" lon="0.33255">
        <ele>91.099998474</ele>
        <time>2015-01-24T13:26:04Z</time>
      </trkpt>
      <trkpt lat="49.53049" lon="0.33255">
        <ele>90.800003052</ele>
        <time>2015-01-24T13:26:05Z</time>
      </trkpt>
      <trkpt lat="49.5304" lon="0.33257">
        <ele>89.800003052</ele>
        <time>2015-01-24T13:26:10Z</time>
      </trkpt>
      <trkpt lat="49.53039" lon="0.33257">
        <ele>89.400001526</ele>
        <time>2015-01-24T13:26:11Z</time>
      </trkpt>
      <trkpt lat="49.53031" lon="0.33256">
        <ele>87.599998474</ele>
        <time>2015-01-24T13:26:17Z</time>
      </trkpt>
      <trkpt lat="49.53029" lon="0.33255">
        <ele>87.300003052</ele>
        <time>2015-01-24T13:26:18Z</time>
      </trkpt>
      <trkpt lat="49.53022" lon="0.3325">
        <ele>86.599998474</ele>
        <time>2015-01-24T13:26:24Z</time>
      </trkpt>
      <trkpt lat="49.5302" lon="0.33249">
        <ele>86.599998474</ele>
        <time>2015-01-24T13:26:25Z</time>
      </trkpt>
      <trkpt lat="49.53012" lon="0.33245">
        <ele>86.599998474</ele>
        <time>2015-01-24T13:26:30Z</time>
      </trkpt>
      <trkpt lat="49.5301" lon="0.33245">
        <ele>86.5</ele>
        <time>2015-01-24T13:26:31Z</time>
      </trkpt>
      <trkpt lat="49.53002" lon="0.33244">
        <ele>89.800003052</ele>
        <time>2015-01-24T13:26:38Z</time>
      </trkpt>
      <trkpt lat="49.53001" lon="0.33243">
        <ele>90.199996948</ele>
        <time>2015-01-24T13:26:39Z</time>
      </trkpt>
      <trkpt lat="49.52992" lon="0.33241">
        <ele>92.099998474</ele>
        <time>2015-01-24T13:26:46Z</time>
      </trkpt>
      <trkpt lat="49.52991" lon="0.33241">
        <ele>92.300003052</ele>
        <time>2015-01-24T13:26:47Z</time>
      </trkpt>
      <trkpt lat="49.52982" lon="0.33237">
        <ele>94.400001526</ele>
        <time>2015-01-24T13:26:53Z</time>
      </trkpt>
      <trkpt lat="49.52981" lon="0.33236">
        <ele>94.900001526</ele>
        <time>2015-01-24T13:26:54Z</time>
      </trkpt>
      <trkpt lat="49.52973" lon="0.33231">
        <ele>97</ele>
        <time>2015-01-24T13:27:00Z</time>
      </trkpt>
      <trkpt lat="49.52971" lon="0.33231">
        <ele>97.199996948</ele>
        <time>2015-01-24T13:27:01Z</time>
      </trkpt>
      <trkpt lat="49.52963" lon="0.33226">
        <ele>98.800003052</ele>
        <time>2015-01-24T13:27:07Z</time>
      </trkpt>
      <trkpt lat="49.52961" lon="0.33226">
        <ele>99.199996948</ele>
        <time>2015-01-24T13:27:08Z</time>
      </trkpt>
      <trkpt lat="49.52953" lon="0.33224">
        <ele>100.800003052</ele>
        <time>2015-01-24T13:27:13Z</time>
      </trkpt>
      <trkpt lat="49.52951" lon="0.33224">
        <ele>101.099998474</ele>
        <time>2015-01-24T13:27:14Z</time>
      </trkpt>
      <trkpt lat="49.52943" lon="0.3322">
        <ele>102.599998474</ele>
        <time>2015-01-24T13:27:19Z</time>
      </trkpt>
      <trkpt lat="49.52942" lon="0.33219">
        <ele>102.800003052</ele>
        <time>2015-01-24T13:27:20Z</time>
      </trkpt>
      <trkpt lat="49.52935" lon="0.33214">
        <ele>104</ele>
        <time>2015-01-24T13:27:26Z</time>
      </trkpt>
      <trkpt lat="49.52933" lon="0.33213">
        <ele>104.099998474</ele>
        <time>2015-01-24T13:27:27Z</time>
      </trkpt>
      <trkpt lat="49.52926" lon="0.33209">
        <ele>105.5</ele>
        <time>2015-01-24T13:27:33Z</time>
      </trkpt>
      <trkpt lat="49.52925" lon="0.33207">
        <ele>105.699996948</ele>
        <time>2015-01-24T13:27:34Z</time>
      </trkpt>
      <trkpt lat="49.52916" lon="0.33202">
        <ele>106.699996948</ele>
        <time>2015-01-24T13:27:42Z</time>
      </trkpt>
      <trkpt lat="49.52915" lon="0.33202">
        <ele>106.699996948</ele>
        <time>2015-01-24T13:27:43Z</time>
      </trkpt>
      <trkpt lat="49.52907" lon="0.33197">
        <ele>107</ele>
        <time>2015-01-24T13:27:50Z</time>
      </trkpt>
      <trkpt lat="49.52906" lon="0.33197">
        <ele>106.900001526</ele>
        <time>2015-01-24T13:27:51Z</time>
      </trkpt>
      <trkpt lat="49.52898" lon="0.33193">
        <ele>106.699996948</ele>
        <time>2015-01-24T13:27:57Z</time>
      </trkpt>
      <trkpt lat="49.52897" lon="0.33193">
        <ele>106.5</ele>
        <time>2015-01-24T13:27:58Z</time>
      </trkpt>
      <trkpt lat="49.52889" lon="0.33189">
        <ele>105.900001526</ele>
        <time>2015-01-24T13:28:04Z</time>
      </trkpt>
      <trkpt lat="49.52888" lon="0.33189">
        <ele>105.800003052</ele>
        <time>2015-01-24T13:28:05Z</time>
      </trkpt>
      <trkpt lat="49.5288" lon="0.33183">
        <ele>104.699996948</ele>
        <time>2015-01-24T13:28:13Z</time>
      </trkpt>
      <trkpt lat="49.52879" lon="0.33183">
        <ele>104.599998474</ele>
        <time>2015-01-24T13:28:14Z</time>
      </trkpt>
      <trkpt lat="49.5287" lon="0.33179">
        <ele>104</ele>
        <time>2015-01-24T13:28:21Z</time>
      </trkpt>
      <trkpt lat="49.52868" lon="0.33179">
        <ele>104.099998474</ele>
        <time>2015-01-24T13:28:22Z</time>
      </trkpt>
      <trkpt lat="49.52877" lon="0.33185">
        <ele>103.099998474</ele>
        <time>2015-01-24T13:28:41Z</time>
      </trkpt>
      <trkpt lat="49.52877" lon="0.33186">
        <ele>103</ele>
        <time>2015-01-24T13:28:42Z</time>
      </trkpt>
      <trkpt lat="49.52885" lon="0.3319">
        <ele>102.400001526</ele>
        <time>2015-01-24T13:28:50Z</time>
      </trkpt>
      <trkpt lat="49.52887" lon="0.3319">
        <ele>102.199996948</ele>
        <time>2015-01-24T13:28:51Z</time>
      </trkpt>
      <trkpt lat="49.52894" lon="0.33196">
        <ele>102.199996948</ele>
        <time>2015-01-24T13:28:57Z</time>
      </trkpt>
      <trkpt lat="49.52895" lon="0.33197">
        <ele>102</ele>
        <time>2015-01-24T13:28:58Z</time>
      </trkpt>
      <trkpt lat="49.52902" lon="0.33201">
        <ele>101.900001526</ele>
        <time>2015-01-24T13:29:04Z</time>
      </trkpt>
      <trkpt lat="49.52903" lon="0.33202">
        <ele>101.900001526</ele>
        <time>2015-01-24T13:29:05Z</time>
      </trkpt>
      <trkpt lat="49.52911" lon="0.33206">
        <ele>101.199996948</ele>
        <time>2015-01-24T13:29:13Z</time>
      </trkpt>
      <trkpt lat="49.52912" lon="0.33206">
        <ele>101.099998474</ele>
        <time>2015-01-24T13:29:14Z</time>
      </trkpt>
      <trkpt lat="49.52919" lon="0.3321">
        <ele>99.800003052</ele>
        <time>2015-01-24T13:29:21Z</time>
      </trkpt>
      <trkpt lat="49.5292" lon="0.3321">
        <ele>99.5</ele>
        <time>2015-01-24T13:29:22Z</time>
      </trkpt>
      <trkpt lat="49.52928" lon="0.33214">
        <ele>99.099998474</ele>
        <time>2015-01-24T13:29:28Z</time>
      </trkpt>
      <trkpt lat="49.52929" lon="0.33215">
        <ele>99.099998474</ele>
        <time>2015-01-24T13:29:29Z</time>
      </trkpt>
      <trkpt lat="49.52937" lon="0.3322">
        <ele>99.300003052</ele>
        <time>2015-01-24T13:29:36Z</time>
      </trkpt>
      <trkpt lat="49.52938" lon="0.3322">
        <ele>99.300003052</ele>
        <time>2015-01-24T13:29:37Z</time>
      </trkpt>
      <trkpt lat="49.52946" lon="0.33225">
        <ele>99</ele>
        <time>2015-01-24T13:29:45Z</time>
      </trkpt>
      <trkpt lat="49.52947" lon="0.33226">
        <ele>98.900001526</ele>
        <time>2015-01-24T13:29:46Z</time>
      </trkpt>
      <trkpt lat="49.52956" lon="0.3323">
        <ele>99</ele>
        <time>2015-01-24T13:29:52Z</time>
      </trkpt>
      <trkpt lat="49.52957" lon="0.3323">
        <ele>98.900001526</ele>
        <time>2015-01-24T13:29:53Z</time>
      </trkpt>
      <trkpt lat="49.52964" lon="0.33233">
        <ele>99.599998474</ele>
        <time>2015-01-24T13:29:59Z</time>
      </trkpt>
      <trkpt lat="49.52966" lon="0.33233">
        <ele>99.699996948</ele>
        <time>2015-01-24T13:30:00Z</time>
      </trkpt>
      <trkpt lat="49.52973" lon="0.33235">
        <ele>100.599998474</ele>
        <time>2015-01-24T13:30:06Z</time>
      </trkpt>
      <trkpt lat="49.52975" lon="0.33236">
        <ele>100.800003052</ele>
        <time>2015-01-24T13:30:07Z</time>
      </trkpt>
      <trkpt lat="49.52983" lon="0.33237">
        <ele>100.699996948</ele>
        <time>2015-01-24T13:30:14Z</time>
      </trkpt>
      <trkpt lat="49.52984" lon="0.33237">
        <ele>100.5</ele>
        <time>2015-01-24T13:30:15Z</time>
      </trkpt>
      <trkpt lat="49.52992" lon="0.3324">
        <ele>100.5</ele>
        <time>2015-01-24T13:30:21Z</time>
      </trkpt>
      <trkpt lat="49.52993" lon="0.3324">
        <ele>100.800003052</ele>
        <time>2015-01-24T13:30:22Z</time>
      </trkpt>
      <trkpt lat="49.53002" lon="0.33242">
        <ele>103.199996948</ele>
        <time>2015-01-24T13:30:27Z</time>
      </trkpt>
      <trkpt lat="49.53004" lon="0.33242">
        <ele>103.800003052</ele>
        <time>2015-01-24T13:30:28Z</time>
      </trkpt>
      <trkpt lat="49.53012" lon="0.3324">
        <ele>107.099998474</ele>
        <time>2015-01-24T13:30:32Z</time>
      </trkpt>
      <trkpt lat="49.53014" lon="0.33239">
        <ele>107.300003052</ele>
        <time>2015-01-24T13:30:33Z</time>
      </trkpt>
      <trkpt lat="49.53021" lon="0.33231">
        <ele>108.699996948</ele>
        <time>2015-01-24T13:30:41Z</time>
      </trkpt>
      <trkpt lat="49.53022" lon="0.3323">
        <ele>108.900001526</ele>
        <time>2015-01-24T13:30:42Z</time>
      </trkpt>
      <trkpt lat="49.53025" lon="0.33218">
        <ele>110.5</ele>
        <time>2015-01-24T13:30:51Z</time>
      </trkpt>
      <trkpt lat="49.53025" lon="0.33217">
        <ele>110.699996948</ele>
        <time>2015-01-24T13:30:52Z</time>
      </trkpt>
      <trkpt lat="49.53026" lon="0.33204">
        <ele>112.099998474</ele>
        <time>2015-01-24T13:31:12Z</time>
      </trkpt>
      <trkpt lat="49.53026" lon="0.33203">
        <ele>112.099998474</ele>
        <time>2015-01-24T13:31:13Z</time>
      </trkpt>
      <trkpt lat="49.53028" lon="0.33189">
        <ele>112.099998474</ele>
        <time>2015-01-24T13:31:23Z</time>
      </trkpt>
      <trkpt lat="49.53029" lon="0.33188">
        <ele>112</ele>
        <time>2015-01-24T13:31:24Z</time>
      </trkpt>
      <trkpt lat="49.5303" lon="0.33175">
        <ele>112.400001526</ele>
        <time>2015-01-24T13:31:31Z</time>
      </trkpt>
      <trkpt lat="49.5303" lon="0.33174">
        <ele>112.300003052</ele>
        <time>2015-01-24T13:31:32Z</time>
      </trkpt>
      <trkpt lat="49.53031" lon="0.33161">
        <ele>112.5</ele>
        <time>2015-01-24T13:31:39Z</time>
      </trkpt>
      <trkpt lat="49.53032" lon="0.33159">
        <ele>112.599998474</ele>
        <time>2015-01-24T13:31:40Z</time>
      </trkpt>
      <trkpt lat="49.53034" lon="0.33146">
        <ele>113.400001526</ele>
        <time>2015-01-24T13:31:48Z</time>
      </trkpt>
      <trkpt lat="49.53034" lon="0.33144">
        <ele>113.400001526</ele>
        <time>2015-01-24T13:31:49Z</time>
      </trkpt>
      <trkpt lat="49.53036" lon="0.33132">
        <ele>113.099998474</ele>
        <time>2015-01-24T13:31:56Z</time>
      </trkpt>
      <trkpt lat="49.53037" lon="0.3313">
        <ele>113.199996948</ele>
        <time>2015-01-24T13:31:57Z</time>
      </trkpt>
      <trkpt lat="49.53038" lon="0.33117">
        <ele>113.400001526</ele>
        <time>2015-01-24T13:32:04Z</time>
      </trkpt>
      <trkpt lat="49.53038" lon="0.33115">
        <ele>113.599998474</ele>
        <time>2015-01-24T13:32:05Z</time>
      </trkpt>
      <trkpt lat="49.53039" lon="0.33102">
        <ele>114.199996948</ele>
        <time>2015-01-24T13:32:12Z</time>
      </trkpt>
      <trkpt lat="49.5304" lon="0.331">
        <ele>114.199996948</ele>
        <time>2015-01-24T13:32:13Z</time>
      </trkpt>
      <trkpt lat="49.5304" lon="0.33088">
        <ele>114.599998474</ele>
        <time>2015-01-24T13:32:20Z</time>
      </trkpt>
      <trkpt lat="49.5304" lon="0.33086">
        <ele>114.699996948</ele>
        <time>2015-01-24T13:32:21Z</time>
      </trkpt>
      <trkpt lat="49.53041" lon="0.33074">
        <ele>114.800003052</ele>
        <time>2015-01-24T13:32:27Z</time>
      </trkpt>
      <trkpt lat="49.53041" lon="0.33072">
        <ele>114.699996948</ele>
        <time>2015-01-24T13:32:28Z</time>
      </trkpt>
      <trkpt lat="49.53043" lon="0.33059">
        <ele>114.599998474</ele>
        <time>2015-01-24T13:32:35Z</time>
      </trkpt>
      <trkpt lat="49.53043" lon="0.33056">
        <ele>114.5</ele>
        <time>2015-01-24T13:32:36Z</time>
      </trkpt>
      <trkpt lat="49.53044" lon="0.33044">
        <ele>114.5</ele>
        <time>2015-01-24T13:32:42Z</time>
      </trkpt>
      <trkpt lat="49.53045" lon="0.33043">
        <ele>114.400001526</ele>
        <time>2015-01-24T13:32:43Z</time>
      </trkpt>
      <trkpt lat="49.53047" lon="0.33029">
        <ele>114.599998474</ele>
        <time>2015-01-24T13:32:51Z</time>
      </trkpt>
      <trkpt lat="49.53047" lon="0.33028">
        <ele>114.599998474</ele>
        <time>2015-01-24T13:32:52Z</time>
      </trkpt>
      <trkpt lat="49.53049" lon="0.33015">
        <ele>114.699996948</ele>
        <time>2015-01-24T13:32:58Z</time>
      </trkpt>
      <trkpt lat="49.53049" lon="0.33014">
        <ele>114.599998474</ele>
        <time>2015-01-24T13:32:59Z</time>
      </trkpt>
      <trkpt lat="49.53052" lon="0.33002">
        <ele>114.400001526</ele>
        <time>2015-01-24T13:33:05Z</time>
      </trkpt>
      <trkpt lat="49.53052" lon="0.33">
        <ele>114.300003052</ele>
        <time>2015-01-24T13:33:06Z</time>
      </trkpt>
      <trkpt lat="49.53053" lon="0.32988">
        <ele>114.099998474</ele>
        <time>2015-01-24T13:33:12Z</time>
      </trkpt>
      <trkpt lat="49.53054" lon="0.32986">
        <ele>114</ele>
        <time>2015-01-24T13:33:13Z</time>
      </trkpt>
      <trkpt lat="49.53056" lon="0.32973">
        <ele>112.5</ele>
        <time>2015-01-24T13:33:20Z</time>
      </trkpt>
      <trkpt lat="49.53056" lon="0.32971">
        <ele>112.199996948</ele>
        <time>2015-01-24T13:33:21Z</time>
      </trkpt>
      <trkpt lat="49.53055" lon="0.32959">
        <ele>111.300003052</ele>
        <time>2015-01-24T13:33:27Z</time>
      </trkpt>
      <trkpt lat="49.53055" lon="0.32957">
        <ele>111.199996948</ele>
        <time>2015-01-24T13:33:28Z</time>
      </trkpt>
      <trkpt lat="49.53058" lon="0.32945">
        <ele>111.300003052</ele>
        <time>2015-01-24T13:33:35Z</time>
      </trkpt>
      <trkpt lat="49.53059" lon="0.32942">
        <ele>111.099998474</ele>
        <time>2015-01-24T13:33:36Z</time>
      </trkpt>
      <trkpt lat="49.5306" lon="0.3293">
        <ele>110.800003052</ele>
        <time>2015-01-24T13:33:43Z</time>
      </trkpt>
      <trkpt lat="49.53061" lon="0.32928">
        <ele>110.699996948</ele>
        <time>2015-01-24T13:33:44Z</time>
      </trkpt>
      <trkpt lat="49.53063" lon="0.32915">
        <ele>110.300003052</ele>
        <time>2015-01-24T13:33:51Z</time>
      </trkpt>
      <trkpt lat="49.53063" lon="0.32913">
        <ele>110.300003052</ele>
        <time>2015-01-24T13:33:52Z</time>
      </trkpt>
      <trkpt lat="49.53065" lon="0.329">
        <ele>110</ele>
        <time>2015-01-24T13:33:59Z</time>
      </trkpt>
      <trkpt lat="49.53065" lon="0.32898">
        <ele>110</ele>
        <time>2015-01-24T13:34:00Z</time>
      </trkpt>
      <trkpt lat="49.53068" lon="0.32885">
        <ele>109.300003052</ele>
        <time>2015-01-24T13:34:07Z</time>
      </trkpt>
      <trkpt lat="49.53068" lon="0.32883">
        <ele>109.099998474</ele>
        <time>2015-01-24T13:34:08Z</time>
      </trkpt>
      <trkpt lat="49.53068" lon="0.32871">
        <ele>108.900001526</ele>
        <time>2015-01-24T13:34:14Z</time>
      </trkpt>
      <trkpt lat="49.53068" lon="0.32869">
        <ele>108.900001526</ele>
        <time>2015-01-24T13:34:15Z</time>
      </trkpt>
      <trkpt lat="49.53071" lon="0.32858">
        <ele>108.300003052</ele>
        <time>2015-01-24T13:34:22Z</time>
      </trkpt>
      <trkpt lat="49.53071" lon="0.32856">
        <ele>108.199996948</ele>
        <time>2015-01-24T13:34:22Z</time>
      </trkpt>
      <trkpt lat="49.53073" lon="0.32842">
        <ele>107.400001526</ele>
        <time>2015-01-24T13:34:29Z</time>
      </trkpt>
      <trkpt lat="49.53074" lon="0.32841">
        <ele>107.5</ele>
        <time>2015-01-24T13:34:30Z</time>
      </trkpt>
      <trkpt lat="49.53076" lon="0.32829">
        <ele>107.400001526</ele>
        <time>2015-01-24T13:34:36Z</time>
      </trkpt>
      <trkpt lat="49.53076" lon="0.32827">
        <ele>107.199996948</ele>
        <time>2015-01-24T13:34:37Z</time>
      </trkpt>
      <trkpt lat="49.53078" lon="0.32814">
        <ele>106.5</ele>
        <time>2015-01-24T13:34:44Z</time>
      </trkpt>
      <trkpt lat="49.53079" lon="0.32812">
        <ele>106.5</ele>
        <time>2015-01-24T13:34:45Z</time>
      </trkpt>
      <trkpt lat="49.53079" lon="0.328">
        <ele>106.300003052</ele>
        <time>2015-01-24T13:34:51Z</time>
      </trkpt>
      <trkpt lat="49.5308" lon="0.32798">
        <ele>106.300003052</ele>
        <time>2015-01-24T13:34:52Z</time>
      </trkpt>
      <trkpt lat="49.53082" lon="0.32786">
        <ele>106.199996948</ele>
        <time>2015-01-24T13:34:59Z</time>
      </trkpt>
      <trkpt lat="49.53082" lon="0.32784">
        <ele>106.099998474</ele>
        <time>2015-01-24T13:35:00Z</time>
      </trkpt>
      <trkpt lat="49.53085" lon="0.32772">
        <ele>106.300003052</ele>
        <time>2015-01-24T13:35:06Z</time>
      </trkpt>
      <trkpt lat="49.53085" lon="0.3277">
        <ele>106.300003052</ele>
        <time>2015-01-24T13:35:07Z</time>
      </trkpt>
      <trkpt lat="49.53085" lon="0.32758">
        <ele>106.400001526</ele>
        <time>2015-01-24T13:35:13Z</time>
      </trkpt>
      <trkpt lat="49.53085" lon="0.32756">
        <ele>106.400001526</ele>
        <time>2015-01-24T13:35:14Z</time>
      </trkpt>
      <trkpt lat="49.53087" lon="0.32744">
        <ele>106.099998474</ele>
        <time>2015-01-24T13:35:20Z</time>
      </trkpt>
      <trkpt lat="49.53088" lon="0.32742">
        <ele>106</ele>
        <time>2015-01-24T13:35:21Z</time>
      </trkpt>
      <trkpt lat="49.5309" lon="0.32729">
        <ele>105.300003052</ele>
        <time>2015-01-24T13:35:28Z</time>
      </trkpt>
      <trkpt lat="49.5309" lon="0.32727">
        <ele>105.199996948</ele>
        <time>2015-01-24T13:35:29Z</time>
      </trkpt>
      <trkpt lat="49.53092" lon="0.32714">
        <ele>105.199996948</ele>
        <time>2015-01-24T13:35:36Z</time>
      </trkpt>
      <trkpt lat="49.53092" lon="0.32712">
        <ele>105.199996948</ele>
        <time>2015-01-24T13:35:37Z</time>
      </trkpt>
      <trkpt lat="49.53094" lon="0.32699">
        <ele>104.400001526</ele>
        <time>2015-01-24T13:35:43Z</time>
      </trkpt>
      <trkpt lat="49.53095" lon="0.32697">
        <ele>104.199996948</ele>
        <time>2015-01-24T13:35:44Z</time>
      </trkpt>
      <trkpt lat="49.53095" lon="0.32684">
        <ele>104.199996948</ele>
        <time>2015-01-24T13:35:50Z</time>
      </trkpt>
      <trkpt lat="49.53096" lon="0.32683">
        <ele>104.199996948</ele>
        <time>2015-01-24T13:35:51Z</time>
      </trkpt>
      <trkpt lat="49.53098" lon="0.3267">
        <ele>103.900001526</ele>
        <time>2015-01-24T13:35:58Z</time>
      </trkpt>
      <trkpt lat="49.53099" lon="0.32669">
        <ele>103.800003052</ele>
        <time>2015-01-24T13:35:59Z</time>
      </trkpt>
      <trkpt lat="49.53102" lon="0.32657">
        <ele>103.400001526</ele>
        <time>2015-01-24T13:36:05Z</time>
      </trkpt>
      <trkpt lat="49.53102" lon="0.32656">
        <ele>103.300003052</ele>
        <time>2015-01-24T13:36:06Z</time>
      </trkpt>
      <trkpt lat="49.53105" lon="0.32643">
        <ele>102.900001526</ele>
        <time>2015-01-24T13:36:13Z</time>
      </trkpt>
      <trkpt lat="49.53105" lon="0.32641">
        <ele>102.900001526</ele>
        <time>2015-01-24T13:36:14Z</time>
      </trkpt>
      <trkpt lat="49.53107" lon="0.32628">
        <ele>103.099998474</ele>
        <time>2015-01-24T13:36:21Z</time>
      </trkpt>
      <trkpt lat="49.53107" lon="0.32627">
        <ele>103.199996948</ele>
        <time>2015-01-24T13:36:22Z</time>
      </trkpt>
      <trkpt lat="49.5311" lon="0.32615">
        <ele>103.099998474</ele>
        <time>2015-01-24T13:36:27Z</time>
      </trkpt>
      <trkpt lat="49.53109" lon="0.32613">
        <ele>103.099998474</ele>
        <time>2015-01-24T13:36:28Z</time>
      </trkpt>
      <trkpt lat="49.5311" lon="0.326">
        <ele>102.900001526</ele>
        <time>2015-01-24T13:36:35Z</time>
      </trkpt>
      <trkpt lat="49.5311" lon="0.32598">
        <ele>102.699996948</ele>
        <time>2015-01-24T13:36:36Z</time>
      </trkpt>
      <trkpt lat="49.53108" lon="0.32586">
        <ele>102.400001526</ele>
        <time>2015-01-24T13:36:44Z</time>
      </trkpt>
      <trkpt lat="49.53107" lon="0.32585">
        <ele>102.400001526</ele>
        <time>2015-01-24T13:36:45Z</time>
      </trkpt>
      <trkpt lat="49.53104" lon="0.32573">
        <ele>102.400001526</ele>
        <time>2015-01-24T13:36:52Z</time>
      </trkpt>
      <trkpt lat="49.53103" lon="0.32572">
        <ele>102.300003052</ele>
        <time>2015-01-24T13:36:53Z</time>
      </trkpt>
      <trkpt lat="49.531" lon="0.32559">
        <ele>101.699996948</ele>
        <time>2015-01-24T13:37:00Z</time>
      </trkpt>
      <trkpt lat="49.53099" lon="0.32557">
        <ele>101.699996948</ele>
        <time>2015-01-24T13:37:01Z</time>
      </trkpt>
      <trkpt lat="49.53096" lon="0.32545">
        <ele>101.199996948</ele>
        <time>2015-01-24T13:37:08Z</time>
      </trkpt>
      <trkpt lat="49.53095" lon="0.32543">
        <ele>101.199996948</ele>
        <time>2015-01-24T13:37:09Z</time>
      </trkpt>
      <trkpt lat="49.53091" lon="0.32532">
        <ele>100.900001526</ele>
        <time>2015-01-24T13:37:14Z</time>
      </trkpt>
      <trkpt lat="49.5309" lon="0.32531">
        <ele>100.800003052</ele>
        <time>2015-01-24T13:37:15Z</time>
      </trkpt>
      <trkpt lat="49.53086" lon="0.32518">
        <ele>99.5</ele>
        <time>2015-01-24T13:37:22Z</time>
      </trkpt>
      <trkpt lat="49.53085" lon="0.32516">
        <ele>99.400001526</ele>
        <time>2015-01-24T13:37:23Z</time>
      </trkpt>
      <trkpt lat="49.53079" lon="0.32507">
        <ele>97.5</ele>
        <time>2015-01-24T13:37:32Z</time>
      </trkpt>
      <trkpt lat="49.53079" lon="0.32505">
        <ele>97.199996948</ele>
        <time>2015-01-24T13:37:33Z</time>
      </trkpt>
      <trkpt lat="49.53075" lon="0.32493">
        <ele>95.5</ele>
        <time>2015-01-24T13:37:40Z</time>
      </trkpt>
      <trkpt lat="49.53074" lon="0.32492">
        <ele>95.199996948</ele>
        <time>2015-01-24T13:37:41Z</time>
      </trkpt>
      <trkpt lat="49.53071" lon="0.32481">
        <ele>94.599998474</ele>
        <time>2015-01-24T13:37:47Z</time>
      </trkpt>
      <trkpt lat="49.53071" lon="0.32479">
        <ele>94.599998474</ele>
        <time>2015-01-24T13:37:48Z</time>
      </trkpt>
      <trkpt lat="49.53067" lon="0.32469">
        <ele>94.599998474</ele>
        <time>2015-01-24T13:37:54Z</time>
      </trkpt>
      <trkpt lat="49.53066" lon="0.32467">
        <ele>94.599998474</ele>
        <time>2015-01-24T13:37:55Z</time>
      </trkpt>
      <trkpt lat="49.53062" lon="0.32455">
        <ele>93.699996948</ele>
        <time>2015-01-24T13:38:03Z</time>
      </trkpt>
      <trkpt lat="49.53061" lon="0.32453">
        <ele>93.599998474</ele>
        <time>2015-01-24T13:38:04Z</time>
      </trkpt>
      <trkpt lat="49.53057" lon="0.32441">
        <ele>92.400001526</ele>
        <time>2015-01-24T13:38:12Z</time>
      </trkpt>
      <trkpt lat="49.53057" lon="0.32439">
        <ele>92.300003052</ele>
        <time>2015-01-24T13:38:12Z</time>
      </trkpt>
      <trkpt lat="49.53053" lon="0.32428">
        <ele>92</ele>
        <time>2015-01-24T13:38:18Z</time>
      </trkpt>
      <trkpt lat="49.53051" lon="0.32426">
        <ele>92.099998474</ele>
        <time>2015-01-24T13:38:19Z</time>
      </trkpt>
      <trkpt lat="49.53045" lon="0.32417">
        <ele>91.900001526</ele>
        <time>2015-01-24T13:38:26Z</time>
      </trkpt>
      <trkpt lat="49.53044" lon="0.32416">
        <ele>91.699996948</ele>
        <time>2015-01-24T13:38:27Z</time>
      </trkpt>
      <trkpt lat="49.53037" lon="0.3241">
        <ele>91.800003052</ele>
        <time>2015-01-24T13:38:35Z</time>
      </trkpt>
      <trkpt lat="49.53035" lon="0.32409">
        <ele>92</ele>
        <time>2015-01-24T13:38:36Z</time>
      </trkpt>
      <trkpt lat="49.53027" lon="0.32406">
        <ele>90.599998474</ele>
        <time>2015-01-24T13:38:54Z</time>
      </trkpt>
      <trkpt lat="49.53024" lon="0.32404">
        <ele>90.099998474</ele>
        <time>2015-01-24T13:38:55Z</time>
      </trkpt>
      <trkpt lat="49.53018" lon="0.32395">
        <ele>96.199996948</ele>
        <time>2015-01-24T13:39:28Z</time>
      </trkpt>
      <trkpt lat="49.53017" lon="0.32395">
        <ele>96.300003052</ele>
        <time>2015-01-24T13:39:29Z</time>
      </trkpt>
      <trkpt lat="49.53009" lon="0.32397">
        <ele>96.900001526</ele>
        <time>2015-01-24T13:39:42Z</time>
      </trkpt>
      <trkpt lat="49.53008" lon="0.32397">
        <ele>96.900001526</ele>
        <time>2015-01-24T13:39:42Z</time>
      </trkpt>
      <trkpt lat="49.53" lon="0.32398">
        <ele>97</ele>
        <time>2015-01-24T13:39:51Z</time>
      </trkpt>
      <trkpt lat="49.52999" lon="0.32398">
        <ele>97</ele>
        <time>2015-01-24T13:39:52Z</time>
      </trkpt>
      <trkpt lat="49.5299" lon="0.32398">
        <ele>96.800003052</ele>
        <time>2015-01-24T13:40:01Z</time>
      </trkpt>
      <trkpt lat="49.52989" lon="0.32398">
        <ele>96.800003052</ele>
        <time>2015-01-24T13:40:02Z</time>
      </trkpt>
      <trkpt lat="49.52981" lon="0.32395">
        <ele>97.099998474</ele>
        <time>2015-01-24T13:40:10Z</time>
      </trkpt>
      <trkpt lat="49.5298" lon="0.32394">
        <ele>97.099998474</ele>
        <time>2015-01-24T13:40:11Z</time>
      </trkpt>
      <trkpt lat="49.52971" lon="0.32395">
        <ele>97</ele>
        <time>2015-01-24T13:40:17Z</time>
      </trkpt>
      <trkpt lat="49.5297" lon="0.32395">
        <ele>97</ele>
        <time>2015-01-24T13:40:18Z</time>
      </trkpt>
      <trkpt lat="49.52961" lon="0.32398">
        <ele>96.599998474</ele>
        <time>2015-01-24T13:40:28Z</time>
      </trkpt>
      <trkpt lat="49.5296" lon="0.32398">
        <ele>96.599998474</ele>
        <time>2015-01-24T13:40:29Z</time>
      </trkpt>
      <trkpt lat="49.52951" lon="0.32398">
        <ele>96</ele>
        <time>2015-01-24T13:40:37Z</time>
      </trkpt>
      <trkpt lat="49.5295" lon="0.32398">
        <ele>95.900001526</ele>
        <time>2015-01-24T13:40:38Z</time>
      </trkpt>
      <trkpt lat="49.52942" lon="0.32398">
        <ele>95.199996948</ele>
        <time>2015-01-24T13:40:44Z</time>
      </trkpt>
      <trkpt lat="49.5294" lon="0.32398">
        <ele>95.099998474</ele>
        <time>2015-01-24T13:40:45Z</time>
      </trkpt>
      <trkpt lat="49.52932" lon="0.32395">
        <ele>94.400001526</ele>
        <time>2015-01-24T13:40:54Z</time>
      </trkpt>
      <trkpt lat="49.52931" lon="0.32394">
        <ele>94.300003052</ele>
        <time>2015-01-24T13:40:55Z</time>
      </trkpt>
      <trkpt lat="49.52923" lon="0.3239">
        <ele>93</ele>
        <time>2015-01-24T13:41:03Z</time>
      </trkpt>
      <trkpt lat="49.52922" lon="0.32389">
        <ele>92.800003052</ele>
        <time>2015-01-24T13:41:04Z</time>
      </trkpt>
      <trkpt lat="49.52913" lon="0.32384">
        <ele>91.900001526</ele>
        <time>2015-01-24T13:41:13Z</time>
      </trkpt>
      <trkpt lat="49.52912" lon="0.32383">
        <ele>91.800003052</ele>
        <time>2015-01-24T13:41:14Z</time>
      </trkpt>
      <trkpt lat="49.52906" lon="0.32375">
        <ele>91.699996948</ele>
        <time>2015-01-24T13:41:20Z</time>
      </trkpt>
      <trkpt lat="49.52905" lon="0.32374">
        <ele>91.800003052</ele>
        <time>2015-01-24T13:41:21Z</time>
      </trkpt>
      <trkpt lat="49.529" lon="0.32363">
        <ele>91.699996948</ele>
        <time>2015-01-24T13:41:28Z</time>
      </trkpt>
      <trkpt lat="49.529" lon="0.32361">
        <ele>91.699996948</ele>
        <time>2015-01-24T13:41:29Z</time>
      </trkpt>
      <trkpt lat="49.52895" lon="0.32349">
        <ele>92.800003052</ele>
        <time>2015-01-24T13:41:38Z</time>
      </trkpt>
      <trkpt lat="49.52894" lon="0.32348">
        <ele>93.099998474</ele>
        <time>2015-01-24T13:41:39Z</time>
      </trkpt>
      <trkpt lat="49.52892" lon="0.32343">
        <ele>94.099998474</ele>
        <time>2015-01-24T13:42:27Z</time>
      </trkpt>
      <trkpt lat="49.52886" lon="0.3234">
        <ele>98.900001526</ele>
        <time>2015-01-24T13:42:28Z</time>
      </trkpt>
      <trkpt lat="49.5288" lon="0.32331">
        <ele>98.800003052</ele>
        <time>2015-01-24T13:42:36Z</time>
      </trkpt>
      <trkpt lat="49.52879" lon="0.3233">
        <ele>98.800003052</ele>
        <time>2015-01-24T13:42:37Z</time>
      </trkpt>
      <trkpt lat="49.52871" lon="0.32323">
        <ele>98.800003052</ele>
        <time>2015-01-24T13:42:43Z</time>
      </trkpt>
      <trkpt lat="49.5287" lon="0.32323">
        <ele>98.699996948</ele>
        <time>2015-01-24T13:42:44Z</time>
      </trkpt>
      <trkpt lat="49.52863" lon="0.32317">
        <ele>99.900001526</ele>
        <time>2015-01-24T13:42:59Z</time>
      </trkpt>
      <trkpt lat="49.52861" lon="0.32316">
        <ele>100</ele>
        <time>2015-01-24T13:43:00Z</time>
      </trkpt>
      <trkpt lat="49.52853" lon="0.32317">
        <ele>99.599998474</ele>
        <time>2015-01-24T13:43:04Z</time>
      </trkpt>
      <trkpt lat="49.52851" lon="0.32318">
        <ele>99.5</ele>
        <time>2015-01-24T13:43:05Z</time>
      </trkpt>
      <trkpt lat="49.52842" lon="0.32323">
        <ele>98.800003052</ele>
        <time>2015-01-24T13:43:10Z</time>
      </trkpt>
      <trkpt lat="49.52841" lon="0.32324">
        <ele>98.699996948</ele>
        <time>2015-01-24T13:43:11Z</time>
      </trkpt>
      <trkpt lat="49.52834" lon="0.3233">
        <ele>98.099998474</ele>
        <time>2015-01-24T13:43:16Z</time>
      </trkpt>
      <trkpt lat="49.52833" lon="0.32332">
        <ele>98</ele>
        <time>2015-01-24T13:43:17Z</time>
      </trkpt>
      <trkpt lat="49.52827" lon="0.32338">
        <ele>97.699996948</ele>
        <time>2015-01-24T13:43:22Z</time>
      </trkpt>
      <trkpt lat="49.52825" lon="0.3234">
        <ele>97.5</ele>
        <time>2015-01-24T13:43:23Z</time>
      </trkpt>
      <trkpt lat="49.52819" lon="0.32349">
        <ele>96.5</ele>
        <time>2015-01-24T13:43:28Z</time>
      </trkpt>
      <trkpt lat="49.52818" lon="0.3235">
        <ele>96.300003052</ele>
        <time>2015-01-24T13:43:29Z</time>
      </trkpt>
      <trkpt lat="49.52811" lon="0.32357">
        <ele>95.699996948</ele>
        <time>2015-01-24T13:43:34Z</time>
      </trkpt>
      <trkpt lat="49.5281" lon="0.32358">
        <ele>95.699996948</ele>
        <time>2015-01-24T13:43:35Z</time>
      </trkpt>
      <trkpt lat="49.52804" lon="0.32366">
        <ele>95.300003052</ele>
        <time>2015-01-24T13:43:40Z</time>
      </trkpt>
      <trkpt lat="49.52802" lon="0.32369">
        <ele>95.199996948</ele>
        <time>2015-01-24T13:43:41Z</time>
      </trkpt>
      <trkpt lat="49.52795" lon="0.32377">
        <ele>95.300003052</ele>
        <time>2015-01-24T13:43:46Z</time>
      </trkpt>
      <trkpt lat="49.52794" lon="0.32378">
        <ele>95.300003052</ele>
        <time>2015-01-24T13:43:47Z</time>
      </trkpt>
      <trkpt lat="49.52788" lon="0.32386">
        <ele>95.300003052</ele>
        <time>2015-01-24T13:43:51Z</time>
      </trkpt>
      <trkpt lat="49.52787" lon="0.32388">
        <ele>95.300003052</ele>
        <time>2015-01-24T13:43:52Z</time>
      </trkpt>
      <trkpt lat="49.52779" lon="0.32395">
        <ele>95.400001526</ele>
        <time>2015-01-24T13:43:57Z</time>
      </trkpt>
      <trkpt lat="49.52778" lon="0.32397">
        <ele>95.5</ele>
        <time>2015-01-24T13:43:58Z</time>
      </trkpt>
      <trkpt lat="49.52771" lon="0.32406">
        <ele>95.599998474</ele>
        <time>2015-01-24T13:44:03Z</time>
      </trkpt>
      <trkpt lat="49.5277" lon="0.32406">
        <ele>95.699996948</ele>
        <time>2015-01-24T13:44:04Z</time>
      </trkpt>
      <trkpt lat="49.52763" lon="0.32413">
        <ele>96.599998474</ele>
        <time>2015-01-24T13:44:09Z</time>
      </trkpt>
      <trkpt lat="49.52762" lon="0.32414">
        <ele>96.900001526</ele>
        <time>2015-01-24T13:44:10Z</time>
      </trkpt>
      <trkpt lat="49.52754" lon="0.32421">
        <ele>97.5</ele>
        <time>2015-01-24T13:44:15Z</time>
      </trkpt>
      <trkpt lat="49.52754" lon="0.32423">
        <ele>97.599998474</ele>
        <time>2015-01-24T13:44:16Z</time>
      </trkpt>
      <trkpt lat="49.52747" lon="0.32429">
        <ele>98.199996948</ele>
        <time>2015-01-24T13:44:21Z</time>
      </trkpt>
      <trkpt lat="49.52745" lon="0.3243">
        <ele>98.300003052</ele>
        <time>2015-01-24T13:44:22Z</time>
      </trkpt>
      <trkpt lat="49.52737" lon="0.32435">
        <ele>98.400001526</ele>
        <time>2015-01-24T13:44:27Z</time>
      </trkpt>
      <trkpt lat="49.52736" lon="0.32436">
        <ele>98.199996948</ele>
        <time>2015-01-24T13:44:28Z</time>
      </trkpt>
      <trkpt lat="49.52727" lon="0.32436">
        <ele>97.900001526</ele>
        <time>2015-01-24T13:44:34Z</time>
      </trkpt>
      <trkpt lat="49.52726" lon="0.32435">
        <ele>98</ele>
        <time>2015-01-24T13:44:35Z</time>
      </trkpt>
      <trkpt lat="49.52717" lon="0.32431">
        <ele>97.599998474</ele>
        <time>2015-01-24T13:44:41Z</time>
      </trkpt>
      <trkpt lat="49.52716" lon="0.32431">
        <ele>97.400001526</ele>
        <time>2015-01-24T13:44:42Z</time>
      </trkpt>
      <trkpt lat="49.52707" lon="0.32428">
        <ele>98</ele>
        <time>2015-01-24T13:44:49Z</time>
      </trkpt>
      <trkpt lat="49.52705" lon="0.32427">
        <ele>98.099998474</ele>
        <time>2015-01-24T13:44:50Z</time>
      </trkpt>
      <trkpt lat="49.52697" lon="0.32426">
        <ele>97.900001526</ele>
        <time>2015-01-24T13:44:55Z</time>
      </trkpt>
      <trkpt lat="49.52695" lon="0.32426">
        <ele>98</ele>
        <time>2015-01-24T13:44:56Z</time>
      </trkpt>
      <trkpt lat="49.52686" lon="0.32425">
        <ele>97.699996948</ele>
        <time>2015-01-24T13:45:02Z</time>
      </trkpt>
      <trkpt lat="49.52684" lon="0.32426">
        <ele>97.699996948</ele>
        <time>2015-01-24T13:45:03Z</time>
      </trkpt>
      <trkpt lat="49.52676" lon="0.32428">
        <ele>97.5</ele>
        <time>2015-01-24T13:45:10Z</time>
      </trkpt>
      <trkpt lat="49.52674" lon="0.32428">
        <ele>97.599998474</ele>
        <time>2015-01-24T13:45:11Z</time>
      </trkpt>
      <trkpt lat="49.52668" lon="0.32435">
        <ele>97.800003052</ele>
        <time>2015-01-24T13:45:23Z</time>
      </trkpt>
      <trkpt lat="49.52667" lon="0.32436">
        <ele>97.800003052</ele>
        <time>2015-01-24T13:45:24Z</time>
      </trkpt>
      <trkpt lat="49.52658" lon="0.32438">
        <ele>98.300003052</ele>
        <time>2015-01-24T13:45:31Z</time>
      </trkpt>
      <trkpt lat="49.52657" lon="0.32438">
        <ele>98.199996948</ele>
        <time>2015-01-24T13:45:32Z</time>
      </trkpt>
      <trkpt lat="49.52648" lon="0.32441">
        <ele>98.099998474</ele>
        <time>2015-01-24T13:45:38Z</time>
      </trkpt>
      <trkpt lat="49.52647" lon="0.32442">
        <ele>98.099998474</ele>
        <time>2015-01-24T13:45:39Z</time>
      </trkpt>
      <trkpt lat="49.5264" lon="0.32447">
        <ele>97.800003052</ele>
        <time>2015-01-24T13:45:44Z</time>
      </trkpt>
      <trkpt lat="49.52638" lon="0.32448">
        <ele>97.699996948</ele>
        <time>2015-01-24T13:45:45Z</time>
      </trkpt>
      <trkpt lat="49.52631" lon="0.32454">
        <ele>97.099998474</ele>
        <time>2015-01-24T13:45:51Z</time>
      </trkpt>
      <trkpt lat="49.52629" lon="0.32455">
        <ele>97.099998474</ele>
        <time>2015-01-24T13:45:52Z</time>
      </trkpt>
      <trkpt lat="49.52622" lon="0.3246">
        <ele>96.699996948</ele>
        <time>2015-01-24T13:45:57Z</time>
      </trkpt>
      <trkpt lat="49.52621" lon="0.32461">
        <ele>96.599998474</ele>
        <time>2015-01-24T13:45:58Z</time>
      </trkpt>
      <trkpt lat="49.52614" lon="0.32468">
        <ele>96.599998474</ele>
        <time>2015-01-24T13:46:03Z</time>
      </trkpt>
      <trkpt lat="49.52613" lon="0.32469">
        <ele>96.699996948</ele>
        <time>2015-01-24T13:46:04Z</time>
      </trkpt>
      <trkpt lat="49.52608" lon="0.32479">
        <ele>96.699996948</ele>
        <time>2015-01-24T13:46:10Z</time>
      </trkpt>
      <trkpt lat="49.52606" lon="0.3248">
        <ele>96.599998474</ele>
        <time>2015-01-24T13:46:11Z</time>
      </trkpt>
      <trkpt lat="49.52598" lon="0.32484">
        <ele>95.900001526</ele>
        <time>2015-01-24T13:46:18Z</time>
      </trkpt>
      <trkpt lat="49.52597" lon="0.32485">
        <ele>95.800003052</ele>
        <time>2015-01-24T13:46:19Z</time>
      </trkpt>
      <trkpt lat="49.5259" lon="0.32489">
        <ele>94.900001526</ele>
        <time>2015-01-24T13:46:25Z</time>
      </trkpt>
      <trkpt lat="49.52589" lon="0.3249">
        <ele>94.800003052</ele>
        <time>2015-01-24T13:46:26Z</time>
      </trkpt>
      <trkpt lat="49.52581" lon="0.32493">
        <ele>93.900001526</ele>
        <time>2015-01-24T13:46:33Z</time>
      </trkpt>
      <trkpt lat="49.52579" lon="0.32493">
        <ele>94</ele>
        <time>2015-01-24T13:46:34Z</time>
      </trkpt>
      <trkpt lat="49.52573" lon="0.32497">
        <ele>93.599998474</ele>
        <time>2015-01-24T13:46:38Z</time>
      </trkpt>
      <trkpt lat="49.52571" lon="0.32501">
        <ele>93.800003052</ele>
        <time>2015-01-24T13:46:39Z</time>
      </trkpt>
      <trkpt lat="49.52563" lon="0.32506">
        <ele>93.599998474</ele>
        <time>2015-01-24T13:46:45Z</time>
      </trkpt>
      <trkpt lat="49.52561" lon="0.32507">
        <ele>93.699996948</ele>
        <time>2015-01-24T13:46:46Z</time>
      </trkpt>
      <trkpt lat="49.52553" lon="0.32508">
        <ele>93.400001526</ele>
        <time>2015-01-24T13:46:52Z</time>
      </trkpt>
      <trkpt lat="49.52551" lon="0.32508">
        <ele>93.300003052</ele>
        <time>2015-01-24T13:46:52Z</time>
      </trkpt>
      <trkpt lat="49.52544" lon="0.32507">
        <ele>92.800003052</ele>
        <time>2015-01-24T13:46:57Z</time>
      </trkpt>
      <trkpt lat="49.52542" lon="0.32506">
        <ele>92.900001526</ele>
        <time>2015-01-24T13:46:58Z</time>
      </trkpt>
      <trkpt lat="49.52534" lon="0.32503">
        <ele>93</ele>
        <time>2015-01-24T13:47:03Z</time>
      </trkpt>
      <trkpt lat="49.52532" lon="0.32502">
        <ele>92.900001526</ele>
        <time>2015-01-24T13:47:04Z</time>
      </trkpt>
      <trkpt lat="49.52524" lon="0.325">
        <ele>94</ele>
        <time>2015-01-24T13:47:10Z</time>
      </trkpt>
      <trkpt lat="49.52523" lon="0.32499">
        <ele>94.099998474</ele>
        <time>2015-01-24T13:47:11Z</time>
      </trkpt>
      <trkpt lat="49.52515" lon="0.32496">
        <ele>94.199996948</ele>
        <time>2015-01-24T13:47:17Z</time>
      </trkpt>
      <trkpt lat="49.52513" lon="0.32496">
        <ele>94.099998474</ele>
        <time>2015-01-24T13:47:18Z</time>
      </trkpt>
      <trkpt lat="49.52506" lon="0.32496">
        <ele>92.699996948</ele>
        <time>2015-01-24T13:47:24Z</time>
      </trkpt>
      <trkpt lat="49.52504" lon="0.32495">
        <ele>92.599998474</ele>
        <time>2015-01-24T13:47:25Z</time>
      </trkpt>
      <trkpt lat="49.52496" lon="0.32496">
        <ele>91.400001526</ele>
        <time>2015-01-24T13:47:31Z</time>
      </trkpt>
      <trkpt lat="49.52494" lon="0.32495">
        <ele>91.300003052</ele>
        <time>2015-01-24T13:47:32Z</time>
      </trkpt>
      <trkpt lat="49.52485" lon="0.32499">
        <ele>90.199996948</ele>
        <time>2015-01-24T13:47:37Z</time>
      </trkpt>
      <trkpt lat="49.52484" lon="0.325">
        <ele>90.199996948</ele>
        <time>2015-01-24T13:47:38Z</time>
      </trkpt>
      <trkpt lat="49.52476" lon="0.32502">
        <ele>89.300003052</ele>
        <time>2015-01-24T13:47:45Z</time>
      </trkpt>
      <trkpt lat="49.52474" lon="0.32502">
        <ele>89.300003052</ele>
        <time>2015-01-24T13:47:46Z</time>
      </trkpt>
      <trkpt lat="49.52466" lon="0.32507">
        <ele>90.599998474</ele>
        <time>2015-01-24T13:47:55Z</time>
      </trkpt>
      <trkpt lat="49.52466" lon="0.32509">
        <ele>90.599998474</ele>
        <time>2015-01-24T13:47:56Z</time>
      </trkpt>
      <trkpt lat="49.52461" lon="0.32519">
        <ele>92.900001526</ele>
        <time>2015-01-24T13:48:03Z</time>
      </trkpt>
      <trkpt lat="49.52459" lon="0.32519">
        <ele>93.099998474</ele>
        <time>2015-01-24T13:48:04Z</time>
      </trkpt>
      <trkpt lat="49.52451" lon="0.32516">
        <ele>95.199996948</ele>
        <time>2015-01-24T13:48:13Z</time>
      </trkpt>
      <trkpt lat="49.5245" lon="0.32517">
        <ele>95.400001526</ele>
        <time>2015-01-24T13:48:14Z</time>
      </trkpt>
      <trkpt lat="49.52441" lon="0.32515">
        <ele>95.900001526</ele>
        <time>2015-01-24T13:48:22Z</time>
      </trkpt>
      <trkpt lat="49.5244" lon="0.32515">
        <ele>96</ele>
        <time>2015-01-24T13:48:22Z</time>
      </trkpt>
      <trkpt lat="49.52433" lon="0.32517">
        <ele>95.800003052</ele>
        <time>2015-01-24T13:48:40Z</time>
      </trkpt>
      <trkpt lat="49.5243" lon="0.3252">
        <ele>96.199996948</ele>
        <time>2015-01-24T13:48:41Z</time>
      </trkpt>
      <trkpt lat="49.52422" lon="0.32521">
        <ele>96</ele>
        <time>2015-01-24T13:48:47Z</time>
      </trkpt>
      <trkpt lat="49.52421" lon="0.32522">
        <ele>96</ele>
        <time>2015-01-24T13:48:48Z</time>
      </trkpt>
      <trkpt lat="49.52412" lon="0.32522">
        <ele>96</ele>
        <time>2015-01-24T13:48:54Z</time>
      </trkpt>
      <trkpt lat="49.52411" lon="0.32521">
        <ele>96.099998474</ele>
        <time>2015-01-24T13:48:55Z</time>
      </trkpt>
      <trkpt lat="49.52402" lon="0.32525">
        <ele>96.300003052</ele>
        <time>2015-01-24T13:49:02Z</time>
      </trkpt>
      <trkpt lat="49.52401" lon="0.32526">
        <ele>96.400001526</ele>
        <time>2015-01-24T13:49:03Z</time>
      </trkpt>
      <trkpt lat="49.52394" lon="0.32531">
        <ele>95.5</ele>
        <time>2015-01-24T13:49:10Z</time>
      </trkpt>
      <trkpt lat="49.52392" lon="0.32531">
        <ele>95.300003052</ele>
        <time>2015-01-24T13:49:11Z</time>
      </trkpt>
      <trkpt lat="49.52384" lon="0.32536">
        <ele>94.400001526</ele>
        <time>2015-01-24T13:49:19Z</time>
      </trkpt>
      <trkpt lat="49.52383" lon="0.32536">
        <ele>94.300003052</ele>
        <time>2015-01-24T13:49:20Z</time>
      </trkpt>
      <trkpt lat="49.52374" lon="0.32538">
        <ele>93.900001526</ele>
        <time>2015-01-24T13:49:27Z</time>
      </trkpt>
      <trkpt lat="49.52373" lon="0.32538">
        <ele>93.800003052</ele>
        <time>2015-01-24T13:49:28Z</time>
      </trkpt>
      <trkpt lat="49.52366" lon="0.32544">
        <ele>93.300003052</ele>
        <time>2015-01-24T13:49:34Z</time>
      </trkpt>
      <trkpt lat="49.52364" lon="0.32545">
        <ele>93.199996948</ele>
        <time>2015-01-24T13:49:35Z</time>
      </trkpt>
      <trkpt lat="49.52357" lon="0.32549">
        <ele>92.5</ele>
        <time>2015-01-24T13:49:41Z</time>
      </trkpt>
      <trkpt lat="49.52356" lon="0.3255">
        <ele>92.300003052</ele>
        <time>2015-01-24T13:49:42Z</time>
      </trkpt>
      <trkpt lat="49.52349" lon="0.32556">
        <ele>91.300003052</ele>
        <time>2015-01-24T13:49:49Z</time>
      </trkpt>
      <trkpt lat="49.52347" lon="0.32557">
        <ele>91.199996948</ele>
        <time>2015-01-24T13:49:50Z</time>
      </trkpt>
      <trkpt lat="49.5234" lon="0.3256">
        <ele>90.300003052</ele>
        <time>2015-01-24T13:49:56Z</time>
      </trkpt>
      <trkpt lat="49.52339" lon="0.32561">
        <ele>90.199996948</ele>
        <time>2015-01-24T13:49:57Z</time>
      </trkpt>
      <trkpt lat="49.52331" lon="0.32567">
        <ele>89.099998474</ele>
        <time>2015-01-24T13:50:03Z</time>
      </trkpt>
      <trkpt lat="49.5233" lon="0.32568">
        <ele>88.800003052</ele>
        <time>2015-01-24T13:50:04Z</time>
      </trkpt>
      <trkpt lat="49.52322" lon="0.32572">
        <ele>87.699996948</ele>
        <time>2015-01-24T13:50:10Z</time>
      </trkpt>
      <trkpt lat="49.52321" lon="0.32573">
        <ele>87.400001526</ele>
        <time>2015-01-24T13:50:11Z</time>
      </trkpt>
      <trkpt lat="49.52313" lon="0.32579">
        <ele>85.300003052</ele>
        <time>2015-01-24T13:50:19Z</time>
      </trkpt>
      <trkpt lat="49.52312" lon="0.3258">
        <ele>85.099998474</ele>
        <time>2015-01-24T13:50:20Z</time>
      </trkpt>
      <trkpt lat="49.52304" lon="0.32586">
        <ele>84</ele>
        <time>2015-01-24T13:50:26Z</time>
      </trkpt>
      <trkpt lat="49.52303" lon="0.32587">
        <ele>83.900001526</ele>
        <time>2015-01-24T13:50:27Z</time>
      </trkpt>
      <trkpt lat="49.52296" lon="0.32593">
        <ele>83.599998474</ele>
        <time>2015-01-24T13:50:33Z</time>
      </trkpt>
      <trkpt lat="49.52295" lon="0.32594">
        <ele>83.400001526</ele>
        <time>2015-01-24T13:50:34Z</time>
      </trkpt>
      <trkpt lat="49.52287" lon="0.32597">
        <ele>81.800003052</ele>
        <time>2015-01-24T13:50:41Z</time>
      </trkpt>
      <trkpt lat="49.52286" lon="0.32598">
        <ele>81.5</ele>
        <time>2015-01-24T13:50:42Z</time>
      </trkpt>
      <trkpt lat="49.52279" lon="0.32605">
        <ele>78</ele>
        <time>2015-01-24T13:50:53Z</time>
      </trkpt>
      <trkpt lat="49.52279" lon="0.32606">
        <ele>77.699996948</ele>
        <time>2015-01-24T13:50:54Z</time>
      </trkpt>
      <trkpt lat="49.52271" lon="0.32612">
        <ele>79.300003052</ele>
        <time>2015-01-24T13:51:56Z</time>
      </trkpt>
      <trkpt lat="49.5227" lon="0.32613">
        <ele>79.400001526</ele>
        <time>2015-01-24T13:51:57Z</time>
      </trkpt>
      <trkpt lat="49.52262" lon="0.3262">
        <ele>79.599998474</ele>
        <time>2015-01-24T13:52:05Z</time>
      </trkpt>
      <trkpt lat="49.52261" lon="0.3262">
        <ele>79.5</ele>
        <time>2015-01-24T13:52:06Z</time>
      </trkpt>
      <trkpt lat="49.52254" lon="0.32625">
        <ele>79.400001526</ele>
        <time>2015-01-24T13:52:12Z</time>
      </trkpt>
      <trkpt lat="49.52253" lon="0.32626">
        <ele>79.400001526</ele>
        <time>2015-01-24T13:52:13Z</time>
      </trkpt>
      <trkpt lat="49.52246" lon="0.32632">
        <ele>79.300003052</ele>
        <time>2015-01-24T13:52:18Z</time>
      </trkpt>
      <trkpt lat="49.52245" lon="0.32633">
        <ele>79.300003052</ele>
        <time>2015-01-24T13:52:19Z</time>
      </trkpt>
      <trkpt lat="49.52238" lon="0.32641">
        <ele>79.099998474</ele>
        <time>2015-01-24T13:52:24Z</time>
      </trkpt>
      <trkpt lat="49.52237" lon="0.32642">
        <ele>79.099998474</ele>
        <time>2015-01-24T13:52:25Z</time>
      </trkpt>
      <trkpt lat="49.52231" lon="0.32651">
        <ele>79.400001526</ele>
        <time>2015-01-24T13:52:38Z</time>
      </trkpt>
      <trkpt lat="49.52229" lon="0.32652">
        <ele>79.599998474</ele>
        <time>2015-01-24T13:52:39Z</time>
      </trkpt>
      <trkpt lat="49.52223" lon="0.32661">
        <ele>79.800003052</ele>
        <time>2015-01-24T13:52:48Z</time>
      </trkpt>
      <trkpt lat="49.52223" lon="0.32663">
        <ele>79.800003052</ele>
        <time>2015-01-24T13:52:49Z</time>
      </trkpt>
      <trkpt lat="49.52219" lon="0.32674">
        <ele>79.5</ele>
        <time>2015-01-24T13:52:57Z</time>
      </trkpt>
      <trkpt lat="49.52219" lon="0.32676">
        <ele>79.5</ele>
        <time>2015-01-24T13:52:58Z</time>
      </trkpt>
      <trkpt lat="49.52219" lon="0.32689">
        <ele>79.300003052</ele>
        <time>2015-01-24T13:53:04Z</time>
      </trkpt>
      <trkpt lat="49.52218" lon="0.32693">
        <ele>79.300003052</ele>
        <time>2015-01-24T13:53:05Z</time>
      </trkpt>
      <trkpt lat="49.52214" lon="0.32704">
        <ele>79.400001526</ele>
        <time>2015-01-24T13:53:11Z</time>
      </trkpt>
      <trkpt lat="49.52214" lon="0.32706">
        <ele>79.5</ele>
        <time>2015-01-24T13:53:12Z</time>
      </trkpt>
      <trkpt lat="49.52211" lon="0.32719">
        <ele>79.699996948</ele>
        <time>2015-01-24T13:53:18Z</time>
      </trkpt>
      <trkpt lat="49.5221" lon="0.32721">
        <ele>79.800003052</ele>
        <time>2015-01-24T13:53:19Z</time>
      </trkpt>
      <trkpt lat="49.5221" lon="0.32733">
        <ele>80.599998474</ele>
        <time>2015-01-24T13:53:26Z</time>
      </trkpt>
      <trkpt lat="49.52209" lon="0.32735">
        <ele>80.699996948</ele>
        <time>2015-01-24T13:53:27Z</time>
      </trkpt>
      <trkpt lat="49.52206" lon="0.32747">
        <ele>80.699996948</ele>
        <time>2015-01-24T13:53:34Z</time>
      </trkpt>
      <trkpt lat="49.52207" lon="0.32749">
        <ele>80.800003052</ele>
        <time>2015-01-24T13:53:35Z</time>
      </trkpt>
      <trkpt lat="49.52202" lon="0.32761">
        <ele>80.699996948</ele>
        <time>2015-01-24T13:53:42Z</time>
      </trkpt>
      <trkpt lat="49.52201" lon="0.32763">
        <ele>80.699996948</ele>
        <time>2015-01-24T13:53:43Z</time>
      </trkpt>
      <trkpt lat="49.52196" lon="0.32773">
        <ele>81</ele>
        <time>2015-01-24T13:53:48Z</time>
      </trkpt>
      <trkpt lat="49.52196" lon="0.32775">
        <ele>81.099998474</ele>
        <time>2015-01-24T13:53:49Z</time>
      </trkpt>
      <trkpt lat="49.52191" lon="0.32785">
        <ele>81.300003052</ele>
        <time>2015-01-24T13:53:56Z</time>
      </trkpt>
      <trkpt lat="49.52191" lon="0.32786">
        <ele>81.199996948</ele>
        <time>2015-01-24T13:53:57Z</time>
      </trkpt>
      <trkpt lat="49.52186" lon="0.32797">
        <ele>81.5</ele>
        <time>2015-01-24T13:54:03Z</time>
      </trkpt>
      <trkpt lat="49.52187" lon="0.32799">
        <ele>81.5</ele>
        <time>2015-01-24T13:54:04Z</time>
      </trkpt>
      <trkpt lat="49.52183" lon="0.32811">
        <ele>81.699996948</ele>
        <time>2015-01-24T13:54:12Z</time>
      </trkpt>
      <trkpt lat="49.52183" lon="0.32813">
        <ele>81.800003052</ele>
        <time>2015-01-24T13:54:13Z</time>
      </trkpt>
      <trkpt lat="49.5218" lon="0.32825">
        <ele>82.400001526</ele>
        <time>2015-01-24T13:54:20Z</time>
      </trkpt>
      <trkpt lat="49.5218" lon="0.32827">
        <ele>82.5</ele>
        <time>2015-01-24T13:54:21Z</time>
      </trkpt>
      <trkpt lat="49.52178" lon="0.32839">
        <ele>83</ele>
        <time>2015-01-24T13:54:28Z</time>
      </trkpt>
      <trkpt lat="49.52176" lon="0.32842">
        <ele>83.099998474</ele>
        <time>2015-01-24T13:54:29Z</time>
      </trkpt>
      <trkpt lat="49.52175" lon="0.32854">
        <ele>84.099998474</ele>
        <time>2015-01-24T13:54:36Z</time>
      </trkpt>
      <trkpt lat="49.52175" lon="0.32857">
        <ele>84.199996948</ele>
        <time>2015-01-24T13:54:37Z</time>
      </trkpt>
      <trkpt lat="49.52176" lon="0.32868">
        <ele>84.800003052</ele>
        <time>2015-01-24T13:54:42Z</time>
      </trkpt>
      <trkpt lat="49.52175" lon="0.32871">
        <ele>85</ele>
        <time>2015-01-24T13:54:43Z</time>
      </trkpt>
      <trkpt lat="49.52174" lon="0.32884">
        <ele>85.900001526</ele>
        <time>2015-01-24T13:54:49Z</time>
      </trkpt>
      <trkpt lat="49.52174" lon="0.32886">
        <ele>86</ele>
        <time>2015-01-24T13:54:50Z</time>
      </trkpt>
      <trkpt lat="49.5217" lon="0.32896">
        <ele>87.5</ele>
        <time>2015-01-24T13:54:55Z</time>
      </trkpt>
      <trkpt lat="49.52169" lon="0.32898">
        <ele>87.599998474</ele>
        <time>2015-01-24T13:54:56Z</time>
      </trkpt>
      <trkpt lat="49.52168" lon="0.32912">
        <ele>88</ele>
        <time>2015-01-24T13:55:03Z</time>
      </trkpt>
      <trkpt lat="49.52168" lon="0.32914">
        <ele>88</ele>
        <time>2015-01-24T13:55:04Z</time>
      </trkpt>
      <trkpt lat="49.5216" lon="0.32921">
        <ele>87.800003052</ele>
        <time>2015-01-24T13:55:12Z</time>
      </trkpt>
      <trkpt lat="49.52159" lon="0.32922">
        <ele>87.800003052</ele>
        <time>2015-01-24T13:55:13Z</time>
      </trkpt>
      <trkpt lat="49.52151" lon="0.32926">
        <ele>87.599998474</ele>
        <time>2015-01-24T13:55:20Z</time>
      </trkpt>
      <trkpt lat="49.52149" lon="0.32927">
        <ele>87.800003052</ele>
        <time>2015-01-24T13:55:21Z</time>
      </trkpt>
      <trkpt lat="49.52142" lon="0.32929">
        <ele>88.300003052</ele>
        <time>2015-01-24T13:55:27Z</time>
      </trkpt>
      <trkpt lat="49.5214" lon="0.32929">
        <ele>88.599998474</ele>
        <time>2015-01-24T13:55:28Z</time>
      </trkpt>
      <trkpt lat="49.52132" lon="0.32935">
        <ele>88.900001526</ele>
        <time>2015-01-24T13:55:37Z</time>
      </trkpt>
      <trkpt lat="49.52131" lon="0.32935">
        <ele>89</ele>
        <time>2015-01-24T13:55:37Z</time>
      </trkpt>
      <trkpt lat="49.52124" lon="0.32938">
        <ele>88.900001526</ele>
        <time>2015-01-24T13:55:43Z</time>
      </trkpt>
      <trkpt lat="49.52122" lon="0.3294">
        <ele>88.900001526</ele>
        <time>2015-01-24T13:55:44Z</time>
      </trkpt>
      <trkpt lat="49.52116" lon="0.32946">
        <ele>88.300003052</ele>
        <time>2015-01-24T13:55:50Z</time>
      </trkpt>
      <trkpt lat="49.52115" lon="0.32947">
        <ele>88.199996948</ele>
        <time>2015-01-24T13:55:51Z</time>
      </trkpt>
      <trkpt lat="49.52108" lon="0.32953">
        <ele>87.5</ele>
        <time>2015-01-24T13:55:59Z</time>
      </trkpt>
      <trkpt lat="49.52107" lon="0.32955">
        <ele>87.300003052</ele>
        <time>2015-01-24T13:56:00Z</time>
      </trkpt>
      <trkpt lat="49.521" lon="0.32963">
        <ele>87.599998474</ele>
        <time>2015-01-24T13:56:05Z</time>
      </trkpt>
      <trkpt lat="49.52099" lon="0.32964">
        <ele>87.800003052</ele>
        <time>2015-01-24T13:56:06Z</time>
      </trkpt>
      <trkpt lat="49.52094" lon="0.32972">
        <ele>88.099998474</ele>
        <time>2015-01-24T13:56:10Z</time>
      </trkpt>
      <trkpt lat="49.52093" lon="0.32977">
        <ele>88.400001526</ele>
        <time>2015-01-24T13:56:11Z</time>
      </trkpt>
      <trkpt lat="49.52089" lon="0.32988">
        <ele>89.400001526</ele>
        <time>2015-01-24T13:56:17Z</time>
      </trkpt>
      <trkpt lat="49.52088" lon="0.3299">
        <ele>89.400001526</ele>
        <time>2015-01-24T13:56:18Z</time>
      </trkpt>
      <trkpt lat="49.52084" lon="0.33">
        <ele>89.800003052</ele>
        <time>2015-01-24T13:56:25Z</time>
      </trkpt>
      <trkpt lat="49.52083" lon="0.33001">
        <ele>89.800003052</ele>
        <time>2015-01-24T13:56:26Z</time>
      </trkpt>
      <trkpt lat="49.52077" lon="0.33011">
        <ele>89.800003052</ele>
        <time>2015-01-24T13:56:32Z</time>
      </trkpt>
      <trkpt lat="49.52077" lon="0.33013">
        <ele>89.800003052</ele>
        <time>2015-01-24T13:56:33Z</time>
      </trkpt>
      <trkpt lat="49.52075" lon="0.33026">
        <ele>90.199996948</ele>
        <time>2015-01-24T13:56:40Z</time>
      </trkpt>
      <trkpt lat="49.52075" lon="0.33027">
        <ele>90.199996948</ele>
        <time>2015-01-24T13:56:41Z</time>
      </trkpt>
      <trkpt lat="49.52068" lon="0.33036">
        <ele>90.300003052</ele>
        <time>2015-01-24T13:56:48Z</time>
      </trkpt>
      <trkpt lat="49.52067" lon="0.33038">
        <ele>90.300003052</ele>
        <time>2015-01-24T13:56:49Z</time>
      </trkpt>
      <trkpt lat="49.52063" lon="0.33051">
        <ele>90.599998474</ele>
        <time>2015-01-24T13:56:56Z</time>
      </trkpt>
      <trkpt lat="49.52063" lon="0.33052">
        <ele>90.599998474</ele>
        <time>2015-01-24T13:56:57Z</time>
      </trkpt>
      <trkpt lat="49.5206" lon="0.33064">
        <ele>89.900001526</ele>
        <time>2015-01-24T13:57:05Z</time>
      </trkpt>
      <trkpt lat="49.52059" lon="0.33066">
        <ele>89.699996948</ele>
        <time>2015-01-24T13:57:06Z</time>
      </trkpt>
      <trkpt lat="49.52056" lon="0.33078">
        <ele>89.199996948</ele>
        <time>2015-01-24T13:57:12Z</time>
      </trkpt>
      <trkpt lat="49.52056" lon="0.3308">
        <ele>88.900001526</ele>
        <time>2015-01-24T13:57:13Z</time>
      </trkpt>
      <trkpt lat="49.52052" lon="0.3309">
        <ele>87.900001526</ele>
        <time>2015-01-24T13:57:19Z</time>
      </trkpt>
      <trkpt lat="49.52051" lon="0.33091">
        <ele>88.099998474</ele>
        <time>2015-01-24T13:57:20Z</time>
      </trkpt>
      <trkpt lat="49.52046" lon="0.33103">
        <ele>87.800003052</ele>
        <time>2015-01-24T13:57:28Z</time>
      </trkpt>
      <trkpt lat="49.52046" lon="0.33106">
        <ele>88</ele>
        <time>2015-01-24T13:57:29Z</time>
      </trkpt>
      <trkpt lat="49.52042" lon="0.33118">
        <ele>87.300003052</ele>
        <time>2015-01-24T13:57:37Z</time>
      </trkpt>
      <trkpt lat="49.52042" lon="0.33119">
        <ele>87.300003052</ele>
        <time>2015-01-24T13:57:37Z</time>
      </trkpt>
      <trkpt lat="49.52041" lon="0.33133">
        <ele>87.400001526</ele>
        <time>2015-01-24T13:57:44Z</time>
      </trkpt>
      <trkpt lat="49.52041" lon="0.33136">
        <ele>87.5</ele>
        <time>2015-01-24T13:57:45Z</time>
      </trkpt>
      <trkpt lat="49.52037" lon="0.33145">
        <ele>87.300003052</ele>
        <time>2015-01-24T13:57:52Z</time>
      </trkpt>
      <trkpt lat="49.52035" lon="0.33146">
        <ele>87.599998474</ele>
        <time>2015-01-24T13:57:52Z</time>
      </trkpt>
      <trkpt lat="49.52028" lon="0.33154">
        <ele>88.300003052</ele>
        <time>2015-01-24T13:57:57Z</time>
      </trkpt>
      <trkpt lat="49.52027" lon="0.33156">
        <ele>88.199996948</ele>
        <time>2015-01-24T13:57:58Z</time>
      </trkpt>
      <trkpt lat="49.52022" lon="0.33167">
        <ele>87.5</ele>
        <time>2015-01-24T13:58:05Z</time>
      </trkpt>
      <trkpt lat="49.52022" lon="0.33169">
        <ele>87.5</ele>
        <time>2015-01-24T13:58:06Z</time>
      </trkpt>
      <trkpt lat="49.52019" lon="0.33181">
        <ele>87.900001526</ele>
        <time>2015-01-24T13:58:13Z</time>
      </trkpt>
      <trkpt lat="49.52018" lon="0.33183">
        <ele>87.900001526</ele>
        <time>2015-01-24T13:58:14Z</time>
      </trkpt>
      <trkpt lat="49.52015" lon="0.33193">
        <ele>89</ele>
        <time>2015-01-24T13:58:20Z</time>
      </trkpt>
      <trkpt lat="49.52014" lon="0.33196">
        <ele>89.199996948</ele>
        <time>2015-01-24T13:58:21Z</time>
      </trkpt>
      <trkpt lat="49.52012" lon="0.33207">
        <ele>90.099998474</ele>
        <time>2015-01-24T13:58:27Z</time>
      </trkpt>
      <trkpt lat="49.52011" lon="0.33209">
        <ele>90.099998474</ele>
        <time>2015-01-24T13:58:28Z</time>
      </trkpt>
      <trkpt lat="49.52008" lon="0.33222">
        <ele>91.400001526</ele>
        <time>2015-01-24T13:58:35Z</time>
      </trkpt>
      <trkpt lat="49.52008" lon="0.33224">
        <ele>91.699996948</ele>
        <time>2015-01-24T13:58:36Z</time>
      </trkpt>
      <trkpt lat="49.52004" lon="0.33235">
        <ele>93</ele>
        <time>2015-01-24T13:58:42Z</time>
      </trkpt>
      <trkpt lat="49.52003" lon="0.33237">
        <ele>93.199996948</ele>
        <time>2015-01-24T13:58:43Z</time>
      </trkpt>
      <trkpt lat="49.52" lon="0.33247">
        <ele>94.400001526</ele>
        <time>2015-01-24T13:58:50Z</time>
      </trkpt>
      <trkpt lat="49.51999" lon="0.33249">
        <ele>94.5</ele>
        <time>2015-01-24T13:58:51Z</time>
      </trkpt>
      <trkpt lat="49.51996" lon="0.33261">
        <ele>95.5</ele>
        <time>2015-01-24T13:58:57Z</time>
      </trkpt>
      <trkpt lat="49.51995" lon="0.33262">
        <ele>95.599998474</ele>
        <time>2015-01-24T13:58:58Z</time>
      </trkpt>
      <trkpt lat="49.51992" lon="0.33274">
        <ele>97.099998474</ele>
        <time>2015-01-24T13:59:05Z</time>
      </trkpt>
      <trkpt lat="49.51991" lon="0.33276">
        <ele>97.300003052</ele>
        <time>2015-01-24T13:59:06Z</time>
      </trkpt>
      <trkpt lat="49.51989" lon="0.33287">
        <ele>97.900001526</ele>
        <time>2015-01-24T13:59:12Z</time>
      </trkpt>
      <trkpt lat="49.51988" lon="0.3329">
        <ele>98</ele>
        <time>2015-01-24T13:59:13Z</time>
      </trkpt>
      <trkpt lat="49.51986" lon="0.33302">
        <ele>98.5</ele>
        <time>2015-01-24T13:59:20Z</time>
      </trkpt>
      <trkpt lat="49.51985" lon="0.33303">
        <ele>98.5</ele>
        <time>2015-01-24T13:59:21Z</time>
      </trkpt>
      <trkpt lat="49.51981" lon="0.33315">
        <ele>98.199996948</ele>
        <time>2015-01-24T13:59:27Z</time>
      </trkpt>
      <trkpt lat="49.51981" lon="0.33317">
        <ele>98.199996948</ele>
        <time>2015-01-24T13:59:28Z</time>
      </trkpt>
      <trkpt lat="49.51978" lon="0.33328">
        <ele>98.5</ele>
        <time>2015-01-24T13:59:34Z</time>
      </trkpt>
      <trkpt lat="49.51977" lon="0.3333">
        <ele>98.400001526</ele>
        <time>2015-01-24T13:59:35Z</time>
      </trkpt>
      <trkpt lat="49.51974" lon="0.33342">
        <ele>98.300003052</ele>
        <time>2015-01-24T13:59:42Z</time>
      </trkpt>
      <trkpt lat="49.51974" lon="0.33344">
        <ele>98.199996948</ele>
        <time>2015-01-24T13:59:43Z</time>
      </trkpt>
      <trkpt lat="49.51971" lon="0.33355">
        <ele>98.5</ele>
        <time>2015-01-24T13:59:51Z</time>
      </trkpt>
      <trkpt lat="49.5197" lon="0.33357">
        <ele>98.400001526</ele>
        <time>2015-01-24T13:59:52Z</time>
      </trkpt>
      <trkpt lat="49.51966" lon="0.33368">
        <ele>98.400001526</ele>
        <time>2015-01-24T13:59:59Z</time>
      </trkpt>
      <trkpt lat="49.51965" lon="0.3337">
        <ele>98.5</ele>
        <time>2015-01-24T14:00:00Z</time>
      </trkpt>
      <trkpt lat="49.51961" lon="0.3338">
        <ele>98.699996948</ele>
        <time>2015-01-24T14:00:06Z</time>
      </trkpt>
      <trkpt lat="49.51961" lon="0.33382">
        <ele>98.599998474</ele>
        <time>2015-01-24T14:00:07Z</time>
      </trkpt>
      <trkpt lat="49.51957" lon="0.33393">
        <ele>98.699996948</ele>
        <time>2015-01-24T14:00:13Z</time>
      </trkpt>
      <trkpt lat="49.51957" lon="0.33395">
        <ele>98.699996948</ele>
        <time>2015-01-24T14:00:14Z</time>
      </trkpt>
      <trkpt lat="49.51953" lon="0.33406">
        <ele>98.699996948</ele>
        <time>2015-01-24T14:00:21Z</time>
      </trkpt>
      <trkpt lat="49.51953" lon="0.33408">
        <ele>98.699996948</ele>
        <time>2015-01-24T14:00:22Z</time>
      </trkpt>
      <trkpt lat="49.51949" lon="0.33419">
        <ele>99</ele>
        <time>2015-01-24T14:00:28Z</time>
      </trkpt>
      <trkpt lat="49.51949" lon="0.3342">
        <ele>99.099998474</ele>
        <time>2015-01-24T14:00:29Z</time>
      </trkpt>
      <trkpt lat="49.51945" lon="0.33432">
        <ele>99.699996948</ele>
        <time>2015-01-24T14:00:36Z</time>
      </trkpt>
      <trkpt lat="49.51945" lon="0.33434">
        <ele>99.699996948</ele>
        <time>2015-01-24T14:00:37Z</time>
      </trkpt>
      <trkpt lat="49.51941" lon="0.33446">
        <ele>99.400001526</ele>
        <time>2015-01-24T14:00:44Z</time>
      </trkpt>
      <trkpt lat="49.5194" lon="0.33447">
        <ele>99.300003052</ele>
        <time>2015-01-24T14:00:45Z</time>
      </trkpt>
      <trkpt lat="49.51936" lon="0.33459">
        <ele>99.099998474</ele>
        <time>2015-01-24T14:00:52Z</time>
      </trkpt>
      <trkpt lat="49.51935" lon="0.33461">
        <ele>99.300003052</ele>
        <time>2015-01-24T14:00:53Z</time>
      </trkpt>
      <trkpt lat="49.51931" lon="0.33473">
        <ele>99.599998474</ele>
        <time>2015-01-24T14:01:00Z</time>
      </trkpt>
      <trkpt lat="49.5193" lon="0.33475">
        <ele>99.599998474</ele>
        <time>2015-01-24T14:01:01Z</time>
      </trkpt>
      <trkpt lat="49.51926" lon="0.33486">
        <ele>100.199996948</ele>
        <time>2015-01-24T14:01:08Z</time>
      </trkpt>
      <trkpt lat="49.51926" lon="0.33488">
        <ele>100.300003052</ele>
        <time>2015-01-24T14:01:09Z</time>
      </trkpt>
      <trkpt lat="49.51922" lon="0.335">
        <ele>100.199996948</ele>
        <time>2015-01-24T14:01:16Z</time>
      </trkpt>
      <trkpt lat="49.51921" lon="0.33502">
        <ele>100</ele>
        <time>2015-01-24T14:01:17Z</time>
      </trkpt>
      <trkpt lat="49.51918" lon="0.33514">
        <ele>100.900001526</ele>
        <time>2015-01-24T14:01:24Z</time>
      </trkpt>
      <trkpt lat="49.51917" lon="0.33516">
        <ele>101.099998474</ele>
        <time>2015-01-24T14:01:25Z</time>
      </trkpt>
      <trkpt lat="49.51914" lon="0.33527">
        <ele>101.900001526</ele>
        <time>2015-01-24T14:01:31Z</time>
      </trkpt>
      <trkpt lat="49.51913" lon="0.33529">
        <ele>102</ele>
        <time>2015-01-24T14:01:32Z</time>
      </trkpt>
      <trkpt lat="49.51909" lon="0.33541">
        <ele>102.599998474</ele>
        <time>2015-01-24T14:01:39Z</time>
      </trkpt>
      <trkpt lat="49.51908" lon="0.33542">
        <ele>102.599998474</ele>
        <time>2015-01-24T14:01:40Z</time>
      </trkpt>
      <trkpt lat="49.51904" lon="0.33555">
        <ele>103.300003052</ele>
        <time>2015-01-24T14:01:47Z</time>
      </trkpt>
      <trkpt lat="49.51904" lon="0.33556">
        <ele>103.400001526</ele>
        <time>2015-01-24T14:01:48Z</time>
      </trkpt>
      <trkpt lat="49.51899" lon="0.33567">
        <ele>104.300003052</ele>
        <time>2015-01-24T14:01:55Z</time>
      </trkpt>
      <trkpt lat="49.51899" lon="0.33569">
        <ele>104.300003052</ele>
        <time>2015-01-24T14:01:56Z</time>
      </trkpt>
      <trkpt lat="49.51895" lon="0.33579">
        <ele>105.300003052</ele>
        <time>2015-01-24T14:02:02Z</time>
      </trkpt>
      <trkpt lat="49.51894" lon="0.33581">
        <ele>105.400001526</ele>
        <time>2015-01-24T14:02:03Z</time>
      </trkpt>
      <trkpt lat="49.5189" lon="0.33592">
        <ele>105.599998474</ele>
        <time>2015-01-24T14:02:10Z</time>
      </trkpt>
      <trkpt lat="49.5189" lon="0.33594">
        <ele>105.599998474</ele>
        <time>2015-01-24T14:02:11Z</time>
      </trkpt>
      <trkpt lat="49.51886" lon="0.33605">
        <ele>106.199996948</ele>
        <time>2015-01-24T14:02:17Z</time>
      </trkpt>
      <trkpt lat="49.51885" lon="0.33607">
        <ele>106.199996948</ele>
        <time>2015-01-24T14:02:18Z</time>
      </trkpt>
      <trkpt lat="49.51881" lon="0.33619">
        <ele>106.699996948</ele>
        <time>2015-01-24T14:02:25Z</time>
      </trkpt>
      <trkpt lat="49.51881" lon="0.3362">
        <ele>106.599998474</ele>
        <time>2015-01-24T14:02:26Z</time>
      </trkpt>
      <trkpt lat="49.51877" lon="0.33632">
        <ele>106.400001526</ele>
        <time>2015-01-24T14:02:31Z</time>
      </trkpt>
      <trkpt lat="49.51876" lon="0.33634">
        <ele>106.300003052</ele>
        <time>2015-01-24T14:02:32Z</time>
      </trkpt>
      <trkpt lat="49.51872" lon="0.33645">
        <ele>106</ele>
        <time>2015-01-24T14:02:39Z</time>
      </trkpt>
      <trkpt lat="49.51871" lon="0.33647">
        <ele>106.199996948</ele>
        <time>2015-01-24T14:02:40Z</time>
      </trkpt>
      <trkpt lat="49.51866" lon="0.33659">
        <ele>106.300003052</ele>
        <time>2015-01-24T14:02:47Z</time>
      </trkpt>
      <trkpt lat="49.51866" lon="0.33661">
        <ele>106.199996948</ele>
        <time>2015-01-24T14:02:48Z</time>
      </trkpt>
      <trkpt lat="49.51861" lon="0.33672">
        <ele>105.300003052</ele>
        <time>2015-01-24T14:02:55Z</time>
      </trkpt>
      <trkpt lat="49.5186" lon="0.33672">
        <ele>105.199996948</ele>
        <time>2015-01-24T14:02:56Z</time>
      </trkpt>
      <trkpt lat="49.51854" lon="0.3368">
        <ele>105.400001526</ele>
        <time>2015-01-24T14:03:02Z</time>
      </trkpt>
      <trkpt lat="49.51853" lon="0.33681">
        <ele>105.5</ele>
        <time>2015-01-24T14:03:03Z</time>
      </trkpt>
      <trkpt lat="49.51845" lon="0.33684">
        <ele>105.5</ele>
        <time>2015-01-24T14:03:10Z</time>
      </trkpt>
      <trkpt lat="49.51843" lon="0.33684">
        <ele>105.5</ele>
        <time>2015-01-24T14:03:11Z</time>
      </trkpt>
      <trkpt lat="49.51834" lon="0.33686">
        <ele>105.699996948</ele>
        <time>2015-01-24T14:03:18Z</time>
      </trkpt>
      <trkpt lat="49.51833" lon="0.33686">
        <ele>105.699996948</ele>
        <time>2015-01-24T14:03:19Z</time>
      </trkpt>
      <trkpt lat="49.51825" lon="0.33688">
        <ele>105.5</ele>
        <time>2015-01-24T14:03:27Z</time>
      </trkpt>
      <trkpt lat="49.51824" lon="0.33688">
        <ele>105.5</ele>
        <time>2015-01-24T14:03:28Z</time>
      </trkpt>
      <trkpt lat="49.51816" lon="0.33691">
        <ele>105.900001526</ele>
        <time>2015-01-24T14:03:33Z</time>
      </trkpt>
      <trkpt lat="49.51815" lon="0.33691">
        <ele>105.900001526</ele>
        <time>2015-01-24T14:03:34Z</time>
      </trkpt>
      <trkpt lat="49.51806" lon="0.33693">
        <ele>106.300003052</ele>
        <time>2015-01-24T14:03:41Z</time>
      </trkpt>
      <trkpt lat="49.51805" lon="0.33693">
        <ele>106.300003052</ele>
        <time>2015-01-24T14:03:42Z</time>
      </trkpt>
      <trkpt lat="49.51797" lon="0.33695">
        <ele>106.099998474</ele>
        <time>2015-01-24T14:03:48Z</time>
      </trkpt>
      <trkpt lat="49.51796" lon="0.33696">
        <ele>105.900001526</ele>
        <time>2015-01-24T14:03:49Z</time>
      </trkpt>
      <trkpt lat="49.51788" lon="0.33698">
        <ele>105.400001526</ele>
        <time>2015-01-24T14:03:57Z</time>
      </trkpt>
      <trkpt lat="49.51787" lon="0.33698">
        <ele>105.400001526</ele>
        <time>2015-01-24T14:03:58Z</time>
      </trkpt>
      <trkpt lat="49.51779" lon="0.33698">
        <ele>105</ele>
        <time>2015-01-24T14:04:04Z</time>
      </trkpt>
      <trkpt lat="49.51777" lon="0.33698">
        <ele>105</ele>
        <time>2015-01-24T14:04:05Z</time>
      </trkpt>
      <trkpt lat="49.51773" lon="0.33697">
        <ele>104.300003052</ele>
        <time>2015-01-24T14:05:25Z</time>
      </trkpt>
      <trkpt lat="49.51764" lon="0.33702">
        <ele>104.699996948</ele>
        <time>2015-01-24T14:05:26Z</time>
      </trkpt>
      <trkpt lat="49.51755" lon="0.337">
        <ele>104.400001526</ele>
        <time>2015-01-24T14:05:51Z</time>
      </trkpt>
      <trkpt lat="49.51755" lon="0.337">
        <ele>104.400001526</ele>
        <time>2015-01-24T14:05:52Z</time>
      </trkpt>
      <trkpt lat="49.51746" lon="0.33705">
        <ele>103.800003052</ele>
        <time>2015-01-24T14:06:06Z</time>
      </trkpt>
      <trkpt lat="49.51745" lon="0.33705">
        <ele>103.699996948</ele>
        <time>2015-01-24T14:06:07Z</time>
      </trkpt>
      <trkpt lat="49.51737" lon="0.33707">
        <ele>103.800003052</ele>
        <time>2015-01-24T14:06:22Z</time>
      </trkpt>
      <trkpt lat="49.51736" lon="0.33707">
        <ele>103.800003052</ele>
        <time>2015-01-24T14:06:23Z</time>
      </trkpt>
      <trkpt lat="49.51727" lon="0.33709">
        <ele>103.699996948</ele>
        <time>2015-01-24T14:06:36Z</time>
      </trkpt>
      <trkpt lat="49.51727" lon="0.33709">
        <ele>103.599998474</ele>
        <time>2015-01-24T14:06:37Z</time>
      </trkpt>
      <trkpt lat="49.51719" lon="0.33711">
        <ele>103.400001526</ele>
        <time>2015-01-24T14:06:47Z</time>
      </trkpt>
      <trkpt lat="49.51718" lon="0.33711">
        <ele>103.400001526</ele>
        <time>2015-01-24T14:06:48Z</time>
      </trkpt>
      <trkpt lat="49.51709" lon="0.33712">
        <ele>103.099998474</ele>
        <time>2015-01-24T14:07:00Z</time>
      </trkpt>
      <trkpt lat="49.51708" lon="0.33712">
        <ele>103.099998474</ele>
        <time>2015-01-24T14:07:01Z</time>
      </trkpt>
      <trkpt lat="49.517" lon="0.33715">
        <ele>102.800003052</ele>
        <time>2015-01-24T14:07:11Z</time>
      </trkpt>
      <trkpt lat="49.51699" lon="0.33715">
        <ele>102.800003052</ele>
        <time>2015-01-24T14:07:12Z</time>
      </trkpt>
      <trkpt lat="49.5169" lon="0.33715">
        <ele>102.300003052</ele>
        <time>2015-01-24T14:07:25Z</time>
      </trkpt>
      <trkpt lat="49.51689" lon="0.33716">
        <ele>102.300003052</ele>
        <time>2015-01-24T14:07:26Z</time>
      </trkpt>
      <trkpt lat="49.51681" lon="0.33718">
        <ele>102.099998474</ele>
        <time>2015-01-24T14:07:34Z</time>
      </trkpt>
      <trkpt lat="49.5168" lon="0.33718">
        <ele>102.099998474</ele>
        <time>2015-01-24T14:07:35Z</time>
      </trkpt>
      <trkpt lat="49.51671" lon="0.33719">
        <ele>101.699996948</ele>
        <time>2015-01-24T14:07:44Z</time>
      </trkpt>
      <trkpt lat="49.5167" lon="0.33719">
        <ele>101.599998474</ele>
        <time>2015-01-24T14:07:45Z</time>
      </trkpt>
      <trkpt lat="49.51661" lon="0.33722">
        <ele>100.699996948</ele>
        <time>2015-01-24T14:07:55Z</time>
      </trkpt>
      <trkpt lat="49.5166" lon="0.33722">
        <ele>100.599998474</ele>
        <time>2015-01-24T14:07:56Z</time>
      </trkpt>
      <trkpt lat="49.51652" lon="0.33724">
        <ele>100.199996948</ele>
        <time>2015-01-24T14:08:06Z</time>
      </trkpt>
      <trkpt lat="49.51651" lon="0.33723">
        <ele>100</ele>
        <time>2015-01-24T14:08:07Z</time>
      </trkpt>
      <trkpt lat="49.51642" lon="0.33724">
        <ele>99</ele>
        <time>2015-01-24T14:08:16Z</time>
      </trkpt>
      <trkpt lat="49.51642" lon="0.33724">
        <ele>98.900001526</ele>
        <time>2015-01-24T14:08:17Z</time>
      </trkpt>
      <trkpt lat="49.51633" lon="0.33726">
        <ele>98.5</ele>
        <time>2015-01-24T14:08:28Z</time>
      </trkpt>
      <trkpt lat="49.51632" lon="0.33726">
        <ele>98.5</ele>
        <time>2015-01-24T14:08:29Z</time>
      </trkpt>
      <trkpt lat="49.51624" lon="0.33726">
        <ele>98.199996948</ele>
        <time>2015-01-24T14:08:36Z</time>
      </trkpt>
      <trkpt lat="49.51623" lon="0.33726">
        <ele>98.199996948</ele>
        <time>2015-01-24T14:08:37Z</time>
      </trkpt>
      <trkpt lat="49.51614" lon="0.33729">
        <ele>97.599998474</ele>
        <time>2015-01-24T14:08:45Z</time>
      </trkpt>
      <trkpt lat="49.51613" lon="0.3373">
        <ele>97.599998474</ele>
        <time>2015-01-24T14:08:46Z</time>
      </trkpt>
      <trkpt lat="49.51605" lon="0.33729">
        <ele>97.5</ele>
        <time>2015-01-24T14:08:58Z</time>
      </trkpt>
      <trkpt lat="49.51603" lon="0.33728">
        <ele>97.5</ele>
        <time>2015-01-24T14:08:59Z</time>
      </trkpt>
      <trkpt lat="49.51596" lon="0.33728">
        <ele>97.199996948</ele>
        <time>2015-01-24T14:09:05Z</time>
      </trkpt>
      <trkpt lat="49.51594" lon="0.33728">
        <ele>97.199996948</ele>
        <time>2015-01-24T14:09:06Z</time>
      </trkpt>
      <trkpt lat="49.51585" lon="0.33727">
        <ele>96.599998474</ele>
        <time>2015-01-24T14:09:15Z</time>
      </trkpt>
      <trkpt lat="49.51585" lon="0.33727">
        <ele>96.5</ele>
        <time>2015-01-24T14:09:16Z</time>
      </trkpt>
      <trkpt lat="49.51578" lon="0.33723">
        <ele>95.400001526</ele>
        <time>2015-01-24T14:09:39Z</time>
      </trkpt>
      <trkpt lat="49.51572" lon="0.33722">
        <ele>94.699996948</ele>
        <time>2015-01-24T14:09:40Z</time>
      </trkpt>
      <trkpt lat="49.51565" lon="0.33717">
        <ele>94.099998474</ele>
        <time>2015-01-24T14:09:50Z</time>
      </trkpt>
      <trkpt lat="49.51563" lon="0.33716">
        <ele>94.099998474</ele>
        <time>2015-01-24T14:09:51Z</time>
      </trkpt>
      <trkpt lat="49.51556" lon="0.3371">
        <ele>93.800003052</ele>
        <time>2015-01-24T14:09:58Z</time>
      </trkpt>
      <trkpt lat="49.51555" lon="0.33709">
        <ele>93.800003052</ele>
        <time>2015-01-24T14:09:59Z</time>
      </trkpt>
      <trkpt lat="49.51548" lon="0.337">
        <ele>93.300003052</ele>
        <time>2015-01-24T14:10:05Z</time>
      </trkpt>
      <trkpt lat="49.51547" lon="0.33699">
        <ele>93.300003052</ele>
        <time>2015-01-24T14:10:06Z</time>
      </trkpt>
      <trkpt lat="49.5154" lon="0.33693">
        <ele>92.900001526</ele>
        <time>2015-01-24T14:10:13Z</time>
      </trkpt>
      <trkpt lat="49.51539" lon="0.33692">
        <ele>92.900001526</ele>
        <time>2015-01-24T14:10:14Z</time>
      </trkpt>
      <trkpt lat="49.51533" lon="0.33684">
        <ele>92.699996948</ele>
        <time>2015-01-24T14:10:23Z</time>
      </trkpt>
      <trkpt lat="49.51531" lon="0.33683">
        <ele>92.599998474</ele>
        <time>2015-01-24T14:10:24Z</time>
      </trkpt>
      <trkpt lat="49.51523" lon="0.33679">
        <ele>92.099998474</ele>
        <time>2015-01-24T14:10:34Z</time>
      </trkpt>
      <trkpt lat="49.51522" lon="0.33679">
        <ele>92</ele>
        <time>2015-01-24T14:10:35Z</time>
      </trkpt>
      <trkpt lat="49.51514" lon="0.33674">
        <ele>91.300003052</ele>
        <time>2015-01-24T14:10:47Z</time>
      </trkpt>
      <trkpt lat="49.51513" lon="0.33674">
        <ele>91.300003052</ele>
        <time>2015-01-24T14:10:48Z</time>
      </trkpt>
      <trkpt lat="49.51505" lon="0.33673">
        <ele>90.699996948</ele>
        <time>2015-01-24T14:10:59Z</time>
      </trkpt>
      <trkpt lat="49.51504" lon="0.33673">
        <ele>90.599998474</ele>
        <time>2015-01-24T14:11:00Z</time>
      </trkpt>
      <trkpt lat="49.51495" lon="0.33676">
        <ele>90.199996948</ele>
        <time>2015-01-24T14:11:10Z</time>
      </trkpt>
      <trkpt lat="49.51494" lon="0.33675">
        <ele>90.300003052</ele>
        <time>2015-01-24T14:11:11Z</time>
      </trkpt>
      <trkpt lat="49.51486" lon="0.3368">
        <ele>89.800003052</ele>
        <time>2015-01-24T14:11:21Z</time>
      </trkpt>
      <trkpt lat="49.51485" lon="0.3368">
        <ele>89.800003052</ele>
        <time>2015-01-24T14:11:22Z</time>
      </trkpt>
      <trkpt lat="49.51477" lon="0.33685">
        <ele>89.099998474</ele>
        <time>2015-01-24T14:11:42Z</time>
      </trkpt>
      <trkpt lat="49.51477" lon="0.33686">
        <ele>89.099998474</ele>
        <time>2015-01-24T14:11:43Z</time>
      </trkpt>
      <trkpt lat="49.51471" lon="0.33694">
        <ele>89</ele>
        <time>2015-01-24T14:11:51Z</time>
      </trkpt>
      <trkpt lat="49.51469" lon="0.33695">
        <ele>89</ele>
        <time>2015-01-24T14:11:52Z</time>
      </trkpt>
      <trkpt lat="49.51461" lon="0.337">
        <ele>89.099998474</ele>
        <time>2015-01-24T14:12:03Z</time>
      </trkpt>
      <trkpt lat="49.5146" lon="0.337">
        <ele>89.099998474</ele>
        <time>2015-01-24T14:12:04Z</time>
      </trkpt>
      <trkpt lat="49.51453" lon="0.33707">
        <ele>89.199996948</ele>
        <time>2015-01-24T14:12:15Z</time>
      </trkpt>
      <trkpt lat="49.51453" lon="0.33708">
        <ele>89.199996948</ele>
        <time>2015-01-24T14:12:16Z</time>
      </trkpt>
      <trkpt lat="49.51445" lon="0.33708">
        <ele>88.800003052</ele>
        <time>2015-01-24T14:12:24Z</time>
      </trkpt>
      <trkpt lat="49.51443" lon="0.33708">
        <ele>88.599998474</ele>
        <time>2015-01-24T14:12:25Z</time>
      </trkpt>
      <trkpt lat="49.51436" lon="0.33709">
        <ele>88.099998474</ele>
        <time>2015-01-24T14:12:28Z</time>
      </trkpt>
      <trkpt lat="49.51433" lon="0.33711">
        <ele>87.900001526</ele>
        <time>2015-01-24T14:12:29Z</time>
      </trkpt>
      <trkpt lat="49.51425" lon="0.33713">
        <ele>87.599998474</ele>
        <time>2015-01-24T14:12:34Z</time>
      </trkpt>
      <trkpt lat="49.51424" lon="0.33714">
        <ele>87.400001526</ele>
        <time>2015-01-24T14:12:35Z</time>
      </trkpt>
      <trkpt lat="49.51415" lon="0.33713">
        <ele>86.199996948</ele>
        <time>2015-01-24T14:12:43Z</time>
      </trkpt>
      <trkpt lat="49.51415" lon="0.33713">
        <ele>86.099998474</ele>
        <time>2015-01-24T14:12:44Z</time>
      </trkpt>
      <trkpt lat="49.51407" lon="0.33707">
        <ele>84.800003052</ele>
        <time>2015-01-24T14:12:55Z</time>
      </trkpt>
      <trkpt lat="49.51406" lon="0.33707">
        <ele>84.699996948</ele>
        <time>2015-01-24T14:12:56Z</time>
      </trkpt>
      <trkpt lat="49.514" lon="0.33699">
        <ele>82.699996948</ele>
        <time>2015-01-24T14:13:12Z</time>
      </trkpt>
      <trkpt lat="49.51398" lon="0.337">
        <ele>82.599998474</ele>
        <time>2015-01-24T14:13:13Z</time>
      </trkpt>
      <trkpt lat="49.51397" lon="0.33699">
        <ele>82.099998474</ele>
        <time>2015-01-24T14:13:30Z</time>
      </trkpt>
      <trkpt lat="49.51388" lon="0.337">
        <ele>81.400001526</ele>
        <time>2015-01-24T14:13:31Z</time>
      </trkpt>
      <trkpt lat="49.51383" lon="0.33696">
        <ele>80.699996948</ele>
        <time>2015-01-24T14:13:45Z</time>
      </trkpt>
      <trkpt lat="49.51378" lon="0.33697">
        <ele>80.599998474</ele>
        <time>2015-01-24T14:13:46Z</time>
      </trkpt>
      <trkpt lat="49.51369" lon="0.33697">
        <ele>79.900001526</ele>
        <time>2015-01-24T14:13:54Z</time>
      </trkpt>
      <trkpt lat="49.51367" lon="0.33697">
        <ele>79.699996948</ele>
        <time>2015-01-24T14:13:55Z</time>
      </trkpt>
      <trkpt lat="49.51359" lon="0.33697">
        <ele>78.5</ele>
        <time>2015-01-24T14:14:03Z</time>
      </trkpt>
      <trkpt lat="49.51358" lon="0.33697">
        <ele>78.400001526</ele>
        <time>2015-01-24T14:14:04Z</time>
      </trkpt>
      <trkpt lat="49.51349" lon="0.33699">
        <ele>77.300003052</ele>
        <time>2015-01-24T14:14:10Z</time>
      </trkpt>
      <trkpt lat="49.51348" lon="0.33699">
        <ele>77.099998474</ele>
        <time>2015-01-24T14:14:11Z</time>
      </trkpt>
      <trkpt lat="49.5134" lon="0.33697">
        <ele>75.5</ele>
        <time>2015-01-24T14:14:20Z</time>
      </trkpt>
      <trkpt lat="49.51339" lon="0.33696">
        <ele>75.300003052</ele>
        <time>2015-01-24T14:14:21Z</time>
      </trkpt>
      <trkpt lat="49.51331" lon="0.337">
        <ele>74.599998474</ele>
        <time>2015-01-24T14:14:25Z</time>
      </trkpt>
      <trkpt lat="49.51329" lon="0.33699">
        <ele>74.5</ele>
        <time>2015-01-24T14:14:26Z</time>
      </trkpt>
      <trkpt lat="49.51321" lon="0.33694">
        <ele>73.199996948</ele>
        <time>2015-01-24T14:14:35Z</time>
      </trkpt>
      <trkpt lat="49.51321" lon="0.33693">
        <ele>73</ele>
        <time>2015-01-24T14:14:36Z</time>
      </trkpt>
      <trkpt lat="49.51312" lon="0.33691">
        <ele>71.900001526</ele>
        <time>2015-01-24T14:14:45Z</time>
      </trkpt>
      <trkpt lat="49.51312" lon="0.3369">
        <ele>71.699996948</ele>
        <time>2015-01-24T14:14:46Z</time>
      </trkpt>
      <trkpt lat="49.51304" lon="0.33685">
        <ele>70.900001526</ele>
        <time>2015-01-24T14:14:53Z</time>
      </trkpt>
      <trkpt lat="49.51303" lon="0.33685">
        <ele>70.800003052</ele>
        <time>2015-01-24T14:14:54Z</time>
      </trkpt>
      <trkpt lat="49.51294" lon="0.33685">
        <ele>69.5</ele>
        <time>2015-01-24T14:15:06Z</time>
      </trkpt>
      <trkpt lat="49.51294" lon="0.33685">
        <ele>69.400001526</ele>
        <time>2015-01-24T14:15:07Z</time>
      </trkpt>
      <trkpt lat="49.51287" lon="0.33693">
        <ele>68.300003052</ele>
        <time>2015-01-24T14:15:22Z</time>
      </trkpt>
      <trkpt lat="49.51286" lon="0.33695">
        <ele>68.099998474</ele>
        <time>2015-01-24T14:15:23Z</time>
      </trkpt>
      <trkpt lat="49.51283" lon="0.33697">
        <ele>67.699996948</ele>
        <time>2015-01-24T14:16:37Z</time>
      </trkpt>
      <trkpt lat="49.51285" lon="0.33711">
        <ele>63.900001526</ele>
        <time>2015-01-24T14:16:38Z</time>
      </trkpt>
      <trkpt lat="49.51294" lon="0.33708">
        <ele>63.099998474</ele>
        <time>2015-01-24T14:17:08Z</time>
      </trkpt>
      <trkpt lat="49.51295" lon="0.33708">
        <ele>63</ele>
        <time>2015-01-24T14:17:09Z</time>
      </trkpt>
      <trkpt lat="49.51299" lon="0.33708">
        <ele>63.099998474</ele>
        <time>2015-01-24T14:18:40Z</time>
      </trkpt>
      <trkpt lat="49.51306" lon="0.33699">
        <ele>59</ele>
        <time>2015-01-24T14:18:41Z</time>
      </trkpt>
      <trkpt lat="49.51306" lon="0.33699">
        <ele>58.799999237</ele>
        <time>2015-01-24T14:18:53Z</time>
      </trkpt>
      <trkpt lat="49.51297" lon="0.33698">
        <ele>57.299999237</ele>
        <time>2015-01-24T14:18:54Z</time>
      </trkpt>
      <trkpt lat="49.51294" lon="0.33698">
        <ele>57</ele>
        <time>2015-01-24T14:19:08Z</time>
      </trkpt>
      <trkpt lat="49.51285" lon="0.33698">
        <ele>56.099998474</ele>
        <time>2015-01-24T14:19:09Z</time>
      </trkpt>
      <trkpt lat="49.51285" lon="0.33697">
        <ele>56</ele>
        <time>2015-01-24T14:19:36Z</time>
      </trkpt>
      <trkpt lat="49.51277" lon="0.3369">
        <ele>55.900001526</ele>
        <time>2015-01-24T14:19:37Z</time>
      </trkpt>
      <trkpt lat="49.51277" lon="0.3369">
        <ele>56.299999237</ele>
        <time>2015-01-24T14:20:55Z</time>
      </trkpt>
      <trkpt lat="49.51284" lon="0.33701">
        <ele>56.799999237</ele>
        <time>2015-01-24T14:20:56Z</time>
      </trkpt>
      <trkpt lat="49.51284" lon="0.33701">
        <ele>56.799999237</ele>
        <time>2015-01-24T14:21:45Z</time>
      </trkpt>
      <trkpt lat="49.51292" lon="0.33696">
        <ele>53.200000763</ele>
        <time>2015-01-24T14:21:46Z</time>
      </trkpt>
      <trkpt lat="49.51286" lon="0.33705">
        <ele>52.200000763</ele>
        <time>2015-01-24T14:22:55Z</time>
      </trkpt>
      <trkpt lat="49.51286" lon="0.33706">
        <ele>52.200000763</ele>
        <time>2015-01-24T14:22:56Z</time>
      </trkpt>
      <trkpt lat="49.51286" lon="0.33706">
        <ele>52.200000763</ele>
        <time>2015-01-24T14:23:43Z</time>
      </trkpt>
      <trkpt lat="49.51295" lon="0.33706">
        <ele>52.599998474</ele>
        <time>2015-01-24T14:23:44Z</time>
      </trkpt>
      <trkpt lat="49.51286" lon="0.33701">
        <ele>52.299999237</ele>
        <time>2015-01-24T14:24:10Z</time>
      </trkpt>
      <trkpt lat="49.51286" lon="0.33701">
        <ele>52.200000763</ele>
        <time>2015-01-24T14:24:11Z</time>
      </trkpt>
      <trkpt lat="49.51286" lon="0.337">
        <ele>52.200000763</ele>
        <time>2015-01-24T14:24:51Z</time>
      </trkpt>
      <trkpt lat="49.51295" lon="0.337">
        <ele>52.5</ele>
        <time>2015-01-24T14:24:52Z</time>
      </trkpt>
      <trkpt lat="49.51296" lon="0.33701">
        <ele>52.700000763</ele>
        <time>2015-01-24T14:26:17Z</time>
      </trkpt>
      <trkpt lat="49.51287" lon="0.33707">
        <ele>54.400001526</ele>
        <time>2015-01-24T14:26:18Z</time>
      </trkpt>
      <trkpt lat="49.51286" lon="0.33707">
        <ele>54.900001526</ele>
        <time>2015-01-24T14:27:17Z</time>
      </trkpt>
      <trkpt lat="49.51277" lon="0.33706">
        <ele>55.599998474</ele>
        <time>2015-01-24T14:27:18Z</time>
      </trkpt>
      <trkpt lat="49.51273" lon="0.33703">
        <ele>54.299999237</ele>
        <time>2015-01-24T14:28:16Z</time>
      </trkpt>
      <trkpt lat="49.5128" lon="0.33711">
        <ele>55.799999237</ele>
        <time>2015-01-24T14:28:17Z</time>
      </trkpt>
      <trkpt lat="49.51279" lon="0.33712">
        <ele>55.099998474</ele>
        <time>2015-01-24T14:29:06Z</time>
      </trkpt>
      <trkpt lat="49.51278" lon="0.33712">
        <ele>55.099998474</ele>
        <time>2015-01-24T14:29:07Z</time>
      </trkpt>
      <trkpt lat="49.51272" lon="0.3372">
        <ele>54.700000763</ele>
        <time>2015-01-24T14:29:19Z</time>
      </trkpt>
      <trkpt lat="49.51271" lon="0.33722">
        <ele>54.599998474</ele>
        <time>2015-01-24T14:29:20Z</time>
      </trkpt>
      <trkpt lat="49.51265" lon="0.33732">
        <ele>53.700000763</ele>
        <time>2015-01-24T14:29:37Z</time>
      </trkpt>
      <trkpt lat="49.51263" lon="0.33733">
        <ele>53.5</ele>
        <time>2015-01-24T14:29:38Z</time>
      </trkpt>
      <trkpt lat="49.51259" lon="0.33743">
        <ele>53.599998474</ele>
        <time>2015-01-24T14:29:45Z</time>
      </trkpt>
      <trkpt lat="49.51258" lon="0.33745">
        <ele>53.599998474</ele>
        <time>2015-01-24T14:29:46Z</time>
      </trkpt>
      <trkpt lat="49.51262" lon="0.33755">
        <ele>53.900001526</ele>
        <time>2015-01-24T14:30:07Z</time>
      </trkpt>
      <trkpt lat="49.51264" lon="0.33756">
        <ele>53.900001526</ele>
        <time>2015-01-24T14:30:08Z</time>
      </trkpt>
      <trkpt lat="49.51264" lon="0.33767">
        <ele>53.900001526</ele>
        <time>2015-01-24T14:30:30Z</time>
      </trkpt>
      <trkpt lat="49.51269" lon="0.33779">
        <ele>52.400001526</ele>
        <time>2015-01-24T14:30:31Z</time>
      </trkpt>
      <trkpt lat="49.51267" lon="0.33791">
        <ele>52.5</ele>
        <time>2015-01-24T14:30:42Z</time>
      </trkpt>
      <trkpt lat="49.51267" lon="0.33793">
        <ele>52.5</ele>
        <time>2015-01-24T14:30:43Z</time>
      </trkpt>
      <trkpt lat="49.51273" lon="0.33802">
        <ele>51.5</ele>
        <time>2015-01-24T14:30:54Z</time>
      </trkpt>
      <trkpt lat="49.51273" lon="0.33803">
        <ele>51.400001526</ele>
        <time>2015-01-24T14:30:55Z</time>
      </trkpt>
      <trkpt lat="49.51278" lon="0.33813">
        <ele>50.700000763</ele>
        <time>2015-01-24T14:31:07Z</time>
      </trkpt>
      <trkpt lat="49.51278" lon="0.33815">
        <ele>50.5</ele>
        <time>2015-01-24T14:31:08Z</time>
      </trkpt>
      <trkpt lat="49.51279" lon="0.33826">
        <ele>49.799999237</ele>
        <time>2015-01-24T14:31:12Z</time>
      </trkpt>
      <trkpt lat="49.5128" lon="0.33828">
        <ele>49.599998474</ele>
        <time>2015-01-24T14:31:13Z</time>
      </trkpt>
      <trkpt lat="49.51283" lon="0.33841">
        <ele>48.200000763</ele>
        <time>2015-01-24T14:31:25Z</time>
      </trkpt>
      <trkpt lat="49.51284" lon="0.33842">
        <ele>48</ele>
        <time>2015-01-24T14:31:26Z</time>
      </trkpt>
      <trkpt lat="49.51283" lon="0.33855">
        <ele>47.299999237</ele>
        <time>2015-01-24T14:31:39Z</time>
      </trkpt>
      <trkpt lat="49.51283" lon="0.33856">
        <ele>47.299999237</ele>
        <time>2015-01-24T14:31:40Z</time>
      </trkpt>
      <trkpt lat="49.51283" lon="0.33861">
        <ele>47.200000763</ele>
        <time>2015-01-24T14:32:02Z</time>
      </trkpt>
      <trkpt lat="49.5128" lon="0.33874">
        <ele>46.799999237</ele>
        <time>2015-01-24T14:32:03Z</time>
      </trkpt>
      <trkpt lat="49.51276" lon="0.33887">
        <ele>46.400001526</ele>
        <time>2015-01-24T14:32:13Z</time>
      </trkpt>
      <trkpt lat="49.51276" lon="0.33889">
        <ele>46.400001526</ele>
        <time>2015-01-24T14:32:14Z</time>
      </trkpt>
      <trkpt lat="49.51277" lon="0.33902">
        <ele>46</ele>
        <time>2015-01-24T14:32:32Z</time>
      </trkpt>
      <trkpt lat="49.51278" lon="0.33902">
        <ele>46</ele>
        <time>2015-01-24T14:32:33Z</time>
      </trkpt>
      <trkpt lat="49.51285" lon="0.3391">
        <ele>45.599998474</ele>
        <time>2015-01-24T14:32:43Z</time>
      </trkpt>
      <trkpt lat="49.51286" lon="0.33911">
        <ele>45.599998474</ele>
        <time>2015-01-24T14:32:44Z</time>
      </trkpt>
      <trkpt lat="49.51294" lon="0.33916">
        <ele>45.5</ele>
        <time>2015-01-24T14:33:02Z</time>
      </trkpt>
      <trkpt lat="49.51294" lon="0.33922">
        <ele>45.700000763</ele>
        <time>2015-01-24T14:33:03Z</time>
      </trkpt>
      <trkpt lat="49.513" lon="0.33932">
        <ele>45.900001526</ele>
        <time>2015-01-24T14:33:12Z</time>
      </trkpt>
      <trkpt lat="49.51301" lon="0.33933">
        <ele>45.900001526</ele>
        <time>2015-01-24T14:33:13Z</time>
      </trkpt>
      <trkpt lat="49.51307" lon="0.3394">
        <ele>46.400001526</ele>
        <time>2015-01-24T14:33:25Z</time>
      </trkpt>
      <trkpt lat="49.51308" lon="0.33942">
        <ele>46.5</ele>
        <time>2015-01-24T14:33:26Z</time>
      </trkpt>
      <trkpt lat="49.51316" lon="0.33946">
        <ele>46.599998474</ele>
        <time>2015-01-24T14:33:42Z</time>
      </trkpt>
      <trkpt lat="49.51319" lon="0.33949">
        <ele>46.599998474</ele>
        <time>2015-01-24T14:33:43Z</time>
      </trkpt>
      <trkpt lat="49.51326" lon="0.33957">
        <ele>46.900001526</ele>
        <time>2015-01-24T14:33:54Z</time>
      </trkpt>
      <trkpt lat="49.51326" lon="0.33957">
        <ele>46.900001526</ele>
        <time>2015-01-24T14:33:55Z</time>
      </trkpt>
      <trkpt lat="49.51331" lon="0.33968">
        <ele>47.200000763</ele>
        <time>2015-01-24T14:34:03Z</time>
      </trkpt>
      <trkpt lat="49.51332" lon="0.33969">
        <ele>47.299999237</ele>
        <time>2015-01-24T14:34:04Z</time>
      </trkpt>
      <trkpt lat="49.51338" lon="0.3398">
        <ele>47.5</ele>
        <time>2015-01-24T14:34:11Z</time>
      </trkpt>
      <trkpt lat="49.51339" lon="0.33981">
        <ele>47.5</ele>
        <time>2015-01-24T14:34:12Z</time>
      </trkpt>
      <trkpt lat="49.51346" lon="0.33989">
        <ele>47.400001526</ele>
        <time>2015-01-24T14:34:18Z</time>
      </trkpt>
      <trkpt lat="49.51346" lon="0.3399">
        <ele>47.400001526</ele>
        <time>2015-01-24T14:34:19Z</time>
      </trkpt>
      <trkpt lat="49.51352" lon="0.33999">
        <ele>47.299999237</ele>
        <time>2015-01-24T14:34:24Z</time>
      </trkpt>
      <trkpt lat="49.51355" lon="0.34004">
        <ele>47.299999237</ele>
        <time>2015-01-24T14:34:25Z</time>
      </trkpt>
      <trkpt lat="49.51363" lon="0.34012">
        <ele>46.900001526</ele>
        <time>2015-01-24T14:34:28Z</time>
      </trkpt>
      <trkpt lat="49.51365" lon="0.34014">
        <ele>46.799999237</ele>
        <time>2015-01-24T14:34:29Z</time>
      </trkpt>
      <trkpt lat="49.5137" lon="0.34024">
        <ele>46.099998474</ele>
        <time>2015-01-24T14:34:36Z</time>
      </trkpt>
      <trkpt lat="49.51371" lon="0.34025">
        <ele>46</ele>
        <time>2015-01-24T14:34:37Z</time>
      </trkpt>
      <trkpt lat="49.51376" lon="0.34036">
        <ele>45.099998474</ele>
        <time>2015-01-24T14:34:48Z</time>
      </trkpt>
      <trkpt lat="49.51376" lon="0.34038">
        <ele>45.099998474</ele>
        <time>2015-01-24T14:34:49Z</time>
      </trkpt>
      <trkpt lat="49.51378" lon="0.3405">
        <ele>44.299999237</ele>
        <time>2015-01-24T14:34:59Z</time>
      </trkpt>
      <trkpt lat="49.51379" lon="0.34052">
        <ele>44.200000763</ele>
        <time>2015-01-24T14:35:00Z</time>
      </trkpt>
      <trkpt lat="49.51379" lon="0.34065">
        <ele>43.599998474</ele>
        <time>2015-01-24T14:35:09Z</time>
      </trkpt>
      <trkpt lat="49.5138" lon="0.34066">
        <ele>43.400001526</ele>
        <time>2015-01-24T14:35:10Z</time>
      </trkpt>
      <trkpt lat="49.51383" lon="0.34079">
        <ele>42.5</ele>
        <time>2015-01-24T14:35:19Z</time>
      </trkpt>
      <trkpt lat="49.51382" lon="0.3408">
        <ele>42.400001526</ele>
        <time>2015-01-24T14:35:20Z</time>
      </trkpt>
      <trkpt lat="49.51378" lon="0.34092">
        <ele>42.099998474</ele>
        <time>2015-01-24T14:35:29Z</time>
      </trkpt>
      <trkpt lat="49.51378" lon="0.34094">
        <ele>42</ele>
        <time>2015-01-24T14:35:30Z</time>
      </trkpt>
      <trkpt lat="49.51378" lon="0.34103">
        <ele>42.099998474</ele>
        <time>2015-01-24T14:35:43Z</time>
      </trkpt>
      <trkpt lat="49.51378" lon="0.34108">
        <ele>42.099998474</ele>
        <time>2015-01-24T14:35:44Z</time>
      </trkpt>
      <trkpt lat="49.5138" lon="0.34121">
        <ele>42.299999237</ele>
        <time>2015-01-24T14:35:52Z</time>
      </trkpt>
      <trkpt lat="49.51381" lon="0.34122">
        <ele>42.299999237</ele>
        <time>2015-01-24T14:35:53Z</time>
      </trkpt>
      <trkpt lat="49.51381" lon="0.34135">
        <ele>42.400001526</ele>
        <time>2015-01-24T14:36:03Z</time>
      </trkpt>
      <trkpt lat="49.51381" lon="0.34136">
        <ele>42.400001526</ele>
        <time>2015-01-24T14:36:04Z</time>
      </trkpt>
      <trkpt lat="49.51378" lon="0.34149">
        <ele>42.599998474</ele>
        <time>2015-01-24T14:36:12Z</time>
      </trkpt>
      <trkpt lat="49.51378" lon="0.3415">
        <ele>42.599998474</ele>
        <time>2015-01-24T14:36:13Z</time>
      </trkpt>
      <trkpt lat="49.51377" lon="0.34162">
        <ele>42.799999237</ele>
        <time>2015-01-24T14:36:22Z</time>
      </trkpt>
      <trkpt lat="49.51377" lon="0.34164">
        <ele>42.900001526</ele>
        <time>2015-01-24T14:36:23Z</time>
      </trkpt>
      <trkpt lat="49.51375" lon="0.34178">
        <ele>42.400001526</ele>
        <time>2015-01-24T14:36:37Z</time>
      </trkpt>
      <trkpt lat="49.51375" lon="0.34179">
        <ele>42.299999237</ele>
        <time>2015-01-24T14:36:38Z</time>
      </trkpt>
      <trkpt lat="49.51375" lon="0.34179">
        <ele>42.299999237</ele>
        <time>2015-01-24T14:36:48Z</time>
      </trkpt>
      <trkpt lat="49.5138" lon="0.3419">
        <ele>42.400001526</ele>
        <time>2015-01-24T14:36:49Z</time>
      </trkpt>
      <trkpt lat="49.51378" lon="0.34204">
        <ele>43.5</ele>
        <time>2015-01-24T14:39:05Z</time>
      </trkpt>
      <trkpt lat="49.51378" lon="0.34205">
        <ele>43.299999237</ele>
        <time>2015-01-24T14:39:06Z</time>
      </trkpt>
      <trkpt lat="49.51379" lon="0.34218">
        <ele>42.599998474</ele>
        <time>2015-01-24T14:39:20Z</time>
      </trkpt>
      <trkpt lat="49.51379" lon="0.34219">
        <ele>42.700000763</ele>
        <time>2015-01-24T14:39:21Z</time>
      </trkpt>
      <trkpt lat="49.51382" lon="0.34232">
        <ele>42.200000763</ele>
        <time>2015-01-24T14:39:35Z</time>
      </trkpt>
      <trkpt lat="49.51382" lon="0.34235">
        <ele>42.299999237</ele>
        <time>2015-01-24T14:39:36Z</time>
      </trkpt>
      <trkpt lat="49.51383" lon="0.34241">
        <ele>42.700000763</ele>
        <time>2015-01-24T14:39:54Z</time>
      </trkpt>
      <trkpt lat="49.51386" lon="0.34252">
        <ele>43</ele>
        <time>2015-01-24T14:39:55Z</time>
      </trkpt>
      <trkpt lat="49.51391" lon="0.34263">
        <ele>43.299999237</ele>
        <time>2015-01-24T14:40:08Z</time>
      </trkpt>
      <trkpt lat="49.51391" lon="0.34264">
        <ele>43.299999237</ele>
        <time>2015-01-24T14:40:09Z</time>
      </trkpt>
      <trkpt lat="49.51395" lon="0.34277">
        <ele>43.599998474</ele>
        <time>2015-01-24T14:40:19Z</time>
      </trkpt>
      <trkpt lat="49.51395" lon="0.34277">
        <ele>43.599998474</ele>
        <time>2015-01-24T14:40:20Z</time>
      </trkpt>
      <trkpt lat="49.51396" lon="0.3429">
        <ele>43.400001526</ele>
        <time>2015-01-24T14:40:32Z</time>
      </trkpt>
      <trkpt lat="49.51396" lon="0.34291">
        <ele>43.400001526</ele>
        <time>2015-01-24T14:40:33Z</time>
      </trkpt>
      <trkpt lat="49.51398" lon="0.34303">
        <ele>43.400001526</ele>
        <time>2015-01-24T14:40:43Z</time>
      </trkpt>
      <trkpt lat="49.51399" lon="0.34305">
        <ele>43.400001526</ele>
        <time>2015-01-24T14:40:44Z</time>
      </trkpt>
      <trkpt lat="49.51404" lon="0.34314">
        <ele>43.200000763</ele>
        <time>2015-01-24T14:40:52Z</time>
      </trkpt>
      <trkpt lat="49.51405" lon="0.34316">
        <ele>43.200000763</ele>
        <time>2015-01-24T14:40:53Z</time>
      </trkpt>
      <trkpt lat="49.51411" lon="0.34325">
        <ele>43.299999237</ele>
        <time>2015-01-24T14:40:58Z</time>
      </trkpt>
      <trkpt lat="49.51412" lon="0.34326">
        <ele>43.299999237</ele>
        <time>2015-01-24T14:40:59Z</time>
      </trkpt>
      <trkpt lat="49.51416" lon="0.34337">
        <ele>43.299999237</ele>
        <time>2015-01-24T14:41:08Z</time>
      </trkpt>
      <trkpt lat="49.51417" lon="0.34338">
        <ele>43.299999237</ele>
        <time>2015-01-24T14:41:09Z</time>
      </trkpt>
      <trkpt lat="49.51422" lon="0.34347">
        <ele>43.200000763</ele>
        <time>2015-01-24T14:41:18Z</time>
      </trkpt>
      <trkpt lat="49.51423" lon="0.34351">
        <ele>43.299999237</ele>
        <time>2015-01-24T14:41:19Z</time>
      </trkpt>
      <trkpt lat="49.51426" lon="0.34363">
        <ele>43.299999237</ele>
        <time>2015-01-24T14:41:26Z</time>
      </trkpt>
      <trkpt lat="49.51427" lon="0.34364">
        <ele>43.299999237</ele>
        <time>2015-01-24T14:41:27Z</time>
      </trkpt>
      <trkpt lat="49.51432" lon="0.34373">
        <ele>43</ele>
        <time>2015-01-24T14:41:34Z</time>
      </trkpt>
      <trkpt lat="49.51433" lon="0.34375">
        <ele>43</ele>
        <time>2015-01-24T14:41:35Z</time>
      </trkpt>
      <trkpt lat="49.51437" lon="0.34384">
        <ele>42.799999237</ele>
        <time>2015-01-24T14:41:40Z</time>
      </trkpt>
      <trkpt lat="49.5144" lon="0.34387">
        <ele>42.799999237</ele>
        <time>2015-01-24T14:41:41Z</time>
      </trkpt>
      <trkpt lat="49.51444" lon="0.34396">
        <ele>42.700000763</ele>
        <time>2015-01-24T14:41:45Z</time>
      </trkpt>
      <trkpt lat="49.51446" lon="0.34398">
        <ele>42.599998474</ele>
        <time>2015-01-24T14:41:46Z</time>
      </trkpt>
      <trkpt lat="49.51446" lon="0.34412">
        <ele>43</ele>
        <time>2015-01-24T14:41:54Z</time>
      </trkpt>
      <trkpt lat="49.51446" lon="0.34413">
        <ele>43</ele>
        <time>2015-01-24T14:41:55Z</time>
      </trkpt>
      <trkpt lat="49.51444" lon="0.34426">
        <ele>42.900001526</ele>
        <time>2015-01-24T14:42:02Z</time>
      </trkpt>
      <trkpt lat="49.51444" lon="0.34427">
        <ele>42.900001526</ele>
        <time>2015-01-24T14:42:03Z</time>
      </trkpt>
      <trkpt lat="49.51445" lon="0.34441">
        <ele>43.099998474</ele>
        <time>2015-01-24T14:42:15Z</time>
      </trkpt>
      <trkpt lat="49.51445" lon="0.34441">
        <ele>43.099998474</ele>
        <time>2015-01-24T14:42:16Z</time>
      </trkpt>
      <trkpt lat="49.51442" lon="0.34453">
        <ele>43.099998474</ele>
        <time>2015-01-24T14:42:25Z</time>
      </trkpt>
      <trkpt lat="49.51442" lon="0.34455">
        <ele>43.099998474</ele>
        <time>2015-01-24T14:42:26Z</time>
      </trkpt>
      <trkpt lat="49.5144" lon="0.34468">
        <ele>43</ele>
        <time>2015-01-24T14:42:34Z</time>
      </trkpt>
      <trkpt lat="49.51441" lon="0.3447">
        <ele>43</ele>
        <time>2015-01-24T14:42:35Z</time>
      </trkpt>
      <trkpt lat="49.51441" lon="0.34482">
        <ele>42.799999237</ele>
        <time>2015-01-24T14:42:38Z</time>
      </trkpt>
      <trkpt lat="49.51441" lon="0.34485">
        <ele>42.799999237</ele>
        <time>2015-01-24T14:42:39Z</time>
      </trkpt>
      <trkpt lat="49.51444" lon="0.34498">
        <ele>42.299999237</ele>
        <time>2015-01-24T14:42:46Z</time>
      </trkpt>
      <trkpt lat="49.51443" lon="0.345">
        <ele>42.299999237</ele>
        <time>2015-01-24T14:42:47Z</time>
      </trkpt>
      <trkpt lat="49.51443" lon="0.34513">
        <ele>42</ele>
        <time>2015-01-24T14:42:52Z</time>
      </trkpt>
      <trkpt lat="49.51443" lon="0.34515">
        <ele>42</ele>
        <time>2015-01-24T14:42:53Z</time>
      </trkpt>
      <trkpt lat="49.51445" lon="0.34527">
        <ele>42</ele>
        <time>2015-01-24T14:43:02Z</time>
      </trkpt>
      <trkpt lat="49.51445" lon="0.3453">
        <ele>42.099998474</ele>
        <time>2015-01-24T14:43:03Z</time>
      </trkpt>
      <trkpt lat="49.51446" lon="0.34542">
        <ele>41.599998474</ele>
        <time>2015-01-24T14:43:09Z</time>
      </trkpt>
      <trkpt lat="49.51446" lon="0.34544">
        <ele>41.599998474</ele>
        <time>2015-01-24T14:43:10Z</time>
      </trkpt>
      <trkpt lat="49.51444" lon="0.34556">
        <ele>41.299999237</ele>
        <time>2015-01-24T14:43:15Z</time>
      </trkpt>
      <trkpt lat="49.51444" lon="0.34558">
        <ele>41.299999237</ele>
        <time>2015-01-24T14:43:16Z</time>
      </trkpt>
      <trkpt lat="49.51442" lon="0.34569">
        <ele>41.200000763</ele>
        <time>2015-01-24T14:43:21Z</time>
      </trkpt>
      <trkpt lat="49.51442" lon="0.34572">
        <ele>41.200000763</ele>
        <time>2015-01-24T14:43:22Z</time>
      </trkpt>
      <trkpt lat="49.51442" lon="0.34584">
        <ele>41.299999237</ele>
        <time>2015-01-24T14:43:29Z</time>
      </trkpt>
      <trkpt lat="49.51442" lon="0.34589">
        <ele>41.700000763</ele>
        <time>2015-01-24T14:43:30Z</time>
      </trkpt>
      <trkpt lat="49.51444" lon="0.346">
        <ele>42.200000763</ele>
        <time>2015-01-24T14:43:35Z</time>
      </trkpt>
      <trkpt lat="49.51445" lon="0.34602">
        <ele>42.400001526</ele>
        <time>2015-01-24T14:43:36Z</time>
      </trkpt>
      <trkpt lat="49.51446" lon="0.34614">
        <ele>42.799999237</ele>
        <time>2015-01-24T14:43:44Z</time>
      </trkpt>
      <trkpt lat="49.51446" lon="0.34616">
        <ele>42.799999237</ele>
        <time>2015-01-24T14:43:45Z</time>
      </trkpt>
      <trkpt lat="49.51446" lon="0.34628">
        <ele>43.099998474</ele>
        <time>2015-01-24T14:43:54Z</time>
      </trkpt>
      <trkpt lat="49.51446" lon="0.3463">
        <ele>43.099998474</ele>
        <time>2015-01-24T14:43:55Z</time>
      </trkpt>
      <trkpt lat="49.51447" lon="0.34642">
        <ele>42.799999237</ele>
        <time>2015-01-24T14:44:03Z</time>
      </trkpt>
      <trkpt lat="49.51447" lon="0.34644">
        <ele>42.700000763</ele>
        <time>2015-01-24T14:44:04Z</time>
      </trkpt>
      <trkpt lat="49.51446" lon="0.34655">
        <ele>42.700000763</ele>
        <time>2015-01-24T14:44:09Z</time>
      </trkpt>
      <trkpt lat="49.51445" lon="0.3466">
        <ele>42.599998474</ele>
        <time>2015-01-24T14:44:10Z</time>
      </trkpt>
      <trkpt lat="49.51441" lon="0.34671">
        <ele>42.599998474</ele>
        <time>2015-01-24T14:44:16Z</time>
      </trkpt>
      <trkpt lat="49.5144" lon="0.34676">
        <ele>42.5</ele>
        <time>2015-01-24T14:44:17Z</time>
      </trkpt>
      <trkpt lat="49.51433" lon="0.34685">
        <ele>42.299999237</ele>
        <time>2015-01-24T14:44:24Z</time>
      </trkpt>
      <trkpt lat="49.51432" lon="0.34687">
        <ele>42.200000763</ele>
        <time>2015-01-24T14:44:25Z</time>
      </trkpt>
      <trkpt lat="49.51428" lon="0.34699">
        <ele>41.700000763</ele>
        <time>2015-01-24T14:44:32Z</time>
      </trkpt>
      <trkpt lat="49.51428" lon="0.347">
        <ele>41.700000763</ele>
        <time>2015-01-24T14:44:33Z</time>
      </trkpt>
      <trkpt lat="49.51427" lon="0.34713">
        <ele>41.799999237</ele>
        <time>2015-01-24T14:44:49Z</time>
      </trkpt>
      <trkpt lat="49.51426" lon="0.34717">
        <ele>42</ele>
        <time>2015-01-24T14:44:50Z</time>
      </trkpt>
      <trkpt lat="49.51425" lon="0.3473">
        <ele>42.099998474</ele>
        <time>2015-01-24T14:44:58Z</time>
      </trkpt>
      <trkpt lat="49.51424" lon="0.34733">
        <ele>42.099998474</ele>
        <time>2015-01-24T14:44:59Z</time>
      </trkpt>
      <trkpt lat="49.5142" lon="0.34746">
        <ele>42.700000763</ele>
        <time>2015-01-24T14:45:04Z</time>
      </trkpt>
      <trkpt lat="49.51419" lon="0.34751">
        <ele>43.099998474</ele>
        <time>2015-01-24T14:45:05Z</time>
      </trkpt>
      <trkpt lat="49.51415" lon="0.34764">
        <ele>43.900001526</ele>
        <time>2015-01-24T14:45:10Z</time>
      </trkpt>
      <trkpt lat="49.51415" lon="0.34765">
        <ele>43.900001526</ele>
        <time>2015-01-24T14:45:11Z</time>
      </trkpt>
      <trkpt lat="49.51415" lon="0.34778">
        <ele>44.299999237</ele>
        <time>2015-01-24T14:45:18Z</time>
      </trkpt>
      <trkpt lat="49.51415" lon="0.3478">
        <ele>44.400001526</ele>
        <time>2015-01-24T14:45:19Z</time>
      </trkpt>
      <trkpt lat="49.5141" lon="0.34791">
        <ele>44.700000763</ele>
        <time>2015-01-24T14:45:27Z</time>
      </trkpt>
      <trkpt lat="49.5141" lon="0.34792">
        <ele>44.599998474</ele>
        <time>2015-01-24T14:45:28Z</time>
      </trkpt>
      <trkpt lat="49.51407" lon="0.34803">
        <ele>44.5</ele>
        <time>2015-01-24T14:45:32Z</time>
      </trkpt>
      <trkpt lat="49.51406" lon="0.34808">
        <ele>44.700000763</ele>
        <time>2015-01-24T14:45:33Z</time>
      </trkpt>
      <trkpt lat="49.51403" lon="0.3482">
        <ele>44.900001526</ele>
        <time>2015-01-24T14:45:39Z</time>
      </trkpt>
      <trkpt lat="49.51403" lon="0.34822">
        <ele>44.900001526</ele>
        <time>2015-01-24T14:45:40Z</time>
      </trkpt>
      <trkpt lat="49.51402" lon="0.34834">
        <ele>45.099998474</ele>
        <time>2015-01-24T14:45:48Z</time>
      </trkpt>
      <trkpt lat="49.51401" lon="0.34837">
        <ele>45.200000763</ele>
        <time>2015-01-24T14:45:49Z</time>
      </trkpt>
      <trkpt lat="49.51402" lon="0.3485">
        <ele>45.400001526</ele>
        <time>2015-01-24T14:45:59Z</time>
      </trkpt>
      <trkpt lat="49.51402" lon="0.34852">
        <ele>45.5</ele>
        <time>2015-01-24T14:46:00Z</time>
      </trkpt>
      <trkpt lat="49.51401" lon="0.34864">
        <ele>45.799999237</ele>
        <time>2015-01-24T14:46:09Z</time>
      </trkpt>
      <trkpt lat="49.51402" lon="0.34866">
        <ele>45.799999237</ele>
        <time>2015-01-24T14:46:10Z</time>
      </trkpt>
      <trkpt lat="49.51403" lon="0.34878">
        <ele>46.299999237</ele>
        <time>2015-01-24T14:46:21Z</time>
      </trkpt>
      <trkpt lat="49.51404" lon="0.34879">
        <ele>46.400001526</ele>
        <time>2015-01-24T14:46:22Z</time>
      </trkpt>
      <trkpt lat="49.51408" lon="0.34891">
        <ele>46.5</ele>
        <time>2015-01-24T14:46:30Z</time>
      </trkpt>
      <trkpt lat="49.51409" lon="0.34892">
        <ele>46.5</ele>
        <time>2015-01-24T14:46:31Z</time>
      </trkpt>
      <trkpt lat="49.51414" lon="0.34903">
        <ele>47</ele>
        <time>2015-01-24T14:46:38Z</time>
      </trkpt>
      <trkpt lat="49.51415" lon="0.34904">
        <ele>47.099998474</ele>
        <time>2015-01-24T14:46:39Z</time>
      </trkpt>
      <trkpt lat="49.51422" lon="0.34911">
        <ele>47.099998474</ele>
        <time>2015-01-24T14:46:48Z</time>
      </trkpt>
      <trkpt lat="49.51424" lon="0.34913">
        <ele>46.900001526</ele>
        <time>2015-01-24T14:46:49Z</time>
      </trkpt>
      <trkpt lat="49.51431" lon="0.34919">
        <ele>46.5</ele>
        <time>2015-01-24T14:46:56Z</time>
      </trkpt>
      <trkpt lat="49.51432" lon="0.34921">
        <ele>46.5</ele>
        <time>2015-01-24T14:46:57Z</time>
      </trkpt>
      <trkpt lat="49.51438" lon="0.3493">
        <ele>46.799999237</ele>
        <time>2015-01-24T14:47:07Z</time>
      </trkpt>
      <trkpt lat="49.51438" lon="0.34932">
        <ele>47</ele>
        <time>2015-01-24T14:47:08Z</time>
      </trkpt>
      <trkpt lat="49.51444" lon="0.34941">
        <ele>47.400001526</ele>
        <time>2015-01-24T14:47:16Z</time>
      </trkpt>
      <trkpt lat="49.51445" lon="0.34942">
        <ele>47.400001526</ele>
        <time>2015-01-24T14:47:17Z</time>
      </trkpt>
      <trkpt lat="49.51451" lon="0.34951">
        <ele>47.5</ele>
        <time>2015-01-24T14:47:25Z</time>
      </trkpt>
      <trkpt lat="49.51453" lon="0.34951">
        <ele>47.400001526</ele>
        <time>2015-01-24T14:47:26Z</time>
      </trkpt>
      <trkpt lat="49.51458" lon="0.34962">
        <ele>47.099998474</ele>
        <time>2015-01-24T14:47:36Z</time>
      </trkpt>
      <trkpt lat="49.51458" lon="0.34964">
        <ele>47.200000763</ele>
        <time>2015-01-24T14:47:37Z</time>
      </trkpt>
      <trkpt lat="49.51465" lon="0.34971">
        <ele>47.299999237</ele>
        <time>2015-01-24T14:47:50Z</time>
      </trkpt>
      <trkpt lat="49.51465" lon="0.34972">
        <ele>47.299999237</ele>
        <time>2015-01-24T14:47:51Z</time>
      </trkpt>
      <trkpt lat="49.51472" lon="0.34974">
        <ele>47.400001526</ele>
        <time>2015-01-24T14:48:16Z</time>
      </trkpt>
      <trkpt lat="49.51482" lon="0.34973">
        <ele>47.200000763</ele>
        <time>2015-01-24T14:48:17Z</time>
      </trkpt>
      <trkpt lat="49.51483" lon="0.34974">
        <ele>47.299999237</ele>
        <time>2015-01-24T14:48:36Z</time>
      </trkpt>
      <trkpt lat="49.51487" lon="0.34985">
        <ele>48.099998474</ele>
        <time>2015-01-24T14:48:37Z</time>
      </trkpt>
      <trkpt lat="49.51487" lon="0.34998">
        <ele>49.599998474</ele>
        <time>2015-01-24T14:48:57Z</time>
      </trkpt>
      <trkpt lat="49.51487" lon="0.35">
        <ele>49.700000763</ele>
        <time>2015-01-24T14:48:58Z</time>
      </trkpt>
      <trkpt lat="49.51494" lon="0.35009">
        <ele>50</ele>
        <time>2015-01-24T14:49:07Z</time>
      </trkpt>
      <trkpt lat="49.51494" lon="0.3501">
        <ele>50</ele>
        <time>2015-01-24T14:49:08Z</time>
      </trkpt>
      <trkpt lat="49.51501" lon="0.35018">
        <ele>50.5</ele>
        <time>2015-01-24T14:49:15Z</time>
      </trkpt>
      <trkpt lat="49.51502" lon="0.35019">
        <ele>50.5</ele>
        <time>2015-01-24T14:49:16Z</time>
      </trkpt>
      <trkpt lat="49.5151" lon="0.35023">
        <ele>50.5</ele>
        <time>2015-01-24T14:49:25Z</time>
      </trkpt>
      <trkpt lat="49.51511" lon="0.35024">
        <ele>50.5</ele>
        <time>2015-01-24T14:49:26Z</time>
      </trkpt>
      <trkpt lat="49.51516" lon="0.35028">
        <ele>50.299999237</ele>
        <time>2015-01-24T14:49:41Z</time>
      </trkpt>
      <trkpt lat="49.51519" lon="0.35031">
        <ele>50.099998474</ele>
        <time>2015-01-24T14:49:42Z</time>
      </trkpt>
      <trkpt lat="49.51519" lon="0.35044">
        <ele>49.900001526</ele>
        <time>2015-01-24T14:49:50Z</time>
      </trkpt>
      <trkpt lat="49.5152" lon="0.35045">
        <ele>49.700000763</ele>
        <time>2015-01-24T14:49:51Z</time>
      </trkpt>
      <trkpt lat="49.51527" lon="0.35052">
        <ele>49.5</ele>
        <time>2015-01-24T14:49:58Z</time>
      </trkpt>
      <trkpt lat="49.51528" lon="0.35053">
        <ele>49.5</ele>
        <time>2015-01-24T14:49:59Z</time>
      </trkpt>
      <trkpt lat="49.51534" lon="0.35056">
        <ele>49.5</ele>
        <time>2015-01-24T14:50:10Z</time>
      </trkpt>
      <trkpt lat="49.51537" lon="0.35058">
        <ele>49.200000763</ele>
        <time>2015-01-24T14:50:11Z</time>
      </trkpt>
      <trkpt lat="49.51545" lon="0.35064">
        <ele>48.900001526</ele>
        <time>2015-01-24T14:50:17Z</time>
      </trkpt>
      <trkpt lat="49.51546" lon="0.35065">
        <ele>48.799999237</ele>
        <time>2015-01-24T14:50:18Z</time>
      </trkpt>
      <trkpt lat="49.51545" lon="0.35078">
        <ele>48.200000763</ele>
        <time>2015-01-24T14:50:26Z</time>
      </trkpt>
      <trkpt lat="49.51545" lon="0.35079">
        <ele>48.099998474</ele>
        <time>2015-01-24T14:50:27Z</time>
      </trkpt>
      <trkpt lat="49.51551" lon="0.35087">
        <ele>47.299999237</ele>
        <time>2015-01-24T14:50:36Z</time>
      </trkpt>
      <trkpt lat="49.51552" lon="0.35087">
        <ele>47.299999237</ele>
        <time>2015-01-24T14:50:37Z</time>
      </trkpt>
      <trkpt lat="49.51555" lon="0.35089">
        <ele>47.299999237</ele>
        <time>2015-01-24T14:50:45Z</time>
      </trkpt>
      <trkpt lat="49.51562" lon="0.35092">
        <ele>46.099998474</ele>
        <time>2015-01-24T14:50:46Z</time>
      </trkpt>
      <trkpt lat="49.51567" lon="0.35102">
        <ele>45.700000763</ele>
        <time>2015-01-24T14:50:54Z</time>
      </trkpt>
      <trkpt lat="49.51569" lon="0.35104">
        <ele>45.700000763</ele>
        <time>2015-01-24T14:50:55Z</time>
      </trkpt>
      <trkpt lat="49.51575" lon="0.35113">
        <ele>44.900001526</ele>
        <time>2015-01-24T14:51:02Z</time>
      </trkpt>
      <trkpt lat="49.51576" lon="0.35114">
        <ele>45</ele>
        <time>2015-01-24T14:51:03Z</time>
      </trkpt>
      <trkpt lat="49.51583" lon="0.35122">
        <ele>45.400001526</ele>
        <time>2015-01-24T14:51:17Z</time>
      </trkpt>
      <trkpt lat="49.51584" lon="0.35122">
        <ele>45.5</ele>
        <time>2015-01-24T14:51:18Z</time>
      </trkpt>
      <trkpt lat="49.5159" lon="0.35131">
        <ele>47</ele>
        <time>2015-01-24T14:51:31Z</time>
      </trkpt>
      <trkpt lat="49.51591" lon="0.35132">
        <ele>47.099998474</ele>
        <time>2015-01-24T14:51:32Z</time>
      </trkpt>
      <trkpt lat="49.51597" lon="0.35135">
        <ele>48.299999237</ele>
        <time>2015-01-24T14:51:47Z</time>
      </trkpt>
      <trkpt lat="49.51599" lon="0.35138">
        <ele>48.5</ele>
        <time>2015-01-24T14:51:48Z</time>
      </trkpt>
      <trkpt lat="49.51606" lon="0.35147">
        <ele>49.400001526</ele>
        <time>2015-01-24T14:51:54Z</time>
      </trkpt>
      <trkpt lat="49.51607" lon="0.35148">
        <ele>49.5</ele>
        <time>2015-01-24T14:51:55Z</time>
      </trkpt>
      <trkpt lat="49.51614" lon="0.35153">
        <ele>50</ele>
        <time>2015-01-24T14:52:01Z</time>
      </trkpt>
      <trkpt lat="49.51615" lon="0.35154">
        <ele>50</ele>
        <time>2015-01-24T14:52:02Z</time>
      </trkpt>
      <trkpt lat="49.51622" lon="0.35156">
        <ele>49.700000763</ele>
        <time>2015-01-24T14:52:06Z</time>
      </trkpt>
      <trkpt lat="49.51624" lon="0.35157">
        <ele>50.5</ele>
        <time>2015-01-24T14:52:07Z</time>
      </trkpt>
      <trkpt lat="49.51631" lon="0.35164">
        <ele>51.5</ele>
        <time>2015-01-24T14:52:13Z</time>
      </trkpt>
      <trkpt lat="49.51632" lon="0.35165">
        <ele>51.5</ele>
        <time>2015-01-24T14:52:14Z</time>
      </trkpt>
      <trkpt lat="49.51639" lon="0.35172">
        <ele>51.900001526</ele>
        <time>2015-01-24T14:52:21Z</time>
      </trkpt>
      <trkpt lat="49.51641" lon="0.35172">
        <ele>51.900001526</ele>
        <time>2015-01-24T14:52:22Z</time>
      </trkpt>
      <trkpt lat="49.51649" lon="0.35177">
        <ele>51.700000763</ele>
        <time>2015-01-24T14:52:29Z</time>
      </trkpt>
      <trkpt lat="49.5165" lon="0.35176">
        <ele>51.799999237</ele>
        <time>2015-01-24T14:52:30Z</time>
      </trkpt>
      <trkpt lat="49.51656" lon="0.35186">
        <ele>50.299999237</ele>
        <time>2015-01-24T14:52:43Z</time>
      </trkpt>
      <trkpt lat="49.51657" lon="0.35187">
        <ele>50.299999237</ele>
        <time>2015-01-24T14:52:44Z</time>
      </trkpt>
      <trkpt lat="49.51656" lon="0.35192">
        <ele>49.599998474</ele>
        <time>2015-01-24T14:53:00Z</time>
      </trkpt>
      <trkpt lat="49.51651" lon="0.35204">
        <ele>50.099998474</ele>
        <time>2015-01-24T14:53:01Z</time>
      </trkpt>
      <trkpt lat="49.5165" lon="0.35208">
        <ele>50.400001526</ele>
        <time>2015-01-24T14:53:12Z</time>
      </trkpt>
      <trkpt lat="49.51644" lon="0.35217">
        <ele>52.599998474</ele>
        <time>2015-01-24T14:53:13Z</time>
      </trkpt>
      <trkpt lat="49.51652" lon="0.35215">
        <ele>54.299999237</ele>
        <time>2015-01-24T14:54:14Z</time>
      </trkpt>
      <trkpt lat="49.51653" lon="0.35215">
        <ele>54.299999237</ele>
        <time>2015-01-24T14:54:15Z</time>
      </trkpt>
      <trkpt lat="49.5166" lon="0.35221">
        <ele>54.099998474</ele>
        <time>2015-01-24T14:54:26Z</time>
      </trkpt>
      <trkpt lat="49.51661" lon="0.35222">
        <ele>54</ele>
        <time>2015-01-24T14:54:27Z</time>
      </trkpt>
      <trkpt lat="49.51665" lon="0.35233">
        <ele>53.299999237</ele>
        <time>2015-01-24T14:54:35Z</time>
      </trkpt>
      <trkpt lat="49.51665" lon="0.35236">
        <ele>53.099998474</ele>
        <time>2015-01-24T14:54:36Z</time>
      </trkpt>
      <trkpt lat="49.51668" lon="0.35248">
        <ele>52.099998474</ele>
        <time>2015-01-24T14:54:43Z</time>
      </trkpt>
      <trkpt lat="49.51669" lon="0.3525">
        <ele>52</ele>
        <time>2015-01-24T14:54:44Z</time>
      </trkpt>
      <trkpt lat="49.51672" lon="0.35262">
        <ele>51.700000763</ele>
        <time>2015-01-24T14:54:53Z</time>
      </trkpt>
      <trkpt lat="49.51672" lon="0.35262">
        <ele>51.700000763</ele>
        <time>2015-01-24T14:54:54Z</time>
      </trkpt>
      <trkpt lat="49.51674" lon="0.35275">
        <ele>52</ele>
        <time>2015-01-24T14:55:04Z</time>
      </trkpt>
      <trkpt lat="49.51674" lon="0.35277">
        <ele>52</ele>
        <time>2015-01-24T14:55:05Z</time>
      </trkpt>
      <trkpt lat="49.5168" lon="0.35288">
        <ele>51.900001526</ele>
        <time>2015-01-24T14:55:12Z</time>
      </trkpt>
      <trkpt lat="49.5168" lon="0.3529">
        <ele>51.900001526</ele>
        <time>2015-01-24T14:55:13Z</time>
      </trkpt>
      <trkpt lat="49.5168" lon="0.35303">
        <ele>51.799999237</ele>
        <time>2015-01-24T14:55:19Z</time>
      </trkpt>
      <trkpt lat="49.5168" lon="0.35305">
        <ele>51.900001526</ele>
        <time>2015-01-24T14:55:20Z</time>
      </trkpt>
      <trkpt lat="49.51681" lon="0.35317">
        <ele>51.200000763</ele>
        <time>2015-01-24T14:55:27Z</time>
      </trkpt>
      <trkpt lat="49.51682" lon="0.35318">
        <ele>51.200000763</ele>
        <time>2015-01-24T14:55:28Z</time>
      </trkpt>
      <trkpt lat="49.51686" lon="0.35328">
        <ele>50.799999237</ele>
        <time>2015-01-24T14:55:34Z</time>
      </trkpt>
      <trkpt lat="49.51688" lon="0.3533">
        <ele>50.799999237</ele>
        <time>2015-01-24T14:55:35Z</time>
      </trkpt>
      <trkpt lat="49.51693" lon="0.35339">
        <ele>50.599998474</ele>
        <time>2015-01-24T14:55:39Z</time>
      </trkpt>
      <trkpt lat="49.51694" lon="0.3534">
        <ele>50.5</ele>
        <time>2015-01-24T14:55:40Z</time>
      </trkpt>
      <trkpt lat="49.51698" lon="0.35352">
        <ele>51.200000763</ele>
        <time>2015-01-24T14:56:14Z</time>
      </trkpt>
      <trkpt lat="49.51695" lon="0.35366">
        <ele>51</ele>
        <time>2015-01-24T14:56:15Z</time>
      </trkpt>
      <trkpt lat="49.51693" lon="0.35378">
        <ele>51.799999237</ele>
        <time>2015-01-24T14:56:23Z</time>
      </trkpt>
      <trkpt lat="49.51694" lon="0.3538">
        <ele>51.799999237</ele>
        <time>2015-01-24T14:56:24Z</time>
      </trkpt>
      <trkpt lat="49.51698" lon="0.35392">
        <ele>51.700000763</ele>
        <time>2015-01-24T14:56:28Z</time>
      </trkpt>
      <trkpt lat="49.51698" lon="0.35394">
        <ele>51.799999237</ele>
        <time>2015-01-24T14:56:29Z</time>
      </trkpt>
      <trkpt lat="49.51701" lon="0.35404">
        <ele>51.799999237</ele>
        <time>2015-01-24T14:56:39Z</time>
      </trkpt>
      <trkpt lat="49.51701" lon="0.35407">
        <ele>51.799999237</ele>
        <time>2015-01-24T14:56:40Z</time>
      </trkpt>
      <trkpt lat="49.51705" lon="0.35419">
        <ele>52</ele>
        <time>2015-01-24T14:56:51Z</time>
      </trkpt>
      <trkpt lat="49.51705" lon="0.3542">
        <ele>52</ele>
        <time>2015-01-24T14:56:52Z</time>
      </trkpt>
      <trkpt lat="49.51702" lon="0.35433">
        <ele>51.599998474</ele>
        <time>2015-01-24T14:56:58Z</time>
      </trkpt>
      <trkpt lat="49.51702" lon="0.35434">
        <ele>51.599998474</ele>
        <time>2015-01-24T14:56:59Z</time>
      </trkpt>
      <trkpt lat="49.517" lon="0.35447">
        <ele>51.700000763</ele>
        <time>2015-01-24T14:57:06Z</time>
      </trkpt>
      <trkpt lat="49.517" lon="0.35448">
        <ele>51.900001526</ele>
        <time>2015-01-24T14:57:07Z</time>
      </trkpt>
      <trkpt lat="49.51697" lon="0.35461">
        <ele>52.700000763</ele>
        <time>2015-01-24T14:57:15Z</time>
      </trkpt>
      <trkpt lat="49.51696" lon="0.35462">
        <ele>52.700000763</ele>
        <time>2015-01-24T14:57:16Z</time>
      </trkpt>
      <trkpt lat="49.51693" lon="0.35475">
        <ele>52.900001526</ele>
        <time>2015-01-24T14:57:24Z</time>
      </trkpt>
      <trkpt lat="49.51693" lon="0.35477">
        <ele>52.900001526</ele>
        <time>2015-01-24T14:57:25Z</time>
      </trkpt>
      <trkpt lat="49.51693" lon="0.35489">
        <ele>53.099998474</ele>
        <time>2015-01-24T14:57:33Z</time>
      </trkpt>
      <trkpt lat="49.51693" lon="0.35492">
        <ele>53.099998474</ele>
        <time>2015-01-24T14:57:34Z</time>
      </trkpt>
      <trkpt lat="49.51693" lon="0.35501">
        <ele>53.5</ele>
        <time>2015-01-24T14:57:36Z</time>
      </trkpt>
      <trkpt lat="49.51693" lon="0.35506">
        <ele>53.5</ele>
        <time>2015-01-24T14:57:37Z</time>
      </trkpt>
      <trkpt lat="49.5169" lon="0.35518">
        <ele>53.599998474</ele>
        <time>2015-01-24T14:57:48Z</time>
      </trkpt>
      <trkpt lat="49.5169" lon="0.35519">
        <ele>53.599998474</ele>
        <time>2015-01-24T14:57:49Z</time>
      </trkpt>
      <trkpt lat="49.51685" lon="0.35529">
        <ele>53.599998474</ele>
        <time>2015-01-24T14:57:57Z</time>
      </trkpt>
      <trkpt lat="49.51684" lon="0.3553">
        <ele>53.700000763</ele>
        <time>2015-01-24T14:57:58Z</time>
      </trkpt>
      <trkpt lat="49.51679" lon="0.35541">
        <ele>53.799999237</ele>
        <time>2015-01-24T14:58:06Z</time>
      </trkpt>
      <trkpt lat="49.51679" lon="0.35542">
        <ele>53.799999237</ele>
        <time>2015-01-24T14:58:07Z</time>
      </trkpt>
      <trkpt lat="49.51679" lon="0.35555">
        <ele>53.700000763</ele>
        <time>2015-01-24T14:58:15Z</time>
      </trkpt>
      <trkpt lat="49.51679" lon="0.35557">
        <ele>53.799999237</ele>
        <time>2015-01-24T14:58:16Z</time>
      </trkpt>
      <trkpt lat="49.51676" lon="0.35569">
        <ele>54.099998474</ele>
        <time>2015-01-24T14:58:23Z</time>
      </trkpt>
      <trkpt lat="49.51676" lon="0.3557">
        <ele>54.200000763</ele>
        <time>2015-01-24T14:58:24Z</time>
      </trkpt>
      <trkpt lat="49.51674" lon="0.35584">
        <ele>54.900001526</ele>
        <time>2015-01-24T14:58:35Z</time>
      </trkpt>
      <trkpt lat="49.51674" lon="0.35585">
        <ele>54.900001526</ele>
        <time>2015-01-24T14:58:36Z</time>
      </trkpt>
      <trkpt lat="49.51671" lon="0.35597">
        <ele>55.599998474</ele>
        <time>2015-01-24T14:58:45Z</time>
      </trkpt>
      <trkpt lat="49.5167" lon="0.35598">
        <ele>55.799999237</ele>
        <time>2015-01-24T14:58:46Z</time>
      </trkpt>
      <trkpt lat="49.51668" lon="0.35611">
        <ele>56.599998474</ele>
        <time>2015-01-24T14:58:55Z</time>
      </trkpt>
      <trkpt lat="49.51669" lon="0.35611">
        <ele>56.599998474</ele>
        <time>2015-01-24T14:58:56Z</time>
      </trkpt>
      <trkpt lat="49.51672" lon="0.35623">
        <ele>57.200000763</ele>
        <time>2015-01-24T14:59:04Z</time>
      </trkpt>
      <trkpt lat="49.51672" lon="0.35626">
        <ele>57.200000763</ele>
        <time>2015-01-24T14:59:05Z</time>
      </trkpt>
      <trkpt lat="49.51672" lon="0.35639">
        <ele>58.099998474</ele>
        <time>2015-01-24T14:59:11Z</time>
      </trkpt>
      <trkpt lat="49.51672" lon="0.3564">
        <ele>58.200000763</ele>
        <time>2015-01-24T14:59:12Z</time>
      </trkpt>
      <trkpt lat="49.51676" lon="0.35652">
        <ele>59.700000763</ele>
        <time>2015-01-24T14:59:26Z</time>
      </trkpt>
      <trkpt lat="49.51676" lon="0.35653">
        <ele>59.700000763</ele>
        <time>2015-01-24T14:59:27Z</time>
      </trkpt>
      <trkpt lat="49.51682" lon="0.35663">
        <ele>60</ele>
        <time>2015-01-24T14:59:36Z</time>
      </trkpt>
      <trkpt lat="49.51682" lon="0.35665">
        <ele>60</ele>
        <time>2015-01-24T14:59:37Z</time>
      </trkpt>
      <trkpt lat="49.51686" lon="0.35677">
        <ele>60.200000763</ele>
        <time>2015-01-24T14:59:46Z</time>
      </trkpt>
      <trkpt lat="49.51687" lon="0.35678">
        <ele>60.200000763</ele>
        <time>2015-01-24T14:59:47Z</time>
      </trkpt>
      <trkpt lat="49.51692" lon="0.35688">
        <ele>60.700000763</ele>
        <time>2015-01-24T14:59:56Z</time>
      </trkpt>
      <trkpt lat="49.51692" lon="0.3569">
        <ele>60.700000763</ele>
        <time>2015-01-24T14:59:57Z</time>
      </trkpt>
      <trkpt lat="49.51698" lon="0.35701">
        <ele>60.900001526</ele>
        <time>2015-01-24T15:00:08Z</time>
      </trkpt>
      <trkpt lat="49.51698" lon="0.35701">
        <ele>61</ele>
        <time>2015-01-24T15:00:09Z</time>
      </trkpt>
      <trkpt lat="49.51704" lon="0.3571">
        <ele>61</ele>
        <time>2015-01-24T15:00:18Z</time>
      </trkpt>
      <trkpt lat="49.51705" lon="0.35711">
        <ele>61</ele>
        <time>2015-01-24T15:00:19Z</time>
      </trkpt>
      <trkpt lat="49.51711" lon="0.3572">
        <ele>61.5</ele>
        <time>2015-01-24T15:00:29Z</time>
      </trkpt>
      <trkpt lat="49.51712" lon="0.35721">
        <ele>61.5</ele>
        <time>2015-01-24T15:00:30Z</time>
      </trkpt>
      <trkpt lat="49.51719" lon="0.35726">
        <ele>61.799999237</ele>
        <time>2015-01-24T15:00:37Z</time>
      </trkpt>
      <trkpt lat="49.5172" lon="0.35727">
        <ele>61.900001526</ele>
        <time>2015-01-24T15:00:38Z</time>
      </trkpt>
      <trkpt lat="49.51724" lon="0.35738">
        <ele>62.400001526</ele>
        <time>2015-01-24T15:00:49Z</time>
      </trkpt>
      <trkpt lat="49.51725" lon="0.35739">
        <ele>62.400001526</ele>
        <time>2015-01-24T15:00:50Z</time>
      </trkpt>
      <trkpt lat="49.51728" lon="0.35752">
        <ele>62.599998474</ele>
        <time>2015-01-24T15:00:59Z</time>
      </trkpt>
      <trkpt lat="49.51728" lon="0.35753">
        <ele>62.599998474</ele>
        <time>2015-01-24T15:01:00Z</time>
      </trkpt>
      <trkpt lat="49.51733" lon="0.35763">
        <ele>62.299999237</ele>
        <time>2015-01-24T15:01:09Z</time>
      </trkpt>
      <trkpt lat="49.51734" lon="0.35764">
        <ele>62.299999237</ele>
        <time>2015-01-24T15:01:10Z</time>
      </trkpt>
      <trkpt lat="49.51739" lon="0.35774">
        <ele>62.700000763</ele>
        <time>2015-01-24T15:01:21Z</time>
      </trkpt>
      <trkpt lat="49.5174" lon="0.35775">
        <ele>62.700000763</ele>
        <time>2015-01-24T15:01:22Z</time>
      </trkpt>
      <trkpt lat="49.51745" lon="0.35786">
        <ele>63.200000763</ele>
        <time>2015-01-24T15:01:34Z</time>
      </trkpt>
      <trkpt lat="49.51744" lon="0.35787">
        <ele>63.200000763</ele>
        <time>2015-01-24T15:01:35Z</time>
      </trkpt>
      <trkpt lat="49.51746" lon="0.358">
        <ele>63.400001526</ele>
        <time>2015-01-24T15:01:44Z</time>
      </trkpt>
      <trkpt lat="49.51746" lon="0.35802">
        <ele>63.400001526</ele>
        <time>2015-01-24T15:01:45Z</time>
      </trkpt>
      <trkpt lat="49.51745" lon="0.35815">
        <ele>63.599998474</ele>
        <time>2015-01-24T15:01:51Z</time>
      </trkpt>
      <trkpt lat="49.51745" lon="0.35817">
        <ele>63.599998474</ele>
        <time>2015-01-24T15:01:52Z</time>
      </trkpt>
      <trkpt lat="49.51748" lon="0.35829">
        <ele>64</ele>
        <time>2015-01-24T15:02:01Z</time>
      </trkpt>
      <trkpt lat="49.51748" lon="0.3583">
        <ele>64</ele>
        <time>2015-01-24T15:02:02Z</time>
      </trkpt>
      <trkpt lat="49.51749" lon="0.35843">
        <ele>64.900001526</ele>
        <time>2015-01-24T15:02:12Z</time>
      </trkpt>
      <trkpt lat="49.51749" lon="0.35844">
        <ele>65</ele>
        <time>2015-01-24T15:02:13Z</time>
      </trkpt>
      <trkpt lat="49.51753" lon="0.35856">
        <ele>65.400001526</ele>
        <time>2015-01-24T15:02:21Z</time>
      </trkpt>
      <trkpt lat="49.51753" lon="0.35859">
        <ele>65.400001526</ele>
        <time>2015-01-24T15:02:22Z</time>
      </trkpt>
      <trkpt lat="49.51757" lon="0.35869">
        <ele>65.699996948</ele>
        <time>2015-01-24T15:02:29Z</time>
      </trkpt>
      <trkpt lat="49.51757" lon="0.35872">
        <ele>65.699996948</ele>
        <time>2015-01-24T15:02:30Z</time>
      </trkpt>
      <trkpt lat="49.51755" lon="0.35885">
        <ele>65.900001526</ele>
        <time>2015-01-24T15:02:34Z</time>
      </trkpt>
      <trkpt lat="49.51755" lon="0.35888">
        <ele>66</ele>
        <time>2015-01-24T15:02:35Z</time>
      </trkpt>
      <trkpt lat="49.51753" lon="0.35902">
        <ele>66.900001526</ele>
        <time>2015-01-24T15:02:43Z</time>
      </trkpt>
      <trkpt lat="49.51754" lon="0.35903">
        <ele>66.900001526</ele>
        <time>2015-01-24T15:02:44Z</time>
      </trkpt>
      <trkpt lat="49.51753" lon="0.35914">
        <ele>66.800003052</ele>
        <time>2015-01-24T15:02:50Z</time>
      </trkpt>
      <trkpt lat="49.51753" lon="0.35917">
        <ele>66.699996948</ele>
        <time>2015-01-24T15:02:51Z</time>
      </trkpt>
      <trkpt lat="49.51752" lon="0.35929">
        <ele>66.599998474</ele>
        <time>2015-01-24T15:02:55Z</time>
      </trkpt>
      <trkpt lat="49.51752" lon="0.35932">
        <ele>66.699996948</ele>
        <time>2015-01-24T15:02:56Z</time>
      </trkpt>
      <trkpt lat="49.51752" lon="0.35945">
        <ele>67</ele>
        <time>2015-01-24T15:03:04Z</time>
      </trkpt>
      <trkpt lat="49.51752" lon="0.35947">
        <ele>67</ele>
        <time>2015-01-24T15:03:05Z</time>
      </trkpt>
      <trkpt lat="49.51753" lon="0.3596">
        <ele>67.699996948</ele>
        <time>2015-01-24T15:03:15Z</time>
      </trkpt>
      <trkpt lat="49.51754" lon="0.35961">
        <ele>67.800003052</ele>
        <time>2015-01-24T15:03:16Z</time>
      </trkpt>
      <trkpt lat="49.51749" lon="0.35973">
        <ele>69.300003052</ele>
        <time>2015-01-24T15:03:30Z</time>
      </trkpt>
      <trkpt lat="49.51749" lon="0.35975">
        <ele>69.5</ele>
        <time>2015-01-24T15:03:31Z</time>
      </trkpt>
      <trkpt lat="49.51752" lon="0.35988">
        <ele>71</ele>
        <time>2015-01-24T15:03:49Z</time>
      </trkpt>
      <trkpt lat="49.51753" lon="0.35988">
        <ele>71.099998474</ele>
        <time>2015-01-24T15:03:50Z</time>
      </trkpt>
      <trkpt lat="49.51756" lon="0.36001">
        <ele>71.699996948</ele>
        <time>2015-01-24T15:04:05Z</time>
      </trkpt>
      <trkpt lat="49.51757" lon="0.36001">
        <ele>71.699996948</ele>
        <time>2015-01-24T15:04:06Z</time>
      </trkpt>
      <trkpt lat="49.51763" lon="0.36012">
        <ele>71.900001526</ele>
        <time>2015-01-24T15:04:17Z</time>
      </trkpt>
      <trkpt lat="49.51764" lon="0.36012">
        <ele>72</ele>
        <time>2015-01-24T15:04:18Z</time>
      </trkpt>
      <trkpt lat="49.5177" lon="0.36017">
        <ele>72.300003052</ele>
        <time>2015-01-24T15:04:22Z</time>
      </trkpt>
      <trkpt lat="49.51772" lon="0.36019">
        <ele>72.300003052</ele>
        <time>2015-01-24T15:04:23Z</time>
      </trkpt>
      <trkpt lat="49.51779" lon="0.36025">
        <ele>72.400001526</ele>
        <time>2015-01-24T15:04:27Z</time>
      </trkpt>
      <trkpt lat="49.5178" lon="0.36027">
        <ele>72.400001526</ele>
        <time>2015-01-24T15:04:28Z</time>
      </trkpt>
      <trkpt lat="49.51786" lon="0.36036">
        <ele>72.5</ele>
        <time>2015-01-24T15:04:33Z</time>
      </trkpt>
      <trkpt lat="49.51787" lon="0.36037">
        <ele>72.599998474</ele>
        <time>2015-01-24T15:04:34Z</time>
      </trkpt>
      <trkpt lat="49.51791" lon="0.36047">
        <ele>73.400001526</ele>
        <time>2015-01-24T15:04:44Z</time>
      </trkpt>
      <trkpt lat="49.51793" lon="0.36048">
        <ele>73.5</ele>
        <time>2015-01-24T15:04:45Z</time>
      </trkpt>
      <trkpt lat="49.518" lon="0.36055">
        <ele>73.599998474</ele>
        <time>2015-01-24T15:04:52Z</time>
      </trkpt>
      <trkpt lat="49.518" lon="0.36057">
        <ele>73.599998474</ele>
        <time>2015-01-24T15:04:53Z</time>
      </trkpt>
      <trkpt lat="49.518" lon="0.36068">
        <ele>73.699996948</ele>
        <time>2015-01-24T15:04:59Z</time>
      </trkpt>
      <trkpt lat="49.518" lon="0.36071">
        <ele>73.800003052</ele>
        <time>2015-01-24T15:05:00Z</time>
      </trkpt>
      <trkpt lat="49.51802" lon="0.36084">
        <ele>74</ele>
        <time>2015-01-24T15:05:15Z</time>
      </trkpt>
      <trkpt lat="49.51803" lon="0.36085">
        <ele>74</ele>
        <time>2015-01-24T15:05:16Z</time>
      </trkpt>
      <trkpt lat="49.51809" lon="0.36094">
        <ele>74.199996948</ele>
        <time>2015-01-24T15:05:24Z</time>
      </trkpt>
      <trkpt lat="49.5181" lon="0.36095">
        <ele>74.199996948</ele>
        <time>2015-01-24T15:05:25Z</time>
      </trkpt>
      <trkpt lat="49.51819" lon="0.36095">
        <ele>74.199996948</ele>
        <time>2015-01-24T15:05:35Z</time>
      </trkpt>
      <trkpt lat="49.51821" lon="0.36096">
        <ele>74</ele>
        <time>2015-01-24T15:05:36Z</time>
      </trkpt>
      <trkpt lat="49.5183" lon="0.36092">
        <ele>73.800003052</ele>
        <time>2015-01-24T15:05:45Z</time>
      </trkpt>
      <trkpt lat="49.51831" lon="0.36092">
        <ele>73.800003052</ele>
        <time>2015-01-24T15:05:46Z</time>
      </trkpt>
      <trkpt lat="49.51838" lon="0.36095">
        <ele>75.400001526</ele>
        <time>2015-01-24T15:05:53Z</time>
      </trkpt>
      <trkpt lat="49.51841" lon="0.36093">
        <ele>75.900001526</ele>
        <time>2015-01-24T15:05:54Z</time>
      </trkpt>
      <trkpt lat="49.51848" lon="0.3609">
        <ele>77.5</ele>
        <time>2015-01-24T15:06:04Z</time>
      </trkpt>
      <trkpt lat="49.51849" lon="0.36089">
        <ele>77.699996948</ele>
        <time>2015-01-24T15:06:05Z</time>
      </trkpt>
      <trkpt lat="49.51857" lon="0.36081">
        <ele>79.699996948</ele>
        <time>2015-01-24T15:06:18Z</time>
      </trkpt>
      <trkpt lat="49.51858" lon="0.36081">
        <ele>80</ele>
        <time>2015-01-24T15:06:19Z</time>
      </trkpt>
      <trkpt lat="49.51866" lon="0.3608">
        <ele>80.5</ele>
        <time>2015-01-24T15:06:25Z</time>
      </trkpt>
      <trkpt lat="49.51867" lon="0.3608">
        <ele>80.400001526</ele>
        <time>2015-01-24T15:06:26Z</time>
      </trkpt>
      <trkpt lat="49.51874" lon="0.36082">
        <ele>80</ele>
        <time>2015-01-24T15:06:35Z</time>
      </trkpt>
      <trkpt lat="49.51876" lon="0.36083">
        <ele>79.900001526</ele>
        <time>2015-01-24T15:06:36Z</time>
      </trkpt>
      <trkpt lat="49.51884" lon="0.36089">
        <ele>79.400001526</ele>
        <time>2015-01-24T15:06:42Z</time>
      </trkpt>
      <trkpt lat="49.51886" lon="0.36089">
        <ele>79.599998474</ele>
        <time>2015-01-24T15:06:43Z</time>
      </trkpt>
      <trkpt lat="49.51894" lon="0.36094">
        <ele>79.099998474</ele>
        <time>2015-01-24T15:06:51Z</time>
      </trkpt>
      <trkpt lat="49.51895" lon="0.36094">
        <ele>79.099998474</ele>
        <time>2015-01-24T15:06:52Z</time>
      </trkpt>
      <trkpt lat="49.51902" lon="0.36093">
        <ele>78.699996948</ele>
        <time>2015-01-24T15:07:04Z</time>
      </trkpt>
      <trkpt lat="49.51905" lon="0.36091">
        <ele>79.099998474</ele>
        <time>2015-01-24T15:07:05Z</time>
      </trkpt>
      <trkpt lat="49.51912" lon="0.36095">
        <ele>80.400001526</ele>
        <time>2015-01-24T15:07:14Z</time>
      </trkpt>
      <trkpt lat="49.51916" lon="0.36096">
        <ele>80.699996948</ele>
        <time>2015-01-24T15:07:15Z</time>
      </trkpt>
      <trkpt lat="49.51922" lon="0.36096">
        <ele>81.199996948</ele>
        <time>2015-01-24T15:07:19Z</time>
      </trkpt>
      <trkpt lat="49.51925" lon="0.36098">
        <ele>81.300003052</ele>
        <time>2015-01-24T15:07:20Z</time>
      </trkpt>
      <trkpt lat="49.51934" lon="0.36097">
        <ele>81.800003052</ele>
        <time>2015-01-24T15:07:28Z</time>
      </trkpt>
      <trkpt lat="49.51934" lon="0.36097">
        <ele>81.800003052</ele>
        <time>2015-01-24T15:07:29Z</time>
      </trkpt>
      <trkpt lat="49.51943" lon="0.36102">
        <ele>81.5</ele>
        <time>2015-01-24T15:07:41Z</time>
      </trkpt>
      <trkpt lat="49.51943" lon="0.36103">
        <ele>81.599998474</ele>
        <time>2015-01-24T15:07:42Z</time>
      </trkpt>
      <trkpt lat="49.51949" lon="0.36109">
        <ele>82.300003052</ele>
        <time>2015-01-24T15:07:57Z</time>
      </trkpt>
      <trkpt lat="49.51951" lon="0.3611">
        <ele>82.5</ele>
        <time>2015-01-24T15:07:58Z</time>
      </trkpt>
      <trkpt lat="49.51959" lon="0.36113">
        <ele>83.400001526</ele>
        <time>2015-01-24T15:08:07Z</time>
      </trkpt>
      <trkpt lat="49.5196" lon="0.36113">
        <ele>83.5</ele>
        <time>2015-01-24T15:08:08Z</time>
      </trkpt>
      <trkpt lat="49.51967" lon="0.36118">
        <ele>83.699996948</ele>
        <time>2015-01-24T15:08:16Z</time>
      </trkpt>
      <trkpt lat="49.51969" lon="0.3612">
        <ele>83.699996948</ele>
        <time>2015-01-24T15:08:17Z</time>
      </trkpt>
      <trkpt lat="49.51977" lon="0.36122">
        <ele>84.199996948</ele>
        <time>2015-01-24T15:08:27Z</time>
      </trkpt>
      <trkpt lat="49.51978" lon="0.36122">
        <ele>84.400001526</ele>
        <time>2015-01-24T15:08:28Z</time>
      </trkpt>
      <trkpt lat="49.51987" lon="0.36125">
        <ele>86.800003052</ele>
        <time>2015-01-24T15:08:36Z</time>
      </trkpt>
      <trkpt lat="49.51988" lon="0.36126">
        <ele>87.199996948</ele>
        <time>2015-01-24T15:08:37Z</time>
      </trkpt>
      <trkpt lat="49.51997" lon="0.36131">
        <ele>88.199996948</ele>
        <time>2015-01-24T15:08:43Z</time>
      </trkpt>
      <trkpt lat="49.51997" lon="0.36132">
        <ele>88.400001526</ele>
        <time>2015-01-24T15:08:44Z</time>
      </trkpt>
      <trkpt lat="49.52006" lon="0.36137">
        <ele>89.099998474</ele>
        <time>2015-01-24T15:08:52Z</time>
      </trkpt>
      <trkpt lat="49.52007" lon="0.36137">
        <ele>89.199996948</ele>
        <time>2015-01-24T15:08:53Z</time>
      </trkpt>
      <trkpt lat="49.52012" lon="0.36143">
        <ele>89.300003052</ele>
        <time>2015-01-24T15:09:03Z</time>
      </trkpt>
      <trkpt lat="49.52015" lon="0.36146">
        <ele>89.400001526</ele>
        <time>2015-01-24T15:09:04Z</time>
      </trkpt>
      <trkpt lat="49.52022" lon="0.36152">
        <ele>90.099998474</ele>
        <time>2015-01-24T15:09:09Z</time>
      </trkpt>
      <trkpt lat="49.52023" lon="0.36154">
        <ele>90.5</ele>
        <time>2015-01-24T15:09:10Z</time>
      </trkpt>
      <trkpt lat="49.52026" lon="0.36162">
        <ele>90.800003052</ele>
        <time>2015-01-24T15:09:13Z</time>
      </trkpt>
      <trkpt lat="49.52029" lon="0.36166">
        <ele>90.599998474</ele>
        <time>2015-01-24T15:09:14Z</time>
      </trkpt>
      <trkpt lat="49.52035" lon="0.36174">
        <ele>90.699996948</ele>
        <time>2015-01-24T15:09:18Z</time>
      </trkpt>
      <trkpt lat="49.52036" lon="0.36176">
        <ele>90.800003052</ele>
        <time>2015-01-24T15:09:19Z</time>
      </trkpt>
      <trkpt lat="49.52037" lon="0.36186">
        <ele>91.5</ele>
        <time>2015-01-24T15:09:29Z</time>
      </trkpt>
      <trkpt lat="49.52039" lon="0.36189">
        <ele>91.599998474</ele>
        <time>2015-01-24T15:09:30Z</time>
      </trkpt>
      <trkpt lat="49.52043" lon="0.36201">
        <ele>92.5</ele>
        <time>2015-01-24T15:09:39Z</time>
      </trkpt>
      <trkpt lat="49.52043" lon="0.36203">
        <ele>92.599998474</ele>
        <time>2015-01-24T15:09:40Z</time>
      </trkpt>
      <trkpt lat="49.52044" lon="0.36216">
        <ele>93.599998474</ele>
        <time>2015-01-24T15:09:51Z</time>
      </trkpt>
      <trkpt lat="49.52044" lon="0.36217">
        <ele>93.800003052</ele>
        <time>2015-01-24T15:09:52Z</time>
      </trkpt>
      <trkpt lat="49.52045" lon="0.36228">
        <ele>94.699996948</ele>
        <time>2015-01-24T15:10:13Z</time>
      </trkpt>
      <trkpt lat="49.52041" lon="0.36232">
        <ele>95.900001526</ele>
        <time>2015-01-24T15:10:14Z</time>
      </trkpt>
      <trkpt lat="49.52046" lon="0.36243">
        <ele>96.400001526</ele>
        <time>2015-01-24T15:10:35Z</time>
      </trkpt>
      <trkpt lat="49.52047" lon="0.36244">
        <ele>96.400001526</ele>
        <time>2015-01-24T15:10:36Z</time>
      </trkpt>
      <trkpt lat="49.52055" lon="0.36248">
        <ele>95.900001526</ele>
        <time>2015-01-24T15:10:42Z</time>
      </trkpt>
      <trkpt lat="49.52056" lon="0.36249">
        <ele>96</ele>
        <time>2015-01-24T15:10:43Z</time>
      </trkpt>
      <trkpt lat="49.52063" lon="0.36258">
        <ele>95.099998474</ele>
        <time>2015-01-24T15:10:50Z</time>
      </trkpt>
      <trkpt lat="49.52063" lon="0.36261">
        <ele>94.900001526</ele>
        <time>2015-01-24T15:10:51Z</time>
      </trkpt>
      <trkpt lat="49.52066" lon="0.36274">
        <ele>94.599998474</ele>
        <time>2015-01-24T15:11:00Z</time>
      </trkpt>
      <trkpt lat="49.52067" lon="0.36275">
        <ele>94.599998474</ele>
        <time>2015-01-24T15:11:01Z</time>
      </trkpt>
      <trkpt lat="49.52073" lon="0.36285">
        <ele>94.099998474</ele>
        <time>2015-01-24T15:11:09Z</time>
      </trkpt>
      <trkpt lat="49.52073" lon="0.36286">
        <ele>94.099998474</ele>
        <time>2015-01-24T15:11:10Z</time>
      </trkpt>
      <trkpt lat="49.52077" lon="0.36298">
        <ele>93.300003052</ele>
        <time>2015-01-24T15:11:20Z</time>
      </trkpt>
      <trkpt lat="49.52078" lon="0.36299">
        <ele>93.400001526</ele>
        <time>2015-01-24T15:11:21Z</time>
      </trkpt>
      <trkpt lat="49.52081" lon="0.36311">
        <ele>97.699996948</ele>
        <time>2015-01-24T15:11:51Z</time>
      </trkpt>
      <trkpt lat="49.52082" lon="0.36313">
        <ele>97.699996948</ele>
        <time>2015-01-24T15:11:52Z</time>
      </trkpt>
      <trkpt lat="49.52089" lon="0.3632">
        <ele>98.599998474</ele>
        <time>2015-01-24T15:12:00Z</time>
      </trkpt>
      <trkpt lat="49.5209" lon="0.36321">
        <ele>98.599998474</ele>
        <time>2015-01-24T15:12:01Z</time>
      </trkpt>
      <trkpt lat="49.52098" lon="0.36328">
        <ele>99.599998474</ele>
        <time>2015-01-24T15:12:07Z</time>
      </trkpt>
      <trkpt lat="49.52099" lon="0.3633">
        <ele>99.800003052</ele>
        <time>2015-01-24T15:12:08Z</time>
      </trkpt>
      <trkpt lat="49.52104" lon="0.36339">
        <ele>100.5</ele>
        <time>2015-01-24T15:12:14Z</time>
      </trkpt>
      <trkpt lat="49.52105" lon="0.3634">
        <ele>100.5</ele>
        <time>2015-01-24T15:12:15Z</time>
      </trkpt>
      <trkpt lat="49.52112" lon="0.36348">
        <ele>100.900001526</ele>
        <time>2015-01-24T15:12:21Z</time>
      </trkpt>
      <trkpt lat="49.52112" lon="0.36349">
        <ele>100.900001526</ele>
        <time>2015-01-24T15:12:22Z</time>
      </trkpt>
      <trkpt lat="49.52117" lon="0.36358">
        <ele>101.099998474</ele>
        <time>2015-01-24T15:12:26Z</time>
      </trkpt>
      <trkpt lat="49.52118" lon="0.3636">
        <ele>101.099998474</ele>
        <time>2015-01-24T15:12:27Z</time>
      </trkpt>
      <trkpt lat="49.52124" lon="0.36367">
        <ele>101.400001526</ele>
        <time>2015-01-24T15:12:33Z</time>
      </trkpt>
      <trkpt lat="49.52125" lon="0.3637">
        <ele>101.599998474</ele>
        <time>2015-01-24T15:12:34Z</time>
      </trkpt>
      <trkpt lat="49.52131" lon="0.36377">
        <ele>101.800003052</ele>
        <time>2015-01-24T15:12:36Z</time>
      </trkpt>
      <trkpt lat="49.52131" lon="0.3638">
        <ele>101.900001526</ele>
        <time>2015-01-24T15:12:37Z</time>
      </trkpt>
      <trkpt lat="49.52136" lon="0.36389">
        <ele>102.199996948</ele>
        <time>2015-01-24T15:12:42Z</time>
      </trkpt>
      <trkpt lat="49.52137" lon="0.3639">
        <ele>102.199996948</ele>
        <time>2015-01-24T15:12:43Z</time>
      </trkpt>
      <trkpt lat="49.52144" lon="0.36398">
        <ele>102.599998474</ele>
        <time>2015-01-24T15:12:50Z</time>
      </trkpt>
      <trkpt lat="49.52146" lon="0.364">
        <ele>102.699996948</ele>
        <time>2015-01-24T15:12:51Z</time>
      </trkpt>
      <trkpt lat="49.52153" lon="0.36407">
        <ele>102.800003052</ele>
        <time>2015-01-24T15:12:58Z</time>
      </trkpt>
      <trkpt lat="49.52153" lon="0.36408">
        <ele>102.800003052</ele>
        <time>2015-01-24T15:12:59Z</time>
      </trkpt>
      <trkpt lat="49.5216" lon="0.36417">
        <ele>102.300003052</ele>
        <time>2015-01-24T15:13:09Z</time>
      </trkpt>
      <trkpt lat="49.52161" lon="0.36417">
        <ele>102.300003052</ele>
        <time>2015-01-24T15:13:10Z</time>
      </trkpt>
      <trkpt lat="49.52167" lon="0.36427">
        <ele>103.699996948</ele>
        <time>2015-01-24T15:13:22Z</time>
      </trkpt>
      <trkpt lat="49.52167" lon="0.36429">
        <ele>103.800003052</ele>
        <time>2015-01-24T15:13:23Z</time>
      </trkpt>
      <trkpt lat="49.52171" lon="0.36441">
        <ele>103.800003052</ele>
        <time>2015-01-24T15:13:32Z</time>
      </trkpt>
      <trkpt lat="49.52171" lon="0.36443">
        <ele>103.699996948</ele>
        <time>2015-01-24T15:13:33Z</time>
      </trkpt>
      <trkpt lat="49.52173" lon="0.36455">
        <ele>103.599998474</ele>
        <time>2015-01-24T15:13:41Z</time>
      </trkpt>
      <trkpt lat="49.52173" lon="0.36457">
        <ele>103.400001526</ele>
        <time>2015-01-24T15:13:42Z</time>
      </trkpt>
      <trkpt lat="49.52175" lon="0.3647">
        <ele>103.5</ele>
        <time>2015-01-24T15:13:51Z</time>
      </trkpt>
      <trkpt lat="49.52175" lon="0.36471">
        <ele>103.599998474</ele>
        <time>2015-01-24T15:13:52Z</time>
      </trkpt>
      <trkpt lat="49.52183" lon="0.36478">
        <ele>103.800003052</ele>
        <time>2015-01-24T15:13:58Z</time>
      </trkpt>
      <trkpt lat="49.52184" lon="0.36478">
        <ele>103.699996948</ele>
        <time>2015-01-24T15:13:59Z</time>
      </trkpt>
      <trkpt lat="49.52191" lon="0.36487">
        <ele>103.400001526</ele>
        <time>2015-01-24T15:14:04Z</time>
      </trkpt>
      <trkpt lat="49.52192" lon="0.36488">
        <ele>103.400001526</ele>
        <time>2015-01-24T15:14:05Z</time>
      </trkpt>
      <trkpt lat="49.52195" lon="0.365">
        <ele>103.5</ele>
        <time>2015-01-24T15:14:11Z</time>
      </trkpt>
      <trkpt lat="49.52197" lon="0.365">
        <ele>103.5</ele>
        <time>2015-01-24T15:14:12Z</time>
      </trkpt>
      <trkpt lat="49.52203" lon="0.36508">
        <ele>103.5</ele>
        <time>2015-01-24T15:14:17Z</time>
      </trkpt>
      <trkpt lat="49.52204" lon="0.36509">
        <ele>103.599998474</ele>
        <time>2015-01-24T15:14:18Z</time>
      </trkpt>
      <trkpt lat="49.52206" lon="0.36523">
        <ele>104.400001526</ele>
        <time>2015-01-24T15:14:26Z</time>
      </trkpt>
      <trkpt lat="49.52204" lon="0.36524">
        <ele>104.599998474</ele>
        <time>2015-01-24T15:14:27Z</time>
      </trkpt>
      <trkpt lat="49.52203" lon="0.36538">
        <ele>104.099998474</ele>
        <time>2015-01-24T15:14:35Z</time>
      </trkpt>
      <trkpt lat="49.52204" lon="0.3654">
        <ele>104</ele>
        <time>2015-01-24T15:14:36Z</time>
      </trkpt>
      <trkpt lat="49.52207" lon="0.36552">
        <ele>103.099998474</ele>
        <time>2015-01-24T15:14:42Z</time>
      </trkpt>
      <trkpt lat="49.52207" lon="0.36553">
        <ele>102.900001526</ele>
        <time>2015-01-24T15:14:43Z</time>
      </trkpt>
      <trkpt lat="49.52211" lon="0.36564">
        <ele>102.5</ele>
        <time>2015-01-24T15:14:50Z</time>
      </trkpt>
      <trkpt lat="49.52212" lon="0.36566">
        <ele>102.599998474</ele>
        <time>2015-01-24T15:14:51Z</time>
      </trkpt>
      <trkpt lat="49.52215" lon="0.36576">
        <ele>102.099998474</ele>
        <time>2015-01-24T15:15:00Z</time>
      </trkpt>
      <trkpt lat="49.52215" lon="0.36579">
        <ele>102.199996948</ele>
        <time>2015-01-24T15:15:01Z</time>
      </trkpt>
      <trkpt lat="49.5222" lon="0.36588">
        <ele>101.5</ele>
        <time>2015-01-24T15:15:09Z</time>
      </trkpt>
      <trkpt lat="49.52222" lon="0.36589">
        <ele>101.599998474</ele>
        <time>2015-01-24T15:15:10Z</time>
      </trkpt>
      <trkpt lat="49.5223" lon="0.36594">
        <ele>100.699996948</ele>
        <time>2015-01-24T15:15:15Z</time>
      </trkpt>
      <trkpt lat="49.52231" lon="0.36595">
        <ele>100.5</ele>
        <time>2015-01-24T15:15:16Z</time>
      </trkpt>
      <trkpt lat="49.52239" lon="0.36601">
        <ele>99.400001526</ele>
        <time>2015-01-24T15:15:22Z</time>
      </trkpt>
      <trkpt lat="49.5224" lon="0.36602">
        <ele>99.400001526</ele>
        <time>2015-01-24T15:15:23Z</time>
      </trkpt>
      <trkpt lat="49.52245" lon="0.36611">
        <ele>98.800003052</ele>
        <time>2015-01-24T15:15:31Z</time>
      </trkpt>
      <trkpt lat="49.52246" lon="0.36612">
        <ele>98.699996948</ele>
        <time>2015-01-24T15:15:32Z</time>
      </trkpt>
      <trkpt lat="49.52252" lon="0.36622">
        <ele>97.400001526</ele>
        <time>2015-01-24T15:15:41Z</time>
      </trkpt>
      <trkpt lat="49.52254" lon="0.36623">
        <ele>97.5</ele>
        <time>2015-01-24T15:15:42Z</time>
      </trkpt>
      <trkpt lat="49.5226" lon="0.36631">
        <ele>97.800003052</ele>
        <time>2015-01-24T15:15:50Z</time>
      </trkpt>
      <trkpt lat="49.52261" lon="0.36632">
        <ele>97.800003052</ele>
        <time>2015-01-24T15:15:51Z</time>
      </trkpt>
      <trkpt lat="49.52266" lon="0.36641">
        <ele>99.800003052</ele>
        <time>2015-01-24T15:16:35Z</time>
      </trkpt>
      <trkpt lat="49.52267" lon="0.36643">
        <ele>99.800003052</ele>
        <time>2015-01-24T15:16:36Z</time>
      </trkpt>
      <trkpt lat="49.52274" lon="0.36648">
        <ele>99.900001526</ele>
        <time>2015-01-24T15:16:43Z</time>
      </trkpt>
      <trkpt lat="49.52274" lon="0.3665">
        <ele>99.800003052</ele>
        <time>2015-01-24T15:16:44Z</time>
      </trkpt>
      <trkpt lat="49.52281" lon="0.36659">
        <ele>99.5</ele>
        <time>2015-01-24T15:16:50Z</time>
      </trkpt>
      <trkpt lat="49.52282" lon="0.3666">
        <ele>99.5</ele>
        <time>2015-01-24T15:16:51Z</time>
      </trkpt>
      <trkpt lat="49.52289" lon="0.36665">
        <ele>99.400001526</ele>
        <time>2015-01-24T15:16:57Z</time>
      </trkpt>
      <trkpt lat="49.52291" lon="0.36666">
        <ele>99.5</ele>
        <time>2015-01-24T15:16:58Z</time>
      </trkpt>
      <trkpt lat="49.52298" lon="0.36667">
        <ele>99.099998474</ele>
        <time>2015-01-24T15:17:03Z</time>
      </trkpt>
      <trkpt lat="49.523" lon="0.36668">
        <ele>98.900001526</ele>
        <time>2015-01-24T15:17:04Z</time>
      </trkpt>
      <trkpt lat="49.52308" lon="0.36669">
        <ele>98.699996948</ele>
        <time>2015-01-24T15:17:10Z</time>
      </trkpt>
      <trkpt lat="49.52309" lon="0.36669">
        <ele>98.800003052</ele>
        <time>2015-01-24T15:17:11Z</time>
      </trkpt>
      <trkpt lat="49.52316" lon="0.36671">
        <ele>99.099998474</ele>
        <time>2015-01-24T15:17:16Z</time>
      </trkpt>
      <trkpt lat="49.52318" lon="0.36671">
        <ele>99.300003052</ele>
        <time>2015-01-24T15:17:17Z</time>
      </trkpt>
      <trkpt lat="49.52327" lon="0.36671">
        <ele>99.699996948</ele>
        <time>2015-01-24T15:17:25Z</time>
      </trkpt>
      <trkpt lat="49.52328" lon="0.36671">
        <ele>99.699996948</ele>
        <time>2015-01-24T15:17:26Z</time>
      </trkpt>
      <trkpt lat="49.52336" lon="0.36667">
        <ele>100</ele>
        <time>2015-01-24T15:17:34Z</time>
      </trkpt>
      <trkpt lat="49.52338" lon="0.36667">
        <ele>99.599998474</ele>
        <time>2015-01-24T15:17:35Z</time>
      </trkpt>
      <trkpt lat="49.52346" lon="0.36669">
        <ele>98</ele>
        <time>2015-01-24T15:17:41Z</time>
      </trkpt>
      <trkpt lat="49.52348" lon="0.3667">
        <ele>96.699996948</ele>
        <time>2015-01-24T15:17:42Z</time>
      </trkpt>
      <trkpt lat="49.52355" lon="0.36677">
        <ele>96.800003052</ele>
        <time>2015-01-24T15:17:49Z</time>
      </trkpt>
      <trkpt lat="49.52356" lon="0.36679">
        <ele>96.900001526</ele>
        <time>2015-01-24T15:17:50Z</time>
      </trkpt>
      <trkpt lat="49.52357" lon="0.36691">
        <ele>97.5</ele>
        <time>2015-01-24T15:18:00Z</time>
      </trkpt>
      <trkpt lat="49.52358" lon="0.36693">
        <ele>97.400001526</ele>
        <time>2015-01-24T15:18:01Z</time>
      </trkpt>
      <trkpt lat="49.52358" lon="0.36705">
        <ele>97.599998474</ele>
        <time>2015-01-24T15:18:11Z</time>
      </trkpt>
      <trkpt lat="49.52359" lon="0.36707">
        <ele>97.699996948</ele>
        <time>2015-01-24T15:18:12Z</time>
      </trkpt>
      <trkpt lat="49.52364" lon="0.36717">
        <ele>99.199996948</ele>
        <time>2015-01-24T15:18:26Z</time>
      </trkpt>
      <trkpt lat="49.52365" lon="0.36718">
        <ele>99.400001526</ele>
        <time>2015-01-24T15:18:27Z</time>
      </trkpt>
      <trkpt lat="49.52368" lon="0.36728">
        <ele>101.400001526</ele>
        <time>2015-01-24T15:18:52Z</time>
      </trkpt>
      <trkpt lat="49.52369" lon="0.3673">
        <ele>101.300003052</ele>
        <time>2015-01-24T15:18:53Z</time>
      </trkpt>
      <trkpt lat="49.52374" lon="0.36741">
        <ele>99.400001526</ele>
        <time>2015-01-24T15:20:35Z</time>
      </trkpt>
      <trkpt lat="49.52374" lon="0.36741">
        <ele>99.400001526</ele>
        <time>2015-01-24T15:20:36Z</time>
      </trkpt>
      <trkpt lat="49.52383" lon="0.36741">
        <ele>101.099998474</ele>
        <time>2015-01-24T15:23:03Z</time>
      </trkpt>
      <trkpt lat="49.52383" lon="0.36742">
        <ele>101.099998474</ele>
        <time>2015-01-24T15:23:04Z</time>
      </trkpt>
      <trkpt lat="49.5239" lon="0.36746">
        <ele>101.300003052</ele>
        <time>2015-01-24T15:23:10Z</time>
      </trkpt>
      <trkpt lat="49.52392" lon="0.36747">
        <ele>101.300003052</ele>
        <time>2015-01-24T15:23:11Z</time>
      </trkpt>
      <trkpt lat="49.524" lon="0.36751">
        <ele>101.400001526</ele>
        <time>2015-01-24T15:23:18Z</time>
      </trkpt>
      <trkpt lat="49.52401" lon="0.36752">
        <ele>101.5</ele>
        <time>2015-01-24T15:23:19Z</time>
      </trkpt>
      <trkpt lat="49.5241" lon="0.36754">
        <ele>101.599998474</ele>
        <time>2015-01-24T15:23:27Z</time>
      </trkpt>
      <trkpt lat="49.52412" lon="0.36754">
        <ele>101.699996948</ele>
        <time>2015-01-24T15:23:28Z</time>
      </trkpt>
      <trkpt lat="49.52421" lon="0.36754">
        <ele>101.5</ele>
        <time>2015-01-24T15:23:35Z</time>
      </trkpt>
      <trkpt lat="49.52422" lon="0.36755">
        <ele>101.5</ele>
        <time>2015-01-24T15:23:36Z</time>
      </trkpt>
      <trkpt lat="49.5243" lon="0.3676">
        <ele>101.099998474</ele>
        <time>2015-01-24T15:23:48Z</time>
      </trkpt>
      <trkpt lat="49.5243" lon="0.36761">
        <ele>101.199996948</ele>
        <time>2015-01-24T15:23:49Z</time>
      </trkpt>
      <trkpt lat="49.52432" lon="0.36772">
        <ele>101.099998474</ele>
        <time>2015-01-24T15:23:55Z</time>
      </trkpt>
      <trkpt lat="49.52432" lon="0.36774">
        <ele>101.099998474</ele>
        <time>2015-01-24T15:23:56Z</time>
      </trkpt>
      <trkpt lat="49.52433" lon="0.36787">
        <ele>100.099998474</ele>
        <time>2015-01-24T15:24:02Z</time>
      </trkpt>
      <trkpt lat="49.52434" lon="0.36789">
        <ele>100.099998474</ele>
        <time>2015-01-24T15:24:03Z</time>
      </trkpt>
      <trkpt lat="49.52436" lon="0.36801">
        <ele>100</ele>
        <time>2015-01-24T15:24:08Z</time>
      </trkpt>
      <trkpt lat="49.52436" lon="0.36803">
        <ele>100</ele>
        <time>2015-01-24T15:24:09Z</time>
      </trkpt>
      <trkpt lat="49.52439" lon="0.36816">
        <ele>99.5</ele>
        <time>2015-01-24T15:24:16Z</time>
      </trkpt>
      <trkpt lat="49.52439" lon="0.36817">
        <ele>99.5</ele>
        <time>2015-01-24T15:24:17Z</time>
      </trkpt>
      <trkpt lat="49.52438" lon="0.36831">
        <ele>99.599998474</ele>
        <time>2015-01-24T15:24:24Z</time>
      </trkpt>
      <trkpt lat="49.52438" lon="0.36832">
        <ele>99.400001526</ele>
        <time>2015-01-24T15:24:25Z</time>
      </trkpt>
      <trkpt lat="49.52439" lon="0.36845">
        <ele>99.300003052</ele>
        <time>2015-01-24T15:24:35Z</time>
      </trkpt>
      <trkpt lat="49.52439" lon="0.36847">
        <ele>99.300003052</ele>
        <time>2015-01-24T15:24:36Z</time>
      </trkpt>
      <trkpt lat="49.52442" lon="0.3686">
        <ele>99.900001526</ele>
        <time>2015-01-24T15:24:42Z</time>
      </trkpt>
      <trkpt lat="49.52443" lon="0.36862">
        <ele>100</ele>
        <time>2015-01-24T15:24:43Z</time>
      </trkpt>
      <trkpt lat="49.52444" lon="0.36876">
        <ele>100.5</ele>
        <time>2015-01-24T15:24:50Z</time>
      </trkpt>
      <trkpt lat="49.52444" lon="0.36877">
        <ele>100.599998474</ele>
        <time>2015-01-24T15:24:51Z</time>
      </trkpt>
      <trkpt lat="49.52445" lon="0.3689">
        <ele>101</ele>
        <time>2015-01-24T15:24:57Z</time>
      </trkpt>
      <trkpt lat="49.52445" lon="0.36892">
        <ele>101</ele>
        <time>2015-01-24T15:24:58Z</time>
      </trkpt>
      <trkpt lat="49.52446" lon="0.36905">
        <ele>101.800003052</ele>
        <time>2015-01-24T15:25:07Z</time>
      </trkpt>
      <trkpt lat="49.52446" lon="0.36907">
        <ele>102</ele>
        <time>2015-01-24T15:25:08Z</time>
      </trkpt>
      <trkpt lat="49.52449" lon="0.36919">
        <ele>102.5</ele>
        <time>2015-01-24T15:25:14Z</time>
      </trkpt>
      <trkpt lat="49.52449" lon="0.36921">
        <ele>102.599998474</ele>
        <time>2015-01-24T15:25:15Z</time>
      </trkpt>
      <trkpt lat="49.52451" lon="0.36932">
        <ele>103</ele>
        <time>2015-01-24T15:25:21Z</time>
      </trkpt>
      <trkpt lat="49.52451" lon="0.36934">
        <ele>103.199996948</ele>
        <time>2015-01-24T15:25:22Z</time>
      </trkpt>
      <trkpt lat="49.52451" lon="0.36947">
        <ele>103.699996948</ele>
        <time>2015-01-24T15:25:28Z</time>
      </trkpt>
      <trkpt lat="49.52451" lon="0.36949">
        <ele>103.800003052</ele>
        <time>2015-01-24T15:25:29Z</time>
      </trkpt>
      <trkpt lat="49.52453" lon="0.36961">
        <ele>103.800003052</ele>
        <time>2015-01-24T15:25:36Z</time>
      </trkpt>
      <trkpt lat="49.52453" lon="0.36963">
        <ele>103.800003052</ele>
        <time>2015-01-24T15:25:37Z</time>
      </trkpt>
      <trkpt lat="49.52455" lon="0.36976">
        <ele>103.800003052</ele>
        <time>2015-01-24T15:25:45Z</time>
      </trkpt>
      <trkpt lat="49.52455" lon="0.36978">
        <ele>103.800003052</ele>
        <time>2015-01-24T15:25:46Z</time>
      </trkpt>
      <trkpt lat="49.52455" lon="0.3699">
        <ele>103.599998474</ele>
        <time>2015-01-24T15:25:53Z</time>
      </trkpt>
      <trkpt lat="49.52455" lon="0.36992">
        <ele>103.599998474</ele>
        <time>2015-01-24T15:25:54Z</time>
      </trkpt>
      <trkpt lat="49.52455" lon="0.37004">
        <ele>103.400001526</ele>
        <time>2015-01-24T15:26:02Z</time>
      </trkpt>
      <trkpt lat="49.52455" lon="0.37006">
        <ele>103.5</ele>
        <time>2015-01-24T15:26:03Z</time>
      </trkpt>
      <trkpt lat="49.52458" lon="0.37019">
        <ele>103.800003052</ele>
        <time>2015-01-24T15:26:09Z</time>
      </trkpt>
      <trkpt lat="49.52458" lon="0.3702">
        <ele>103.900001526</ele>
        <time>2015-01-24T15:26:10Z</time>
      </trkpt>
      <trkpt lat="49.52458" lon="0.37034">
        <ele>103.800003052</ele>
        <time>2015-01-24T15:26:18Z</time>
      </trkpt>
      <trkpt lat="49.52458" lon="0.37036">
        <ele>103.800003052</ele>
        <time>2015-01-24T15:26:19Z</time>
      </trkpt>
      <trkpt lat="49.5246" lon="0.37049">
        <ele>103.800003052</ele>
        <time>2015-01-24T15:26:26Z</time>
      </trkpt>
      <trkpt lat="49.5246" lon="0.3705">
        <ele>103.800003052</ele>
        <time>2015-01-24T15:26:27Z</time>
      </trkpt>
      <trkpt lat="49.52461" lon="0.37062">
        <ele>104.300003052</ele>
        <time>2015-01-24T15:26:33Z</time>
      </trkpt>
      <trkpt lat="49.52462" lon="0.37064">
        <ele>104.5</ele>
        <time>2015-01-24T15:26:34Z</time>
      </trkpt>
      <trkpt lat="49.52463" lon="0.37077">
        <ele>105.5</ele>
        <time>2015-01-24T15:26:41Z</time>
      </trkpt>
      <trkpt lat="49.52464" lon="0.37079">
        <ele>105.699996948</ele>
        <time>2015-01-24T15:26:42Z</time>
      </trkpt>
      <trkpt lat="49.52465" lon="0.37092">
        <ele>106.400001526</ele>
        <time>2015-01-24T15:26:49Z</time>
      </trkpt>
      <trkpt lat="49.52466" lon="0.37094">
        <ele>106.599998474</ele>
        <time>2015-01-24T15:26:50Z</time>
      </trkpt>
      <trkpt lat="49.52467" lon="0.37107">
        <ele>107.099998474</ele>
        <time>2015-01-24T15:26:56Z</time>
      </trkpt>
      <trkpt lat="49.52467" lon="0.37109">
        <ele>107.099998474</ele>
        <time>2015-01-24T15:26:57Z</time>
      </trkpt>
      <trkpt lat="49.52468" lon="0.37122">
        <ele>107.300003052</ele>
        <time>2015-01-24T15:27:03Z</time>
      </trkpt>
      <trkpt lat="49.52468" lon="0.37124">
        <ele>107.5</ele>
        <time>2015-01-24T15:27:04Z</time>
      </trkpt>
      <trkpt lat="49.52468" lon="0.37137">
        <ele>107.599998474</ele>
        <time>2015-01-24T15:27:11Z</time>
      </trkpt>
      <trkpt lat="49.52468" lon="0.37138">
        <ele>107.699996948</ele>
        <time>2015-01-24T15:27:12Z</time>
      </trkpt>
      <trkpt lat="49.5247" lon="0.37151">
        <ele>107.800003052</ele>
        <time>2015-01-24T15:27:19Z</time>
      </trkpt>
      <trkpt lat="49.5247" lon="0.37153">
        <ele>107.800003052</ele>
        <time>2015-01-24T15:27:20Z</time>
      </trkpt>
      <trkpt lat="49.52471" lon="0.37166">
        <ele>107.800003052</ele>
        <time>2015-01-24T15:27:28Z</time>
      </trkpt>
      <trkpt lat="49.52471" lon="0.37168">
        <ele>107.800003052</ele>
        <time>2015-01-24T15:27:29Z</time>
      </trkpt>
      <trkpt lat="49.52473" lon="0.37179">
        <ele>107.900001526</ele>
        <time>2015-01-24T15:27:35Z</time>
      </trkpt>
      <trkpt lat="49.52473" lon="0.37182">
        <ele>107.800003052</ele>
        <time>2015-01-24T15:27:36Z</time>
      </trkpt>
      <trkpt lat="49.52475" lon="0.37194">
        <ele>108.199996948</ele>
        <time>2015-01-24T15:27:42Z</time>
      </trkpt>
      <trkpt lat="49.52475" lon="0.37196">
        <ele>108.300003052</ele>
        <time>2015-01-24T15:27:43Z</time>
      </trkpt>
      <trkpt lat="49.52477" lon="0.37208">
        <ele>108.5</ele>
        <time>2015-01-24T15:27:50Z</time>
      </trkpt>
      <trkpt lat="49.52477" lon="0.3721">
        <ele>108.699996948</ele>
        <time>2015-01-24T15:27:50Z</time>
      </trkpt>
      <trkpt lat="49.52478" lon="0.37222">
        <ele>109.300003052</ele>
        <time>2015-01-24T15:27:56Z</time>
      </trkpt>
      <trkpt lat="49.52479" lon="0.37224">
        <ele>109.400001526</ele>
        <time>2015-01-24T15:27:57Z</time>
      </trkpt>
      <trkpt lat="49.52478" lon="0.37237">
        <ele>109.900001526</ele>
        <time>2015-01-24T15:28:03Z</time>
      </trkpt>
      <trkpt lat="49.52479" lon="0.37239">
        <ele>110</ele>
        <time>2015-01-24T15:28:04Z</time>
      </trkpt>
      <trkpt lat="49.5248" lon="0.37252">
        <ele>109.699996948</ele>
        <time>2015-01-24T15:28:11Z</time>
      </trkpt>
      <trkpt lat="49.5248" lon="0.37253">
        <ele>109.699996948</ele>
        <time>2015-01-24T15:28:12Z</time>
      </trkpt>
      <trkpt lat="49.52481" lon="0.37266">
        <ele>110</ele>
        <time>2015-01-24T15:28:18Z</time>
      </trkpt>
      <trkpt lat="49.52482" lon="0.37268">
        <ele>110</ele>
        <time>2015-01-24T15:28:19Z</time>
      </trkpt>
      <trkpt lat="49.52483" lon="0.3728">
        <ele>110.099998474</ele>
        <time>2015-01-24T15:28:25Z</time>
      </trkpt>
      <trkpt lat="49.52483" lon="0.37282">
        <ele>109.900001526</ele>
        <time>2015-01-24T15:28:26Z</time>
      </trkpt>
      <trkpt lat="49.52485" lon="0.37295">
        <ele>109.800003052</ele>
        <time>2015-01-24T15:28:33Z</time>
      </trkpt>
      <trkpt lat="49.52485" lon="0.37297">
        <ele>109.900001526</ele>
        <time>2015-01-24T15:28:34Z</time>
      </trkpt>
      <trkpt lat="49.52485" lon="0.3731">
        <ele>110.199996948</ele>
        <time>2015-01-24T15:28:41Z</time>
      </trkpt>
      <trkpt lat="49.52485" lon="0.37311">
        <ele>110.199996948</ele>
        <time>2015-01-24T15:28:42Z</time>
      </trkpt>
      <trkpt lat="49.52487" lon="0.37323">
        <ele>109.900001526</ele>
        <time>2015-01-24T15:28:48Z</time>
      </trkpt>
      <trkpt lat="49.52487" lon="0.37325">
        <ele>109.900001526</ele>
        <time>2015-01-24T15:28:49Z</time>
      </trkpt>
      <trkpt lat="49.52489" lon="0.37338">
        <ele>109.900001526</ele>
        <time>2015-01-24T15:28:56Z</time>
      </trkpt>
      <trkpt lat="49.52489" lon="0.3734">
        <ele>109.900001526</ele>
        <time>2015-01-24T15:28:56Z</time>
      </trkpt>
      <trkpt lat="49.52489" lon="0.37352">
        <ele>110</ele>
        <time>2015-01-24T15:29:02Z</time>
      </trkpt>
      <trkpt lat="49.5249" lon="0.37354">
        <ele>109.900001526</ele>
        <time>2015-01-24T15:29:03Z</time>
      </trkpt>
      <trkpt lat="49.52491" lon="0.37367">
        <ele>109.199996948</ele>
        <time>2015-01-24T15:29:10Z</time>
      </trkpt>
      <trkpt lat="49.52491" lon="0.37369">
        <ele>109.300003052</ele>
        <time>2015-01-24T15:29:11Z</time>
      </trkpt>
      <trkpt lat="49.52493" lon="0.37381">
        <ele>109.400001526</ele>
        <time>2015-01-24T15:29:17Z</time>
      </trkpt>
      <trkpt lat="49.52493" lon="0.37383">
        <ele>109.300003052</ele>
        <time>2015-01-24T15:29:18Z</time>
      </trkpt>
      <trkpt lat="49.52495" lon="0.37395">
        <ele>109.900001526</ele>
        <time>2015-01-24T15:29:25Z</time>
      </trkpt>
      <trkpt lat="49.52494" lon="0.37397">
        <ele>110</ele>
        <time>2015-01-24T15:29:26Z</time>
      </trkpt>
      <trkpt lat="49.52495" lon="0.3741">
        <ele>109.099998474</ele>
        <time>2015-01-24T15:29:34Z</time>
      </trkpt>
      <trkpt lat="49.52494" lon="0.37411">
        <ele>108.900001526</ele>
        <time>2015-01-24T15:29:35Z</time>
      </trkpt>
      <trkpt lat="49.52496" lon="0.37424">
        <ele>108.5</ele>
        <time>2015-01-24T15:29:43Z</time>
      </trkpt>
      <trkpt lat="49.52496" lon="0.37426">
        <ele>108.699996948</ele>
        <time>2015-01-24T15:29:44Z</time>
      </trkpt>
      <trkpt lat="49.52497" lon="0.37438">
        <ele>109.199996948</ele>
        <time>2015-01-24T15:29:51Z</time>
      </trkpt>
      <trkpt lat="49.52497" lon="0.3744">
        <ele>109.099998474</ele>
        <time>2015-01-24T15:29:52Z</time>
      </trkpt>
      <trkpt lat="49.525" lon="0.37453">
        <ele>109.400001526</ele>
        <time>2015-01-24T15:29:59Z</time>
      </trkpt>
      <trkpt lat="49.525" lon="0.37454">
        <ele>109.300003052</ele>
        <time>2015-01-24T15:30:00Z</time>
      </trkpt>
      <trkpt lat="49.52503" lon="0.37467">
        <ele>108.800003052</ele>
        <time>2015-01-24T15:30:07Z</time>
      </trkpt>
      <trkpt lat="49.52503" lon="0.37469">
        <ele>108.800003052</ele>
        <time>2015-01-24T15:30:08Z</time>
      </trkpt>
      <trkpt lat="49.52505" lon="0.37481">
        <ele>108.400001526</ele>
        <time>2015-01-24T15:30:16Z</time>
      </trkpt>
      <trkpt lat="49.52506" lon="0.37483">
        <ele>108.5</ele>
        <time>2015-01-24T15:30:17Z</time>
      </trkpt>
      <trkpt lat="49.52509" lon="0.37495">
        <ele>108.099998474</ele>
        <time>2015-01-24T15:30:25Z</time>
      </trkpt>
      <trkpt lat="49.52509" lon="0.37498">
        <ele>108.199996948</ele>
        <time>2015-01-24T15:30:26Z</time>
      </trkpt>
      <trkpt lat="49.52509" lon="0.37511">
        <ele>108.300003052</ele>
        <time>2015-01-24T15:30:33Z</time>
      </trkpt>
      <trkpt lat="49.52508" lon="0.37513">
        <ele>108.199996948</ele>
        <time>2015-01-24T15:30:34Z</time>
      </trkpt>
      <trkpt lat="49.52508" lon="0.37526">
        <ele>107.900001526</ele>
        <time>2015-01-24T15:30:41Z</time>
      </trkpt>
      <trkpt lat="49.52508" lon="0.37528">
        <ele>107.800003052</ele>
        <time>2015-01-24T15:30:42Z</time>
      </trkpt>
      <trkpt lat="49.52509" lon="0.37541">
        <ele>107.800003052</ele>
        <time>2015-01-24T15:30:50Z</time>
      </trkpt>
      <trkpt lat="49.52509" lon="0.37542">
        <ele>107.800003052</ele>
        <time>2015-01-24T15:30:51Z</time>
      </trkpt>
      <trkpt lat="49.5251" lon="0.37554">
        <ele>108.199996948</ele>
        <time>2015-01-24T15:30:57Z</time>
      </trkpt>
      <trkpt lat="49.5251" lon="0.37555">
        <ele>108.300003052</ele>
        <time>2015-01-24T15:30:58Z</time>
      </trkpt>
      <trkpt lat="49.52512" lon="0.37568">
        <ele>108.400001526</ele>
        <time>2015-01-24T15:31:05Z</time>
      </trkpt>
      <trkpt lat="49.52512" lon="0.37571">
        <ele>108.199996948</ele>
        <time>2015-01-24T15:31:05Z</time>
      </trkpt>
      <trkpt lat="49.52515" lon="0.37584">
        <ele>108.099998474</ele>
        <time>2015-01-24T15:31:11Z</time>
      </trkpt>
      <trkpt lat="49.52515" lon="0.37585">
        <ele>107.800003052</ele>
        <time>2015-01-24T15:31:12Z</time>
      </trkpt>
      <trkpt lat="49.52517" lon="0.37598">
        <ele>107.5</ele>
        <time>2015-01-24T15:31:20Z</time>
      </trkpt>
      <trkpt lat="49.52517" lon="0.37599">
        <ele>107.400001526</ele>
        <time>2015-01-24T15:31:20Z</time>
      </trkpt>
      <trkpt lat="49.52516" lon="0.37613">
        <ele>106.599998474</ele>
        <time>2015-01-24T15:31:28Z</time>
      </trkpt>
      <trkpt lat="49.52516" lon="0.37615">
        <ele>106.599998474</ele>
        <time>2015-01-24T15:31:29Z</time>
      </trkpt>
      <trkpt lat="49.52515" lon="0.37627">
        <ele>106.199996948</ele>
        <time>2015-01-24T15:31:36Z</time>
      </trkpt>
      <trkpt lat="49.52515" lon="0.37629">
        <ele>106.300003052</ele>
        <time>2015-01-24T15:31:37Z</time>
      </trkpt>
      <trkpt lat="49.52517" lon="0.37642">
        <ele>107</ele>
        <time>2015-01-24T15:31:45Z</time>
      </trkpt>
      <trkpt lat="49.52517" lon="0.37644">
        <ele>107</ele>
        <time>2015-01-24T15:31:45Z</time>
      </trkpt>
      <trkpt lat="49.52518" lon="0.37657">
        <ele>108</ele>
        <time>2015-01-24T15:31:53Z</time>
      </trkpt>
      <trkpt lat="49.52518" lon="0.37659">
        <ele>108</ele>
        <time>2015-01-24T15:31:54Z</time>
      </trkpt>
      <trkpt lat="49.52521" lon="0.37671">
        <ele>108.900001526</ele>
        <time>2015-01-24T15:32:01Z</time>
      </trkpt>
      <trkpt lat="49.52521" lon="0.37673">
        <ele>108.900001526</ele>
        <time>2015-01-24T15:32:02Z</time>
      </trkpt>
      <trkpt lat="49.52522" lon="0.37685">
        <ele>109.199996948</ele>
        <time>2015-01-24T15:32:08Z</time>
      </trkpt>
      <trkpt lat="49.52522" lon="0.37687">
        <ele>109.199996948</ele>
        <time>2015-01-24T15:32:09Z</time>
      </trkpt>
      <trkpt lat="49.52522" lon="0.377">
        <ele>109.599998474</ele>
        <time>2015-01-24T15:32:17Z</time>
      </trkpt>
      <trkpt lat="49.52522" lon="0.37702">
        <ele>109.5</ele>
        <time>2015-01-24T15:32:18Z</time>
      </trkpt>
      <trkpt lat="49.52524" lon="0.37714">
        <ele>109.900001526</ele>
        <time>2015-01-24T15:32:25Z</time>
      </trkpt>
      <trkpt lat="49.52525" lon="0.37717">
        <ele>110</ele>
        <time>2015-01-24T15:32:26Z</time>
      </trkpt>
      <trkpt lat="49.52525" lon="0.37729">
        <ele>110.5</ele>
        <time>2015-01-24T15:32:32Z</time>
      </trkpt>
      <trkpt lat="49.52526" lon="0.37731">
        <ele>110.5</ele>
        <time>2015-01-24T15:32:33Z</time>
      </trkpt>
      <trkpt lat="49.52525" lon="0.37744">
        <ele>111</ele>
        <time>2015-01-24T15:32:40Z</time>
      </trkpt>
      <trkpt lat="49.52526" lon="0.37746">
        <ele>111</ele>
        <time>2015-01-24T15:32:41Z</time>
      </trkpt>
      <trkpt lat="49.52528" lon="0.37758">
        <ele>112.199996948</ele>
        <time>2015-01-24T15:32:48Z</time>
      </trkpt>
      <trkpt lat="49.52527" lon="0.3776">
        <ele>112.300003052</ele>
        <time>2015-01-24T15:32:49Z</time>
      </trkpt>
      <trkpt lat="49.52527" lon="0.37773">
        <ele>112.400001526</ele>
        <time>2015-01-24T15:32:56Z</time>
      </trkpt>
      <trkpt lat="49.52527" lon="0.37775">
        <ele>112.400001526</ele>
        <time>2015-01-24T15:32:57Z</time>
      </trkpt>
      <trkpt lat="49.52529" lon="0.37787">
        <ele>112.199996948</ele>
        <time>2015-01-24T15:33:04Z</time>
      </trkpt>
      <trkpt lat="49.52529" lon="0.37789">
        <ele>112.300003052</ele>
        <time>2015-01-24T15:33:05Z</time>
      </trkpt>
      <trkpt lat="49.52529" lon="0.37802">
        <ele>112.199996948</ele>
        <time>2015-01-24T15:33:13Z</time>
      </trkpt>
      <trkpt lat="49.52529" lon="0.37804">
        <ele>112.199996948</ele>
        <time>2015-01-24T15:33:14Z</time>
      </trkpt>
      <trkpt lat="49.5253" lon="0.37815">
        <ele>112.400001526</ele>
        <time>2015-01-24T15:33:20Z</time>
      </trkpt>
      <trkpt lat="49.52531" lon="0.37817">
        <ele>112.400001526</ele>
        <time>2015-01-24T15:33:21Z</time>
      </trkpt>
      <trkpt lat="49.5253" lon="0.37831">
        <ele>113.099998474</ele>
        <time>2015-01-24T15:33:30Z</time>
      </trkpt>
      <trkpt lat="49.52529" lon="0.37831">
        <ele>113.199996948</ele>
        <time>2015-01-24T15:33:31Z</time>
      </trkpt>
      <trkpt lat="49.52521" lon="0.37833">
        <ele>113.199996948</ele>
        <time>2015-01-24T15:33:36Z</time>
      </trkpt>
      <trkpt lat="49.5252" lon="0.37834">
        <ele>113.199996948</ele>
        <time>2015-01-24T15:33:37Z</time>
      </trkpt>
      <trkpt lat="49.52512" lon="0.37835">
        <ele>113.300003052</ele>
        <time>2015-01-24T15:33:43Z</time>
      </trkpt>
      <trkpt lat="49.5251" lon="0.37836">
        <ele>113.099998474</ele>
        <time>2015-01-24T15:33:44Z</time>
      </trkpt>
      <trkpt lat="49.52502" lon="0.37838">
        <ele>112.800003052</ele>
        <time>2015-01-24T15:33:50Z</time>
      </trkpt>
      <trkpt lat="49.525" lon="0.37839">
        <ele>112.699996948</ele>
        <time>2015-01-24T15:33:51Z</time>
      </trkpt>
      <trkpt lat="49.52494" lon="0.37845">
        <ele>112.300003052</ele>
        <time>2015-01-24T15:33:56Z</time>
      </trkpt>
      <trkpt lat="49.52493" lon="0.37846">
        <ele>112.300003052</ele>
        <time>2015-01-24T15:33:57Z</time>
      </trkpt>
      <trkpt lat="49.52484" lon="0.37849">
        <ele>112</ele>
        <time>2015-01-24T15:34:03Z</time>
      </trkpt>
      <trkpt lat="49.52482" lon="0.3785">
        <ele>111.900001526</ele>
        <time>2015-01-24T15:34:04Z</time>
      </trkpt>
      <trkpt lat="49.52474" lon="0.37852">
        <ele>112.5</ele>
        <time>2015-01-24T15:34:11Z</time>
      </trkpt>
      <trkpt lat="49.52473" lon="0.37853">
        <ele>112.5</ele>
        <time>2015-01-24T15:34:12Z</time>
      </trkpt>
      <trkpt lat="49.52465" lon="0.37856">
        <ele>112.699996948</ele>
        <time>2015-01-24T15:34:18Z</time>
      </trkpt>
      <trkpt lat="49.52464" lon="0.37856">
        <ele>112.800003052</ele>
        <time>2015-01-24T15:34:19Z</time>
      </trkpt>
      <trkpt lat="49.52455" lon="0.37861">
        <ele>113.099998474</ele>
        <time>2015-01-24T15:34:25Z</time>
      </trkpt>
      <trkpt lat="49.52454" lon="0.37862">
        <ele>113.099998474</ele>
        <time>2015-01-24T15:34:26Z</time>
      </trkpt>
      <trkpt lat="49.52445" lon="0.37866">
        <ele>113.599998474</ele>
        <time>2015-01-24T15:34:33Z</time>
      </trkpt>
      <trkpt lat="49.52444" lon="0.37865">
        <ele>113.5</ele>
        <time>2015-01-24T15:34:34Z</time>
      </trkpt>
      <trkpt lat="49.52436" lon="0.37868">
        <ele>114.199996948</ele>
        <time>2015-01-24T15:34:40Z</time>
      </trkpt>
      <trkpt lat="49.52434" lon="0.37868">
        <ele>114.099998474</ele>
        <time>2015-01-24T15:34:41Z</time>
      </trkpt>
      <trkpt lat="49.52426" lon="0.37869">
        <ele>113.800003052</ele>
        <time>2015-01-24T15:34:47Z</time>
      </trkpt>
      <trkpt lat="49.52425" lon="0.3787">
        <ele>113.699996948</ele>
        <time>2015-01-24T15:34:48Z</time>
      </trkpt>
      <trkpt lat="49.52416" lon="0.37873">
        <ele>113.699996948</ele>
        <time>2015-01-24T15:34:54Z</time>
      </trkpt>
      <trkpt lat="49.52415" lon="0.37874">
        <ele>113.699996948</ele>
        <time>2015-01-24T15:34:55Z</time>
      </trkpt>
      <trkpt lat="49.52407" lon="0.37879">
        <ele>113.599998474</ele>
        <time>2015-01-24T15:35:01Z</time>
      </trkpt>
      <trkpt lat="49.52406" lon="0.37879">
        <ele>113.699996948</ele>
        <time>2015-01-24T15:35:02Z</time>
      </trkpt>
      <trkpt lat="49.52398" lon="0.37885">
        <ele>113.599998474</ele>
        <time>2015-01-24T15:35:07Z</time>
      </trkpt>
      <trkpt lat="49.52397" lon="0.37886">
        <ele>113.400001526</ele>
        <time>2015-01-24T15:35:08Z</time>
      </trkpt>
      <trkpt lat="49.52393" lon="0.37895">
        <ele>113.400001526</ele>
        <time>2015-01-24T15:35:12Z</time>
      </trkpt>
      <trkpt lat="49.52392" lon="0.37898">
        <ele>113.300003052</ele>
        <time>2015-01-24T15:35:13Z</time>
      </trkpt>
      <trkpt lat="49.5239" lon="0.3791">
        <ele>113.400001526</ele>
        <time>2015-01-24T15:35:19Z</time>
      </trkpt>
      <trkpt lat="49.52389" lon="0.37912">
        <ele>113.599998474</ele>
        <time>2015-01-24T15:35:20Z</time>
      </trkpt>
      <trkpt lat="49.52388" lon="0.37925">
        <ele>113.900001526</ele>
        <time>2015-01-24T15:35:27Z</time>
      </trkpt>
      <trkpt lat="49.52388" lon="0.37927">
        <ele>113.900001526</ele>
        <time>2015-01-24T15:35:28Z</time>
      </trkpt>
      <trkpt lat="49.52387" lon="0.37939">
        <ele>114</ele>
        <time>2015-01-24T15:35:34Z</time>
      </trkpt>
      <trkpt lat="49.52387" lon="0.37941">
        <ele>114</ele>
        <time>2015-01-24T15:35:35Z</time>
      </trkpt>
      <trkpt lat="49.52385" lon="0.37952">
        <ele>113.900001526</ele>
        <time>2015-01-24T15:35:41Z</time>
      </trkpt>
      <trkpt lat="49.52385" lon="0.37955">
        <ele>113.5</ele>
        <time>2015-01-24T15:35:42Z</time>
      </trkpt>
      <trkpt lat="49.5238" lon="0.37965">
        <ele>112.900001526</ele>
        <time>2015-01-24T15:35:47Z</time>
      </trkpt>
      <trkpt lat="49.52379" lon="0.37967">
        <ele>112.599998474</ele>
        <time>2015-01-24T15:35:48Z</time>
      </trkpt>
      <trkpt lat="49.52376" lon="0.37979">
        <ele>111.800003052</ele>
        <time>2015-01-24T15:35:55Z</time>
      </trkpt>
      <trkpt lat="49.52375" lon="0.37981">
        <ele>111.699996948</ele>
        <time>2015-01-24T15:35:56Z</time>
      </trkpt>
      <trkpt lat="49.52372" lon="0.37993">
        <ele>110.599998474</ele>
        <time>2015-01-24T15:36:02Z</time>
      </trkpt>
      <trkpt lat="49.52372" lon="0.37995">
        <ele>110.599998474</ele>
        <time>2015-01-24T15:36:03Z</time>
      </trkpt>
      <trkpt lat="49.52368" lon="0.38008">
        <ele>110.300003052</ele>
        <time>2015-01-24T15:36:09Z</time>
      </trkpt>
      <trkpt lat="49.52368" lon="0.38009">
        <ele>110.099998474</ele>
        <time>2015-01-24T15:36:10Z</time>
      </trkpt>
      <trkpt lat="49.52364" lon="0.3802">
        <ele>109.300003052</ele>
        <time>2015-01-24T15:36:16Z</time>
      </trkpt>
      <trkpt lat="49.52363" lon="0.38022">
        <ele>109.199996948</ele>
        <time>2015-01-24T15:36:17Z</time>
      </trkpt>
      <trkpt lat="49.52359" lon="0.38034">
        <ele>108.5</ele>
        <time>2015-01-24T15:36:23Z</time>
      </trkpt>
      <trkpt lat="49.52358" lon="0.38037">
        <ele>108.5</ele>
        <time>2015-01-24T15:36:24Z</time>
      </trkpt>
      <trkpt lat="49.52357" lon="0.38048">
        <ele>108.199996948</ele>
        <time>2015-01-24T15:36:29Z</time>
      </trkpt>
      <trkpt lat="49.52356" lon="0.3805">
        <ele>108.199996948</ele>
        <time>2015-01-24T15:36:30Z</time>
      </trkpt>
      <trkpt lat="49.52353" lon="0.38061">
        <ele>107.199996948</ele>
        <time>2015-01-24T15:36:36Z</time>
      </trkpt>
      <trkpt lat="49.52352" lon="0.38063">
        <ele>107.099998474</ele>
        <time>2015-01-24T15:36:37Z</time>
      </trkpt>
      <trkpt lat="49.52348" lon="0.38075">
        <ele>106.300003052</ele>
        <time>2015-01-24T15:36:43Z</time>
      </trkpt>
      <trkpt lat="49.52347" lon="0.38077">
        <ele>106.199996948</ele>
        <time>2015-01-24T15:36:44Z</time>
      </trkpt>
      <trkpt lat="49.52343" lon="0.38087">
        <ele>105.900001526</ele>
        <time>2015-01-24T15:36:50Z</time>
      </trkpt>
      <trkpt lat="49.52342" lon="0.38089">
        <ele>105.800003052</ele>
        <time>2015-01-24T15:36:51Z</time>
      </trkpt>
      <trkpt lat="49.52336" lon="0.38098">
        <ele>105.699996948</ele>
        <time>2015-01-24T15:36:56Z</time>
      </trkpt>
      <trkpt lat="49.52336" lon="0.381">
        <ele>105.699996948</ele>
        <time>2015-01-24T15:36:57Z</time>
      </trkpt>
      <trkpt lat="49.52328" lon="0.38108">
        <ele>106.199996948</ele>
        <time>2015-01-24T15:37:04Z</time>
      </trkpt>
      <trkpt lat="49.52327" lon="0.38109">
        <ele>106.300003052</ele>
        <time>2015-01-24T15:37:05Z</time>
      </trkpt>
      <trkpt lat="49.52322" lon="0.38119">
        <ele>107.199996948</ele>
        <time>2015-01-24T15:37:11Z</time>
      </trkpt>
      <trkpt lat="49.52321" lon="0.38121">
        <ele>107.199996948</ele>
        <time>2015-01-24T15:37:12Z</time>
      </trkpt>
      <trkpt lat="49.52313" lon="0.38129">
        <ele>108</ele>
        <time>2015-01-24T15:37:19Z</time>
      </trkpt>
      <trkpt lat="49.52312" lon="0.3813">
        <ele>108.099998474</ele>
        <time>2015-01-24T15:37:20Z</time>
      </trkpt>
      <trkpt lat="49.52306" lon="0.38137">
        <ele>108.099998474</ele>
        <time>2015-01-24T15:37:26Z</time>
      </trkpt>
      <trkpt lat="49.52305" lon="0.38138">
        <ele>107.900001526</ele>
        <time>2015-01-24T15:37:27Z</time>
      </trkpt>
      <trkpt lat="49.52299" lon="0.38145">
        <ele>107</ele>
        <time>2015-01-24T15:37:33Z</time>
      </trkpt>
      <trkpt lat="49.52297" lon="0.38147">
        <ele>106.900001526</ele>
        <time>2015-01-24T15:37:34Z</time>
      </trkpt>
      <trkpt lat="49.52292" lon="0.38155">
        <ele>106.5</ele>
        <time>2015-01-24T15:37:39Z</time>
      </trkpt>
      <trkpt lat="49.52291" lon="0.38157">
        <ele>106.5</ele>
        <time>2015-01-24T15:37:40Z</time>
      </trkpt>
      <trkpt lat="49.52285" lon="0.38167">
        <ele>106</ele>
        <time>2015-01-24T15:37:47Z</time>
      </trkpt>
      <trkpt lat="49.52284" lon="0.38169">
        <ele>105.699996948</ele>
        <time>2015-01-24T15:37:48Z</time>
      </trkpt>
      <trkpt lat="49.52278" lon="0.38178">
        <ele>104.800003052</ele>
        <time>2015-01-24T15:37:54Z</time>
      </trkpt>
      <trkpt lat="49.52277" lon="0.38179">
        <ele>104.699996948</ele>
        <time>2015-01-24T15:37:55Z</time>
      </trkpt>
      <trkpt lat="49.52272" lon="0.38188">
        <ele>104.5</ele>
        <time>2015-01-24T15:38:01Z</time>
      </trkpt>
      <trkpt lat="49.5227" lon="0.38191">
        <ele>104.5</ele>
        <time>2015-01-24T15:38:02Z</time>
      </trkpt>
      <trkpt lat="49.52265" lon="0.38201">
        <ele>104.699996948</ele>
        <time>2015-01-24T15:38:08Z</time>
      </trkpt>
      <trkpt lat="49.52264" lon="0.38202">
        <ele>104.5</ele>
        <time>2015-01-24T15:38:09Z</time>
      </trkpt>
      <trkpt lat="49.52259" lon="0.38213">
        <ele>104.300003052</ele>
        <time>2015-01-24T15:38:16Z</time>
      </trkpt>
      <trkpt lat="49.52258" lon="0.38214">
        <ele>104.400001526</ele>
        <time>2015-01-24T15:38:17Z</time>
      </trkpt>
      <trkpt lat="49.52252" lon="0.38222">
        <ele>105</ele>
        <time>2015-01-24T15:38:23Z</time>
      </trkpt>
      <trkpt lat="49.52251" lon="0.38224">
        <ele>105.099998474</ele>
        <time>2015-01-24T15:38:24Z</time>
      </trkpt>
      <trkpt lat="49.52245" lon="0.38232">
        <ele>105.900001526</ele>
        <time>2015-01-24T15:38:31Z</time>
      </trkpt>
      <trkpt lat="49.52244" lon="0.38234">
        <ele>106.099998474</ele>
        <time>2015-01-24T15:38:32Z</time>
      </trkpt>
      <trkpt lat="49.52239" lon="0.38244">
        <ele>106.5</ele>
        <time>2015-01-24T15:38:40Z</time>
      </trkpt>
      <trkpt lat="49.52238" lon="0.38245">
        <ele>106.5</ele>
        <time>2015-01-24T15:38:40Z</time>
      </trkpt>
      <trkpt lat="49.52233" lon="0.38254">
        <ele>106.5</ele>
        <time>2015-01-24T15:38:46Z</time>
      </trkpt>
      <trkpt lat="49.52233" lon="0.38257">
        <ele>106.699996948</ele>
        <time>2015-01-24T15:38:47Z</time>
      </trkpt>
      <trkpt lat="49.52227" lon="0.38267">
        <ele>107.199996948</ele>
        <time>2015-01-24T15:38:54Z</time>
      </trkpt>
      <trkpt lat="49.52226" lon="0.38269">
        <ele>107.300003052</ele>
        <time>2015-01-24T15:38:55Z</time>
      </trkpt>
      <trkpt lat="49.52221" lon="0.38278">
        <ele>107.599998474</ele>
        <time>2015-01-24T15:39:01Z</time>
      </trkpt>
      <trkpt lat="49.52219" lon="0.38279">
        <ele>107.699996948</ele>
        <time>2015-01-24T15:39:02Z</time>
      </trkpt>
      <trkpt lat="49.52214" lon="0.38289">
        <ele>107.599998474</ele>
        <time>2015-01-24T15:39:09Z</time>
      </trkpt>
      <trkpt lat="49.52213" lon="0.3829">
        <ele>107.599998474</ele>
        <time>2015-01-24T15:39:10Z</time>
      </trkpt>
      <trkpt lat="49.52206" lon="0.38297">
        <ele>107</ele>
        <time>2015-01-24T15:39:17Z</time>
      </trkpt>
      <trkpt lat="49.52205" lon="0.38298">
        <ele>106.900001526</ele>
        <time>2015-01-24T15:39:18Z</time>
      </trkpt>
      <trkpt lat="49.52197" lon="0.38304">
        <ele>106.699996948</ele>
        <time>2015-01-24T15:39:24Z</time>
      </trkpt>
      <trkpt lat="49.52196" lon="0.38305">
        <ele>106.599998474</ele>
        <time>2015-01-24T15:39:25Z</time>
      </trkpt>
      <trkpt lat="49.5219" lon="0.38315">
        <ele>106.599998474</ele>
        <time>2015-01-24T15:39:31Z</time>
      </trkpt>
      <trkpt lat="49.52189" lon="0.38317">
        <ele>106.599998474</ele>
        <time>2015-01-24T15:39:32Z</time>
      </trkpt>
      <trkpt lat="49.52184" lon="0.38326">
        <ele>106.599998474</ele>
        <time>2015-01-24T15:39:38Z</time>
      </trkpt>
      <trkpt lat="49.52183" lon="0.38328">
        <ele>106.599998474</ele>
        <time>2015-01-24T15:39:39Z</time>
      </trkpt>
      <trkpt lat="49.52178" lon="0.38338">
        <ele>106</ele>
        <time>2015-01-24T15:39:45Z</time>
      </trkpt>
      <trkpt lat="49.52177" lon="0.38339">
        <ele>106</ele>
        <time>2015-01-24T15:39:46Z</time>
      </trkpt>
      <trkpt lat="49.52172" lon="0.3835">
        <ele>106.5</ele>
        <time>2015-01-24T15:39:53Z</time>
      </trkpt>
      <trkpt lat="49.52171" lon="0.38351">
        <ele>106.699996948</ele>
        <time>2015-01-24T15:39:54Z</time>
      </trkpt>
      <trkpt lat="49.52152" lon="0.38354">
        <ele>108</ele>
        <time>2015-01-24T15:40:17Z</time>
      </trkpt>
      <trkpt lat="49.52152" lon="0.38354">
        <ele>108</ele>
        <time>2015-01-24T15:40:18Z</time>
      </trkpt>
      <trkpt lat="49.52148" lon="0.3837">
        <ele>111.300003052</ele>
        <time>2015-01-24T15:40:18Z</time>
      </trkpt>
      <trkpt lat="49.52139" lon="0.38368">
        <ele>115.5</ele>
        <time>2015-01-24T15:40:22Z</time>
      </trkpt>
      <trkpt lat="49.52138" lon="0.38367">
        <ele>117</ele>
        <time>2015-01-24T15:40:23Z</time>
      </trkpt>
      <trkpt lat="49.52129" lon="0.38365">
        <ele>114.300003052</ele>
        <time>2015-01-24T15:40:29Z</time>
      </trkpt>
      <trkpt lat="49.52128" lon="0.38367">
        <ele>114.5</ele>
        <time>2015-01-24T15:40:30Z</time>
      </trkpt>
      <trkpt lat="49.52119" lon="0.38364">
        <ele>110.900001526</ele>
        <time>2015-01-24T15:40:37Z</time>
      </trkpt>
      <trkpt lat="49.52118" lon="0.38364">
        <ele>110.599998474</ele>
        <time>2015-01-24T15:40:38Z</time>
      </trkpt>
      <trkpt lat="49.5211" lon="0.38361">
        <ele>111.900001526</ele>
        <time>2015-01-24T15:40:44Z</time>
      </trkpt>
      <trkpt lat="49.52109" lon="0.3836">
        <ele>111.900001526</ele>
        <time>2015-01-24T15:40:45Z</time>
      </trkpt>
      <trkpt lat="49.521" lon="0.38359">
        <ele>112.199996948</ele>
        <time>2015-01-24T15:40:52Z</time>
      </trkpt>
      <trkpt lat="49.52099" lon="0.38359">
        <ele>112.300003052</ele>
        <time>2015-01-24T15:40:53Z</time>
      </trkpt>
      <trkpt lat="49.5209" lon="0.38359">
        <ele>112.900001526</ele>
        <time>2015-01-24T15:41:00Z</time>
      </trkpt>
      <trkpt lat="49.52089" lon="0.38359">
        <ele>112.900001526</ele>
        <time>2015-01-24T15:41:01Z</time>
      </trkpt>
      <trkpt lat="49.5208" lon="0.38358">
        <ele>112.800003052</ele>
        <time>2015-01-24T15:41:08Z</time>
      </trkpt>
      <trkpt lat="49.52078" lon="0.38358">
        <ele>112.900001526</ele>
        <time>2015-01-24T15:41:09Z</time>
      </trkpt>
      <trkpt lat="49.5207" lon="0.38358">
        <ele>113</ele>
        <time>2015-01-24T15:41:16Z</time>
      </trkpt>
      <trkpt lat="49.52069" lon="0.38357">
        <ele>113.199996948</ele>
        <time>2015-01-24T15:41:17Z</time>
      </trkpt>
      <trkpt lat="49.52061" lon="0.38355">
        <ele>113.199996948</ele>
        <time>2015-01-24T15:41:23Z</time>
      </trkpt>
      <trkpt lat="49.5206" lon="0.38354">
        <ele>113</ele>
        <time>2015-01-24T15:41:24Z</time>
      </trkpt>
      <trkpt lat="49.52051" lon="0.38355">
        <ele>113</ele>
        <time>2015-01-24T15:41:31Z</time>
      </trkpt>
      <trkpt lat="49.52049" lon="0.38355">
        <ele>113</ele>
        <time>2015-01-24T15:41:32Z</time>
      </trkpt>
      <trkpt lat="49.52041" lon="0.38357">
        <ele>113</ele>
        <time>2015-01-24T15:41:38Z</time>
      </trkpt>
      <trkpt lat="49.5204" lon="0.38357">
        <ele>112.900001526</ele>
        <time>2015-01-24T15:41:39Z</time>
      </trkpt>
      <trkpt lat="49.52031" lon="0.38358">
        <ele>112.5</ele>
        <time>2015-01-24T15:41:46Z</time>
      </trkpt>
      <trkpt lat="49.5203" lon="0.38359">
        <ele>112.5</ele>
        <time>2015-01-24T15:41:47Z</time>
      </trkpt>
      <trkpt lat="49.52022" lon="0.38357">
        <ele>112.199996948</ele>
        <time>2015-01-24T15:41:52Z</time>
      </trkpt>
      <trkpt lat="49.52021" lon="0.38357">
        <ele>112.099998474</ele>
        <time>2015-01-24T15:41:53Z</time>
      </trkpt>
      <trkpt lat="49.52012" lon="0.38357">
        <ele>112</ele>
        <time>2015-01-24T15:41:59Z</time>
      </trkpt>
      <trkpt lat="49.52011" lon="0.38357">
        <ele>112</ele>
        <time>2015-01-24T15:42:00Z</time>
      </trkpt>
      <trkpt lat="49.52004" lon="0.38361">
        <ele>112.599998474</ele>
        <time>2015-01-24T15:42:05Z</time>
      </trkpt>
      <trkpt lat="49.52003" lon="0.38361">
        <ele>112.900001526</ele>
        <time>2015-01-24T15:42:06Z</time>
      </trkpt>
      <trkpt lat="49.51994" lon="0.38362">
        <ele>113.5</ele>
        <time>2015-01-24T15:42:13Z</time>
      </trkpt>
      <trkpt lat="49.51993" lon="0.38362">
        <ele>113.5</ele>
        <time>2015-01-24T15:42:14Z</time>
      </trkpt>
      <trkpt lat="49.51985" lon="0.38365">
        <ele>114.400001526</ele>
        <time>2015-01-24T15:42:21Z</time>
      </trkpt>
      <trkpt lat="49.51983" lon="0.38364">
        <ele>114.400001526</ele>
        <time>2015-01-24T15:42:22Z</time>
      </trkpt>
      <trkpt lat="49.51975" lon="0.38362">
        <ele>113.900001526</ele>
        <time>2015-01-24T15:42:28Z</time>
      </trkpt>
      <trkpt lat="49.51973" lon="0.38362">
        <ele>113.900001526</ele>
        <time>2015-01-24T15:42:29Z</time>
      </trkpt>
      <trkpt lat="49.51965" lon="0.38362">
        <ele>113.599998474</ele>
        <time>2015-01-24T15:42:35Z</time>
      </trkpt>
      <trkpt lat="49.51964" lon="0.38362">
        <ele>113.5</ele>
        <time>2015-01-24T15:42:36Z</time>
      </trkpt>
      <trkpt lat="49.51955" lon="0.38363">
        <ele>113.5</ele>
        <time>2015-01-24T15:42:43Z</time>
      </trkpt>
      <trkpt lat="49.51954" lon="0.38363">
        <ele>113.599998474</ele>
        <time>2015-01-24T15:42:44Z</time>
      </trkpt>
      <trkpt lat="49.51946" lon="0.38363">
        <ele>113.5</ele>
        <time>2015-01-24T15:42:50Z</time>
      </trkpt>
      <trkpt lat="49.51945" lon="0.38363">
        <ele>113.599998474</ele>
        <time>2015-01-24T15:42:51Z</time>
      </trkpt>
      <trkpt lat="49.51937" lon="0.38366">
        <ele>113.599998474</ele>
        <time>2015-01-24T15:42:57Z</time>
      </trkpt>
      <trkpt lat="49.51936" lon="0.38366">
        <ele>113.5</ele>
        <time>2015-01-24T15:42:58Z</time>
      </trkpt>
      <trkpt lat="49.51928" lon="0.38368">
        <ele>113</ele>
        <time>2015-01-24T15:43:04Z</time>
      </trkpt>
      <trkpt lat="49.51926" lon="0.38368">
        <ele>112.900001526</ele>
        <time>2015-01-24T15:43:05Z</time>
      </trkpt>
      <trkpt lat="49.51918" lon="0.38369">
        <ele>112.900001526</ele>
        <time>2015-01-24T15:43:12Z</time>
      </trkpt>
      <trkpt lat="49.51917" lon="0.38369">
        <ele>112.699996948</ele>
        <time>2015-01-24T15:43:13Z</time>
      </trkpt>
      <trkpt lat="49.51908" lon="0.38369">
        <ele>111.800003052</ele>
        <time>2015-01-24T15:43:20Z</time>
      </trkpt>
      <trkpt lat="49.51906" lon="0.3837">
        <ele>111.599998474</ele>
        <time>2015-01-24T15:43:21Z</time>
      </trkpt>
      <trkpt lat="49.51898" lon="0.3837">
        <ele>110.800003052</ele>
        <time>2015-01-24T15:43:28Z</time>
      </trkpt>
      <trkpt lat="49.51896" lon="0.38371">
        <ele>110.800003052</ele>
        <time>2015-01-24T15:43:29Z</time>
      </trkpt>
      <trkpt lat="49.51889" lon="0.38373">
        <ele>110.5</ele>
        <time>2015-01-24T15:43:34Z</time>
      </trkpt>
      <trkpt lat="49.51887" lon="0.38373">
        <ele>110.400001526</ele>
        <time>2015-01-24T15:43:35Z</time>
      </trkpt>
      <trkpt lat="49.51879" lon="0.38375">
        <ele>110.5</ele>
        <time>2015-01-24T15:43:40Z</time>
      </trkpt>
      <trkpt lat="49.51878" lon="0.38375">
        <ele>110.400001526</ele>
        <time>2015-01-24T15:43:41Z</time>
      </trkpt>
      <trkpt lat="49.51869" lon="0.38378">
        <ele>110.300003052</ele>
        <time>2015-01-24T15:43:47Z</time>
      </trkpt>
      <trkpt lat="49.51868" lon="0.38378">
        <ele>110.300003052</ele>
        <time>2015-01-24T15:43:48Z</time>
      </trkpt>
      <trkpt lat="49.51859" lon="0.3838">
        <ele>110.599998474</ele>
        <time>2015-01-24T15:43:55Z</time>
      </trkpt>
      <trkpt lat="49.51858" lon="0.38379">
        <ele>110.599998474</ele>
        <time>2015-01-24T15:43:55Z</time>
      </trkpt>
      <trkpt lat="49.5185" lon="0.38381">
        <ele>110.400001526</ele>
        <time>2015-01-24T15:44:01Z</time>
      </trkpt>
      <trkpt lat="49.51849" lon="0.3838">
        <ele>110.300003052</ele>
        <time>2015-01-24T15:44:02Z</time>
      </trkpt>
      <trkpt lat="49.51841" lon="0.38384">
        <ele>110.199996948</ele>
        <time>2015-01-24T15:44:08Z</time>
      </trkpt>
      <trkpt lat="49.5184" lon="0.38384">
        <ele>110.199996948</ele>
        <time>2015-01-24T15:44:09Z</time>
      </trkpt>
      <trkpt lat="49.51831" lon="0.38386">
        <ele>109.900001526</ele>
        <time>2015-01-24T15:44:15Z</time>
      </trkpt>
      <trkpt lat="49.5183" lon="0.38386">
        <ele>109.900001526</ele>
        <time>2015-01-24T15:44:16Z</time>
      </trkpt>
      <trkpt lat="49.51821" lon="0.38387">
        <ele>109.300003052</ele>
        <time>2015-01-24T15:44:23Z</time>
      </trkpt>
      <trkpt lat="49.5182" lon="0.38387">
        <ele>109.300003052</ele>
        <time>2015-01-24T15:44:24Z</time>
      </trkpt>
      <trkpt lat="49.51812" lon="0.38386">
        <ele>109.300003052</ele>
        <time>2015-01-24T15:44:30Z</time>
      </trkpt>
      <trkpt lat="49.51811" lon="0.38386">
        <ele>109.300003052</ele>
        <time>2015-01-24T15:44:31Z</time>
      </trkpt>
      <trkpt lat="49.51803" lon="0.38386">
        <ele>109.099998474</ele>
        <time>2015-01-24T15:44:37Z</time>
      </trkpt>
      <trkpt lat="49.51802" lon="0.38387">
        <ele>109</ele>
        <time>2015-01-24T15:44:38Z</time>
      </trkpt>
      <trkpt lat="49.51794" lon="0.38388">
        <ele>109</ele>
        <time>2015-01-24T15:44:43Z</time>
      </trkpt>
      <trkpt lat="49.51792" lon="0.38389">
        <ele>109</ele>
        <time>2015-01-24T15:44:44Z</time>
      </trkpt>
      <trkpt lat="49.51783" lon="0.38391">
        <ele>109.099998474</ele>
        <time>2015-01-24T15:44:49Z</time>
      </trkpt>
      <trkpt lat="49.51782" lon="0.38391">
        <ele>109</ele>
        <time>2015-01-24T15:44:50Z</time>
      </trkpt>
      <trkpt lat="49.51774" lon="0.38392">
        <ele>109</ele>
        <time>2015-01-24T15:44:55Z</time>
      </trkpt>
      <trkpt lat="49.51772" lon="0.38392">
        <ele>108.900001526</ele>
        <time>2015-01-24T15:44:56Z</time>
      </trkpt>
      <trkpt lat="49.51764" lon="0.38392">
        <ele>108.800003052</ele>
        <time>2015-01-24T15:45:01Z</time>
      </trkpt>
      <trkpt lat="49.51763" lon="0.38392">
        <ele>108.699996948</ele>
        <time>2015-01-24T15:45:02Z</time>
      </trkpt>
      <trkpt lat="49.51755" lon="0.38392">
        <ele>108.599998474</ele>
        <time>2015-01-24T15:45:08Z</time>
      </trkpt>
      <trkpt lat="49.51753" lon="0.38393">
        <ele>108.599998474</ele>
        <time>2015-01-24T15:45:09Z</time>
      </trkpt>
      <trkpt lat="49.51746" lon="0.38395">
        <ele>108.599998474</ele>
        <time>2015-01-24T15:45:15Z</time>
      </trkpt>
      <trkpt lat="49.51744" lon="0.38395">
        <ele>108.599998474</ele>
        <time>2015-01-24T15:45:15Z</time>
      </trkpt>
      <trkpt lat="49.51736" lon="0.38398">
        <ele>108.5</ele>
        <time>2015-01-24T15:45:20Z</time>
      </trkpt>
      <trkpt lat="49.51734" lon="0.38398">
        <ele>108.5</ele>
        <time>2015-01-24T15:45:21Z</time>
      </trkpt>
      <trkpt lat="49.51726" lon="0.38399">
        <ele>108.199996948</ele>
        <time>2015-01-24T15:45:27Z</time>
      </trkpt>
      <trkpt lat="49.51725" lon="0.38399">
        <ele>108.199996948</ele>
        <time>2015-01-24T15:45:28Z</time>
      </trkpt>
      <trkpt lat="49.51716" lon="0.38401">
        <ele>108.099998474</ele>
        <time>2015-01-24T15:45:35Z</time>
      </trkpt>
      <trkpt lat="49.51714" lon="0.38401">
        <ele>108.099998474</ele>
        <time>2015-01-24T15:45:35Z</time>
      </trkpt>
      <trkpt lat="49.51706" lon="0.38402">
        <ele>108</ele>
        <time>2015-01-24T15:45:41Z</time>
      </trkpt>
      <trkpt lat="49.51705" lon="0.38403">
        <ele>108</ele>
        <time>2015-01-24T15:45:42Z</time>
      </trkpt>
      <trkpt lat="49.51697" lon="0.38405">
        <ele>108</ele>
        <time>2015-01-24T15:45:47Z</time>
      </trkpt>
      <trkpt lat="49.51695" lon="0.38405">
        <ele>108.099998474</ele>
        <time>2015-01-24T15:45:48Z</time>
      </trkpt>
      <trkpt lat="49.51687" lon="0.38406">
        <ele>108.099998474</ele>
        <time>2015-01-24T15:45:54Z</time>
      </trkpt>
      <trkpt lat="49.51686" lon="0.38406">
        <ele>108.099998474</ele>
        <time>2015-01-24T15:45:55Z</time>
      </trkpt>
      <trkpt lat="49.51678" lon="0.38407">
        <ele>108</ele>
        <time>2015-01-24T15:46:00Z</time>
      </trkpt>
      <trkpt lat="49.51677" lon="0.38407">
        <ele>108</ele>
        <time>2015-01-24T15:46:01Z</time>
      </trkpt>
      <trkpt lat="49.51668" lon="0.38408">
        <ele>107.300003052</ele>
        <time>2015-01-24T15:46:07Z</time>
      </trkpt>
      <trkpt lat="49.51666" lon="0.38409">
        <ele>107.300003052</ele>
        <time>2015-01-24T15:46:08Z</time>
      </trkpt>
      <trkpt lat="49.51658" lon="0.3841">
        <ele>106.5</ele>
        <time>2015-01-24T15:46:14Z</time>
      </trkpt>
      <trkpt lat="49.51656" lon="0.3841">
        <ele>106.5</ele>
        <time>2015-01-24T15:46:15Z</time>
      </trkpt>
      <trkpt lat="49.51648" lon="0.38413">
        <ele>106.199996948</ele>
        <time>2015-01-24T15:46:20Z</time>
      </trkpt>
      <trkpt lat="49.51647" lon="0.38414">
        <ele>106.300003052</ele>
        <time>2015-01-24T15:46:21Z</time>
      </trkpt>
      <trkpt lat="49.51639" lon="0.38418">
        <ele>106.300003052</ele>
        <time>2015-01-24T15:46:27Z</time>
      </trkpt>
      <trkpt lat="49.51637" lon="0.38418">
        <ele>106.199996948</ele>
        <time>2015-01-24T15:46:28Z</time>
      </trkpt>
      <trkpt lat="49.51629" lon="0.38418">
        <ele>106</ele>
        <time>2015-01-24T15:46:34Z</time>
      </trkpt>
      <trkpt lat="49.51628" lon="0.38418">
        <ele>105.900001526</ele>
        <time>2015-01-24T15:46:35Z</time>
      </trkpt>
      <trkpt lat="49.5162" lon="0.38419">
        <ele>105.300003052</ele>
        <time>2015-01-24T15:46:41Z</time>
      </trkpt>
      <trkpt lat="49.51618" lon="0.3842">
        <ele>105.199996948</ele>
        <time>2015-01-24T15:46:42Z</time>
      </trkpt>
      <trkpt lat="49.5161" lon="0.38422">
        <ele>105.099998474</ele>
        <time>2015-01-24T15:46:48Z</time>
      </trkpt>
      <trkpt lat="49.51609" lon="0.38422">
        <ele>105</ele>
        <time>2015-01-24T15:46:49Z</time>
      </trkpt>
      <trkpt lat="49.51601" lon="0.38425">
        <ele>104.599998474</ele>
        <time>2015-01-24T15:46:54Z</time>
      </trkpt>
      <trkpt lat="49.516" lon="0.38425">
        <ele>104.5</ele>
        <time>2015-01-24T15:46:55Z</time>
      </trkpt>
      <trkpt lat="49.51591" lon="0.38429">
        <ele>104.400001526</ele>
        <time>2015-01-24T15:47:01Z</time>
      </trkpt>
      <trkpt lat="49.5159" lon="0.3843">
        <ele>104.400001526</ele>
        <time>2015-01-24T15:47:02Z</time>
      </trkpt>
      <trkpt lat="49.51582" lon="0.38432">
        <ele>104.099998474</ele>
        <time>2015-01-24T15:47:07Z</time>
      </trkpt>
      <trkpt lat="49.51581" lon="0.38433">
        <ele>104.099998474</ele>
        <time>2015-01-24T15:47:08Z</time>
      </trkpt>
      <trkpt lat="49.51573" lon="0.38437">
        <ele>104.300003052</ele>
        <time>2015-01-24T15:47:14Z</time>
      </trkpt>
      <trkpt lat="49.51572" lon="0.38438">
        <ele>104.199996948</ele>
        <time>2015-01-24T15:47:15Z</time>
      </trkpt>
      <trkpt lat="49.51564" lon="0.3844">
        <ele>104.099998474</ele>
        <time>2015-01-24T15:47:20Z</time>
      </trkpt>
      <trkpt lat="49.51563" lon="0.38441">
        <ele>104.099998474</ele>
        <time>2015-01-24T15:47:21Z</time>
      </trkpt>
      <trkpt lat="49.51554" lon="0.38444">
        <ele>104.099998474</ele>
        <time>2015-01-24T15:47:27Z</time>
      </trkpt>
      <trkpt lat="49.51553" lon="0.38445">
        <ele>104.099998474</ele>
        <time>2015-01-24T15:47:28Z</time>
      </trkpt>
      <trkpt lat="49.51545" lon="0.38448">
        <ele>104</ele>
        <time>2015-01-24T15:47:34Z</time>
      </trkpt>
      <trkpt lat="49.51543" lon="0.38448">
        <ele>104</ele>
        <time>2015-01-24T15:47:35Z</time>
      </trkpt>
      <trkpt lat="49.51535" lon="0.38452">
        <ele>104.099998474</ele>
        <time>2015-01-24T15:47:41Z</time>
      </trkpt>
      <trkpt lat="49.51534" lon="0.38453">
        <ele>104.199996948</ele>
        <time>2015-01-24T15:47:42Z</time>
      </trkpt>
      <trkpt lat="49.51526" lon="0.38456">
        <ele>104.699996948</ele>
        <time>2015-01-24T15:47:48Z</time>
      </trkpt>
      <trkpt lat="49.51525" lon="0.38456">
        <ele>104.699996948</ele>
        <time>2015-01-24T15:47:49Z</time>
      </trkpt>
      <trkpt lat="49.51517" lon="0.38459">
        <ele>104.699996948</ele>
        <time>2015-01-24T15:47:55Z</time>
      </trkpt>
      <trkpt lat="49.51516" lon="0.3846">
        <ele>104.800003052</ele>
        <time>2015-01-24T15:47:56Z</time>
      </trkpt>
      <trkpt lat="49.51508" lon="0.38464">
        <ele>104.900001526</ele>
        <time>2015-01-24T15:48:02Z</time>
      </trkpt>
      <trkpt lat="49.51507" lon="0.38464">
        <ele>104.900001526</ele>
        <time>2015-01-24T15:48:03Z</time>
      </trkpt>
      <trkpt lat="49.51499" lon="0.38469">
        <ele>104.900001526</ele>
        <time>2015-01-24T15:48:09Z</time>
      </trkpt>
      <trkpt lat="49.51498" lon="0.3847">
        <ele>104.900001526</ele>
        <time>2015-01-24T15:48:10Z</time>
      </trkpt>
      <trkpt lat="49.51492" lon="0.38481">
        <ele>105.099998474</ele>
        <time>2015-01-24T15:48:15Z</time>
      </trkpt>
      <trkpt lat="49.51492" lon="0.38483">
        <ele>105.099998474</ele>
        <time>2015-01-24T15:48:16Z</time>
      </trkpt>
      <trkpt lat="49.51493" lon="0.38496">
        <ele>104.699996948</ele>
        <time>2015-01-24T15:48:22Z</time>
      </trkpt>
      <trkpt lat="49.51494" lon="0.38498">
        <ele>104.599998474</ele>
        <time>2015-01-24T15:48:23Z</time>
      </trkpt>
      <trkpt lat="49.51499" lon="0.38509">
        <ele>104.300003052</ele>
        <time>2015-01-24T15:48:30Z</time>
      </trkpt>
      <trkpt lat="49.515" lon="0.3851">
        <ele>104.199996948</ele>
        <time>2015-01-24T15:48:31Z</time>
      </trkpt>
      <trkpt lat="49.51505" lon="0.3852">
        <ele>103.900001526</ele>
        <time>2015-01-24T15:48:37Z</time>
      </trkpt>
      <trkpt lat="49.51506" lon="0.38521">
        <ele>103.699996948</ele>
        <time>2015-01-24T15:48:38Z</time>
      </trkpt>
      <trkpt lat="49.51511" lon="0.3853">
        <ele>103.5</ele>
        <time>2015-01-24T15:48:45Z</time>
      </trkpt>
      <trkpt lat="49.51512" lon="0.38532">
        <ele>103.5</ele>
        <time>2015-01-24T15:48:45Z</time>
      </trkpt>
      <trkpt lat="49.51518" lon="0.38542">
        <ele>103.300003052</ele>
        <time>2015-01-24T15:48:52Z</time>
      </trkpt>
      <trkpt lat="49.51519" lon="0.38543">
        <ele>103.400001526</ele>
        <time>2015-01-24T15:48:53Z</time>
      </trkpt>
      <trkpt lat="49.51523" lon="0.38554">
        <ele>102.900001526</ele>
        <time>2015-01-24T15:49:00Z</time>
      </trkpt>
      <trkpt lat="49.51524" lon="0.38556">
        <ele>102.900001526</ele>
        <time>2015-01-24T15:49:01Z</time>
      </trkpt>
      <trkpt lat="49.51528" lon="0.38565">
        <ele>103</ele>
        <time>2015-01-24T15:49:07Z</time>
      </trkpt>
      <trkpt lat="49.5153" lon="0.38567">
        <ele>103</ele>
        <time>2015-01-24T15:49:08Z</time>
      </trkpt>
      <trkpt lat="49.51535" lon="0.38577">
        <ele>103.199996948</ele>
        <time>2015-01-24T15:49:15Z</time>
      </trkpt>
      <trkpt lat="49.51536" lon="0.38579">
        <ele>103.199996948</ele>
        <time>2015-01-24T15:49:16Z</time>
      </trkpt>
      <trkpt lat="49.51543" lon="0.38588">
        <ele>102.599998474</ele>
        <time>2015-01-24T15:49:23Z</time>
      </trkpt>
      <trkpt lat="49.51543" lon="0.38589">
        <ele>102.599998474</ele>
        <time>2015-01-24T15:49:24Z</time>
      </trkpt>
      <trkpt lat="49.51549" lon="0.38598">
        <ele>103</ele>
        <time>2015-01-24T15:49:30Z</time>
      </trkpt>
      <trkpt lat="49.51549" lon="0.386">
        <ele>103.099998474</ele>
        <time>2015-01-24T15:49:31Z</time>
      </trkpt>
      <trkpt lat="49.51555" lon="0.38608">
        <ele>103.5</ele>
        <time>2015-01-24T15:49:36Z</time>
      </trkpt>
      <trkpt lat="49.51556" lon="0.3861">
        <ele>103.5</ele>
        <time>2015-01-24T15:49:37Z</time>
      </trkpt>
      <trkpt lat="49.51562" lon="0.38619">
        <ele>103.800003052</ele>
        <time>2015-01-24T15:49:43Z</time>
      </trkpt>
      <trkpt lat="49.51563" lon="0.38621">
        <ele>103.900001526</ele>
        <time>2015-01-24T15:49:44Z</time>
      </trkpt>
      <trkpt lat="49.51568" lon="0.3863">
        <ele>104.599998474</ele>
        <time>2015-01-24T15:49:50Z</time>
      </trkpt>
      <trkpt lat="49.51569" lon="0.38631">
        <ele>104.699996948</ele>
        <time>2015-01-24T15:49:51Z</time>
      </trkpt>
      <trkpt lat="49.51574" lon="0.38641">
        <ele>105.400001526</ele>
        <time>2015-01-24T15:49:57Z</time>
      </trkpt>
      <trkpt lat="49.51575" lon="0.38642">
        <ele>105.400001526</ele>
        <time>2015-01-24T15:49:58Z</time>
      </trkpt>
      <trkpt lat="49.5158" lon="0.38653">
        <ele>105.699996948</ele>
        <time>2015-01-24T15:50:05Z</time>
      </trkpt>
      <trkpt lat="49.5158" lon="0.38654">
        <ele>105.800003052</ele>
        <time>2015-01-24T15:50:06Z</time>
      </trkpt>
      <trkpt lat="49.51586" lon="0.38664">
        <ele>106</ele>
        <time>2015-01-24T15:50:13Z</time>
      </trkpt>
      <trkpt lat="49.51587" lon="0.38666">
        <ele>106</ele>
        <time>2015-01-24T15:50:14Z</time>
      </trkpt>
      <trkpt lat="49.51591" lon="0.38675">
        <ele>106</ele>
        <time>2015-01-24T15:50:20Z</time>
      </trkpt>
      <trkpt lat="49.51593" lon="0.38676">
        <ele>106</ele>
        <time>2015-01-24T15:50:21Z</time>
      </trkpt>
      <trkpt lat="49.51598" lon="0.38686">
        <ele>106</ele>
        <time>2015-01-24T15:50:27Z</time>
      </trkpt>
      <trkpt lat="49.51598" lon="0.38687">
        <ele>106.099998474</ele>
        <time>2015-01-24T15:50:28Z</time>
      </trkpt>
      <trkpt lat="49.51604" lon="0.38696">
        <ele>106.400001526</ele>
        <time>2015-01-24T15:50:34Z</time>
      </trkpt>
      <trkpt lat="49.51605" lon="0.38697">
        <ele>106.400001526</ele>
        <time>2015-01-24T15:50:35Z</time>
      </trkpt>
      <trkpt lat="49.51611" lon="0.38707">
        <ele>106.599998474</ele>
        <time>2015-01-24T15:50:42Z</time>
      </trkpt>
      <trkpt lat="49.51611" lon="0.38708">
        <ele>106.699996948</ele>
        <time>2015-01-24T15:50:43Z</time>
      </trkpt>
      <trkpt lat="49.51616" lon="0.38717">
        <ele>106.800003052</ele>
        <time>2015-01-24T15:50:48Z</time>
      </trkpt>
      <trkpt lat="49.51618" lon="0.38719">
        <ele>106.800003052</ele>
        <time>2015-01-24T15:50:49Z</time>
      </trkpt>
      <trkpt lat="49.51624" lon="0.38728">
        <ele>107.099998474</ele>
        <time>2015-01-24T15:50:55Z</time>
      </trkpt>
      <trkpt lat="49.51624" lon="0.3873">
        <ele>107.199996948</ele>
        <time>2015-01-24T15:50:56Z</time>
      </trkpt>
      <trkpt lat="49.5163" lon="0.38738">
        <ele>107.5</ele>
        <time>2015-01-24T15:51:02Z</time>
      </trkpt>
      <trkpt lat="49.51631" lon="0.3874">
        <ele>107.5</ele>
        <time>2015-01-24T15:51:03Z</time>
      </trkpt>
      <trkpt lat="49.51635" lon="0.38751">
        <ele>107.400001526</ele>
        <time>2015-01-24T15:51:11Z</time>
      </trkpt>
      <trkpt lat="49.51636" lon="0.38753">
        <ele>107.400001526</ele>
        <time>2015-01-24T15:51:12Z</time>
      </trkpt>
      <trkpt lat="49.51641" lon="0.38762">
        <ele>108.400001526</ele>
        <time>2015-01-24T15:51:18Z</time>
      </trkpt>
      <trkpt lat="49.51642" lon="0.38763">
        <ele>108.5</ele>
        <time>2015-01-24T15:51:19Z</time>
      </trkpt>
      <trkpt lat="49.51647" lon="0.38772">
        <ele>108.5</ele>
        <time>2015-01-24T15:51:25Z</time>
      </trkpt>
      <trkpt lat="49.51648" lon="0.38774">
        <ele>108.599998474</ele>
        <time>2015-01-24T15:51:26Z</time>
      </trkpt>
      <trkpt lat="49.51654" lon="0.38783">
        <ele>109</ele>
        <time>2015-01-24T15:51:32Z</time>
      </trkpt>
      <trkpt lat="49.51655" lon="0.38785">
        <ele>108.900001526</ele>
        <time>2015-01-24T15:51:33Z</time>
      </trkpt>
      <trkpt lat="49.51661" lon="0.38794">
        <ele>109.300003052</ele>
        <time>2015-01-24T15:51:39Z</time>
      </trkpt>
      <trkpt lat="49.51662" lon="0.38796">
        <ele>109.199996948</ele>
        <time>2015-01-24T15:51:40Z</time>
      </trkpt>
      <trkpt lat="49.51666" lon="0.38806">
        <ele>109.400001526</ele>
        <time>2015-01-24T15:51:46Z</time>
      </trkpt>
      <trkpt lat="49.51667" lon="0.38808">
        <ele>109.400001526</ele>
        <time>2015-01-24T15:51:47Z</time>
      </trkpt>
      <trkpt lat="49.51672" lon="0.38817">
        <ele>109.199996948</ele>
        <time>2015-01-24T15:51:53Z</time>
      </trkpt>
      <trkpt lat="49.51673" lon="0.38819">
        <ele>109.099998474</ele>
        <time>2015-01-24T15:51:54Z</time>
      </trkpt>
      <trkpt lat="49.51677" lon="0.38831">
        <ele>109.099998474</ele>
        <time>2015-01-24T15:52:01Z</time>
      </trkpt>
      <trkpt lat="49.51677" lon="0.38832">
        <ele>109</ele>
        <time>2015-01-24T15:52:02Z</time>
      </trkpt>
      <trkpt lat="49.51681" lon="0.38844">
        <ele>109.099998474</ele>
        <time>2015-01-24T15:52:08Z</time>
      </trkpt>
      <trkpt lat="49.51682" lon="0.38846">
        <ele>109.099998474</ele>
        <time>2015-01-24T15:52:09Z</time>
      </trkpt>
      <trkpt lat="49.51683" lon="0.38859">
        <ele>109.099998474</ele>
        <time>2015-01-24T15:52:16Z</time>
      </trkpt>
      <trkpt lat="49.51684" lon="0.38861">
        <ele>109.099998474</ele>
        <time>2015-01-24T15:52:17Z</time>
      </trkpt>
      <trkpt lat="49.51688" lon="0.38872">
        <ele>109.400001526</ele>
        <time>2015-01-24T15:52:23Z</time>
      </trkpt>
      <trkpt lat="49.51688" lon="0.38874">
        <ele>109.400001526</ele>
        <time>2015-01-24T15:52:24Z</time>
      </trkpt>
      <trkpt lat="49.51693" lon="0.38884">
        <ele>109.5</ele>
        <time>2015-01-24T15:52:30Z</time>
      </trkpt>
      <trkpt lat="49.51693" lon="0.38886">
        <ele>109.5</ele>
        <time>2015-01-24T15:52:31Z</time>
      </trkpt>
      <trkpt lat="49.51697" lon="0.38897">
        <ele>109.400001526</ele>
        <time>2015-01-24T15:52:37Z</time>
      </trkpt>
      <trkpt lat="49.51697" lon="0.38899">
        <ele>109.300003052</ele>
        <time>2015-01-24T15:52:38Z</time>
      </trkpt>
      <trkpt lat="49.51699" lon="0.38911">
        <ele>109.300003052</ele>
        <time>2015-01-24T15:52:43Z</time>
      </trkpt>
      <trkpt lat="49.517" lon="0.38914">
        <ele>109.400001526</ele>
        <time>2015-01-24T15:52:44Z</time>
      </trkpt>
      <trkpt lat="49.51702" lon="0.38926">
        <ele>109.699996948</ele>
        <time>2015-01-24T15:52:50Z</time>
      </trkpt>
      <trkpt lat="49.51702" lon="0.38928">
        <ele>109.800003052</ele>
        <time>2015-01-24T15:52:51Z</time>
      </trkpt>
      <trkpt lat="49.51705" lon="0.38941">
        <ele>110.099998474</ele>
        <time>2015-01-24T15:52:57Z</time>
      </trkpt>
      <trkpt lat="49.51705" lon="0.38943">
        <ele>110.199996948</ele>
        <time>2015-01-24T15:52:58Z</time>
      </trkpt>
      <trkpt lat="49.51708" lon="0.38954">
        <ele>110.199996948</ele>
        <time>2015-01-24T15:53:04Z</time>
      </trkpt>
      <trkpt lat="49.51708" lon="0.38956">
        <ele>110.199996948</ele>
        <time>2015-01-24T15:53:05Z</time>
      </trkpt>
      <trkpt lat="49.51712" lon="0.38967">
        <ele>110.599998474</ele>
        <time>2015-01-24T15:53:11Z</time>
      </trkpt>
      <trkpt lat="49.51712" lon="0.38969">
        <ele>110.599998474</ele>
        <time>2015-01-24T15:53:12Z</time>
      </trkpt>
      <trkpt lat="49.51715" lon="0.38982">
        <ele>110.5</ele>
        <time>2015-01-24T15:53:18Z</time>
      </trkpt>
      <trkpt lat="49.51715" lon="0.38984">
        <ele>110.400001526</ele>
        <time>2015-01-24T15:53:19Z</time>
      </trkpt>
      <trkpt lat="49.51718" lon="0.38996">
        <ele>110.099998474</ele>
        <time>2015-01-24T15:53:25Z</time>
      </trkpt>
      <trkpt lat="49.51718" lon="0.38997">
        <ele>110.099998474</ele>
        <time>2015-01-24T15:53:26Z</time>
      </trkpt>
      <trkpt lat="49.51721" lon="0.39009">
        <ele>109.900001526</ele>
        <time>2015-01-24T15:53:32Z</time>
      </trkpt>
      <trkpt lat="49.51722" lon="0.39011">
        <ele>109.900001526</ele>
        <time>2015-01-24T15:53:33Z</time>
      </trkpt>
      <trkpt lat="49.51724" lon="0.39023">
        <ele>110.099998474</ele>
        <time>2015-01-24T15:53:39Z</time>
      </trkpt>
      <trkpt lat="49.51725" lon="0.39025">
        <ele>110.199996948</ele>
        <time>2015-01-24T15:53:40Z</time>
      </trkpt>
      <trkpt lat="49.51727" lon="0.39038">
        <ele>110.599998474</ele>
        <time>2015-01-24T15:53:47Z</time>
      </trkpt>
      <trkpt lat="49.51728" lon="0.3904">
        <ele>110.699996948</ele>
        <time>2015-01-24T15:53:48Z</time>
      </trkpt>
      <trkpt lat="49.5173" lon="0.39051">
        <ele>110.699996948</ele>
        <time>2015-01-24T15:53:54Z</time>
      </trkpt>
      <trkpt lat="49.51731" lon="0.39053">
        <ele>110.599998474</ele>
        <time>2015-01-24T15:53:55Z</time>
      </trkpt>
      <trkpt lat="49.51733" lon="0.39065">
        <ele>110.5</ele>
        <time>2015-01-24T15:54:01Z</time>
      </trkpt>
      <trkpt lat="49.51733" lon="0.39067">
        <ele>110.5</ele>
        <time>2015-01-24T15:54:02Z</time>
      </trkpt>
      <trkpt lat="49.51737" lon="0.39078">
        <ele>110.199996948</ele>
        <time>2015-01-24T15:54:08Z</time>
      </trkpt>
      <trkpt lat="49.51737" lon="0.3908">
        <ele>110.199996948</ele>
        <time>2015-01-24T15:54:09Z</time>
      </trkpt>
      <trkpt lat="49.5174" lon="0.39092">
        <ele>110.099998474</ele>
        <time>2015-01-24T15:54:15Z</time>
      </trkpt>
      <trkpt lat="49.5174" lon="0.39094">
        <ele>110.099998474</ele>
        <time>2015-01-24T15:54:16Z</time>
      </trkpt>
      <trkpt lat="49.51743" lon="0.39106">
        <ele>110.199996948</ele>
        <time>2015-01-24T15:54:22Z</time>
      </trkpt>
      <trkpt lat="49.51743" lon="0.39108">
        <ele>110.400001526</ele>
        <time>2015-01-24T15:54:23Z</time>
      </trkpt>
      <trkpt lat="49.51745" lon="0.39119">
        <ele>110.699996948</ele>
        <time>2015-01-24T15:54:29Z</time>
      </trkpt>
      <trkpt lat="49.51746" lon="0.39121">
        <ele>110.599998474</ele>
        <time>2015-01-24T15:54:30Z</time>
      </trkpt>
      <trkpt lat="49.51748" lon="0.39134">
        <ele>110.599998474</ele>
        <time>2015-01-24T15:54:36Z</time>
      </trkpt>
      <trkpt lat="49.51748" lon="0.39136">
        <ele>110.5</ele>
        <time>2015-01-24T15:54:37Z</time>
      </trkpt>
      <trkpt lat="49.51751" lon="0.39147">
        <ele>110.5</ele>
        <time>2015-01-24T15:54:42Z</time>
      </trkpt>
      <trkpt lat="49.51751" lon="0.39149">
        <ele>110.599998474</ele>
        <time>2015-01-24T15:54:43Z</time>
      </trkpt>
      <trkpt lat="49.51752" lon="0.39162">
        <ele>110.099998474</ele>
        <time>2015-01-24T15:54:49Z</time>
      </trkpt>
      <trkpt lat="49.51753" lon="0.39164">
        <ele>110.099998474</ele>
        <time>2015-01-24T15:54:50Z</time>
      </trkpt>
      <trkpt lat="49.51756" lon="0.39176">
        <ele>110</ele>
        <time>2015-01-24T15:54:56Z</time>
      </trkpt>
      <trkpt lat="49.51757" lon="0.39178">
        <ele>110</ele>
        <time>2015-01-24T15:54:57Z</time>
      </trkpt>
      <trkpt lat="49.5176" lon="0.3919">
        <ele>110.199996948</ele>
        <time>2015-01-24T15:55:03Z</time>
      </trkpt>
      <trkpt lat="49.5176" lon="0.39192">
        <ele>110.300003052</ele>
        <time>2015-01-24T15:55:04Z</time>
      </trkpt>
      <trkpt lat="49.51764" lon="0.39205">
        <ele>110.300003052</ele>
        <time>2015-01-24T15:55:10Z</time>
      </trkpt>
      <trkpt lat="49.51764" lon="0.39207">
        <ele>110.5</ele>
        <time>2015-01-24T15:55:11Z</time>
      </trkpt>
      <trkpt lat="49.51765" lon="0.3922">
        <ele>110.199996948</ele>
        <time>2015-01-24T15:55:18Z</time>
      </trkpt>
      <trkpt lat="49.51766" lon="0.39222">
        <ele>110.300003052</ele>
        <time>2015-01-24T15:55:19Z</time>
      </trkpt>
      <trkpt lat="49.5177" lon="0.39233">
        <ele>110.5</ele>
        <time>2015-01-24T15:55:25Z</time>
      </trkpt>
      <trkpt lat="49.51771" lon="0.39235">
        <ele>110.599998474</ele>
        <time>2015-01-24T15:55:26Z</time>
      </trkpt>
      <trkpt lat="49.51776" lon="0.39247">
        <ele>110.199996948</ele>
        <time>2015-01-24T15:55:32Z</time>
      </trkpt>
      <trkpt lat="49.51776" lon="0.39248">
        <ele>110.099998474</ele>
        <time>2015-01-24T15:55:33Z</time>
      </trkpt>
      <trkpt lat="49.5178" lon="0.3926">
        <ele>109.900001526</ele>
        <time>2015-01-24T15:55:39Z</time>
      </trkpt>
      <trkpt lat="49.51781" lon="0.39261">
        <ele>109.900001526</ele>
        <time>2015-01-24T15:55:40Z</time>
      </trkpt>
      <trkpt lat="49.51787" lon="0.39271">
        <ele>109.900001526</ele>
        <time>2015-01-24T15:55:47Z</time>
      </trkpt>
      <trkpt lat="49.51787" lon="0.39272">
        <ele>109.800003052</ele>
        <time>2015-01-24T15:55:48Z</time>
      </trkpt>
      <trkpt lat="49.51792" lon="0.39281">
        <ele>109.699996948</ele>
        <time>2015-01-24T15:55:54Z</time>
      </trkpt>
      <trkpt lat="49.51793" lon="0.39283">
        <ele>109.699996948</ele>
        <time>2015-01-24T15:55:55Z</time>
      </trkpt>
      <trkpt lat="49.51799" lon="0.39292">
        <ele>109.699996948</ele>
        <time>2015-01-24T15:56:01Z</time>
      </trkpt>
      <trkpt lat="49.518" lon="0.39294">
        <ele>109.599998474</ele>
        <time>2015-01-24T15:56:02Z</time>
      </trkpt>
      <trkpt lat="49.51807" lon="0.39301">
        <ele>109.300003052</ele>
        <time>2015-01-24T15:56:08Z</time>
      </trkpt>
      <trkpt lat="49.51809" lon="0.39302">
        <ele>109.300003052</ele>
        <time>2015-01-24T15:56:09Z</time>
      </trkpt>
      <trkpt lat="49.51815" lon="0.3931">
        <ele>109.400001526</ele>
        <time>2015-01-24T15:56:15Z</time>
      </trkpt>
      <trkpt lat="49.51816" lon="0.39311">
        <ele>109.400001526</ele>
        <time>2015-01-24T15:56:16Z</time>
      </trkpt>
      <trkpt lat="49.51822" lon="0.39321">
        <ele>109.300003052</ele>
        <time>2015-01-24T15:56:23Z</time>
      </trkpt>
      <trkpt lat="49.51823" lon="0.39322">
        <ele>109.099998474</ele>
        <time>2015-01-24T15:56:24Z</time>
      </trkpt>
      <trkpt lat="49.51829" lon="0.39329">
        <ele>108.800003052</ele>
        <time>2015-01-24T15:56:30Z</time>
      </trkpt>
      <trkpt lat="49.5183" lon="0.3933">
        <ele>108.800003052</ele>
        <time>2015-01-24T15:56:31Z</time>
      </trkpt>
      <trkpt lat="49.51837" lon="0.39338">
        <ele>108.199996948</ele>
        <time>2015-01-24T15:56:37Z</time>
      </trkpt>
      <trkpt lat="49.51838" lon="0.39339">
        <ele>108.099998474</ele>
        <time>2015-01-24T15:56:38Z</time>
      </trkpt>
      <trkpt lat="49.51845" lon="0.39346">
        <ele>108.300003052</ele>
        <time>2015-01-24T15:56:44Z</time>
      </trkpt>
      <trkpt lat="49.51845" lon="0.39348">
        <ele>108.400001526</ele>
        <time>2015-01-24T15:56:45Z</time>
      </trkpt>
      <trkpt lat="49.51852" lon="0.39355">
        <ele>108.5</ele>
        <time>2015-01-24T15:56:52Z</time>
      </trkpt>
      <trkpt lat="49.51853" lon="0.39356">
        <ele>108.5</ele>
        <time>2015-01-24T15:56:53Z</time>
      </trkpt>
      <trkpt lat="49.5186" lon="0.39364">
        <ele>108.199996948</ele>
        <time>2015-01-24T15:56:59Z</time>
      </trkpt>
      <trkpt lat="49.51861" lon="0.39365">
        <ele>108.199996948</ele>
        <time>2015-01-24T15:57:00Z</time>
      </trkpt>
      <trkpt lat="49.51868" lon="0.39373">
        <ele>108.300003052</ele>
        <time>2015-01-24T15:57:06Z</time>
      </trkpt>
      <trkpt lat="49.51869" lon="0.39374">
        <ele>108.199996948</ele>
        <time>2015-01-24T15:57:07Z</time>
      </trkpt>
      <trkpt lat="49.51875" lon="0.39381">
        <ele>108.199996948</ele>
        <time>2015-01-24T15:57:13Z</time>
      </trkpt>
      <trkpt lat="49.51876" lon="0.39382">
        <ele>108.199996948</ele>
        <time>2015-01-24T15:57:14Z</time>
      </trkpt>
      <trkpt lat="49.51884" lon="0.3939">
        <ele>108.099998474</ele>
        <time>2015-01-24T15:57:21Z</time>
      </trkpt>
      <trkpt lat="49.51884" lon="0.39391">
        <ele>108</ele>
        <time>2015-01-24T15:57:22Z</time>
      </trkpt>
      <trkpt lat="49.51891" lon="0.39398">
        <ele>107.599998474</ele>
        <time>2015-01-24T15:57:28Z</time>
      </trkpt>
      <trkpt lat="49.51892" lon="0.39399">
        <ele>107.599998474</ele>
        <time>2015-01-24T15:57:29Z</time>
      </trkpt>
      <trkpt lat="49.51899" lon="0.39407">
        <ele>107.400001526</ele>
        <time>2015-01-24T15:57:35Z</time>
      </trkpt>
      <trkpt lat="49.519" lon="0.39409">
        <ele>107.300003052</ele>
        <time>2015-01-24T15:57:36Z</time>
      </trkpt>
      <trkpt lat="49.51906" lon="0.39416">
        <ele>107.800003052</ele>
        <time>2015-01-24T15:57:42Z</time>
      </trkpt>
      <trkpt lat="49.51908" lon="0.39417">
        <ele>107.900001526</ele>
        <time>2015-01-24T15:57:43Z</time>
      </trkpt>
      <trkpt lat="49.51915" lon="0.39424">
        <ele>107.900001526</ele>
        <time>2015-01-24T15:57:50Z</time>
      </trkpt>
      <trkpt lat="49.51916" lon="0.39426">
        <ele>108</ele>
        <time>2015-01-24T15:57:51Z</time>
      </trkpt>
      <trkpt lat="49.51923" lon="0.39434">
        <ele>107.599998474</ele>
        <time>2015-01-24T15:57:58Z</time>
      </trkpt>
      <trkpt lat="49.51924" lon="0.39436">
        <ele>107.599998474</ele>
        <time>2015-01-24T15:57:59Z</time>
      </trkpt>
      <trkpt lat="49.51931" lon="0.39442">
        <ele>107.599998474</ele>
        <time>2015-01-24T15:58:05Z</time>
      </trkpt>
      <trkpt lat="49.51932" lon="0.39443">
        <ele>107.5</ele>
        <time>2015-01-24T15:58:06Z</time>
      </trkpt>
      <trkpt lat="49.51939" lon="0.3945">
        <ele>107.900001526</ele>
        <time>2015-01-24T15:58:11Z</time>
      </trkpt>
      <trkpt lat="49.5194" lon="0.39451">
        <ele>107.800003052</ele>
        <time>2015-01-24T15:58:12Z</time>
      </trkpt>
      <trkpt lat="49.51946" lon="0.39459">
        <ele>107.400001526</ele>
        <time>2015-01-24T15:58:18Z</time>
      </trkpt>
      <trkpt lat="49.51948" lon="0.3946">
        <ele>107.599998474</ele>
        <time>2015-01-24T15:58:19Z</time>
      </trkpt>
      <trkpt lat="49.51956" lon="0.39466">
        <ele>107.900001526</ele>
        <time>2015-01-24T15:58:25Z</time>
      </trkpt>
      <trkpt lat="49.51957" lon="0.39467">
        <ele>107.800003052</ele>
        <time>2015-01-24T15:58:26Z</time>
      </trkpt>
      <trkpt lat="49.51963" lon="0.39474">
        <ele>108.400001526</ele>
        <time>2015-01-24T15:58:32Z</time>
      </trkpt>
      <trkpt lat="49.51964" lon="0.39475">
        <ele>108.400001526</ele>
        <time>2015-01-24T15:58:33Z</time>
      </trkpt>
      <trkpt lat="49.51971" lon="0.39483">
        <ele>109</ele>
        <time>2015-01-24T15:58:39Z</time>
      </trkpt>
      <trkpt lat="49.51972" lon="0.39484">
        <ele>109.099998474</ele>
        <time>2015-01-24T15:58:40Z</time>
      </trkpt>
      <trkpt lat="49.51978" lon="0.39493">
        <ele>109.400001526</ele>
        <time>2015-01-24T15:58:46Z</time>
      </trkpt>
      <trkpt lat="49.5198" lon="0.39494">
        <ele>109.5</ele>
        <time>2015-01-24T15:58:47Z</time>
      </trkpt>
      <trkpt lat="49.51986" lon="0.395">
        <ele>109.699996948</ele>
        <time>2015-01-24T15:58:52Z</time>
      </trkpt>
      <trkpt lat="49.51987" lon="0.39502">
        <ele>109.699996948</ele>
        <time>2015-01-24T15:58:53Z</time>
      </trkpt>
      <trkpt lat="49.51994" lon="0.3951">
        <ele>109.5</ele>
        <time>2015-01-24T15:59:00Z</time>
      </trkpt>
      <trkpt lat="49.51995" lon="0.39511">
        <ele>109.5</ele>
        <time>2015-01-24T15:59:01Z</time>
      </trkpt>
      <trkpt lat="49.52002" lon="0.39518">
        <ele>109.699996948</ele>
        <time>2015-01-24T15:59:07Z</time>
      </trkpt>
      <trkpt lat="49.52003" lon="0.39519">
        <ele>109.900001526</ele>
        <time>2015-01-24T15:59:08Z</time>
      </trkpt>
      <trkpt lat="49.5201" lon="0.39526">
        <ele>109.800003052</ele>
        <time>2015-01-24T15:59:14Z</time>
      </trkpt>
      <trkpt lat="49.5201" lon="0.39528">
        <ele>109.699996948</ele>
        <time>2015-01-24T15:59:15Z</time>
      </trkpt>
      <trkpt lat="49.52018" lon="0.39535">
        <ele>109.900001526</ele>
        <time>2015-01-24T15:59:21Z</time>
      </trkpt>
      <trkpt lat="49.52019" lon="0.39536">
        <ele>109.800003052</ele>
        <time>2015-01-24T15:59:22Z</time>
      </trkpt>
      <trkpt lat="49.52025" lon="0.39544">
        <ele>109.599998474</ele>
        <time>2015-01-24T15:59:28Z</time>
      </trkpt>
      <trkpt lat="49.52026" lon="0.39546">
        <ele>109.699996948</ele>
        <time>2015-01-24T15:59:29Z</time>
      </trkpt>
      <trkpt lat="49.52032" lon="0.39553">
        <ele>109.900001526</ele>
        <time>2015-01-24T15:59:34Z</time>
      </trkpt>
      <trkpt lat="49.52034" lon="0.39554">
        <ele>110</ele>
        <time>2015-01-24T15:59:35Z</time>
      </trkpt>
      <trkpt lat="49.5204" lon="0.39561">
        <ele>110</ele>
        <time>2015-01-24T15:59:41Z</time>
      </trkpt>
      <trkpt lat="49.52042" lon="0.39562">
        <ele>110</ele>
        <time>2015-01-24T15:59:42Z</time>
      </trkpt>
      <trkpt lat="49.52048" lon="0.39567">
        <ele>110.300003052</ele>
        <time>2015-01-24T15:59:47Z</time>
      </trkpt>
      <trkpt lat="49.5205" lon="0.39568">
        <ele>110.300003052</ele>
        <time>2015-01-24T15:59:48Z</time>
      </trkpt>
      <trkpt lat="49.52057" lon="0.39574">
        <ele>110.300003052</ele>
        <time>2015-01-24T15:59:53Z</time>
      </trkpt>
      <trkpt lat="49.52058" lon="0.39576">
        <ele>110.400001526</ele>
        <time>2015-01-24T15:59:54Z</time>
      </trkpt>
      <trkpt lat="49.52066" lon="0.39582">
        <ele>110.400001526</ele>
        <time>2015-01-24T16:00:00Z</time>
      </trkpt>
      <trkpt lat="49.52068" lon="0.39583">
        <ele>110.5</ele>
        <time>2015-01-24T16:00:01Z</time>
      </trkpt>
      <trkpt lat="49.52075" lon="0.39589">
        <ele>110.599998474</ele>
        <time>2015-01-24T16:00:06Z</time>
      </trkpt>
      <trkpt lat="49.52077" lon="0.3959">
        <ele>110.699996948</ele>
        <time>2015-01-24T16:00:07Z</time>
      </trkpt>
      <trkpt lat="49.52083" lon="0.39596">
        <ele>111.099998474</ele>
        <time>2015-01-24T16:00:12Z</time>
      </trkpt>
      <trkpt lat="49.52084" lon="0.39597">
        <ele>111.199996948</ele>
        <time>2015-01-24T16:00:13Z</time>
      </trkpt>
      <trkpt lat="49.52092" lon="0.39603">
        <ele>111</ele>
        <time>2015-01-24T16:00:18Z</time>
      </trkpt>
      <trkpt lat="49.52093" lon="0.39605">
        <ele>111</ele>
        <time>2015-01-24T16:00:19Z</time>
      </trkpt>
      <trkpt lat="49.521" lon="0.39609">
        <ele>111</ele>
        <time>2015-01-24T16:00:24Z</time>
      </trkpt>
      <trkpt lat="49.52102" lon="0.39611">
        <ele>111</ele>
        <time>2015-01-24T16:00:25Z</time>
      </trkpt>
      <trkpt lat="49.52108" lon="0.39616">
        <ele>110.800003052</ele>
        <time>2015-01-24T16:00:30Z</time>
      </trkpt>
      <trkpt lat="49.5211" lon="0.39618">
        <ele>110.800003052</ele>
        <time>2015-01-24T16:00:31Z</time>
      </trkpt>
      <trkpt lat="49.52117" lon="0.39623">
        <ele>110.800003052</ele>
        <time>2015-01-24T16:00:36Z</time>
      </trkpt>
      <trkpt lat="49.52119" lon="0.39624">
        <ele>110.900001526</ele>
        <time>2015-01-24T16:00:37Z</time>
      </trkpt>
      <trkpt lat="49.52126" lon="0.3963">
        <ele>111</ele>
        <time>2015-01-24T16:00:42Z</time>
      </trkpt>
      <trkpt lat="49.52127" lon="0.39631">
        <ele>111</ele>
        <time>2015-01-24T16:00:43Z</time>
      </trkpt>
      <trkpt lat="49.52135" lon="0.39637">
        <ele>110.699996948</ele>
        <time>2015-01-24T16:00:48Z</time>
      </trkpt>
      <trkpt lat="49.52137" lon="0.39638">
        <ele>110.800003052</ele>
        <time>2015-01-24T16:00:49Z</time>
      </trkpt>
      <trkpt lat="49.52144" lon="0.39643">
        <ele>111.300003052</ele>
        <time>2015-01-24T16:00:54Z</time>
      </trkpt>
      <trkpt lat="49.52145" lon="0.39644">
        <ele>111.300003052</ele>
        <time>2015-01-24T16:00:55Z</time>
      </trkpt>
      <trkpt lat="49.52152" lon="0.39649">
        <ele>111.300003052</ele>
        <time>2015-01-24T16:01:00Z</time>
      </trkpt>
      <trkpt lat="49.52153" lon="0.39651">
        <ele>111.300003052</ele>
        <time>2015-01-24T16:01:01Z</time>
      </trkpt>
      <trkpt lat="49.52161" lon="0.39655">
        <ele>111.099998474</ele>
        <time>2015-01-24T16:01:06Z</time>
      </trkpt>
      <trkpt lat="49.52162" lon="0.39656">
        <ele>111.199996948</ele>
        <time>2015-01-24T16:01:07Z</time>
      </trkpt>
      <trkpt lat="49.5217" lon="0.3966">
        <ele>111.5</ele>
        <time>2015-01-24T16:01:11Z</time>
      </trkpt>
      <trkpt lat="49.52171" lon="0.39661">
        <ele>111.5</ele>
        <time>2015-01-24T16:01:12Z</time>
      </trkpt>
      <trkpt lat="49.52178" lon="0.39664">
        <ele>111.599998474</ele>
        <time>2015-01-24T16:01:16Z</time>
      </trkpt>
      <trkpt lat="49.5218" lon="0.39665">
        <ele>111.699996948</ele>
        <time>2015-01-24T16:01:17Z</time>
      </trkpt>
      <trkpt lat="49.52187" lon="0.39669">
        <ele>111.900001526</ele>
        <time>2015-01-24T16:01:22Z</time>
      </trkpt>
      <trkpt lat="49.52189" lon="0.3967">
        <ele>111.900001526</ele>
        <time>2015-01-24T16:01:23Z</time>
      </trkpt>
      <trkpt lat="49.52196" lon="0.39674">
        <ele>112.199996948</ele>
        <time>2015-01-24T16:01:28Z</time>
      </trkpt>
      <trkpt lat="49.52197" lon="0.39675">
        <ele>112.199996948</ele>
        <time>2015-01-24T16:01:29Z</time>
      </trkpt>
      <trkpt lat="49.52205" lon="0.39679">
        <ele>112.099998474</ele>
        <time>2015-01-24T16:01:35Z</time>
      </trkpt>
      <trkpt lat="49.52207" lon="0.39679">
        <ele>112.199996948</ele>
        <time>2015-01-24T16:01:36Z</time>
      </trkpt>
      <trkpt lat="49.52215" lon="0.39684">
        <ele>112.699996948</ele>
        <time>2015-01-24T16:01:41Z</time>
      </trkpt>
      <trkpt lat="49.52216" lon="0.39684">
        <ele>112.599998474</ele>
        <time>2015-01-24T16:01:42Z</time>
      </trkpt>
      <trkpt lat="49.52224" lon="0.39688">
        <ele>112.599998474</ele>
        <time>2015-01-24T16:01:47Z</time>
      </trkpt>
      <trkpt lat="49.52226" lon="0.39689">
        <ele>112.5</ele>
        <time>2015-01-24T16:01:48Z</time>
      </trkpt>
      <trkpt lat="49.52233" lon="0.39692">
        <ele>112.800003052</ele>
        <time>2015-01-24T16:01:52Z</time>
      </trkpt>
      <trkpt lat="49.52235" lon="0.39692">
        <ele>112.900001526</ele>
        <time>2015-01-24T16:01:53Z</time>
      </trkpt>
      <trkpt lat="49.52243" lon="0.39696">
        <ele>112.599998474</ele>
        <time>2015-01-24T16:01:58Z</time>
      </trkpt>
      <trkpt lat="49.52245" lon="0.39696">
        <ele>112.599998474</ele>
        <time>2015-01-24T16:01:59Z</time>
      </trkpt>
      <trkpt lat="49.52252" lon="0.39698">
        <ele>112.300003052</ele>
        <time>2015-01-24T16:02:04Z</time>
      </trkpt>
      <trkpt lat="49.52254" lon="0.39699">
        <ele>112.5</ele>
        <time>2015-01-24T16:02:05Z</time>
      </trkpt>
      <trkpt lat="49.52261" lon="0.397">
        <ele>112.800003052</ele>
        <time>2015-01-24T16:02:09Z</time>
      </trkpt>
      <trkpt lat="49.52263" lon="0.39701">
        <ele>113.099998474</ele>
        <time>2015-01-24T16:02:10Z</time>
      </trkpt>
      <trkpt lat="49.52271" lon="0.39703">
        <ele>113.699996948</ele>
        <time>2015-01-24T16:02:15Z</time>
      </trkpt>
      <trkpt lat="49.52273" lon="0.39704">
        <ele>113.599998474</ele>
        <time>2015-01-24T16:02:16Z</time>
      </trkpt>
      <trkpt lat="49.52282" lon="0.39706">
        <ele>114.400001526</ele>
        <time>2015-01-24T16:02:21Z</time>
      </trkpt>
      <trkpt lat="49.52283" lon="0.39707">
        <ele>114.5</ele>
        <time>2015-01-24T16:02:22Z</time>
      </trkpt>
      <trkpt lat="49.52292" lon="0.3971">
        <ele>115.199996948</ele>
        <time>2015-01-24T16:02:27Z</time>
      </trkpt>
      <trkpt lat="49.52294" lon="0.3971">
        <ele>115.400001526</ele>
        <time>2015-01-24T16:02:28Z</time>
      </trkpt>
      <trkpt lat="49.52302" lon="0.39713">
        <ele>114.599998474</ele>
        <time>2015-01-24T16:02:33Z</time>
      </trkpt>
      <trkpt lat="49.52304" lon="0.39714">
        <ele>114.599998474</ele>
        <time>2015-01-24T16:02:34Z</time>
      </trkpt>
      <trkpt lat="49.52312" lon="0.39716">
        <ele>114.199996948</ele>
        <time>2015-01-24T16:02:39Z</time>
      </trkpt>
      <trkpt lat="49.52313" lon="0.39716">
        <ele>114.099998474</ele>
        <time>2015-01-24T16:02:40Z</time>
      </trkpt>
      <trkpt lat="49.52321" lon="0.39719">
        <ele>113.400001526</ele>
        <time>2015-01-24T16:02:45Z</time>
      </trkpt>
      <trkpt lat="49.52323" lon="0.39719">
        <ele>113.199996948</ele>
        <time>2015-01-24T16:02:46Z</time>
      </trkpt>
      <trkpt lat="49.5233" lon="0.39722">
        <ele>112.900001526</ele>
        <time>2015-01-24T16:02:51Z</time>
      </trkpt>
      <trkpt lat="49.52332" lon="0.39722">
        <ele>112.800003052</ele>
        <time>2015-01-24T16:02:52Z</time>
      </trkpt>
      <trkpt lat="49.5234" lon="0.39724">
        <ele>111.699996948</ele>
        <time>2015-01-24T16:02:58Z</time>
      </trkpt>
      <trkpt lat="49.52341" lon="0.39724">
        <ele>111.599998474</ele>
        <time>2015-01-24T16:02:59Z</time>
      </trkpt>
      <trkpt lat="49.5235" lon="0.39728">
        <ele>111.300003052</ele>
        <time>2015-01-24T16:03:06Z</time>
      </trkpt>
      <trkpt lat="49.52351" lon="0.39728">
        <ele>111</ele>
        <time>2015-01-24T16:03:07Z</time>
      </trkpt>
      <trkpt lat="49.52359" lon="0.39731">
        <ele>110.300003052</ele>
        <time>2015-01-24T16:03:12Z</time>
      </trkpt>
      <trkpt lat="49.5236" lon="0.39732">
        <ele>110.300003052</ele>
        <time>2015-01-24T16:03:13Z</time>
      </trkpt>
      <trkpt lat="49.52368" lon="0.39737">
        <ele>109.699996948</ele>
        <time>2015-01-24T16:03:18Z</time>
      </trkpt>
      <trkpt lat="49.5237" lon="0.39738">
        <ele>109.599998474</ele>
        <time>2015-01-24T16:03:19Z</time>
      </trkpt>
      <trkpt lat="49.52377" lon="0.39743">
        <ele>108.699996948</ele>
        <time>2015-01-24T16:03:24Z</time>
      </trkpt>
      <trkpt lat="49.52378" lon="0.39744">
        <ele>108.599998474</ele>
        <time>2015-01-24T16:03:25Z</time>
      </trkpt>
      <trkpt lat="49.52386" lon="0.39749">
        <ele>108</ele>
        <time>2015-01-24T16:03:30Z</time>
      </trkpt>
      <trkpt lat="49.52388" lon="0.3975">
        <ele>107.900001526</ele>
        <time>2015-01-24T16:03:31Z</time>
      </trkpt>
      <trkpt lat="49.52395" lon="0.39754">
        <ele>107.699996948</ele>
        <time>2015-01-24T16:03:36Z</time>
      </trkpt>
      <trkpt lat="49.52396" lon="0.39755">
        <ele>107.699996948</ele>
        <time>2015-01-24T16:03:37Z</time>
      </trkpt>
      <trkpt lat="49.52404" lon="0.3976">
        <ele>107.199996948</ele>
        <time>2015-01-24T16:03:42Z</time>
      </trkpt>
      <trkpt lat="49.52405" lon="0.39762">
        <ele>107.099998474</ele>
        <time>2015-01-24T16:03:43Z</time>
      </trkpt>
      <trkpt lat="49.52413" lon="0.39767">
        <ele>106.599998474</ele>
        <time>2015-01-24T16:03:48Z</time>
      </trkpt>
      <trkpt lat="49.52415" lon="0.39769">
        <ele>106.400001526</ele>
        <time>2015-01-24T16:03:49Z</time>
      </trkpt>
      <trkpt lat="49.52422" lon="0.39776">
        <ele>106.5</ele>
        <time>2015-01-24T16:03:54Z</time>
      </trkpt>
      <trkpt lat="49.52423" lon="0.39777">
        <ele>106.5</ele>
        <time>2015-01-24T16:03:55Z</time>
      </trkpt>
      <trkpt lat="49.52431" lon="0.39784">
        <ele>106.300003052</ele>
        <time>2015-01-24T16:04:01Z</time>
      </trkpt>
      <trkpt lat="49.52432" lon="0.39785">
        <ele>106.300003052</ele>
        <time>2015-01-24T16:04:02Z</time>
      </trkpt>
      <trkpt lat="49.52439" lon="0.39792">
        <ele>106.099998474</ele>
        <time>2015-01-24T16:04:08Z</time>
      </trkpt>
      <trkpt lat="49.52441" lon="0.39794">
        <ele>106.199996948</ele>
        <time>2015-01-24T16:04:09Z</time>
      </trkpt>
      <trkpt lat="49.52448" lon="0.39798">
        <ele>106.199996948</ele>
        <time>2015-01-24T16:04:13Z</time>
      </trkpt>
      <trkpt lat="49.52449" lon="0.39799">
        <ele>106.199996948</ele>
        <time>2015-01-24T16:04:14Z</time>
      </trkpt>
      <trkpt lat="49.52456" lon="0.39805">
        <ele>106.400001526</ele>
        <time>2015-01-24T16:04:19Z</time>
      </trkpt>
      <trkpt lat="49.52458" lon="0.39806">
        <ele>106.5</ele>
        <time>2015-01-24T16:04:20Z</time>
      </trkpt>
      <trkpt lat="49.52465" lon="0.39813">
        <ele>107.099998474</ele>
        <time>2015-01-24T16:04:25Z</time>
      </trkpt>
      <trkpt lat="49.52466" lon="0.39814">
        <ele>107.199996948</ele>
        <time>2015-01-24T16:04:26Z</time>
      </trkpt>
      <trkpt lat="49.52473" lon="0.3982">
        <ele>107.400001526</ele>
        <time>2015-01-24T16:04:31Z</time>
      </trkpt>
      <trkpt lat="49.52475" lon="0.39821">
        <ele>107.5</ele>
        <time>2015-01-24T16:04:32Z</time>
      </trkpt>
      <trkpt lat="49.52482" lon="0.39829">
        <ele>107.199996948</ele>
        <time>2015-01-24T16:04:38Z</time>
      </trkpt>
      <trkpt lat="49.52484" lon="0.3983">
        <ele>107.199996948</ele>
        <time>2015-01-24T16:04:39Z</time>
      </trkpt>
      <trkpt lat="49.52491" lon="0.39835">
        <ele>107.300003052</ele>
        <time>2015-01-24T16:04:43Z</time>
      </trkpt>
      <trkpt lat="49.52492" lon="0.39836">
        <ele>107.199996948</ele>
        <time>2015-01-24T16:04:44Z</time>
      </trkpt>
      <trkpt lat="49.52499" lon="0.39844">
        <ele>107</ele>
        <time>2015-01-24T16:04:50Z</time>
      </trkpt>
      <trkpt lat="49.525" lon="0.39845">
        <ele>107.099998474</ele>
        <time>2015-01-24T16:04:51Z</time>
      </trkpt>
      <trkpt lat="49.52508" lon="0.39853">
        <ele>107</ele>
        <time>2015-01-24T16:04:57Z</time>
      </trkpt>
      <trkpt lat="49.52509" lon="0.39855">
        <ele>106.900001526</ele>
        <time>2015-01-24T16:04:58Z</time>
      </trkpt>
      <trkpt lat="49.52516" lon="0.39861">
        <ele>106.900001526</ele>
        <time>2015-01-24T16:05:03Z</time>
      </trkpt>
      <trkpt lat="49.52517" lon="0.39863">
        <ele>107</ele>
        <time>2015-01-24T16:05:04Z</time>
      </trkpt>
      <trkpt lat="49.52522" lon="0.39872">
        <ele>107.300003052</ele>
        <time>2015-01-24T16:05:11Z</time>
      </trkpt>
      <trkpt lat="49.52523" lon="0.39873">
        <ele>107.300003052</ele>
        <time>2015-01-24T16:05:12Z</time>
      </trkpt>
      <trkpt lat="49.52528" lon="0.39881">
        <ele>107.699996948</ele>
        <time>2015-01-24T16:05:17Z</time>
      </trkpt>
      <trkpt lat="49.5253" lon="0.39883">
        <ele>107.699996948</ele>
        <time>2015-01-24T16:05:18Z</time>
      </trkpt>
      <trkpt lat="49.52536" lon="0.3989">
        <ele>107.900001526</ele>
        <time>2015-01-24T16:05:22Z</time>
      </trkpt>
      <trkpt lat="49.52537" lon="0.39892">
        <ele>108</ele>
        <time>2015-01-24T16:05:23Z</time>
      </trkpt>
      <trkpt lat="49.52543" lon="0.39899">
        <ele>108.099998474</ele>
        <time>2015-01-24T16:05:27Z</time>
      </trkpt>
      <trkpt lat="49.52545" lon="0.399">
        <ele>108</ele>
        <time>2015-01-24T16:05:28Z</time>
      </trkpt>
      <trkpt lat="49.52551" lon="0.39908">
        <ele>107.800003052</ele>
        <time>2015-01-24T16:05:33Z</time>
      </trkpt>
      <trkpt lat="49.52552" lon="0.3991">
        <ele>107.800003052</ele>
        <time>2015-01-24T16:05:34Z</time>
      </trkpt>
      <trkpt lat="49.52557" lon="0.39917">
        <ele>107.900001526</ele>
        <time>2015-01-24T16:05:38Z</time>
      </trkpt>
      <trkpt lat="49.52559" lon="0.39919">
        <ele>107.900001526</ele>
        <time>2015-01-24T16:05:39Z</time>
      </trkpt>
      <trkpt lat="49.52564" lon="0.39927">
        <ele>108.199996948</ele>
        <time>2015-01-24T16:05:43Z</time>
      </trkpt>
      <trkpt lat="49.52566" lon="0.39929">
        <ele>108.199996948</ele>
        <time>2015-01-24T16:05:44Z</time>
      </trkpt>
      <trkpt lat="49.52573" lon="0.39937">
        <ele>109</ele>
        <time>2015-01-24T16:05:48Z</time>
      </trkpt>
      <trkpt lat="49.52574" lon="0.39939">
        <ele>109.099998474</ele>
        <time>2015-01-24T16:05:49Z</time>
      </trkpt>
      <trkpt lat="49.5258" lon="0.39949">
        <ele>109.400001526</ele>
        <time>2015-01-24T16:05:54Z</time>
      </trkpt>
      <trkpt lat="49.52581" lon="0.39951">
        <ele>109.599998474</ele>
        <time>2015-01-24T16:05:55Z</time>
      </trkpt>
      <trkpt lat="49.52586" lon="0.39961">
        <ele>110.099998474</ele>
        <time>2015-01-24T16:06:00Z</time>
      </trkpt>
      <trkpt lat="49.52587" lon="0.39963">
        <ele>110.199996948</ele>
        <time>2015-01-24T16:06:01Z</time>
      </trkpt>
      <trkpt lat="49.52593" lon="0.39972">
        <ele>110</ele>
        <time>2015-01-24T16:06:06Z</time>
      </trkpt>
      <trkpt lat="49.52594" lon="0.39974">
        <ele>110.099998474</ele>
        <time>2015-01-24T16:06:07Z</time>
      </trkpt>
      <trkpt lat="49.52598" lon="0.39985">
        <ele>110.199996948</ele>
        <time>2015-01-24T16:06:12Z</time>
      </trkpt>
      <trkpt lat="49.52599" lon="0.39987">
        <ele>110.199996948</ele>
        <time>2015-01-24T16:06:13Z</time>
      </trkpt>
      <trkpt lat="49.52604" lon="0.39996">
        <ele>110.5</ele>
        <time>2015-01-24T16:06:17Z</time>
      </trkpt>
      <trkpt lat="49.52605" lon="0.39999">
        <ele>110.5</ele>
        <time>2015-01-24T16:06:18Z</time>
      </trkpt>
      <trkpt lat="49.52607" lon="0.40011">
        <ele>110.099998474</ele>
        <time>2015-01-24T16:06:23Z</time>
      </trkpt>
      <trkpt lat="49.52608" lon="0.40013">
        <ele>110.099998474</ele>
        <time>2015-01-24T16:06:24Z</time>
      </trkpt>
      <trkpt lat="49.52611" lon="0.40024">
        <ele>110</ele>
        <time>2015-01-24T16:06:29Z</time>
      </trkpt>
      <trkpt lat="49.52612" lon="0.40026">
        <ele>109.900001526</ele>
        <time>2015-01-24T16:06:30Z</time>
      </trkpt>
      <trkpt lat="49.52614" lon="0.4004">
        <ele>109.5</ele>
        <time>2015-01-24T16:06:35Z</time>
      </trkpt>
      <trkpt lat="49.52615" lon="0.40042">
        <ele>109.5</ele>
        <time>2015-01-24T16:06:36Z</time>
      </trkpt>
      <trkpt lat="49.52615" lon="0.40054">
        <ele>109.199996948</ele>
        <time>2015-01-24T16:06:41Z</time>
      </trkpt>
      <trkpt lat="49.52616" lon="0.40057">
        <ele>109</ele>
        <time>2015-01-24T16:06:42Z</time>
      </trkpt>
      <trkpt lat="49.52619" lon="0.40067">
        <ele>108.900001526</ele>
        <time>2015-01-24T16:06:46Z</time>
      </trkpt>
      <trkpt lat="49.5262" lon="0.40069">
        <ele>108.900001526</ele>
        <time>2015-01-24T16:06:47Z</time>
      </trkpt>
      <trkpt lat="49.52624" lon="0.40082">
        <ele>108.900001526</ele>
        <time>2015-01-24T16:06:52Z</time>
      </trkpt>
      <trkpt lat="49.52625" lon="0.40084">
        <ele>108.900001526</ele>
        <time>2015-01-24T16:06:53Z</time>
      </trkpt>
      <trkpt lat="49.52628" lon="0.40096">
        <ele>108.800003052</ele>
        <time>2015-01-24T16:06:58Z</time>
      </trkpt>
      <trkpt lat="49.52629" lon="0.40099">
        <ele>108.800003052</ele>
        <time>2015-01-24T16:06:59Z</time>
      </trkpt>
      <trkpt lat="49.52633" lon="0.40109">
        <ele>109.599998474</ele>
        <time>2015-01-24T16:07:03Z</time>
      </trkpt>
      <trkpt lat="49.52633" lon="0.40111">
        <ele>109.5</ele>
        <time>2015-01-24T16:07:04Z</time>
      </trkpt>
      <trkpt lat="49.52636" lon="0.40123">
        <ele>109.5</ele>
        <time>2015-01-24T16:07:09Z</time>
      </trkpt>
      <trkpt lat="49.52635" lon="0.40126">
        <ele>109.5</ele>
        <time>2015-01-24T16:07:10Z</time>
      </trkpt>
      <trkpt lat="49.52636" lon="0.40138">
        <ele>109.199996948</ele>
        <time>2015-01-24T16:07:14Z</time>
      </trkpt>
      <trkpt lat="49.52637" lon="0.4014">
        <ele>109.099998474</ele>
        <time>2015-01-24T16:07:15Z</time>
      </trkpt>
      <trkpt lat="49.52643" lon="0.40151">
        <ele>109.699996948</ele>
        <time>2015-01-24T16:07:19Z</time>
      </trkpt>
      <trkpt lat="49.52644" lon="0.40153">
        <ele>109.900001526</ele>
        <time>2015-01-24T16:07:20Z</time>
      </trkpt>
      <trkpt lat="49.52648" lon="0.40164">
        <ele>110.199996948</ele>
        <time>2015-01-24T16:07:25Z</time>
      </trkpt>
      <trkpt lat="49.52649" lon="0.40166">
        <ele>110.199996948</ele>
        <time>2015-01-24T16:07:25Z</time>
      </trkpt>
      <trkpt lat="49.52652" lon="0.40178">
        <ele>110.199996948</ele>
        <time>2015-01-24T16:07:30Z</time>
      </trkpt>
      <trkpt lat="49.52652" lon="0.4018">
        <ele>110.199996948</ele>
        <time>2015-01-24T16:07:31Z</time>
      </trkpt>
      <trkpt lat="49.52655" lon="0.40193">
        <ele>110</ele>
        <time>2015-01-24T16:07:36Z</time>
      </trkpt>
      <trkpt lat="49.52656" lon="0.40195">
        <ele>109.900001526</ele>
        <time>2015-01-24T16:07:37Z</time>
      </trkpt>
      <trkpt lat="49.52659" lon="0.40207">
        <ele>109.5</ele>
        <time>2015-01-24T16:07:42Z</time>
      </trkpt>
      <trkpt lat="49.5266" lon="0.4021">
        <ele>109.400001526</ele>
        <time>2015-01-24T16:07:43Z</time>
      </trkpt>
      <trkpt lat="49.52662" lon="0.40222">
        <ele>109.199996948</ele>
        <time>2015-01-24T16:07:48Z</time>
      </trkpt>
      <trkpt lat="49.52662" lon="0.40225">
        <ele>109.199996948</ele>
        <time>2015-01-24T16:07:49Z</time>
      </trkpt>
      <trkpt lat="49.52666" lon="0.40236">
        <ele>108.599998474</ele>
        <time>2015-01-24T16:07:54Z</time>
      </trkpt>
      <trkpt lat="49.52667" lon="0.40237">
        <ele>108.599998474</ele>
        <time>2015-01-24T16:07:55Z</time>
      </trkpt>
      <trkpt lat="49.52673" lon="0.40242">
        <ele>109</ele>
        <time>2015-01-24T16:08:00Z</time>
      </trkpt>
      <trkpt lat="49.52675" lon="0.40242">
        <ele>109</ele>
        <time>2015-01-24T16:08:00Z</time>
      </trkpt>
      <trkpt lat="49.52683" lon="0.4024">
        <ele>109.300003052</ele>
        <time>2015-01-24T16:08:05Z</time>
      </trkpt>
      <trkpt lat="49.52684" lon="0.4024">
        <ele>109.400001526</ele>
        <time>2015-01-24T16:08:06Z</time>
      </trkpt>
      <trkpt lat="49.52693" lon="0.40236">
        <ele>111.800003052</ele>
        <time>2015-01-24T16:08:12Z</time>
      </trkpt>
      <trkpt lat="49.52694" lon="0.40234">
        <ele>112.199996948</ele>
        <time>2015-01-24T16:08:13Z</time>
      </trkpt>
      <trkpt lat="49.52701" lon="0.40233">
        <ele>112.900001526</ele>
        <time>2015-01-24T16:08:17Z</time>
      </trkpt>
      <trkpt lat="49.52703" lon="0.40232">
        <ele>113.400001526</ele>
        <time>2015-01-24T16:08:18Z</time>
      </trkpt>
      <trkpt lat="49.5271" lon="0.4023">
        <ele>113.900001526</ele>
        <time>2015-01-24T16:08:22Z</time>
      </trkpt>
      <trkpt lat="49.52712" lon="0.40229">
        <ele>114</ele>
        <time>2015-01-24T16:08:23Z</time>
      </trkpt>
      <trkpt lat="49.5272" lon="0.40225">
        <ele>115.699996948</ele>
        <time>2015-01-24T16:08:28Z</time>
      </trkpt>
      <trkpt lat="49.52721" lon="0.40224">
        <ele>115.900001526</ele>
        <time>2015-01-24T16:08:29Z</time>
      </trkpt>
      <trkpt lat="49.52728" lon="0.40219">
        <ele>117.400001526</ele>
        <time>2015-01-24T16:08:34Z</time>
      </trkpt>
      <trkpt lat="49.52729" lon="0.40219">
        <ele>117.699996948</ele>
        <time>2015-01-24T16:08:35Z</time>
      </trkpt>
      <trkpt lat="49.52737" lon="0.40219">
        <ele>119</ele>
        <time>2015-01-24T16:08:42Z</time>
      </trkpt>
      <trkpt lat="49.52739" lon="0.40223">
        <ele>119.099998474</ele>
        <time>2015-01-24T16:08:43Z</time>
      </trkpt>
      <trkpt lat="49.52745" lon="0.40231">
        <ele>119.099998474</ele>
        <time>2015-01-24T16:08:46Z</time>
      </trkpt>
      <trkpt lat="49.52747" lon="0.40233">
        <ele>118.900001526</ele>
        <time>2015-01-24T16:08:47Z</time>
      </trkpt>
      <trkpt lat="49.52752" lon="0.40243">
        <ele>118.199996948</ele>
        <time>2015-01-24T16:08:53Z</time>
      </trkpt>
      <trkpt lat="49.52752" lon="0.40245">
        <ele>118.099998474</ele>
        <time>2015-01-24T16:08:54Z</time>
      </trkpt>
      <trkpt lat="49.52757" lon="0.40257">
        <ele>119.400001526</ele>
        <time>2015-01-24T16:09:01Z</time>
      </trkpt>
      <trkpt lat="49.52757" lon="0.40257">
        <ele>119.599998474</ele>
        <time>2015-01-24T16:09:02Z</time>
      </trkpt>
      <trkpt lat="49.52757" lon="0.4027">
        <ele>120.099998474</ele>
        <time>2015-01-24T16:11:00Z</time>
      </trkpt>
      <trkpt lat="49.52757" lon="0.40271">
        <ele>120.099998474</ele>
        <time>2015-01-24T16:11:01Z</time>
      </trkpt>
      <trkpt lat="49.52758" lon="0.40284">
        <ele>120</ele>
        <time>2015-01-24T16:11:13Z</time>
      </trkpt>
      <trkpt lat="49.52757" lon="0.40287">
        <ele>120</ele>
        <time>2015-01-24T16:11:14Z</time>
      </trkpt>
      <trkpt lat="49.52763" lon="0.40296">
        <ele>119.900001526</ele>
        <time>2015-01-24T16:11:24Z</time>
      </trkpt>
      <trkpt lat="49.52765" lon="0.40296">
        <ele>120</ele>
        <time>2015-01-24T16:11:25Z</time>
      </trkpt>
      <trkpt lat="49.52773" lon="0.40291">
        <ele>120.400001526</ele>
        <time>2015-01-24T16:11:33Z</time>
      </trkpt>
      <trkpt lat="49.52774" lon="0.4029">
        <ele>120.400001526</ele>
        <time>2015-01-24T16:11:34Z</time>
      </trkpt>
      <trkpt lat="49.52782" lon="0.40284">
        <ele>120.599998474</ele>
        <time>2015-01-24T16:11:40Z</time>
      </trkpt>
      <trkpt lat="49.52784" lon="0.40283">
        <ele>120.599998474</ele>
        <time>2015-01-24T16:11:41Z</time>
      </trkpt>
      <trkpt lat="49.5279" lon="0.40277">
        <ele>120.599998474</ele>
        <time>2015-01-24T16:11:46Z</time>
      </trkpt>
      <trkpt lat="49.52792" lon="0.40276">
        <ele>120.599998474</ele>
        <time>2015-01-24T16:11:47Z</time>
      </trkpt>
      <trkpt lat="49.52799" lon="0.40272">
        <ele>120.400001526</ele>
        <time>2015-01-24T16:11:52Z</time>
      </trkpt>
      <trkpt lat="49.528" lon="0.40271">
        <ele>120.300003052</ele>
        <time>2015-01-24T16:11:53Z</time>
      </trkpt>
      <trkpt lat="49.52804" lon="0.40259">
        <ele>119.800003052</ele>
        <time>2015-01-24T16:12:00Z</time>
      </trkpt>
      <trkpt lat="49.52805" lon="0.40257">
        <ele>119.800003052</ele>
        <time>2015-01-24T16:12:01Z</time>
      </trkpt>
      <trkpt lat="49.52811" lon="0.40249">
        <ele>119.099998474</ele>
        <time>2015-01-24T16:12:08Z</time>
      </trkpt>
      <trkpt lat="49.52812" lon="0.40249">
        <ele>119</ele>
        <time>2015-01-24T16:12:09Z</time>
      </trkpt>
      <trkpt lat="49.5282" lon="0.40244">
        <ele>118.599998474</ele>
        <time>2015-01-24T16:12:16Z</time>
      </trkpt>
      <trkpt lat="49.52821" lon="0.40243">
        <ele>118.599998474</ele>
        <time>2015-01-24T16:12:17Z</time>
      </trkpt>
      <trkpt lat="49.5283" lon="0.40244">
        <ele>117.800003052</ele>
        <time>2015-01-24T16:12:25Z</time>
      </trkpt>
      <trkpt lat="49.52831" lon="0.40243">
        <ele>117.800003052</ele>
        <time>2015-01-24T16:12:25Z</time>
      </trkpt>
      <trkpt lat="49.52837" lon="0.40236">
        <ele>117.699996948</ele>
        <time>2015-01-24T16:12:30Z</time>
      </trkpt>
      <trkpt lat="49.52838" lon="0.40234">
        <ele>117.699996948</ele>
        <time>2015-01-24T16:12:31Z</time>
      </trkpt>
      <trkpt lat="49.52841" lon="0.40221">
        <ele>117.699996948</ele>
        <time>2015-01-24T16:12:37Z</time>
      </trkpt>
      <trkpt lat="49.52842" lon="0.40219">
        <ele>117.599998474</ele>
        <time>2015-01-24T16:12:38Z</time>
      </trkpt>
      <trkpt lat="49.52845" lon="0.40207">
        <ele>117</ele>
        <time>2015-01-24T16:12:44Z</time>
      </trkpt>
      <trkpt lat="49.52845" lon="0.40205">
        <ele>116.900001526</ele>
        <time>2015-01-24T16:12:45Z</time>
      </trkpt>
      <trkpt lat="49.52844" lon="0.40192">
        <ele>115.900001526</ele>
        <time>2015-01-24T16:12:51Z</time>
      </trkpt>
      <trkpt lat="49.52844" lon="0.4019">
        <ele>115.599998474</ele>
        <time>2015-01-24T16:12:52Z</time>
      </trkpt>
      <trkpt lat="49.52847" lon="0.40178">
        <ele>114.900001526</ele>
        <time>2015-01-24T16:12:57Z</time>
      </trkpt>
      <trkpt lat="49.52847" lon="0.40175">
        <ele>114.699996948</ele>
        <time>2015-01-24T16:12:58Z</time>
      </trkpt>
      <trkpt lat="49.52846" lon="0.40163">
        <ele>114</ele>
        <time>2015-01-24T16:13:04Z</time>
      </trkpt>
      <trkpt lat="49.52846" lon="0.40161">
        <ele>114</ele>
        <time>2015-01-24T16:13:05Z</time>
      </trkpt>
      <trkpt lat="49.52845" lon="0.40148">
        <ele>113.599998474</ele>
        <time>2015-01-24T16:13:11Z</time>
      </trkpt>
      <trkpt lat="49.52845" lon="0.40146">
        <ele>113.599998474</ele>
        <time>2015-01-24T16:13:12Z</time>
      </trkpt>
      <trkpt lat="49.52846" lon="0.40133">
        <ele>113.099998474</ele>
        <time>2015-01-24T16:13:18Z</time>
      </trkpt>
      <trkpt lat="49.52845" lon="0.40131">
        <ele>113</ele>
        <time>2015-01-24T16:13:19Z</time>
      </trkpt>
      <trkpt lat="49.52846" lon="0.4012">
        <ele>112.400001526</ele>
        <time>2015-01-24T16:13:24Z</time>
      </trkpt>
      <trkpt lat="49.52845" lon="0.40117">
        <ele>112.199996948</ele>
        <time>2015-01-24T16:13:25Z</time>
      </trkpt>
      <trkpt lat="49.52846" lon="0.40105">
        <ele>111.5</ele>
        <time>2015-01-24T16:13:30Z</time>
      </trkpt>
      <trkpt lat="49.52846" lon="0.40102">
        <ele>111.5</ele>
        <time>2015-01-24T16:13:31Z</time>
      </trkpt>
      <trkpt lat="49.52847" lon="0.40089">
        <ele>111.199996948</ele>
        <time>2015-01-24T16:13:37Z</time>
      </trkpt>
      <trkpt lat="49.52847" lon="0.40087">
        <ele>111.099998474</ele>
        <time>2015-01-24T16:13:38Z</time>
      </trkpt>
      <trkpt lat="49.52846" lon="0.40074">
        <ele>110.800003052</ele>
        <time>2015-01-24T16:13:44Z</time>
      </trkpt>
      <trkpt lat="49.52846" lon="0.40072">
        <ele>110.599998474</ele>
        <time>2015-01-24T16:13:45Z</time>
      </trkpt>
      <trkpt lat="49.52846" lon="0.40059">
        <ele>110</ele>
        <time>2015-01-24T16:13:50Z</time>
      </trkpt>
      <trkpt lat="49.52846" lon="0.40057">
        <ele>109.900001526</ele>
        <time>2015-01-24T16:13:51Z</time>
      </trkpt>
      <trkpt lat="49.52847" lon="0.40044">
        <ele>109.699996948</ele>
        <time>2015-01-24T16:13:57Z</time>
      </trkpt>
      <trkpt lat="49.52847" lon="0.40041">
        <ele>109.599998474</ele>
        <time>2015-01-24T16:13:58Z</time>
      </trkpt>
      <trkpt lat="49.5285" lon="0.40029">
        <ele>109.800003052</ele>
        <time>2015-01-24T16:14:04Z</time>
      </trkpt>
      <trkpt lat="49.5285" lon="0.40027">
        <ele>109.699996948</ele>
        <time>2015-01-24T16:14:05Z</time>
      </trkpt>
      <trkpt lat="49.5285" lon="0.40013">
        <ele>108.900001526</ele>
        <time>2015-01-24T16:14:11Z</time>
      </trkpt>
      <trkpt lat="49.5285" lon="0.40011">
        <ele>108.800003052</ele>
        <time>2015-01-24T16:14:12Z</time>
      </trkpt>
      <trkpt lat="49.52853" lon="0.39998">
        <ele>108</ele>
        <time>2015-01-24T16:14:19Z</time>
      </trkpt>
      <trkpt lat="49.52854" lon="0.39997">
        <ele>107.900001526</ele>
        <time>2015-01-24T16:14:20Z</time>
      </trkpt>
      <trkpt lat="49.52857" lon="0.39984">
        <ele>107</ele>
        <time>2015-01-24T16:14:27Z</time>
      </trkpt>
      <trkpt lat="49.52857" lon="0.39982">
        <ele>106.900001526</ele>
        <time>2015-01-24T16:14:28Z</time>
      </trkpt>
      <trkpt lat="49.52859" lon="0.39968">
        <ele>106</ele>
        <time>2015-01-24T16:14:35Z</time>
      </trkpt>
      <trkpt lat="49.52859" lon="0.39967">
        <ele>105.900001526</ele>
        <time>2015-01-24T16:14:36Z</time>
      </trkpt>
      <trkpt lat="49.52863" lon="0.39956">
        <ele>106</ele>
        <time>2015-01-24T16:14:42Z</time>
      </trkpt>
      <trkpt lat="49.52863" lon="0.39954">
        <ele>106</ele>
        <time>2015-01-24T16:14:43Z</time>
      </trkpt>
      <trkpt lat="49.52865" lon="0.3994">
        <ele>105.400001526</ele>
        <time>2015-01-24T16:14:50Z</time>
      </trkpt>
      <trkpt lat="49.52865" lon="0.39938">
        <ele>105.300003052</ele>
        <time>2015-01-24T16:14:51Z</time>
      </trkpt>
      <trkpt lat="49.52866" lon="0.39925">
        <ele>105</ele>
        <time>2015-01-24T16:14:59Z</time>
      </trkpt>
      <trkpt lat="49.52867" lon="0.39923">
        <ele>105</ele>
        <time>2015-01-24T16:15:00Z</time>
      </trkpt>
      <trkpt lat="49.52866" lon="0.39909">
        <ele>104.900001526</ele>
        <time>2015-01-24T16:15:06Z</time>
      </trkpt>
      <trkpt lat="49.52867" lon="0.39908">
        <ele>104.800003052</ele>
        <time>2015-01-24T16:15:07Z</time>
      </trkpt>
      <trkpt lat="49.52868" lon="0.39895">
        <ele>104.400001526</ele>
        <time>2015-01-24T16:15:14Z</time>
      </trkpt>
      <trkpt lat="49.52868" lon="0.39893">
        <ele>104.300003052</ele>
        <time>2015-01-24T16:15:15Z</time>
      </trkpt>
      <trkpt lat="49.52871" lon="0.39882">
        <ele>103.900001526</ele>
        <time>2015-01-24T16:15:21Z</time>
      </trkpt>
      <trkpt lat="49.52872" lon="0.39879">
        <ele>104</ele>
        <time>2015-01-24T16:15:22Z</time>
      </trkpt>
      <trkpt lat="49.52872" lon="0.39866">
        <ele>103.199996948</ele>
        <time>2015-01-24T16:15:28Z</time>
      </trkpt>
      <trkpt lat="49.52872" lon="0.39863">
        <ele>103.099998474</ele>
        <time>2015-01-24T16:15:29Z</time>
      </trkpt>
      <trkpt lat="49.52876" lon="0.39852">
        <ele>102.900001526</ele>
        <time>2015-01-24T16:15:35Z</time>
      </trkpt>
      <trkpt lat="49.52876" lon="0.39849">
        <ele>102.800003052</ele>
        <time>2015-01-24T16:15:36Z</time>
      </trkpt>
      <trkpt lat="49.52879" lon="0.39837">
        <ele>102.400001526</ele>
        <time>2015-01-24T16:15:42Z</time>
      </trkpt>
      <trkpt lat="49.5288" lon="0.39834">
        <ele>102.300003052</ele>
        <time>2015-01-24T16:15:43Z</time>
      </trkpt>
      <trkpt lat="49.52881" lon="0.39821">
        <ele>101.699996948</ele>
        <time>2015-01-24T16:15:48Z</time>
      </trkpt>
      <trkpt lat="49.52881" lon="0.39819">
        <ele>101.599998474</ele>
        <time>2015-01-24T16:15:49Z</time>
      </trkpt>
      <trkpt lat="49.52884" lon="0.39808">
        <ele>101.5</ele>
        <time>2015-01-24T16:15:54Z</time>
      </trkpt>
      <trkpt lat="49.52885" lon="0.39806">
        <ele>101.400001526</ele>
        <time>2015-01-24T16:15:55Z</time>
      </trkpt>
      <trkpt lat="49.52886" lon="0.39794">
        <ele>101</ele>
        <time>2015-01-24T16:16:00Z</time>
      </trkpt>
      <trkpt lat="49.52886" lon="0.39792">
        <ele>100.900001526</ele>
        <time>2015-01-24T16:16:01Z</time>
      </trkpt>
      <trkpt lat="49.52888" lon="0.3978">
        <ele>99.900001526</ele>
        <time>2015-01-24T16:16:06Z</time>
      </trkpt>
      <trkpt lat="49.52888" lon="0.39777">
        <ele>99.800003052</ele>
        <time>2015-01-24T16:16:07Z</time>
      </trkpt>
      <trkpt lat="49.5289" lon="0.39765">
        <ele>99.300003052</ele>
        <time>2015-01-24T16:16:12Z</time>
      </trkpt>
      <trkpt lat="49.5289" lon="0.39763">
        <ele>99.199996948</ele>
        <time>2015-01-24T16:16:13Z</time>
      </trkpt>
      <trkpt lat="49.52892" lon="0.39751">
        <ele>98.699996948</ele>
        <time>2015-01-24T16:16:18Z</time>
      </trkpt>
      <trkpt lat="49.52892" lon="0.39749">
        <ele>98.599998474</ele>
        <time>2015-01-24T16:16:19Z</time>
      </trkpt>
      <trkpt lat="49.52894" lon="0.39738">
        <ele>98.300003052</ele>
        <time>2015-01-24T16:16:24Z</time>
      </trkpt>
      <trkpt lat="49.52894" lon="0.39736">
        <ele>98.300003052</ele>
        <time>2015-01-24T16:16:25Z</time>
      </trkpt>
      <trkpt lat="49.52895" lon="0.39723">
        <ele>98.699996948</ele>
        <time>2015-01-24T16:16:30Z</time>
      </trkpt>
      <trkpt lat="49.52895" lon="0.3972">
        <ele>99.099998474</ele>
        <time>2015-01-24T16:16:31Z</time>
      </trkpt>
      <trkpt lat="49.52898" lon="0.3971">
        <ele>101.300003052</ele>
        <time>2015-01-24T16:16:35Z</time>
      </trkpt>
      <trkpt lat="49.52899" lon="0.39707">
        <ele>101.800003052</ele>
        <time>2015-01-24T16:16:36Z</time>
      </trkpt>
      <trkpt lat="49.529" lon="0.39695">
        <ele>103.5</ele>
        <time>2015-01-24T16:16:41Z</time>
      </trkpt>
      <trkpt lat="49.529" lon="0.39693">
        <ele>103.800003052</ele>
        <time>2015-01-24T16:16:42Z</time>
      </trkpt>
      <trkpt lat="49.52901" lon="0.3968">
        <ele>105.099998474</ele>
        <time>2015-01-24T16:16:47Z</time>
      </trkpt>
      <trkpt lat="49.52902" lon="0.39678">
        <ele>105.400001526</ele>
        <time>2015-01-24T16:16:48Z</time>
      </trkpt>
      <trkpt lat="49.52904" lon="0.39666">
        <ele>106.099998474</ele>
        <time>2015-01-24T16:16:53Z</time>
      </trkpt>
      <trkpt lat="49.52904" lon="0.39663">
        <ele>106.099998474</ele>
        <time>2015-01-24T16:16:54Z</time>
      </trkpt>
      <trkpt lat="49.52905" lon="0.3965">
        <ele>106.900001526</ele>
        <time>2015-01-24T16:16:59Z</time>
      </trkpt>
      <trkpt lat="49.52906" lon="0.39647">
        <ele>107.199996948</ele>
        <time>2015-01-24T16:17:00Z</time>
      </trkpt>
      <trkpt lat="49.52908" lon="0.39635">
        <ele>108</ele>
        <time>2015-01-24T16:17:05Z</time>
      </trkpt>
      <trkpt lat="49.52908" lon="0.39632">
        <ele>108.199996948</ele>
        <time>2015-01-24T16:17:06Z</time>
      </trkpt>
      <trkpt lat="49.52908" lon="0.39621">
        <ele>108.900001526</ele>
        <time>2015-01-24T16:17:10Z</time>
      </trkpt>
      <trkpt lat="49.52908" lon="0.39618">
        <ele>109</ele>
        <time>2015-01-24T16:17:11Z</time>
      </trkpt>
      <trkpt lat="49.52909" lon="0.39605">
        <ele>109.599998474</ele>
        <time>2015-01-24T16:17:16Z</time>
      </trkpt>
      <trkpt lat="49.5291" lon="0.39603">
        <ele>109.699996948</ele>
        <time>2015-01-24T16:17:17Z</time>
      </trkpt>
      <trkpt lat="49.52911" lon="0.3959">
        <ele>110.300003052</ele>
        <time>2015-01-24T16:17:22Z</time>
      </trkpt>
      <trkpt lat="49.52912" lon="0.39587">
        <ele>110.5</ele>
        <time>2015-01-24T16:17:23Z</time>
      </trkpt>
      <trkpt lat="49.52913" lon="0.39574">
        <ele>111.5</ele>
        <time>2015-01-24T16:17:28Z</time>
      </trkpt>
      <trkpt lat="49.52914" lon="0.39572">
        <ele>111.800003052</ele>
        <time>2015-01-24T16:17:29Z</time>
      </trkpt>
      <trkpt lat="49.52915" lon="0.39558">
        <ele>112.199996948</ele>
        <time>2015-01-24T16:17:34Z</time>
      </trkpt>
      <trkpt lat="49.52915" lon="0.39555">
        <ele>112.300003052</ele>
        <time>2015-01-24T16:17:35Z</time>
      </trkpt>
      <trkpt lat="49.52917" lon="0.39543">
        <ele>112.300003052</ele>
        <time>2015-01-24T16:17:40Z</time>
      </trkpt>
      <trkpt lat="49.52917" lon="0.39541">
        <ele>112.199996948</ele>
        <time>2015-01-24T16:17:41Z</time>
      </trkpt>
      <trkpt lat="49.52917" lon="0.39528">
        <ele>112.5</ele>
        <time>2015-01-24T16:17:46Z</time>
      </trkpt>
      <trkpt lat="49.52918" lon="0.39525">
        <ele>112.5</ele>
        <time>2015-01-24T16:17:47Z</time>
      </trkpt>
      <trkpt lat="49.52919" lon="0.39512">
        <ele>112.599998474</ele>
        <time>2015-01-24T16:17:52Z</time>
      </trkpt>
      <trkpt lat="49.5292" lon="0.3951">
        <ele>112.5</ele>
        <time>2015-01-24T16:17:53Z</time>
      </trkpt>
      <trkpt lat="49.52922" lon="0.39498">
        <ele>112.199996948</ele>
        <time>2015-01-24T16:17:58Z</time>
      </trkpt>
      <trkpt lat="49.52923" lon="0.39496">
        <ele>112.199996948</ele>
        <time>2015-01-24T16:17:59Z</time>
      </trkpt>
      <trkpt lat="49.52925" lon="0.39483">
        <ele>111.699996948</ele>
        <time>2015-01-24T16:18:04Z</time>
      </trkpt>
      <trkpt lat="49.52926" lon="0.3948">
        <ele>111.599998474</ele>
        <time>2015-01-24T16:18:05Z</time>
      </trkpt>
      <trkpt lat="49.52926" lon="0.39469">
        <ele>111.199996948</ele>
        <time>2015-01-24T16:18:09Z</time>
      </trkpt>
      <trkpt lat="49.52927" lon="0.39466">
        <ele>111</ele>
        <time>2015-01-24T16:18:10Z</time>
      </trkpt>
      <trkpt lat="49.52928" lon="0.39454">
        <ele>110.800003052</ele>
        <time>2015-01-24T16:18:15Z</time>
      </trkpt>
      <trkpt lat="49.52928" lon="0.39451">
        <ele>110.599998474</ele>
        <time>2015-01-24T16:18:16Z</time>
      </trkpt>
      <trkpt lat="49.5293" lon="0.39438">
        <ele>110.400001526</ele>
        <time>2015-01-24T16:18:21Z</time>
      </trkpt>
      <trkpt lat="49.5293" lon="0.39435">
        <ele>110.5</ele>
        <time>2015-01-24T16:18:22Z</time>
      </trkpt>
      <trkpt lat="49.5293" lon="0.39422">
        <ele>110.199996948</ele>
        <time>2015-01-24T16:18:27Z</time>
      </trkpt>
      <trkpt lat="49.52931" lon="0.3942">
        <ele>110</ele>
        <time>2015-01-24T16:18:28Z</time>
      </trkpt>
      <trkpt lat="49.52933" lon="0.39407">
        <ele>110.300003052</ele>
        <time>2015-01-24T16:18:33Z</time>
      </trkpt>
      <trkpt lat="49.52934" lon="0.39405">
        <ele>110.400001526</ele>
        <time>2015-01-24T16:18:34Z</time>
      </trkpt>
      <trkpt lat="49.52936" lon="0.39393">
        <ele>111</ele>
        <time>2015-01-24T16:18:39Z</time>
      </trkpt>
      <trkpt lat="49.52937" lon="0.3939">
        <ele>111.099998474</ele>
        <time>2015-01-24T16:18:40Z</time>
      </trkpt>
      <trkpt lat="49.52937" lon="0.39379">
        <ele>111.099998474</ele>
        <time>2015-01-24T16:18:46Z</time>
      </trkpt>
      <trkpt lat="49.52938" lon="0.39376">
        <ele>111.099998474</ele>
        <time>2015-01-24T16:18:47Z</time>
      </trkpt>
      <trkpt lat="49.52939" lon="0.39364">
        <ele>111.300003052</ele>
        <time>2015-01-24T16:18:52Z</time>
      </trkpt>
      <trkpt lat="49.52939" lon="0.39362">
        <ele>111.400001526</ele>
        <time>2015-01-24T16:18:53Z</time>
      </trkpt>
      <trkpt lat="49.52941" lon="0.39349">
        <ele>111.5</ele>
        <time>2015-01-24T16:18:59Z</time>
      </trkpt>
      <trkpt lat="49.52942" lon="0.39347">
        <ele>111.5</ele>
        <time>2015-01-24T16:19:00Z</time>
      </trkpt>
      <trkpt lat="49.52943" lon="0.39336">
        <ele>111.699996948</ele>
        <time>2015-01-24T16:19:05Z</time>
      </trkpt>
      <trkpt lat="49.52943" lon="0.39333">
        <ele>111.599998474</ele>
        <time>2015-01-24T16:19:06Z</time>
      </trkpt>
      <trkpt lat="49.52944" lon="0.3932">
        <ele>111.300003052</ele>
        <time>2015-01-24T16:19:12Z</time>
      </trkpt>
      <trkpt lat="49.52945" lon="0.39317">
        <ele>111.300003052</ele>
        <time>2015-01-24T16:19:13Z</time>
      </trkpt>
      <trkpt lat="49.52947" lon="0.39305">
        <ele>111.5</ele>
        <time>2015-01-24T16:19:18Z</time>
      </trkpt>
      <trkpt lat="49.52947" lon="0.39303">
        <ele>111.400001526</ele>
        <time>2015-01-24T16:19:19Z</time>
      </trkpt>
      <trkpt lat="49.52948" lon="0.39291">
        <ele>111.400001526</ele>
        <time>2015-01-24T16:19:24Z</time>
      </trkpt>
      <trkpt lat="49.52948" lon="0.39288">
        <ele>111.300003052</ele>
        <time>2015-01-24T16:19:25Z</time>
      </trkpt>
      <trkpt lat="49.52949" lon="0.39276">
        <ele>111.099998474</ele>
        <time>2015-01-24T16:19:30Z</time>
      </trkpt>
      <trkpt lat="49.52949" lon="0.39274">
        <ele>111</ele>
        <time>2015-01-24T16:19:31Z</time>
      </trkpt>
      <trkpt lat="49.52952" lon="0.39262">
        <ele>111.099998474</ele>
        <time>2015-01-24T16:19:36Z</time>
      </trkpt>
      <trkpt lat="49.52952" lon="0.39259">
        <ele>111.199996948</ele>
        <time>2015-01-24T16:19:37Z</time>
      </trkpt>
      <trkpt lat="49.52953" lon="0.39246">
        <ele>111.5</ele>
        <time>2015-01-24T16:19:43Z</time>
      </trkpt>
      <trkpt lat="49.52952" lon="0.39244">
        <ele>111.5</ele>
        <time>2015-01-24T16:19:44Z</time>
      </trkpt>
      <trkpt lat="49.52953" lon="0.39232">
        <ele>111.699996948</ele>
        <time>2015-01-24T16:19:49Z</time>
      </trkpt>
      <trkpt lat="49.52953" lon="0.39229">
        <ele>111.699996948</ele>
        <time>2015-01-24T16:19:50Z</time>
      </trkpt>
      <trkpt lat="49.52954" lon="0.39217">
        <ele>112.099998474</ele>
        <time>2015-01-24T16:19:55Z</time>
      </trkpt>
      <trkpt lat="49.52955" lon="0.39214">
        <ele>112.099998474</ele>
        <time>2015-01-24T16:19:56Z</time>
      </trkpt>
      <trkpt lat="49.52957" lon="0.39202">
        <ele>112.699996948</ele>
        <time>2015-01-24T16:20:01Z</time>
      </trkpt>
      <trkpt lat="49.52957" lon="0.392">
        <ele>112.699996948</ele>
        <time>2015-01-24T16:20:02Z</time>
      </trkpt>
      <trkpt lat="49.52957" lon="0.39187">
        <ele>113</ele>
        <time>2015-01-24T16:20:07Z</time>
      </trkpt>
      <trkpt lat="49.52957" lon="0.39185">
        <ele>113</ele>
        <time>2015-01-24T16:20:08Z</time>
      </trkpt>
      <trkpt lat="49.5296" lon="0.39172">
        <ele>112.599998474</ele>
        <time>2015-01-24T16:20:14Z</time>
      </trkpt>
      <trkpt lat="49.5296" lon="0.3917">
        <ele>112.5</ele>
        <time>2015-01-24T16:20:15Z</time>
      </trkpt>
      <trkpt lat="49.52961" lon="0.39156">
        <ele>111.800003052</ele>
        <time>2015-01-24T16:20:21Z</time>
      </trkpt>
      <trkpt lat="49.52962" lon="0.39154">
        <ele>111.900001526</ele>
        <time>2015-01-24T16:20:21Z</time>
      </trkpt>
      <trkpt lat="49.52962" lon="0.39142">
        <ele>111.5</ele>
        <time>2015-01-24T16:20:26Z</time>
      </trkpt>
      <trkpt lat="49.52963" lon="0.39139">
        <ele>111.400001526</ele>
        <time>2015-01-24T16:20:27Z</time>
      </trkpt>
      <trkpt lat="49.52963" lon="0.39127">
        <ele>111.099998474</ele>
        <time>2015-01-24T16:20:32Z</time>
      </trkpt>
      <trkpt lat="49.52964" lon="0.39125">
        <ele>111</ele>
        <time>2015-01-24T16:20:33Z</time>
      </trkpt>
      <trkpt lat="49.52965" lon="0.39112">
        <ele>110.400001526</ele>
        <time>2015-01-24T16:20:38Z</time>
      </trkpt>
      <trkpt lat="49.52965" lon="0.39109">
        <ele>110.400001526</ele>
        <time>2015-01-24T16:20:39Z</time>
      </trkpt>
      <trkpt lat="49.52967" lon="0.39097">
        <ele>110.199996948</ele>
        <time>2015-01-24T16:20:44Z</time>
      </trkpt>
      <trkpt lat="49.52968" lon="0.39094">
        <ele>110.099998474</ele>
        <time>2015-01-24T16:20:45Z</time>
      </trkpt>
      <trkpt lat="49.52969" lon="0.39081">
        <ele>109.300003052</ele>
        <time>2015-01-24T16:20:50Z</time>
      </trkpt>
      <trkpt lat="49.52969" lon="0.39079">
        <ele>109</ele>
        <time>2015-01-24T16:20:51Z</time>
      </trkpt>
      <trkpt lat="49.52969" lon="0.39066">
        <ele>108.300003052</ele>
        <time>2015-01-24T16:20:56Z</time>
      </trkpt>
      <trkpt lat="49.52969" lon="0.39063">
        <ele>108.199996948</ele>
        <time>2015-01-24T16:20:57Z</time>
      </trkpt>
      <trkpt lat="49.52969" lon="0.3905">
        <ele>107.699996948</ele>
        <time>2015-01-24T16:21:02Z</time>
      </trkpt>
      <trkpt lat="49.52969" lon="0.39047">
        <ele>107.599998474</ele>
        <time>2015-01-24T16:21:03Z</time>
      </trkpt>
      <trkpt lat="49.5297" lon="0.39033">
        <ele>107.300003052</ele>
        <time>2015-01-24T16:21:08Z</time>
      </trkpt>
      <trkpt lat="49.52971" lon="0.3903">
        <ele>107.099998474</ele>
        <time>2015-01-24T16:21:09Z</time>
      </trkpt>
      <trkpt lat="49.52972" lon="0.39018">
        <ele>106.5</ele>
        <time>2015-01-24T16:21:14Z</time>
      </trkpt>
      <trkpt lat="49.52973" lon="0.39016">
        <ele>106.199996948</ele>
        <time>2015-01-24T16:21:15Z</time>
      </trkpt>
      <trkpt lat="49.52975" lon="0.39003">
        <ele>106.400001526</ele>
        <time>2015-01-24T16:21:20Z</time>
      </trkpt>
      <trkpt lat="49.52975" lon="0.39001">
        <ele>106.400001526</ele>
        <time>2015-01-24T16:21:21Z</time>
      </trkpt>
      <trkpt lat="49.52976" lon="0.38989">
        <ele>105.900001526</ele>
        <time>2015-01-24T16:21:25Z</time>
      </trkpt>
      <trkpt lat="49.52976" lon="0.38986">
        <ele>105.699996948</ele>
        <time>2015-01-24T16:21:26Z</time>
      </trkpt>
      <trkpt lat="49.52977" lon="0.38972">
        <ele>106</ele>
        <time>2015-01-24T16:21:31Z</time>
      </trkpt>
      <trkpt lat="49.52977" lon="0.3897">
        <ele>106.099998474</ele>
        <time>2015-01-24T16:21:32Z</time>
      </trkpt>
      <trkpt lat="49.52979" lon="0.38958">
        <ele>106.099998474</ele>
        <time>2015-01-24T16:21:37Z</time>
      </trkpt>
      <trkpt lat="49.52979" lon="0.38954">
        <ele>106</ele>
        <time>2015-01-24T16:21:38Z</time>
      </trkpt>
      <trkpt lat="49.52981" lon="0.38941">
        <ele>106.199996948</ele>
        <time>2015-01-24T16:21:43Z</time>
      </trkpt>
      <trkpt lat="49.52981" lon="0.38939">
        <ele>106.099998474</ele>
        <time>2015-01-24T16:21:44Z</time>
      </trkpt>
      <trkpt lat="49.52982" lon="0.38925">
        <ele>106</ele>
        <time>2015-01-24T16:21:49Z</time>
      </trkpt>
      <trkpt lat="49.52982" lon="0.38923">
        <ele>106</ele>
        <time>2015-01-24T16:21:50Z</time>
      </trkpt>
      <trkpt lat="49.52984" lon="0.3891">
        <ele>106.400001526</ele>
        <time>2015-01-24T16:21:55Z</time>
      </trkpt>
      <trkpt lat="49.52984" lon="0.38908">
        <ele>106.5</ele>
        <time>2015-01-24T16:21:56Z</time>
      </trkpt>
      <trkpt lat="49.52987" lon="0.38895">
        <ele>106.900001526</ele>
        <time>2015-01-24T16:22:01Z</time>
      </trkpt>
      <trkpt lat="49.52987" lon="0.38892">
        <ele>107</ele>
        <time>2015-01-24T16:22:02Z</time>
      </trkpt>
      <trkpt lat="49.52989" lon="0.38879">
        <ele>108.099998474</ele>
        <time>2015-01-24T16:22:07Z</time>
      </trkpt>
      <trkpt lat="49.52989" lon="0.38877">
        <ele>108.300003052</ele>
        <time>2015-01-24T16:22:08Z</time>
      </trkpt>
      <trkpt lat="49.52991" lon="0.38864">
        <ele>109</ele>
        <time>2015-01-24T16:22:13Z</time>
      </trkpt>
      <trkpt lat="49.52991" lon="0.38861">
        <ele>109</ele>
        <time>2015-01-24T16:22:14Z</time>
      </trkpt>
      <trkpt lat="49.52992" lon="0.38848">
        <ele>109.400001526</ele>
        <time>2015-01-24T16:22:19Z</time>
      </trkpt>
      <trkpt lat="49.52992" lon="0.38845">
        <ele>109.5</ele>
        <time>2015-01-24T16:22:20Z</time>
      </trkpt>
      <trkpt lat="49.52994" lon="0.38832">
        <ele>109.400001526</ele>
        <time>2015-01-24T16:22:25Z</time>
      </trkpt>
      <trkpt lat="49.52994" lon="0.3883">
        <ele>109.300003052</ele>
        <time>2015-01-24T16:22:26Z</time>
      </trkpt>
      <trkpt lat="49.52995" lon="0.38817">
        <ele>109.099998474</ele>
        <time>2015-01-24T16:22:31Z</time>
      </trkpt>
      <trkpt lat="49.52995" lon="0.38814">
        <ele>109.099998474</ele>
        <time>2015-01-24T16:22:32Z</time>
      </trkpt>
      <trkpt lat="49.52996" lon="0.38803">
        <ele>109.400001526</ele>
        <time>2015-01-24T16:22:37Z</time>
      </trkpt>
      <trkpt lat="49.52997" lon="0.388">
        <ele>109.5</ele>
        <time>2015-01-24T16:22:38Z</time>
      </trkpt>
      <trkpt lat="49.52999" lon="0.38787">
        <ele>109.599998474</ele>
        <time>2015-01-24T16:22:43Z</time>
      </trkpt>
      <trkpt lat="49.52999" lon="0.38784">
        <ele>109.699996948</ele>
        <time>2015-01-24T16:22:44Z</time>
      </trkpt>
      <trkpt lat="49.53002" lon="0.38771">
        <ele>110.5</ele>
        <time>2015-01-24T16:22:49Z</time>
      </trkpt>
      <trkpt lat="49.53002" lon="0.38769">
        <ele>110.699996948</ele>
        <time>2015-01-24T16:22:50Z</time>
      </trkpt>
      <trkpt lat="49.53002" lon="0.38756">
        <ele>110.800003052</ele>
        <time>2015-01-24T16:22:55Z</time>
      </trkpt>
      <trkpt lat="49.53002" lon="0.38753">
        <ele>110.800003052</ele>
        <time>2015-01-24T16:22:56Z</time>
      </trkpt>
      <trkpt lat="49.53004" lon="0.3874">
        <ele>111.199996948</ele>
        <time>2015-01-24T16:23:01Z</time>
      </trkpt>
      <trkpt lat="49.53004" lon="0.38737">
        <ele>111.400001526</ele>
        <time>2015-01-24T16:23:02Z</time>
      </trkpt>
      <trkpt lat="49.53006" lon="0.38725">
        <ele>111.599998474</ele>
        <time>2015-01-24T16:23:07Z</time>
      </trkpt>
      <trkpt lat="49.53007" lon="0.38722">
        <ele>111.800003052</ele>
        <time>2015-01-24T16:23:08Z</time>
      </trkpt>
      <trkpt lat="49.53008" lon="0.38709">
        <ele>112.199996948</ele>
        <time>2015-01-24T16:23:13Z</time>
      </trkpt>
      <trkpt lat="49.53008" lon="0.38707">
        <ele>112.300003052</ele>
        <time>2015-01-24T16:23:14Z</time>
      </trkpt>
      <trkpt lat="49.53008" lon="0.38695">
        <ele>113.099998474</ele>
        <time>2015-01-24T16:23:19Z</time>
      </trkpt>
      <trkpt lat="49.53009" lon="0.38692">
        <ele>113.099998474</ele>
        <time>2015-01-24T16:23:20Z</time>
      </trkpt>
      <trkpt lat="49.5301" lon="0.3868">
        <ele>113.400001526</ele>
        <time>2015-01-24T16:23:24Z</time>
      </trkpt>
      <trkpt lat="49.5301" lon="0.38678">
        <ele>113.400001526</ele>
        <time>2015-01-24T16:23:25Z</time>
      </trkpt>
      <trkpt lat="49.53011" lon="0.38667">
        <ele>113.400001526</ele>
        <time>2015-01-24T16:23:30Z</time>
      </trkpt>
      <trkpt lat="49.53011" lon="0.38664">
        <ele>113.5</ele>
        <time>2015-01-24T16:23:31Z</time>
      </trkpt>
      <trkpt lat="49.53011" lon="0.38651">
        <ele>113.300003052</ele>
        <time>2015-01-24T16:23:36Z</time>
      </trkpt>
      <trkpt lat="49.53011" lon="0.38648">
        <ele>113.199996948</ele>
        <time>2015-01-24T16:23:37Z</time>
      </trkpt>
      <trkpt lat="49.53011" lon="0.38636">
        <ele>113.599998474</ele>
        <time>2015-01-24T16:23:43Z</time>
      </trkpt>
      <trkpt lat="49.53011" lon="0.38634">
        <ele>113.5</ele>
        <time>2015-01-24T16:23:44Z</time>
      </trkpt>
      <trkpt lat="49.53013" lon="0.3862">
        <ele>112.5</ele>
        <time>2015-01-24T16:23:49Z</time>
      </trkpt>
      <trkpt lat="49.53013" lon="0.38618">
        <ele>112.400001526</ele>
        <time>2015-01-24T16:23:50Z</time>
      </trkpt>
      <trkpt lat="49.53013" lon="0.38605">
        <ele>112.599998474</ele>
        <time>2015-01-24T16:23:56Z</time>
      </trkpt>
      <trkpt lat="49.53013" lon="0.38603">
        <ele>112.5</ele>
        <time>2015-01-24T16:23:57Z</time>
      </trkpt>
      <trkpt lat="49.53014" lon="0.38591">
        <ele>111.800003052</ele>
        <time>2015-01-24T16:24:02Z</time>
      </trkpt>
      <trkpt lat="49.53014" lon="0.38588">
        <ele>111.599998474</ele>
        <time>2015-01-24T16:24:03Z</time>
      </trkpt>
      <trkpt lat="49.53016" lon="0.38575">
        <ele>112.400001526</ele>
        <time>2015-01-24T16:24:09Z</time>
      </trkpt>
      <trkpt lat="49.53016" lon="0.38573">
        <ele>112.599998474</ele>
        <time>2015-01-24T16:24:10Z</time>
      </trkpt>
      <trkpt lat="49.53017" lon="0.38561">
        <ele>113.199996948</ele>
        <time>2015-01-24T16:24:15Z</time>
      </trkpt>
      <trkpt lat="49.53017" lon="0.38559">
        <ele>113.300003052</ele>
        <time>2015-01-24T16:24:16Z</time>
      </trkpt>
      <trkpt lat="49.5302" lon="0.38547">
        <ele>113.800003052</ele>
        <time>2015-01-24T16:24:22Z</time>
      </trkpt>
      <trkpt lat="49.5302" lon="0.38544">
        <ele>113.800003052</ele>
        <time>2015-01-24T16:24:23Z</time>
      </trkpt>
      <trkpt lat="49.53022" lon="0.38533">
        <ele>114.099998474</ele>
        <time>2015-01-24T16:24:28Z</time>
      </trkpt>
      <trkpt lat="49.53022" lon="0.3853">
        <ele>114.199996948</ele>
        <time>2015-01-24T16:24:29Z</time>
      </trkpt>
      <trkpt lat="49.53023" lon="0.38518">
        <ele>115</ele>
        <time>2015-01-24T16:24:35Z</time>
      </trkpt>
      <trkpt lat="49.53023" lon="0.38516">
        <ele>115.199996948</ele>
        <time>2015-01-24T16:24:35Z</time>
      </trkpt>
      <trkpt lat="49.53024" lon="0.38502">
        <ele>115.5</ele>
        <time>2015-01-24T16:24:40Z</time>
      </trkpt>
      <trkpt lat="49.53024" lon="0.385">
        <ele>115.699996948</ele>
        <time>2015-01-24T16:24:41Z</time>
      </trkpt>
      <trkpt lat="49.53025" lon="0.38488">
        <ele>116.300003052</ele>
        <time>2015-01-24T16:24:46Z</time>
      </trkpt>
      <trkpt lat="49.53025" lon="0.38485">
        <ele>116.400001526</ele>
        <time>2015-01-24T16:24:47Z</time>
      </trkpt>
      <trkpt lat="49.53027" lon="0.38473">
        <ele>116.599998474</ele>
        <time>2015-01-24T16:24:51Z</time>
      </trkpt>
      <trkpt lat="49.53028" lon="0.38471">
        <ele>116.5</ele>
        <time>2015-01-24T16:24:52Z</time>
      </trkpt>
      <trkpt lat="49.53029" lon="0.38458">
        <ele>116</ele>
        <time>2015-01-24T16:24:57Z</time>
      </trkpt>
      <trkpt lat="49.53029" lon="0.38455">
        <ele>115.699996948</ele>
        <time>2015-01-24T16:24:58Z</time>
      </trkpt>
      <trkpt lat="49.53031" lon="0.38443">
        <ele>114.800003052</ele>
        <time>2015-01-24T16:25:03Z</time>
      </trkpt>
      <trkpt lat="49.53031" lon="0.3844">
        <ele>114.599998474</ele>
        <time>2015-01-24T16:25:04Z</time>
      </trkpt>
      <trkpt lat="49.53031" lon="0.38427">
        <ele>113.5</ele>
        <time>2015-01-24T16:25:09Z</time>
      </trkpt>
      <trkpt lat="49.53032" lon="0.38425">
        <ele>113.400001526</ele>
        <time>2015-01-24T16:25:10Z</time>
      </trkpt>
      <trkpt lat="49.53033" lon="0.38411">
        <ele>113.599998474</ele>
        <time>2015-01-24T16:25:16Z</time>
      </trkpt>
      <trkpt lat="49.53033" lon="0.3841">
        <ele>113.800003052</ele>
        <time>2015-01-24T16:25:17Z</time>
      </trkpt>
      <trkpt lat="49.53032" lon="0.38397">
        <ele>113.599998474</ele>
        <time>2015-01-24T16:25:22Z</time>
      </trkpt>
      <trkpt lat="49.53032" lon="0.38395">
        <ele>113.300003052</ele>
        <time>2015-01-24T16:25:23Z</time>
      </trkpt>
      <trkpt lat="49.53032" lon="0.38382">
        <ele>112.599998474</ele>
        <time>2015-01-24T16:25:28Z</time>
      </trkpt>
      <trkpt lat="49.53032" lon="0.3838">
        <ele>112.5</ele>
        <time>2015-01-24T16:25:29Z</time>
      </trkpt>
      <trkpt lat="49.53034" lon="0.38366">
        <ele>113.699996948</ele>
        <time>2015-01-24T16:25:35Z</time>
      </trkpt>
      <trkpt lat="49.53034" lon="0.38365">
        <ele>114.199996948</ele>
        <time>2015-01-24T16:25:36Z</time>
      </trkpt>
      <trkpt lat="49.53036" lon="0.38352">
        <ele>114.5</ele>
        <time>2015-01-24T16:25:42Z</time>
      </trkpt>
      <trkpt lat="49.53036" lon="0.38349">
        <ele>114.5</ele>
        <time>2015-01-24T16:25:43Z</time>
      </trkpt>
      <trkpt lat="49.53036" lon="0.38337">
        <ele>114.400001526</ele>
        <time>2015-01-24T16:25:48Z</time>
      </trkpt>
      <trkpt lat="49.53035" lon="0.38335">
        <ele>114.400001526</ele>
        <time>2015-01-24T16:25:49Z</time>
      </trkpt>
      <trkpt lat="49.53036" lon="0.38322">
        <ele>114.699996948</ele>
        <time>2015-01-24T16:25:54Z</time>
      </trkpt>
      <trkpt lat="49.53036" lon="0.3832">
        <ele>114.900001526</ele>
        <time>2015-01-24T16:25:55Z</time>
      </trkpt>
      <trkpt lat="49.53036" lon="0.38308">
        <ele>115.800003052</ele>
        <time>2015-01-24T16:26:00Z</time>
      </trkpt>
      <trkpt lat="49.53036" lon="0.38305">
        <ele>115.900001526</ele>
        <time>2015-01-24T16:26:01Z</time>
      </trkpt>
      <trkpt lat="49.53037" lon="0.38293">
        <ele>116</ele>
        <time>2015-01-24T16:26:05Z</time>
      </trkpt>
      <trkpt lat="49.53037" lon="0.38291">
        <ele>115.900001526</ele>
        <time>2015-01-24T16:26:06Z</time>
      </trkpt>
      <trkpt lat="49.53037" lon="0.38279">
        <ele>116.5</ele>
        <time>2015-01-24T16:26:11Z</time>
      </trkpt>
      <trkpt lat="49.53037" lon="0.38277">
        <ele>116.400001526</ele>
        <time>2015-01-24T16:26:12Z</time>
      </trkpt>
      <trkpt lat="49.53037" lon="0.38264">
        <ele>116.199996948</ele>
        <time>2015-01-24T16:26:17Z</time>
      </trkpt>
      <trkpt lat="49.53038" lon="0.38262">
        <ele>116.300003052</ele>
        <time>2015-01-24T16:26:18Z</time>
      </trkpt>
      <trkpt lat="49.53038" lon="0.38249">
        <ele>117</ele>
        <time>2015-01-24T16:26:23Z</time>
      </trkpt>
      <trkpt lat="49.53037" lon="0.38248">
        <ele>117.099998474</ele>
        <time>2015-01-24T16:26:24Z</time>
      </trkpt>
      <trkpt lat="49.53036" lon="0.38236">
        <ele>117</ele>
        <time>2015-01-24T16:26:28Z</time>
      </trkpt>
      <trkpt lat="49.53036" lon="0.38234">
        <ele>117</ele>
        <time>2015-01-24T16:26:29Z</time>
      </trkpt>
      <trkpt lat="49.53038" lon="0.3822">
        <ele>117.900001526</ele>
        <time>2015-01-24T16:26:34Z</time>
      </trkpt>
      <trkpt lat="49.53038" lon="0.38217">
        <ele>117.800003052</ele>
        <time>2015-01-24T16:26:35Z</time>
      </trkpt>
      <trkpt lat="49.53037" lon="0.38206">
        <ele>118.300003052</ele>
        <time>2015-01-24T16:26:39Z</time>
      </trkpt>
      <trkpt lat="49.53037" lon="0.38203">
        <ele>118.5</ele>
        <time>2015-01-24T16:26:40Z</time>
      </trkpt>
      <trkpt lat="49.53038" lon="0.38189">
        <ele>118.900001526</ele>
        <time>2015-01-24T16:26:45Z</time>
      </trkpt>
      <trkpt lat="49.53038" lon="0.38187">
        <ele>119</ele>
        <time>2015-01-24T16:26:46Z</time>
      </trkpt>
      <trkpt lat="49.53039" lon="0.38173">
        <ele>119.300003052</ele>
        <time>2015-01-24T16:26:51Z</time>
      </trkpt>
      <trkpt lat="49.53039" lon="0.38171">
        <ele>119.5</ele>
        <time>2015-01-24T16:26:52Z</time>
      </trkpt>
      <trkpt lat="49.53039" lon="0.3816">
        <ele>119.400001526</ele>
        <time>2015-01-24T16:26:56Z</time>
      </trkpt>
      <trkpt lat="49.53039" lon="0.38157">
        <ele>119.300003052</ele>
        <time>2015-01-24T16:26:57Z</time>
      </trkpt>
      <trkpt lat="49.53039" lon="0.38143">
        <ele>118.800003052</ele>
        <time>2015-01-24T16:27:02Z</time>
      </trkpt>
      <trkpt lat="49.53039" lon="0.3814">
        <ele>118.5</ele>
        <time>2015-01-24T16:27:03Z</time>
      </trkpt>
      <trkpt lat="49.53039" lon="0.38127">
        <ele>118.699996948</ele>
        <time>2015-01-24T16:27:08Z</time>
      </trkpt>
      <trkpt lat="49.53039" lon="0.38124">
        <ele>118.800003052</ele>
        <time>2015-01-24T16:27:09Z</time>
      </trkpt>
      <trkpt lat="49.5304" lon="0.3811">
        <ele>119.199996948</ele>
        <time>2015-01-24T16:27:14Z</time>
      </trkpt>
      <trkpt lat="49.53041" lon="0.38108">
        <ele>119.199996948</ele>
        <time>2015-01-24T16:27:15Z</time>
      </trkpt>
      <trkpt lat="49.53041" lon="0.38095">
        <ele>119.5</ele>
        <time>2015-01-24T16:27:20Z</time>
      </trkpt>
      <trkpt lat="49.53042" lon="0.38092">
        <ele>119.599998474</ele>
        <time>2015-01-24T16:27:21Z</time>
      </trkpt>
      <trkpt lat="49.53043" lon="0.38079">
        <ele>120</ele>
        <time>2015-01-24T16:27:26Z</time>
      </trkpt>
      <trkpt lat="49.53043" lon="0.38076">
        <ele>120.099998474</ele>
        <time>2015-01-24T16:27:27Z</time>
      </trkpt>
      <trkpt lat="49.53043" lon="0.38062">
        <ele>120.699996948</ele>
        <time>2015-01-24T16:27:32Z</time>
      </trkpt>
      <trkpt lat="49.53043" lon="0.38059">
        <ele>120.800003052</ele>
        <time>2015-01-24T16:27:33Z</time>
      </trkpt>
      <trkpt lat="49.53044" lon="0.38046">
        <ele>121</ele>
        <time>2015-01-24T16:27:38Z</time>
      </trkpt>
      <trkpt lat="49.53044" lon="0.38043">
        <ele>121.099998474</ele>
        <time>2015-01-24T16:27:39Z</time>
      </trkpt>
      <trkpt lat="49.53043" lon="0.3803">
        <ele>121.199996948</ele>
        <time>2015-01-24T16:27:44Z</time>
      </trkpt>
      <trkpt lat="49.53043" lon="0.38027">
        <ele>121.099998474</ele>
        <time>2015-01-24T16:27:45Z</time>
      </trkpt>
      <trkpt lat="49.53043" lon="0.38014">
        <ele>121.300003052</ele>
        <time>2015-01-24T16:27:50Z</time>
      </trkpt>
      <trkpt lat="49.53043" lon="0.38012">
        <ele>121.300003052</ele>
        <time>2015-01-24T16:27:51Z</time>
      </trkpt>
      <trkpt lat="49.53043" lon="0.38001">
        <ele>121.699996948</ele>
        <time>2015-01-24T16:27:55Z</time>
      </trkpt>
      <trkpt lat="49.53043" lon="0.37998">
        <ele>121.800003052</ele>
        <time>2015-01-24T16:27:56Z</time>
      </trkpt>
      <trkpt lat="49.53043" lon="0.37986">
        <ele>121.400001526</ele>
        <time>2015-01-24T16:28:01Z</time>
      </trkpt>
      <trkpt lat="49.53044" lon="0.37983">
        <ele>121.400001526</ele>
        <time>2015-01-24T16:28:02Z</time>
      </trkpt>
      <trkpt lat="49.53044" lon="0.37972">
        <ele>121</ele>
        <time>2015-01-24T16:28:06Z</time>
      </trkpt>
      <trkpt lat="49.53044" lon="0.37969">
        <ele>120.900001526</ele>
        <time>2015-01-24T16:28:07Z</time>
      </trkpt>
      <trkpt lat="49.53044" lon="0.37957">
        <ele>121</ele>
        <time>2015-01-24T16:28:11Z</time>
      </trkpt>
      <trkpt lat="49.53044" lon="0.37954">
        <ele>120.800003052</ele>
        <time>2015-01-24T16:28:12Z</time>
      </trkpt>
      <trkpt lat="49.53044" lon="0.37943">
        <ele>120.400001526</ele>
        <time>2015-01-24T16:28:16Z</time>
      </trkpt>
      <trkpt lat="49.53044" lon="0.3794">
        <ele>120.199996948</ele>
        <time>2015-01-24T16:28:17Z</time>
      </trkpt>
      <trkpt lat="49.53045" lon="0.37929">
        <ele>120.5</ele>
        <time>2015-01-24T16:28:21Z</time>
      </trkpt>
      <trkpt lat="49.53045" lon="0.37926">
        <ele>120.5</ele>
        <time>2015-01-24T16:28:22Z</time>
      </trkpt>
      <trkpt lat="49.53045" lon="0.37912">
        <ele>120</ele>
        <time>2015-01-24T16:28:27Z</time>
      </trkpt>
      <trkpt lat="49.53045" lon="0.37909">
        <ele>119.800003052</ele>
        <time>2015-01-24T16:28:28Z</time>
      </trkpt>
      <trkpt lat="49.53045" lon="0.37896">
        <ele>118.800003052</ele>
        <time>2015-01-24T16:28:34Z</time>
      </trkpt>
      <trkpt lat="49.53046" lon="0.37894">
        <ele>118.699996948</ele>
        <time>2015-01-24T16:28:35Z</time>
      </trkpt>
      <trkpt lat="49.53047" lon="0.37882">
        <ele>118.400001526</ele>
        <time>2015-01-24T16:28:39Z</time>
      </trkpt>
      <trkpt lat="49.53047" lon="0.3788">
        <ele>118.300003052</ele>
        <time>2015-01-24T16:28:40Z</time>
      </trkpt>
      <trkpt lat="49.53049" lon="0.37867">
        <ele>117.400001526</ele>
        <time>2015-01-24T16:28:45Z</time>
      </trkpt>
      <trkpt lat="49.5305" lon="0.37864">
        <ele>117.5</ele>
        <time>2015-01-24T16:28:46Z</time>
      </trkpt>
      <trkpt lat="49.53051" lon="0.37853">
        <ele>117</ele>
        <time>2015-01-24T16:28:50Z</time>
      </trkpt>
      <trkpt lat="49.53051" lon="0.3785">
        <ele>117</ele>
        <time>2015-01-24T16:28:51Z</time>
      </trkpt>
      <trkpt lat="49.53054" lon="0.37837">
        <ele>115.699996948</ele>
        <time>2015-01-24T16:28:56Z</time>
      </trkpt>
      <trkpt lat="49.53055" lon="0.37834">
        <ele>115.599998474</ele>
        <time>2015-01-24T16:28:57Z</time>
      </trkpt>
      <trkpt lat="49.53058" lon="0.37822">
        <ele>114.5</ele>
        <time>2015-01-24T16:29:02Z</time>
      </trkpt>
      <trkpt lat="49.53059" lon="0.37819">
        <ele>114.300003052</ele>
        <time>2015-01-24T16:29:03Z</time>
      </trkpt>
      <trkpt lat="49.53061" lon="0.37809">
        <ele>113.400001526</ele>
        <time>2015-01-24T16:29:07Z</time>
      </trkpt>
      <trkpt lat="49.53062" lon="0.37806">
        <ele>113.199996948</ele>
        <time>2015-01-24T16:29:08Z</time>
      </trkpt>
      <trkpt lat="49.53063" lon="0.37794">
        <ele>111.900001526</ele>
        <time>2015-01-24T16:29:12Z</time>
      </trkpt>
      <trkpt lat="49.53063" lon="0.37791">
        <ele>111.599998474</ele>
        <time>2015-01-24T16:29:13Z</time>
      </trkpt>
      <trkpt lat="49.53065" lon="0.37778">
        <ele>110.800003052</ele>
        <time>2015-01-24T16:29:17Z</time>
      </trkpt>
      <trkpt lat="49.53065" lon="0.37775">
        <ele>110.699996948</ele>
        <time>2015-01-24T16:29:18Z</time>
      </trkpt>
      <trkpt lat="49.53065" lon="0.37761">
        <ele>109.199996948</ele>
        <time>2015-01-24T16:29:23Z</time>
      </trkpt>
      <trkpt lat="49.53065" lon="0.37759">
        <ele>109.099998474</ele>
        <time>2015-01-24T16:29:24Z</time>
      </trkpt>
      <trkpt lat="49.53066" lon="0.37748">
        <ele>108.599998474</ele>
        <time>2015-01-24T16:29:28Z</time>
      </trkpt>
      <trkpt lat="49.53066" lon="0.37745">
        <ele>108.5</ele>
        <time>2015-01-24T16:29:29Z</time>
      </trkpt>
      <trkpt lat="49.53066" lon="0.37732">
        <ele>107.5</ele>
        <time>2015-01-24T16:29:34Z</time>
      </trkpt>
      <trkpt lat="49.53065" lon="0.3773">
        <ele>107.300003052</ele>
        <time>2015-01-24T16:29:35Z</time>
      </trkpt>
      <trkpt lat="49.53065" lon="0.37716">
        <ele>106.800003052</ele>
        <time>2015-01-24T16:29:40Z</time>
      </trkpt>
      <trkpt lat="49.53065" lon="0.37714">
        <ele>106.699996948</ele>
        <time>2015-01-24T16:29:41Z</time>
      </trkpt>
      <trkpt lat="49.53063" lon="0.37701">
        <ele>106.400001526</ele>
        <time>2015-01-24T16:29:46Z</time>
      </trkpt>
      <trkpt lat="49.53063" lon="0.37698">
        <ele>106.199996948</ele>
        <time>2015-01-24T16:29:47Z</time>
      </trkpt>
      <trkpt lat="49.53062" lon="0.37685">
        <ele>105.199996948</ele>
        <time>2015-01-24T16:29:52Z</time>
      </trkpt>
      <trkpt lat="49.53061" lon="0.37683">
        <ele>105.099998474</ele>
        <time>2015-01-24T16:29:53Z</time>
      </trkpt>
      <trkpt lat="49.53061" lon="0.37669">
        <ele>104.400001526</ele>
        <time>2015-01-24T16:29:58Z</time>
      </trkpt>
      <trkpt lat="49.53061" lon="0.37666">
        <ele>104.300003052</ele>
        <time>2015-01-24T16:29:59Z</time>
      </trkpt>
      <trkpt lat="49.53062" lon="0.37654">
        <ele>104.699996948</ele>
        <time>2015-01-24T16:30:04Z</time>
      </trkpt>
      <trkpt lat="49.53062" lon="0.37651">
        <ele>104.699996948</ele>
        <time>2015-01-24T16:30:05Z</time>
      </trkpt>
      <trkpt lat="49.53063" lon="0.3764">
        <ele>104.599998474</ele>
        <time>2015-01-24T16:30:09Z</time>
      </trkpt>
      <trkpt lat="49.53063" lon="0.37637">
        <ele>104.5</ele>
        <time>2015-01-24T16:30:10Z</time>
      </trkpt>
      <trkpt lat="49.53065" lon="0.37624">
        <ele>103.800003052</ele>
        <time>2015-01-24T16:30:15Z</time>
      </trkpt>
      <trkpt lat="49.53066" lon="0.37622">
        <ele>103.599998474</ele>
        <time>2015-01-24T16:30:16Z</time>
      </trkpt>
      <trkpt lat="49.53066" lon="0.37609">
        <ele>103.400001526</ele>
        <time>2015-01-24T16:30:20Z</time>
      </trkpt>
      <trkpt lat="49.53066" lon="0.37606">
        <ele>103.599998474</ele>
        <time>2015-01-24T16:30:21Z</time>
      </trkpt>
      <trkpt lat="49.53067" lon="0.37594">
        <ele>104.099998474</ele>
        <time>2015-01-24T16:30:25Z</time>
      </trkpt>
      <trkpt lat="49.53067" lon="0.37591">
        <ele>104.199996948</ele>
        <time>2015-01-24T16:30:26Z</time>
      </trkpt>
      <trkpt lat="49.5307" lon="0.3758">
        <ele>104.800003052</ele>
        <time>2015-01-24T16:30:30Z</time>
      </trkpt>
      <trkpt lat="49.53071" lon="0.37577">
        <ele>105.099998474</ele>
        <time>2015-01-24T16:30:31Z</time>
      </trkpt>
      <trkpt lat="49.53074" lon="0.37564">
        <ele>106.400001526</ele>
        <time>2015-01-24T16:30:37Z</time>
      </trkpt>
      <trkpt lat="49.53074" lon="0.37562">
        <ele>106.5</ele>
        <time>2015-01-24T16:30:38Z</time>
      </trkpt>
      <trkpt lat="49.53077" lon="0.37551">
        <ele>107.099998474</ele>
        <time>2015-01-24T16:30:42Z</time>
      </trkpt>
      <trkpt lat="49.53078" lon="0.37549">
        <ele>107.099998474</ele>
        <time>2015-01-24T16:30:43Z</time>
      </trkpt>
      <trkpt lat="49.5308" lon="0.37538">
        <ele>107.400001526</ele>
        <time>2015-01-24T16:30:47Z</time>
      </trkpt>
      <trkpt lat="49.53081" lon="0.37536">
        <ele>107.400001526</ele>
        <time>2015-01-24T16:30:48Z</time>
      </trkpt>
      <trkpt lat="49.53083" lon="0.37525">
        <ele>108</ele>
        <time>2015-01-24T16:30:52Z</time>
      </trkpt>
      <trkpt lat="49.53083" lon="0.37522">
        <ele>108</ele>
        <time>2015-01-24T16:30:53Z</time>
      </trkpt>
      <trkpt lat="49.53087" lon="0.37509">
        <ele>108.599998474</ele>
        <time>2015-01-24T16:30:58Z</time>
      </trkpt>
      <trkpt lat="49.53088" lon="0.37507">
        <ele>108.699996948</ele>
        <time>2015-01-24T16:30:59Z</time>
      </trkpt>
      <trkpt lat="49.53089" lon="0.37495">
        <ele>108.800003052</ele>
        <time>2015-01-24T16:31:03Z</time>
      </trkpt>
      <trkpt lat="49.53089" lon="0.37493">
        <ele>108.699996948</ele>
        <time>2015-01-24T16:31:04Z</time>
      </trkpt>
      <trkpt lat="49.53091" lon="0.3748">
        <ele>108.800003052</ele>
        <time>2015-01-24T16:31:09Z</time>
      </trkpt>
      <trkpt lat="49.53091" lon="0.37478">
        <ele>108.900001526</ele>
        <time>2015-01-24T16:31:10Z</time>
      </trkpt>
      <trkpt lat="49.53093" lon="0.37467">
        <ele>109.199996948</ele>
        <time>2015-01-24T16:31:14Z</time>
      </trkpt>
      <trkpt lat="49.53093" lon="0.37464">
        <ele>109.099998474</ele>
        <time>2015-01-24T16:31:15Z</time>
      </trkpt>
      <trkpt lat="49.53094" lon="0.37451">
        <ele>109.099998474</ele>
        <time>2015-01-24T16:31:20Z</time>
      </trkpt>
      <trkpt lat="49.53094" lon="0.37448">
        <ele>108.900001526</ele>
        <time>2015-01-24T16:31:21Z</time>
      </trkpt>
      <trkpt lat="49.53095" lon="0.37435">
        <ele>108.5</ele>
        <time>2015-01-24T16:31:26Z</time>
      </trkpt>
      <trkpt lat="49.53095" lon="0.37432">
        <ele>108.300003052</ele>
        <time>2015-01-24T16:31:27Z</time>
      </trkpt>
      <trkpt lat="49.53095" lon="0.37418">
        <ele>107.900001526</ele>
        <time>2015-01-24T16:31:32Z</time>
      </trkpt>
      <trkpt lat="49.53095" lon="0.37416">
        <ele>107.699996948</ele>
        <time>2015-01-24T16:31:33Z</time>
      </trkpt>
      <trkpt lat="49.53096" lon="0.37404">
        <ele>107.099998474</ele>
        <time>2015-01-24T16:31:38Z</time>
      </trkpt>
      <trkpt lat="49.53095" lon="0.37401">
        <ele>107</ele>
        <time>2015-01-24T16:31:39Z</time>
      </trkpt>
      <trkpt lat="49.53095" lon="0.37388">
        <ele>107.5</ele>
        <time>2015-01-24T16:31:44Z</time>
      </trkpt>
      <trkpt lat="49.53096" lon="0.37386">
        <ele>107.599998474</ele>
        <time>2015-01-24T16:31:45Z</time>
      </trkpt>
      <trkpt lat="49.53097" lon="0.37373">
        <ele>108.5</ele>
        <time>2015-01-24T16:31:50Z</time>
      </trkpt>
      <trkpt lat="49.53097" lon="0.3737">
        <ele>108.699996948</ele>
        <time>2015-01-24T16:31:51Z</time>
      </trkpt>
      <trkpt lat="49.53097" lon="0.37357">
        <ele>109.300003052</ele>
        <time>2015-01-24T16:31:56Z</time>
      </trkpt>
      <trkpt lat="49.53097" lon="0.37353">
        <ele>109.5</ele>
        <time>2015-01-24T16:31:57Z</time>
      </trkpt>
      <trkpt lat="49.53097" lon="0.37342">
        <ele>109.699996948</ele>
        <time>2015-01-24T16:32:01Z</time>
      </trkpt>
      <trkpt lat="49.53096" lon="0.37339">
        <ele>109.699996948</ele>
        <time>2015-01-24T16:32:02Z</time>
      </trkpt>
      <trkpt lat="49.53096" lon="0.37326">
        <ele>110.300003052</ele>
        <time>2015-01-24T16:32:08Z</time>
      </trkpt>
      <trkpt lat="49.53096" lon="0.37324">
        <ele>110.400001526</ele>
        <time>2015-01-24T16:32:09Z</time>
      </trkpt>
      <trkpt lat="49.53096" lon="0.37311">
        <ele>111.199996948</ele>
        <time>2015-01-24T16:32:14Z</time>
      </trkpt>
      <trkpt lat="49.53096" lon="0.37308">
        <ele>111.300003052</ele>
        <time>2015-01-24T16:32:15Z</time>
      </trkpt>
      <trkpt lat="49.53096" lon="0.37294">
        <ele>111.199996948</ele>
        <time>2015-01-24T16:32:20Z</time>
      </trkpt>
      <trkpt lat="49.53096" lon="0.37292">
        <ele>111.300003052</ele>
        <time>2015-01-24T16:32:21Z</time>
      </trkpt>
      <trkpt lat="49.53096" lon="0.37279">
        <ele>111.400001526</ele>
        <time>2015-01-24T16:32:26Z</time>
      </trkpt>
      <trkpt lat="49.53095" lon="0.37276">
        <ele>111.400001526</ele>
        <time>2015-01-24T16:32:27Z</time>
      </trkpt>
      <trkpt lat="49.53094" lon="0.37263">
        <ele>111.5</ele>
        <time>2015-01-24T16:32:32Z</time>
      </trkpt>
      <trkpt lat="49.53094" lon="0.3726">
        <ele>111.599998474</ele>
        <time>2015-01-24T16:32:33Z</time>
      </trkpt>
      <trkpt lat="49.53093" lon="0.37247">
        <ele>111.099998474</ele>
        <time>2015-01-24T16:32:37Z</time>
      </trkpt>
      <trkpt lat="49.53093" lon="0.37244">
        <ele>110.900001526</ele>
        <time>2015-01-24T16:32:38Z</time>
      </trkpt>
      <trkpt lat="49.53092" lon="0.37232">
        <ele>110.400001526</ele>
        <time>2015-01-24T16:32:43Z</time>
      </trkpt>
      <trkpt lat="49.53092" lon="0.37229">
        <ele>110.400001526</ele>
        <time>2015-01-24T16:32:44Z</time>
      </trkpt>
      <trkpt lat="49.53091" lon="0.37216">
        <ele>110.099998474</ele>
        <time>2015-01-24T16:32:49Z</time>
      </trkpt>
      <trkpt lat="49.53091" lon="0.37213">
        <ele>110.099998474</ele>
        <time>2015-01-24T16:32:50Z</time>
      </trkpt>
      <trkpt lat="49.53089" lon="0.37201">
        <ele>109.699996948</ele>
        <time>2015-01-24T16:32:54Z</time>
      </trkpt>
      <trkpt lat="49.53088" lon="0.37199">
        <ele>109.5</ele>
        <time>2015-01-24T16:32:55Z</time>
      </trkpt>
      <trkpt lat="49.53086" lon="0.37186">
        <ele>109</ele>
        <time>2015-01-24T16:33:00Z</time>
      </trkpt>
      <trkpt lat="49.53085" lon="0.37183">
        <ele>108.800003052</ele>
        <time>2015-01-24T16:33:01Z</time>
      </trkpt>
      <trkpt lat="49.53083" lon="0.37172">
        <ele>108</ele>
        <time>2015-01-24T16:33:06Z</time>
      </trkpt>
      <trkpt lat="49.53082" lon="0.3717">
        <ele>107.800003052</ele>
        <time>2015-01-24T16:33:07Z</time>
      </trkpt>
      <trkpt lat="49.53078" lon="0.3716">
        <ele>106.900001526</ele>
        <time>2015-01-24T16:33:11Z</time>
      </trkpt>
      <trkpt lat="49.53077" lon="0.37156">
        <ele>106.599998474</ele>
        <time>2015-01-24T16:33:12Z</time>
      </trkpt>
      <trkpt lat="49.53076" lon="0.37145">
        <ele>105.900001526</ele>
        <time>2015-01-24T16:33:16Z</time>
      </trkpt>
      <trkpt lat="49.53076" lon="0.37142">
        <ele>105.900001526</ele>
        <time>2015-01-24T16:33:17Z</time>
      </trkpt>
      <trkpt lat="49.53073" lon="0.3713">
        <ele>105.300003052</ele>
        <time>2015-01-24T16:33:22Z</time>
      </trkpt>
      <trkpt lat="49.53073" lon="0.37128">
        <ele>105.099998474</ele>
        <time>2015-01-24T16:33:23Z</time>
      </trkpt>
      <trkpt lat="49.53071" lon="0.37118">
        <ele>105.400001526</ele>
        <time>2015-01-24T16:33:27Z</time>
      </trkpt>
      <trkpt lat="49.53071" lon="0.37115">
        <ele>105.5</ele>
        <time>2015-01-24T16:33:28Z</time>
      </trkpt>
      <trkpt lat="49.53068" lon="0.37103">
        <ele>105.900001526</ele>
        <time>2015-01-24T16:33:33Z</time>
      </trkpt>
      <trkpt lat="49.53068" lon="0.37101">
        <ele>106</ele>
        <time>2015-01-24T16:33:34Z</time>
      </trkpt>
      <trkpt lat="49.53065" lon="0.3709">
        <ele>105.699996948</ele>
        <time>2015-01-24T16:33:38Z</time>
      </trkpt>
      <trkpt lat="49.53066" lon="0.37087">
        <ele>105.800003052</ele>
        <time>2015-01-24T16:33:39Z</time>
      </trkpt>
      <trkpt lat="49.53064" lon="0.37075">
        <ele>105.900001526</ele>
        <time>2015-01-24T16:33:44Z</time>
      </trkpt>
      <trkpt lat="49.53063" lon="0.37072">
        <ele>105.900001526</ele>
        <time>2015-01-24T16:33:45Z</time>
      </trkpt>
      <trkpt lat="49.53062" lon="0.3706">
        <ele>105.099998474</ele>
        <time>2015-01-24T16:33:50Z</time>
      </trkpt>
      <trkpt lat="49.53062" lon="0.37058">
        <ele>104.900001526</ele>
        <time>2015-01-24T16:33:51Z</time>
      </trkpt>
      <trkpt lat="49.53061" lon="0.37045">
        <ele>106.599998474</ele>
        <time>2015-01-24T16:33:59Z</time>
      </trkpt>
      <trkpt lat="49.5306" lon="0.37042">
        <ele>106.599998474</ele>
        <time>2015-01-24T16:34:00Z</time>
      </trkpt>
      <trkpt lat="49.53059" lon="0.3703">
        <ele>107</ele>
        <time>2015-01-24T16:34:05Z</time>
      </trkpt>
      <trkpt lat="49.53059" lon="0.37027">
        <ele>107</ele>
        <time>2015-01-24T16:34:06Z</time>
      </trkpt>
      <trkpt lat="49.53056" lon="0.37017">
        <ele>107</ele>
        <time>2015-01-24T16:34:10Z</time>
      </trkpt>
      <trkpt lat="49.53056" lon="0.37014">
        <ele>106.900001526</ele>
        <time>2015-01-24T16:34:11Z</time>
      </trkpt>
      <trkpt lat="49.53055" lon="0.37001">
        <ele>107.300003052</ele>
        <time>2015-01-24T16:34:16Z</time>
      </trkpt>
      <trkpt lat="49.53055" lon="0.36998">
        <ele>107.199996948</ele>
        <time>2015-01-24T16:34:17Z</time>
      </trkpt>
      <trkpt lat="49.53054" lon="0.36985">
        <ele>107.800003052</ele>
        <time>2015-01-24T16:34:22Z</time>
      </trkpt>
      <trkpt lat="49.53054" lon="0.36983">
        <ele>108</ele>
        <time>2015-01-24T16:34:23Z</time>
      </trkpt>
      <trkpt lat="49.53054" lon="0.3697">
        <ele>109.300003052</ele>
        <time>2015-01-24T16:34:29Z</time>
      </trkpt>
      <trkpt lat="49.53054" lon="0.36967">
        <ele>109.300003052</ele>
        <time>2015-01-24T16:34:30Z</time>
      </trkpt>
      <trkpt lat="49.53054" lon="0.36955">
        <ele>110</ele>
        <time>2015-01-24T16:34:35Z</time>
      </trkpt>
      <trkpt lat="49.53054" lon="0.36953">
        <ele>110.099998474</ele>
        <time>2015-01-24T16:34:36Z</time>
      </trkpt>
      <trkpt lat="49.53054" lon="0.3694">
        <ele>110.400001526</ele>
        <time>2015-01-24T16:34:41Z</time>
      </trkpt>
      <trkpt lat="49.53053" lon="0.36939">
        <ele>110.599998474</ele>
        <time>2015-01-24T16:34:42Z</time>
      </trkpt>
      <trkpt lat="49.53054" lon="0.36927">
        <ele>110.900001526</ele>
        <time>2015-01-24T16:34:47Z</time>
      </trkpt>
      <trkpt lat="49.53054" lon="0.36924">
        <ele>111</ele>
        <time>2015-01-24T16:34:48Z</time>
      </trkpt>
      <trkpt lat="49.53053" lon="0.36911">
        <ele>112.099998474</ele>
        <time>2015-01-24T16:34:54Z</time>
      </trkpt>
      <trkpt lat="49.53053" lon="0.36909">
        <ele>112.099998474</ele>
        <time>2015-01-24T16:34:55Z</time>
      </trkpt>
      <trkpt lat="49.53053" lon="0.36895">
        <ele>112.5</ele>
        <time>2015-01-24T16:35:01Z</time>
      </trkpt>
      <trkpt lat="49.53053" lon="0.36892">
        <ele>112.699996948</ele>
        <time>2015-01-24T16:35:02Z</time>
      </trkpt>
      <trkpt lat="49.53052" lon="0.3688">
        <ele>113.300003052</ele>
        <time>2015-01-24T16:35:07Z</time>
      </trkpt>
      <trkpt lat="49.53052" lon="0.36877">
        <ele>113.400001526</ele>
        <time>2015-01-24T16:35:08Z</time>
      </trkpt>
      <trkpt lat="49.53052" lon="0.36864">
        <ele>113.599998474</ele>
        <time>2015-01-24T16:35:14Z</time>
      </trkpt>
      <trkpt lat="49.53052" lon="0.36862">
        <ele>113.599998474</ele>
        <time>2015-01-24T16:35:15Z</time>
      </trkpt>
      <trkpt lat="49.53052" lon="0.3685">
        <ele>113.800003052</ele>
        <time>2015-01-24T16:35:20Z</time>
      </trkpt>
      <trkpt lat="49.53052" lon="0.36848">
        <ele>113.900001526</ele>
        <time>2015-01-24T16:35:21Z</time>
      </trkpt>
      <trkpt lat="49.53052" lon="0.36835">
        <ele>114.800003052</ele>
        <time>2015-01-24T16:35:27Z</time>
      </trkpt>
      <trkpt lat="49.53052" lon="0.36832">
        <ele>114.800003052</ele>
        <time>2015-01-24T16:35:28Z</time>
      </trkpt>
      <trkpt lat="49.53052" lon="0.36818">
        <ele>115.300003052</ele>
        <time>2015-01-24T16:35:34Z</time>
      </trkpt>
      <trkpt lat="49.53052" lon="0.36816">
        <ele>115.400001526</ele>
        <time>2015-01-24T16:35:35Z</time>
      </trkpt>
      <trkpt lat="49.53053" lon="0.36804">
        <ele>115.599998474</ele>
        <time>2015-01-24T16:35:40Z</time>
      </trkpt>
      <trkpt lat="49.53053" lon="0.36802">
        <ele>115.599998474</ele>
        <time>2015-01-24T16:35:41Z</time>
      </trkpt>
      <trkpt lat="49.53051" lon="0.36789">
        <ele>115.599998474</ele>
        <time>2015-01-24T16:35:47Z</time>
      </trkpt>
      <trkpt lat="49.53051" lon="0.36787">
        <ele>115.699996948</ele>
        <time>2015-01-24T16:35:48Z</time>
      </trkpt>
      <trkpt lat="49.53051" lon="0.36774">
        <ele>116.199996948</ele>
        <time>2015-01-24T16:35:53Z</time>
      </trkpt>
      <trkpt lat="49.53051" lon="0.36772">
        <ele>116.300003052</ele>
        <time>2015-01-24T16:35:54Z</time>
      </trkpt>
      <trkpt lat="49.53052" lon="0.36759">
        <ele>116.5</ele>
        <time>2015-01-24T16:35:59Z</time>
      </trkpt>
      <trkpt lat="49.53052" lon="0.36756">
        <ele>116.5</ele>
        <time>2015-01-24T16:36:00Z</time>
      </trkpt>
      <trkpt lat="49.53052" lon="0.36744">
        <ele>116.699996948</ele>
        <time>2015-01-24T16:36:05Z</time>
      </trkpt>
      <trkpt lat="49.53052" lon="0.36742">
        <ele>116.900001526</ele>
        <time>2015-01-24T16:36:06Z</time>
      </trkpt>
      <trkpt lat="49.53053" lon="0.3673">
        <ele>116.400001526</ele>
        <time>2015-01-24T16:36:12Z</time>
      </trkpt>
      <trkpt lat="49.53053" lon="0.36728">
        <ele>116.300003052</ele>
        <time>2015-01-24T16:36:13Z</time>
      </trkpt>
      <trkpt lat="49.53054" lon="0.36715">
        <ele>116.5</ele>
        <time>2015-01-24T16:36:20Z</time>
      </trkpt>
      <trkpt lat="49.53055" lon="0.36714">
        <ele>116.5</ele>
        <time>2015-01-24T16:36:21Z</time>
      </trkpt>
      <trkpt lat="49.53055" lon="0.36701">
        <ele>115.400001526</ele>
        <time>2015-01-24T16:36:31Z</time>
      </trkpt>
      <trkpt lat="49.53055" lon="0.36699">
        <ele>115.300003052</ele>
        <time>2015-01-24T16:36:32Z</time>
      </trkpt>
      <trkpt lat="49.53056" lon="0.36686">
        <ele>114.199996948</ele>
        <time>2015-01-24T16:36:38Z</time>
      </trkpt>
      <trkpt lat="49.53056" lon="0.36684">
        <ele>114.099998474</ele>
        <time>2015-01-24T16:36:39Z</time>
      </trkpt>
      <trkpt lat="49.53056" lon="0.36671">
        <ele>112.800003052</ele>
        <time>2015-01-24T16:36:45Z</time>
      </trkpt>
      <trkpt lat="49.53056" lon="0.36668">
        <ele>112.599998474</ele>
        <time>2015-01-24T16:36:46Z</time>
      </trkpt>
      <trkpt lat="49.53056" lon="0.36656">
        <ele>112.599998474</ele>
        <time>2015-01-24T16:36:51Z</time>
      </trkpt>
      <trkpt lat="49.53056" lon="0.36654">
        <ele>112.599998474</ele>
        <time>2015-01-24T16:36:52Z</time>
      </trkpt>
      <trkpt lat="49.53056" lon="0.36643">
        <ele>112.900001526</ele>
        <time>2015-01-24T16:36:56Z</time>
      </trkpt>
      <trkpt lat="49.53056" lon="0.3664">
        <ele>113</ele>
        <time>2015-01-24T16:36:57Z</time>
      </trkpt>
      <trkpt lat="49.53057" lon="0.36627">
        <ele>114</ele>
        <time>2015-01-24T16:37:03Z</time>
      </trkpt>
      <trkpt lat="49.53058" lon="0.36625">
        <ele>114.199996948</ele>
        <time>2015-01-24T16:37:04Z</time>
      </trkpt>
      <trkpt lat="49.53059" lon="0.36614">
        <ele>114.800003052</ele>
        <time>2015-01-24T16:37:09Z</time>
      </trkpt>
      <trkpt lat="49.53059" lon="0.36611">
        <ele>114.900001526</ele>
        <time>2015-01-24T16:37:10Z</time>
      </trkpt>
      <trkpt lat="49.53061" lon="0.36601">
        <ele>115</ele>
        <time>2015-01-24T16:37:15Z</time>
      </trkpt>
      <trkpt lat="49.53062" lon="0.36598">
        <ele>115.099998474</ele>
        <time>2015-01-24T16:37:16Z</time>
      </trkpt>
      <trkpt lat="49.53062" lon="0.36585">
        <ele>115.300003052</ele>
        <time>2015-01-24T16:37:22Z</time>
      </trkpt>
      <trkpt lat="49.53063" lon="0.36583">
        <ele>115.300003052</ele>
        <time>2015-01-24T16:37:23Z</time>
      </trkpt>
      <trkpt lat="49.53063" lon="0.36571">
        <ele>115.5</ele>
        <time>2015-01-24T16:37:28Z</time>
      </trkpt>
      <trkpt lat="49.53063" lon="0.36569">
        <ele>115.5</ele>
        <time>2015-01-24T16:37:29Z</time>
      </trkpt>
      <trkpt lat="49.53064" lon="0.36555">
        <ele>115.599998474</ele>
        <time>2015-01-24T16:37:35Z</time>
      </trkpt>
      <trkpt lat="49.53064" lon="0.36553">
        <ele>115.699996948</ele>
        <time>2015-01-24T16:37:36Z</time>
      </trkpt>
      <trkpt lat="49.53065" lon="0.36541">
        <ele>116.199996948</ele>
        <time>2015-01-24T16:37:41Z</time>
      </trkpt>
      <trkpt lat="49.53065" lon="0.36539">
        <ele>116.300003052</ele>
        <time>2015-01-24T16:37:42Z</time>
      </trkpt>
      <trkpt lat="49.53066" lon="0.36526">
        <ele>116.800003052</ele>
        <time>2015-01-24T16:37:49Z</time>
      </trkpt>
      <trkpt lat="49.53066" lon="0.36524">
        <ele>116.800003052</ele>
        <time>2015-01-24T16:37:50Z</time>
      </trkpt>
      <trkpt lat="49.53067" lon="0.36511">
        <ele>117.300003052</ele>
        <time>2015-01-24T16:37:56Z</time>
      </trkpt>
      <trkpt lat="49.53067" lon="0.36509">
        <ele>117.5</ele>
        <time>2015-01-24T16:37:57Z</time>
      </trkpt>
      <trkpt lat="49.53069" lon="0.36497">
        <ele>118.300003052</ele>
        <time>2015-01-24T16:38:02Z</time>
      </trkpt>
      <trkpt lat="49.53069" lon="0.36494">
        <ele>118.5</ele>
        <time>2015-01-24T16:38:03Z</time>
      </trkpt>
      <trkpt lat="49.5307" lon="0.36482">
        <ele>119.5</ele>
        <time>2015-01-24T16:38:08Z</time>
      </trkpt>
      <trkpt lat="49.53071" lon="0.3648">
        <ele>119.800003052</ele>
        <time>2015-01-24T16:38:09Z</time>
      </trkpt>
      <trkpt lat="49.53071" lon="0.36468">
        <ele>120.5</ele>
        <time>2015-01-24T16:38:14Z</time>
      </trkpt>
      <trkpt lat="49.53071" lon="0.36466">
        <ele>120.5</ele>
        <time>2015-01-24T16:38:15Z</time>
      </trkpt>
      <trkpt lat="49.53071" lon="0.36454">
        <ele>120.699996948</ele>
        <time>2015-01-24T16:38:20Z</time>
      </trkpt>
      <trkpt lat="49.53071" lon="0.36451">
        <ele>120.699996948</ele>
        <time>2015-01-24T16:38:21Z</time>
      </trkpt>
      <trkpt lat="49.5307" lon="0.3644">
        <ele>120.900001526</ele>
        <time>2015-01-24T16:38:26Z</time>
      </trkpt>
      <trkpt lat="49.5307" lon="0.36437">
        <ele>121</ele>
        <time>2015-01-24T16:38:27Z</time>
      </trkpt>
      <trkpt lat="49.53069" lon="0.36425">
        <ele>121.699996948</ele>
        <time>2015-01-24T16:38:32Z</time>
      </trkpt>
      <trkpt lat="49.53069" lon="0.36423">
        <ele>121.900001526</ele>
        <time>2015-01-24T16:38:33Z</time>
      </trkpt>
      <trkpt lat="49.53069" lon="0.36411">
        <ele>122.5</ele>
        <time>2015-01-24T16:38:38Z</time>
      </trkpt>
      <trkpt lat="49.53069" lon="0.36409">
        <ele>122.699996948</ele>
        <time>2015-01-24T16:38:39Z</time>
      </trkpt>
      <trkpt lat="49.53068" lon="0.36396">
        <ele>123.300003052</ele>
        <time>2015-01-24T16:38:45Z</time>
      </trkpt>
      <trkpt lat="49.53068" lon="0.36393">
        <ele>123.199996948</ele>
        <time>2015-01-24T16:38:46Z</time>
      </trkpt>
      <trkpt lat="49.53068" lon="0.3638">
        <ele>122.699996948</ele>
        <time>2015-01-24T16:38:52Z</time>
      </trkpt>
      <trkpt lat="49.53068" lon="0.36378">
        <ele>122.699996948</ele>
        <time>2015-01-24T16:38:53Z</time>
      </trkpt>
      <trkpt lat="49.53068" lon="0.36365">
        <ele>122.800003052</ele>
        <time>2015-01-24T16:38:59Z</time>
      </trkpt>
      <trkpt lat="49.53069" lon="0.36363">
        <ele>122.800003052</ele>
        <time>2015-01-24T16:39:00Z</time>
      </trkpt>
      <trkpt lat="49.53068" lon="0.36351">
        <ele>123.5</ele>
        <time>2015-01-24T16:39:07Z</time>
      </trkpt>
      <trkpt lat="49.53067" lon="0.36349">
        <ele>123.699996948</ele>
        <time>2015-01-24T16:39:08Z</time>
      </trkpt>
      <trkpt lat="49.53062" lon="0.36339">
        <ele>124</ele>
        <time>2015-01-24T16:39:16Z</time>
      </trkpt>
      <trkpt lat="49.53061" lon="0.36338">
        <ele>124</ele>
        <time>2015-01-24T16:39:17Z</time>
      </trkpt>
      <trkpt lat="49.53053" lon="0.36342">
        <ele>124.599998474</ele>
        <time>2015-01-24T16:39:26Z</time>
      </trkpt>
      <trkpt lat="49.53051" lon="0.36344">
        <ele>124.5</ele>
        <time>2015-01-24T16:39:27Z</time>
      </trkpt>
      <trkpt lat="49.53044" lon="0.36349">
        <ele>124.099998474</ele>
        <time>2015-01-24T16:39:33Z</time>
      </trkpt>
      <trkpt lat="49.53042" lon="0.36349">
        <ele>124.199996948</ele>
        <time>2015-01-24T16:39:34Z</time>
      </trkpt>
      <trkpt lat="49.53035" lon="0.36352">
        <ele>124.5</ele>
        <time>2015-01-24T16:39:39Z</time>
      </trkpt>
      <trkpt lat="49.53033" lon="0.36353">
        <ele>124.599998474</ele>
        <time>2015-01-24T16:39:40Z</time>
      </trkpt>
      <trkpt lat="49.53026" lon="0.36358">
        <ele>124.900001526</ele>
        <time>2015-01-24T16:39:45Z</time>
      </trkpt>
      <trkpt lat="49.53025" lon="0.3636">
        <ele>125</ele>
        <time>2015-01-24T16:39:46Z</time>
      </trkpt>
      <trkpt lat="49.53017" lon="0.36364">
        <ele>125.599998474</ele>
        <time>2015-01-24T16:39:52Z</time>
      </trkpt>
      <trkpt lat="49.53016" lon="0.36364">
        <ele>125.699996948</ele>
        <time>2015-01-24T16:39:53Z</time>
      </trkpt>
      <trkpt lat="49.5301" lon="0.36371">
        <ele>125.699996948</ele>
        <time>2015-01-24T16:39:57Z</time>
      </trkpt>
      <trkpt lat="49.53008" lon="0.36372">
        <ele>125.699996948</ele>
        <time>2015-01-24T16:39:58Z</time>
      </trkpt>
      <trkpt lat="49.53" lon="0.36375">
        <ele>126.300003052</ele>
        <time>2015-01-24T16:40:05Z</time>
      </trkpt>
      <trkpt lat="49.52998" lon="0.36376">
        <ele>126.300003052</ele>
        <time>2015-01-24T16:40:06Z</time>
      </trkpt>
      <trkpt lat="49.52991" lon="0.3638">
        <ele>126.900001526</ele>
        <time>2015-01-24T16:40:11Z</time>
      </trkpt>
      <trkpt lat="49.52989" lon="0.36381">
        <ele>127.199996948</ele>
        <time>2015-01-24T16:40:12Z</time>
      </trkpt>
      <trkpt lat="49.52981" lon="0.36383">
        <ele>128</ele>
        <time>2015-01-24T16:40:18Z</time>
      </trkpt>
      <trkpt lat="49.52979" lon="0.36383">
        <ele>128.199996948</ele>
        <time>2015-01-24T16:40:19Z</time>
      </trkpt>
      <trkpt lat="49.52972" lon="0.3638">
        <ele>129</ele>
        <time>2015-01-24T16:40:25Z</time>
      </trkpt>
      <trkpt lat="49.5297" lon="0.3638">
        <ele>129.100006104</ele>
        <time>2015-01-24T16:40:26Z</time>
      </trkpt>
      <trkpt lat="49.52962" lon="0.36381">
        <ele>129.600006104</ele>
        <time>2015-01-24T16:40:31Z</time>
      </trkpt>
      <trkpt lat="49.5296" lon="0.36382">
        <ele>129.800003052</ele>
        <time>2015-01-24T16:40:32Z</time>
      </trkpt>
      <trkpt lat="49.52952" lon="0.36379">
        <ele>130.199996948</ele>
        <time>2015-01-24T16:40:38Z</time>
      </trkpt>
      <trkpt lat="49.5295" lon="0.36379">
        <ele>130.199996948</ele>
        <time>2015-01-24T16:40:39Z</time>
      </trkpt>
      <trkpt lat="49.52943" lon="0.36376">
        <ele>130.5</ele>
        <time>2015-01-24T16:40:44Z</time>
      </trkpt>
      <trkpt lat="49.52941" lon="0.36375">
        <ele>130.800003052</ele>
        <time>2015-01-24T16:40:45Z</time>
      </trkpt>
      <trkpt lat="49.52934" lon="0.3637">
        <ele>132.199996948</ele>
        <time>2015-01-24T16:40:51Z</time>
      </trkpt>
      <trkpt lat="49.52932" lon="0.36369">
        <ele>132.300003052</ele>
        <time>2015-01-24T16:40:52Z</time>
      </trkpt>
      <trkpt lat="49.52924" lon="0.36362">
        <ele>132.699996948</ele>
        <time>2015-01-24T16:40:57Z</time>
      </trkpt>
      <trkpt lat="49.52923" lon="0.36361">
        <ele>132.899993896</ele>
        <time>2015-01-24T16:40:58Z</time>
      </trkpt>
      <trkpt lat="49.52916" lon="0.36354">
        <ele>133.399993896</ele>
        <time>2015-01-24T16:41:04Z</time>
      </trkpt>
      <trkpt lat="49.52915" lon="0.36352">
        <ele>133.5</ele>
        <time>2015-01-24T16:41:05Z</time>
      </trkpt>
      <trkpt lat="49.52908" lon="0.36346">
        <ele>133.899993896</ele>
        <time>2015-01-24T16:41:11Z</time>
      </trkpt>
      <trkpt lat="49.52907" lon="0.36346">
        <ele>134</ele>
        <time>2015-01-24T16:41:12Z</time>
      </trkpt>
      <trkpt lat="49.52898" lon="0.36345">
        <ele>134.100006104</ele>
        <time>2015-01-24T16:41:18Z</time>
      </trkpt>
      <trkpt lat="49.52897" lon="0.36344">
        <ele>134.100006104</ele>
        <time>2015-01-24T16:41:19Z</time>
      </trkpt>
      <trkpt lat="49.52891" lon="0.36338">
        <ele>133.600006104</ele>
        <time>2015-01-24T16:41:24Z</time>
      </trkpt>
      <trkpt lat="49.52889" lon="0.36337">
        <ele>133.600006104</ele>
        <time>2015-01-24T16:41:25Z</time>
      </trkpt>
      <trkpt lat="49.52881" lon="0.36334">
        <ele>133.5</ele>
        <time>2015-01-24T16:41:30Z</time>
      </trkpt>
      <trkpt lat="49.5288" lon="0.36334">
        <ele>133.800003052</ele>
        <time>2015-01-24T16:41:31Z</time>
      </trkpt>
      <trkpt lat="49.52872" lon="0.36332">
        <ele>134</ele>
        <time>2015-01-24T16:41:36Z</time>
      </trkpt>
      <trkpt lat="49.52871" lon="0.36332">
        <ele>133.899993896</ele>
        <time>2015-01-24T16:41:37Z</time>
      </trkpt>
      <trkpt lat="49.52862" lon="0.36331">
        <ele>133.800003052</ele>
        <time>2015-01-24T16:41:43Z</time>
      </trkpt>
      <trkpt lat="49.52861" lon="0.3633">
        <ele>133.800003052</ele>
        <time>2015-01-24T16:41:44Z</time>
      </trkpt>
      <trkpt lat="49.52852" lon="0.36329">
        <ele>133.800003052</ele>
        <time>2015-01-24T16:41:50Z</time>
      </trkpt>
      <trkpt lat="49.52851" lon="0.36329">
        <ele>133.699996948</ele>
        <time>2015-01-24T16:41:51Z</time>
      </trkpt>
      <trkpt lat="49.52842" lon="0.3633">
        <ele>132.899993896</ele>
        <time>2015-01-24T16:41:58Z</time>
      </trkpt>
      <trkpt lat="49.52841" lon="0.36331">
        <ele>132.699996948</ele>
        <time>2015-01-24T16:41:59Z</time>
      </trkpt>
      <trkpt lat="49.52833" lon="0.36335">
        <ele>132.100006104</ele>
        <time>2015-01-24T16:42:07Z</time>
      </trkpt>
      <trkpt lat="49.52832" lon="0.36335">
        <ele>132</ele>
        <time>2015-01-24T16:42:08Z</time>
      </trkpt>
      <trkpt lat="49.52824" lon="0.36342">
        <ele>131.399993896</ele>
        <time>2015-01-24T16:42:12Z</time>
      </trkpt>
      <trkpt lat="49.52823" lon="0.36343">
        <ele>131.199996948</ele>
        <time>2015-01-24T16:42:13Z</time>
      </trkpt>
      <trkpt lat="49.52815" lon="0.36349">
        <ele>130.300003052</ele>
        <time>2015-01-24T16:42:19Z</time>
      </trkpt>
      <trkpt lat="49.52814" lon="0.3635">
        <ele>130.199996948</ele>
        <time>2015-01-24T16:42:20Z</time>
      </trkpt>
      <trkpt lat="49.52805" lon="0.36352">
        <ele>129.100006104</ele>
        <time>2015-01-24T16:42:26Z</time>
      </trkpt>
      <trkpt lat="49.52804" lon="0.36352">
        <ele>129</ele>
        <time>2015-01-24T16:42:27Z</time>
      </trkpt>
      <trkpt lat="49.52796" lon="0.36354">
        <ele>128.699996948</ele>
        <time>2015-01-24T16:42:34Z</time>
      </trkpt>
      <trkpt lat="49.52795" lon="0.36355">
        <ele>128.600006104</ele>
        <time>2015-01-24T16:42:35Z</time>
      </trkpt>
      <trkpt lat="49.52787" lon="0.3636">
        <ele>128.199996948</ele>
        <time>2015-01-24T16:42:41Z</time>
      </trkpt>
      <trkpt lat="49.52786" lon="0.36361">
        <ele>128.100006104</ele>
        <time>2015-01-24T16:42:42Z</time>
      </trkpt>
      <trkpt lat="49.52778" lon="0.36366">
        <ele>127.5</ele>
        <time>2015-01-24T16:42:47Z</time>
      </trkpt>
      <trkpt lat="49.52777" lon="0.36366">
        <ele>127.5</ele>
        <time>2015-01-24T16:42:48Z</time>
      </trkpt>
      <trkpt lat="49.5277" lon="0.3637">
        <ele>126.699996948</ele>
        <time>2015-01-24T16:42:54Z</time>
      </trkpt>
      <trkpt lat="49.52769" lon="0.36371">
        <ele>126.400001526</ele>
        <time>2015-01-24T16:42:55Z</time>
      </trkpt>
      <trkpt lat="49.5276" lon="0.36373">
        <ele>125.699996948</ele>
        <time>2015-01-24T16:43:02Z</time>
      </trkpt>
      <trkpt lat="49.52759" lon="0.36373">
        <ele>125.599998474</ele>
        <time>2015-01-24T16:43:03Z</time>
      </trkpt>
      <trkpt lat="49.52751" lon="0.36374">
        <ele>124.800003052</ele>
        <time>2015-01-24T16:43:09Z</time>
      </trkpt>
      <trkpt lat="49.5275" lon="0.36373">
        <ele>124.699996948</ele>
        <time>2015-01-24T16:43:10Z</time>
      </trkpt>
      <trkpt lat="49.52741" lon="0.36373">
        <ele>123.599998474</ele>
        <time>2015-01-24T16:43:16Z</time>
      </trkpt>
      <trkpt lat="49.52739" lon="0.36375">
        <ele>124.199996948</ele>
        <time>2015-01-24T16:43:17Z</time>
      </trkpt>
      <trkpt lat="49.52731" lon="0.36368">
        <ele>124.199996948</ele>
        <time>2015-01-24T16:43:23Z</time>
      </trkpt>
      <trkpt lat="49.5273" lon="0.36367">
        <ele>124.599998474</ele>
        <time>2015-01-24T16:43:24Z</time>
      </trkpt>
      <trkpt lat="49.52723" lon="0.3636">
        <ele>124.900001526</ele>
        <time>2015-01-24T16:43:30Z</time>
      </trkpt>
      <trkpt lat="49.52723" lon="0.36358">
        <ele>124.800003052</ele>
        <time>2015-01-24T16:43:31Z</time>
      </trkpt>
      <trkpt lat="49.52716" lon="0.36349">
        <ele>124.599998474</ele>
        <time>2015-01-24T16:43:37Z</time>
      </trkpt>
      <trkpt lat="49.52715" lon="0.36347">
        <ele>124.599998474</ele>
        <time>2015-01-24T16:43:38Z</time>
      </trkpt>
      <trkpt lat="49.52707" lon="0.3634">
        <ele>124.300003052</ele>
        <time>2015-01-24T16:43:45Z</time>
      </trkpt>
      <trkpt lat="49.52706" lon="0.36339">
        <ele>124.300003052</ele>
        <time>2015-01-24T16:43:46Z</time>
      </trkpt>
      <trkpt lat="49.52698" lon="0.3634">
        <ele>123.400001526</ele>
        <time>2015-01-24T16:43:52Z</time>
      </trkpt>
      <trkpt lat="49.52696" lon="0.3634">
        <ele>123.199996948</ele>
        <time>2015-01-24T16:43:53Z</time>
      </trkpt>
      <trkpt lat="49.52688" lon="0.36346">
        <ele>123</ele>
        <time>2015-01-24T16:43:59Z</time>
      </trkpt>
      <trkpt lat="49.52686" lon="0.36347">
        <ele>122.800003052</ele>
        <time>2015-01-24T16:44:00Z</time>
      </trkpt>
      <trkpt lat="49.52681" lon="0.36357">
        <ele>121.199996948</ele>
        <time>2015-01-24T16:44:08Z</time>
      </trkpt>
      <trkpt lat="49.5268" lon="0.36359">
        <ele>121.199996948</ele>
        <time>2015-01-24T16:44:09Z</time>
      </trkpt>
      <trkpt lat="49.52673" lon="0.36367">
        <ele>119.800003052</ele>
        <time>2015-01-24T16:44:16Z</time>
      </trkpt>
      <trkpt lat="49.52672" lon="0.36368">
        <ele>119.599998474</ele>
        <time>2015-01-24T16:44:17Z</time>
      </trkpt>
      <trkpt lat="49.52666" lon="0.36377">
        <ele>118.699996948</ele>
        <time>2015-01-24T16:44:24Z</time>
      </trkpt>
      <trkpt lat="49.52666" lon="0.36379">
        <ele>118.5</ele>
        <time>2015-01-24T16:44:25Z</time>
      </trkpt>
      <trkpt lat="49.52661" lon="0.36388">
        <ele>117.699996948</ele>
        <time>2015-01-24T16:44:30Z</time>
      </trkpt>
      <trkpt lat="49.52659" lon="0.3639">
        <ele>117.599998474</ele>
        <time>2015-01-24T16:44:31Z</time>
      </trkpt>
      <trkpt lat="49.52654" lon="0.36399">
        <ele>116.599998474</ele>
        <time>2015-01-24T16:44:38Z</time>
      </trkpt>
      <trkpt lat="49.52653" lon="0.36401">
        <ele>116.300003052</ele>
        <time>2015-01-24T16:44:39Z</time>
      </trkpt>
      <trkpt lat="49.52646" lon="0.36408">
        <ele>115.599998474</ele>
        <time>2015-01-24T16:44:45Z</time>
      </trkpt>
      <trkpt lat="49.52644" lon="0.3641">
        <ele>115.400001526</ele>
        <time>2015-01-24T16:44:46Z</time>
      </trkpt>
      <trkpt lat="49.52638" lon="0.36418">
        <ele>114.599998474</ele>
        <time>2015-01-24T16:44:53Z</time>
      </trkpt>
      <trkpt lat="49.52637" lon="0.36419">
        <ele>114.400001526</ele>
        <time>2015-01-24T16:44:54Z</time>
      </trkpt>
      <trkpt lat="49.5263" lon="0.36426">
        <ele>113.599998474</ele>
        <time>2015-01-24T16:45:01Z</time>
      </trkpt>
      <trkpt lat="49.52629" lon="0.36426">
        <ele>113.599998474</ele>
        <time>2015-01-24T16:45:02Z</time>
      </trkpt>
      <trkpt lat="49.52622" lon="0.36436">
        <ele>112.300003052</ele>
        <time>2015-01-24T16:45:09Z</time>
      </trkpt>
      <trkpt lat="49.52622" lon="0.36438">
        <ele>112</ele>
        <time>2015-01-24T16:45:10Z</time>
      </trkpt>
      <trkpt lat="49.52617" lon="0.36447">
        <ele>110.800003052</ele>
        <time>2015-01-24T16:45:15Z</time>
      </trkpt>
      <trkpt lat="49.52616" lon="0.36449">
        <ele>110.599998474</ele>
        <time>2015-01-24T16:45:16Z</time>
      </trkpt>
      <trkpt lat="49.52612" lon="0.36461">
        <ele>109.400001526</ele>
        <time>2015-01-24T16:45:23Z</time>
      </trkpt>
      <trkpt lat="49.52611" lon="0.36463">
        <ele>109.199996948</ele>
        <time>2015-01-24T16:45:24Z</time>
      </trkpt>
      <trkpt lat="49.52606" lon="0.36474">
        <ele>107.300003052</ele>
        <time>2015-01-24T16:45:32Z</time>
      </trkpt>
      <trkpt lat="49.52605" lon="0.36476">
        <ele>107</ele>
        <time>2015-01-24T16:45:33Z</time>
      </trkpt>
      <trkpt lat="49.52603" lon="0.36489">
        <ele>105.800003052</ele>
        <time>2015-01-24T16:45:40Z</time>
      </trkpt>
      <trkpt lat="49.52603" lon="0.36491">
        <ele>105.599998474</ele>
        <time>2015-01-24T16:45:41Z</time>
      </trkpt>
      <trkpt lat="49.52599" lon="0.36502">
        <ele>104.900001526</ele>
        <time>2015-01-24T16:45:49Z</time>
      </trkpt>
      <trkpt lat="49.52598" lon="0.36503">
        <ele>104.900001526</ele>
        <time>2015-01-24T16:45:50Z</time>
      </trkpt>
      <trkpt lat="49.5259" lon="0.36508">
        <ele>104.900001526</ele>
        <time>2015-01-24T16:45:59Z</time>
      </trkpt>
      <trkpt lat="49.52589" lon="0.36508">
        <ele>105.199996948</ele>
        <time>2015-01-24T16:46:00Z</time>
      </trkpt>
      <trkpt lat="49.52581" lon="0.3651">
        <ele>106.300003052</ele>
        <time>2015-01-24T16:46:05Z</time>
      </trkpt>
      <trkpt lat="49.52579" lon="0.36512">
        <ele>106.400001526</ele>
        <time>2015-01-24T16:46:06Z</time>
      </trkpt>
      <trkpt lat="49.52572" lon="0.36521">
        <ele>108</ele>
        <time>2015-01-24T16:46:10Z</time>
      </trkpt>
      <trkpt lat="49.52571" lon="0.36522">
        <ele>108.400001526</ele>
        <time>2015-01-24T16:46:11Z</time>
      </trkpt>
      <trkpt lat="49.52563" lon="0.36521">
        <ele>109.599998474</ele>
        <time>2015-01-24T16:46:18Z</time>
      </trkpt>
      <trkpt lat="49.52562" lon="0.36521">
        <ele>109.599998474</ele>
        <time>2015-01-24T16:46:19Z</time>
      </trkpt>
      <trkpt lat="49.52554" lon="0.3652">
        <ele>109.400001526</ele>
        <time>2015-01-24T16:46:27Z</time>
      </trkpt>
      <trkpt lat="49.52553" lon="0.36519">
        <ele>109.5</ele>
        <time>2015-01-24T16:46:28Z</time>
      </trkpt>
      <trkpt lat="49.52545" lon="0.36525">
        <ele>108.300003052</ele>
        <time>2015-01-24T16:46:40Z</time>
      </trkpt>
      <trkpt lat="49.52544" lon="0.36526">
        <ele>108.199996948</ele>
        <time>2015-01-24T16:46:41Z</time>
      </trkpt>
      <trkpt lat="49.52541" lon="0.36538">
        <ele>107.800003052</ele>
        <time>2015-01-24T16:46:56Z</time>
      </trkpt>
      <trkpt lat="49.5254" lon="0.3654">
        <ele>107.699996948</ele>
        <time>2015-01-24T16:46:57Z</time>
      </trkpt>
      <trkpt lat="49.52537" lon="0.36552">
        <ele>107.699996948</ele>
        <time>2015-01-24T16:47:07Z</time>
      </trkpt>
      <trkpt lat="49.52536" lon="0.36554">
        <ele>107.900001526</ele>
        <time>2015-01-24T16:47:08Z</time>
      </trkpt>
      <trkpt lat="49.5253" lon="0.36562">
        <ele>108.599998474</ele>
        <time>2015-01-24T16:47:13Z</time>
      </trkpt>
      <trkpt lat="49.52529" lon="0.36564">
        <ele>108.800003052</ele>
        <time>2015-01-24T16:47:14Z</time>
      </trkpt>
      <trkpt lat="49.52525" lon="0.36575">
        <ele>110.199996948</ele>
        <time>2015-01-24T16:52:52Z</time>
      </trkpt>
    </trkseg>
  </trk>
</gpx>